Wetterdaten: Dienstag, 24.10.2017
Datum Zeit Temp. A. Temp. A. max Feuchte A. Luftdruck Regen Wind Richtung Richtung Sonnenschein ET UV Solar Taupunkt Windchill Windböen
24.10.2017 00:00 5,0 °C 5,0 °C 92 % 1025,6 hPa 0,0 mm 2,1 km/h (1 Bft) SW 228 ° 0 min 0,000 mm 0,0 UV-I 0 W/m² 3,8 °C 5,0 °C 4,8 km/h (1 Bft)
24.10.2017 00:01 4,9 °C 5,0 °C 92 % 1025,6 hPa 0,0 mm 3,6 km/h (1 Bft) SW 227 ° 0 min 0,000 mm 0,0 UV-I 0 W/m² 3,7 °C 4,9 °C 6,4 km/h (2 Bft)
24.10.2017 00:02 4,9 °C 5,0 °C 92 % 1025,6 hPa 0,0 mm 2,2 km/h (1 Bft) SW 227 ° 0 min 0,000 mm 0,0 UV-I 0 W/m² 3,7 °C 4,9 °C 4,8 km/h (1 Bft)
24.10.2017 00:03 4,9 °C 5,0 °C 92 % 1025,6 hPa 0,0 mm 1,3 km/h (1 Bft) SW 227 ° 0 min 0,000 mm 0,0 UV-I 0 W/m² 3,7 °C 4,9 °C 3,2 km/h (1 Bft)
24.10.2017 00:04 5,0 °C 5,0 °C 92 % 1025,6 hPa 0,0 mm 2,3 km/h (1 Bft) W-SW 238 ° 0 min 0,000 mm 0,0 UV-I 0 W/m² 3,8 °C 5,0 °C 3,2 km/h (1 Bft)
24.10.2017 00:05 4,9 °C 5,0 °C 92 % 1025,6 hPa 0,0 mm 2,1 km/h (1 Bft) W-SW 238 ° 0 min 0,000 mm 0,0 UV-I 0 W/m² 3,7 °C 4,9 °C 3,2 km/h (1 Bft)
24.10.2017 00:06 5,0 °C 5,0 °C 92 % 1025,6 hPa 0,0 mm 1,3 km/h (1 Bft) W-SW 237 ° 0 min 0,000 mm 0,0 UV-I 0 W/m² 3,8 °C 5,0 °C 3,2 km/h (1 Bft)
24.10.2017 00:07 4,9 °C 5,0 °C 92 % 1025,6 hPa 0,0 mm 3,6 km/h (1 Bft) W 259 ° 0 min 0,000 mm 0,0 UV-I 0 W/m² 3,7 °C 4,9 °C 4,8 km/h (1 Bft)
24.10.2017 00:08 5,0 °C 5,0 °C 92 % 1025,6 hPa 0,0 mm 3,2 km/h (1 Bft) W 259 ° 0 min 0,000 mm 0,0 UV-I 0 W/m² 3,8 °C 5,0 °C 4,8 km/h (1 Bft)
24.10.2017 00:09 4,9 °C 5,0 °C 92 % 1025,6 hPa 0,0 mm 3,4 km/h (1 Bft) SW 236 ° 0 min 0,000 mm 0,0 UV-I 0 W/m² 3,7 °C 4,9 °C 4,8 km/h (1 Bft)
24.10.2017 00:10 4,9 °C 5,0 °C 92 % 1025,6 hPa 0,2 mm 3,6 km/h (1 Bft) W 268 ° 0 min 0,000 mm 0,0 UV-I 0 W/m² 3,7 °C 4,9 °C 4,8 km/h (1 Bft)
24.10.2017 00:11 4,9 °C 4,9 °C 92 % 1025,6 hPa 0,0 mm 3,6 km/h (1 Bft) W 265 ° 0 min 0,000 mm 0,0 UV-I 0 W/m² 3,7 °C 4,9 °C 4,8 km/h (1 Bft)
24.10.2017 00:12 4,9 °C 4,9 °C 92 % 1025,6 hPa 0,0 mm 4,2 km/h (1 Bft) W 266 ° 0 min 0,000 mm 0,0 UV-I 0 W/m² 3,7 °C 4,9 °C 6,4 km/h (2 Bft)
24.10.2017 00:13 4,9 °C 4,9 °C 93 % 1025,7 hPa 0,0 mm 2,0 km/h (1 Bft) W 266 ° 0 min 0,000 mm 0,0 UV-I 0 W/m² 3,9 °C 4,9 °C 3,2 km/h (1 Bft)
24.10.2017 00:14 4,9 °C 4,9 °C 93 % 1025,6 hPa 0,0 mm 2,5 km/h (1 Bft) W-SW 244 ° 0 min 0,000 mm 0,0 UV-I 0 W/m² 3,9 °C 4,9 °C 6,4 km/h (2 Bft)
24.10.2017 00:15 4,9 °C 4,9 °C 93 % 1025,6 hPa 0,0 mm 2,6 km/h (1 Bft) W-SW 244 ° 0 min 0,000 mm 0,0 UV-I 0 W/m² 3,9 °C 4,9 °C 4,8 km/h (1 Bft)
24.10.2017 00:16 4,9 °C 4,9 °C 93 % 1025,6 hPa 0,0 mm 2,0 km/h (1 Bft) W-SW 244 ° 0 min 0,000 mm 0,0 UV-I 0 W/m² 3,9 °C 4,9 °C 4,8 km/h (1 Bft)
24.10.2017 00:17 4,9 °C 4,9 °C 92 % 1025,6 hPa 0,0 mm 3,0 km/h (1 Bft) W 267 ° 0 min 0,000 mm 0,0 UV-I 0 W/m² 3,7 °C 4,9 °C 4,8 km/h (1 Bft)
24.10.2017 00:18 4,9 °C 4,9 °C 92 % 1025,6 hPa 0,0 mm 3,3 km/h (1 Bft) W 267 ° 0 min 0,000 mm 0,0 UV-I 0 W/m² 3,7 °C 4,9 °C 4,8 km/h (1 Bft)
24.10.2017 00:19 4,9 °C 4,9 °C 92 % 1025,6 hPa 0,0 mm 2,7 km/h (1 Bft) W 267 ° 0 min 0,000 mm 0,0 UV-I 0 W/m² 3,7 °C 4,9 °C 3,2 km/h (1 Bft)
24.10.2017 00:20 4,9 °C 4,9 °C 92 % 1025,6 hPa 0,0 mm 1,7 km/h (1 Bft) W 267 ° 0 min 0,000 mm 0,0 UV-I 0 W/m² 3,7 °C 4,9 °C 3,2 km/h (1 Bft)
24.10.2017 00:21 4,9 °C 4,9 °C 92 % 1025,6 hPa 0,0 mm 1,1 km/h (1 Bft) W 267 ° 0 min 0,000 mm 0,0 UV-I 0 W/m² 3,7 °C 4,9 °C 3,2 km/h (1 Bft)
24.10.2017 00:22 4,9 °C 4,9 °C 93 % 1025,7 hPa 0,0 mm 2,3 km/h (1 Bft) W 265 ° 0 min 0,000 mm 0,0 UV-I 0 W/m² 3,9 °C 4,9 °C 4,8 km/h (1 Bft)
24.10.2017 00:23 4,9 °C 4,9 °C 93 % 1025,6 hPa 0,0 mm 2,6 km/h (1 Bft) W-SW 243 ° 0 min 0,000 mm 0,0 UV-I 0 W/m² 3,9 °C 4,9 °C 6,4 km/h (2 Bft)
24.10.2017 00:24 4,9 °C 4,9 °C 93 % 1025,6 hPa 0,0 mm 4,5 km/h (1 Bft) SW 225 ° 0 min 0,000 mm 0,0 UV-I 0 W/m² 3,9 °C 4,9 °C 8,0 km/h (2 Bft)
24.10.2017 00:25 4,9 °C 4,9 °C 93 % 1025,6 hPa 0,0 mm 3,4 km/h (1 Bft) SW 225 ° 0 min 0,000 mm 0,0 UV-I 0 W/m² 3,9 °C 4,9 °C 4,8 km/h (1 Bft)
24.10.2017 00:26 4,9 °C 4,9 °C 93 % 1025,6 hPa 0,0 mm 3,5 km/h (1 Bft) SW 221 ° 0 min 0,000 mm 0,0 UV-I 0 W/m² 3,9 °C 4,9 °C 6,4 km/h (2 Bft)
24.10.2017 00:27 4,9 °C 4,9 °C 93 % 1025,6 hPa 0,0 mm 4,6 km/h (1 Bft) S-SW 194 ° 0 min 0,000 mm 0,0 UV-I 0 W/m² 3,9 °C 4,1 °C 8,0 km/h (2 Bft)
24.10.2017 00:28 4,9 °C 4,9 °C 93 % 1025,5 hPa 0,0 mm 2,7 km/h (1 Bft) SW 223 ° 0 min 0,000 mm 0,0 UV-I 0 W/m² 3,9 °C 4,9 °C 4,8 km/h (1 Bft)
24.10.2017 00:29 4,9 °C 4,9 °C 93 % 1025,5 hPa 0,0 mm 3,4 km/h (1 Bft) S-SW 204 ° 0 min 0,000 mm 0,0 UV-I 0 W/m² 3,9 °C 4,9 °C 6,4 km/h (2 Bft)
24.10.2017 00:30 4,9 °C 4,9 °C 93 % 1025,6 hPa 0,0 mm 2,9 km/h (1 Bft) S-SW 200 ° 0 min 0,000 mm 0,0 UV-I 0 W/m² 3,9 °C 4,9 °C 4,8 km/h (1 Bft)
24.10.2017 00:31 4,9 °C 4,9 °C 93 % 1025,6 hPa 0,0 mm 3,7 km/h (1 Bft) W 271 ° 0 min 0,000 mm 0,0 UV-I 0 W/m² 3,9 °C 4,9 °C 4,8 km/h (1 Bft)
24.10.2017 00:32 4,9 °C 4,9 °C 93 % 1025,6 hPa 0,0 mm 2,6 km/h (1 Bft) W 270 ° 0 min 0,000 mm 0,0 UV-I 0 W/m² 3,9 °C 4,9 °C 6,4 km/h (2 Bft)
24.10.2017 00:33 4,9 °C 4,9 °C 93 % 1025,6 hPa 0,0 mm 2,4 km/h (1 Bft) S 189 ° 0 min 0,000 mm 0,0 UV-I 0 W/m² 3,9 °C 4,9 °C 4,8 km/h (1 Bft)
24.10.2017 00:34 4,9 °C 4,9 °C 92 % 1025,6 hPa 0,0 mm 3,1 km/h (1 Bft) SW 221 ° 0 min 0,000 mm 0,0 UV-I 0 W/m² 3,7 °C 4,9 °C 6,4 km/h (2 Bft)
24.10.2017 00:35 4,9 °C 4,9 °C 92 % 1025,6 hPa 0,0 mm 4,2 km/h (1 Bft) SW 227 ° 0 min 0,000 mm 0,0 UV-I 0 W/m² 3,7 °C 4,9 °C 6,4 km/h (2 Bft)
24.10.2017 00:36 4,9 °C 4,9 °C 92 % 1025,6 hPa 0,0 mm 4,5 km/h (1 Bft) W 269 ° 0 min 0,000 mm 0,0 UV-I 0 W/m² 3,7 °C 4,9 °C 6,4 km/h (2 Bft)
24.10.2017 00:37 4,9 °C 4,9 °C 92 % 1025,6 hPa 0,0 mm 2,2 km/h (1 Bft) W-SW 239 ° 0 min 0,000 mm 0,0 UV-I 0 W/m² 3,7 °C 4,9 °C 4,8 km/h (1 Bft)
24.10.2017 00:38 4,9 °C 4,9 °C 93 % 1025,6 hPa 0,0 mm 5,3 km/h (1 Bft) W 261 ° 0 min 0,000 mm 0,0 UV-I 0 W/m² 3,9 °C 3,9 °C 6,4 km/h (2 Bft)
24.10.2017 00:39 4,9 °C 4,9 °C 93 % 1025,6 hPa 0,0 mm 3,2 km/h (1 Bft) W-SW 258 ° 0 min 0,000 mm 0,0 UV-I 0 W/m² 3,9 °C 4,9 °C 6,4 km/h (2 Bft)
24.10.2017 00:40 4,9 °C 4,9 °C 93 % 1025,5 hPa 0,0 mm 3,4 km/h (1 Bft) S-SW 206 ° 0 min 0,000 mm 0,0 UV-I 0 W/m² 3,9 °C 4,9 °C 8,0 km/h (2 Bft)
24.10.2017 00:41 4,9 °C 4,9 °C 92 % 1025,5 hPa 0,0 mm 4,6 km/h (1 Bft) S-SW 200 ° 0 min 0,000 mm 0,0 UV-I 0 W/m² 3,7 °C 4,1 °C 11,3 km/h (2 Bft)
24.10.2017 00:42 4,9 °C 4,9 °C 92 % 1025,5 hPa 0,2 mm 8,1 km/h (2 Bft) S-SW 211 ° 0 min 0,000 mm 0,0 UV-I 0 W/m² 3,7 °C 3,0 °C 11,3 km/h (2 Bft)
24.10.2017 00:43 4,9 °C 4,9 °C 92 % 1025,5 hPa 0,0 mm 7,5 km/h (2 Bft) S-SW 213 ° 0 min 0,000 mm 0,0 UV-I 0 W/m² 3,7 °C 3,2 °C 12,9 km/h (3 Bft)
24.10.2017 00:44 4,9 °C 4,9 °C 92 % 1025,5 hPa 0,0 mm 5,1 km/h (1 Bft) SW 230 ° 0 min 0,000 mm 0,0 UV-I 0 W/m² 3,7 °C 3,9 °C 8,0 km/h (2 Bft)
24.10.2017 00:45 4,9 °C 4,9 °C 92 % 1025,4 hPa 0,0 mm 6,9 km/h (2 Bft) S 191 ° 0 min 0,000 mm 0,0 UV-I 0 W/m² 3,7 °C 3,3 °C 16,1 km/h (3 Bft)
24.10.2017 00:46 4,9 °C 4,9 °C 92 % 1025,5 hPa 0,0 mm 8,4 km/h (2 Bft) SW 221 ° 0 min 0,000 mm 0,0 UV-I 0 W/m² 3,7 °C 2,9 °C 12,9 km/h (3 Bft)
24.10.2017 00:47 4,9 °C 4,9 °C 92 % 1025,5 hPa 0,0 mm 5,9 km/h (2 Bft) S-SW 201 ° 0 min 0,000 mm 0,0 UV-I 0 W/m² 3,7 °C 3,6 °C 14,5 km/h (3 Bft)
24.10.2017 00:48 4,9 °C 4,9 °C 92 % 1025,5 hPa 0,0 mm 8,2 km/h (2 Bft) W 263 ° 0 min 0,000 mm 0,0 UV-I 0 W/m² 3,7 °C 3,0 °C 14,5 km/h (3 Bft)
24.10.2017 00:49 4,9 °C 4,9 °C 92 % 1025,5 hPa 0,0 mm 4,5 km/h (1 Bft) W-SW 243 ° 0 min 0,000 mm 0,0 UV-I 0 W/m² 3,7 °C 4,9 °C 8,0 km/h (2 Bft)
24.10.2017 00:50 4,9 °C 4,9 °C 92 % 1025,5 hPa 0,0 mm 7,2 km/h (2 Bft) W 266 ° 0 min 0,000 mm 0,0 UV-I 0 W/m² 3,7 °C 3,2 °C 14,5 km/h (3 Bft)
24.10.2017 00:51 4,9 °C 4,9 °C 92 % 1025,5 hPa 0,0 mm 6,7 km/h (2 Bft) S-SW 213 ° 0 min 0,000 mm 0,0 UV-I 0 W/m² 3,7 °C 3,4 °C 12,9 km/h (3 Bft)
24.10.2017 00:52 4,9 °C 4,9 °C 92 % 1025,5 hPa 0,0 mm 5,5 km/h (1 Bft) S-SW 208 ° 0 min 0,000 mm 0,0 UV-I 0 W/m² 3,7 °C 3,8 °C 8,0 km/h (2 Bft)
24.10.2017 00:53 4,9 °C 4,9 °C 92 % 1025,4 hPa 0,0 mm 5,9 km/h (2 Bft) S 188 ° 0 min 0,000 mm 0,0 UV-I 0 W/m² 3,7 °C 3,6 °C 12,9 km/h (3 Bft)
24.10.2017 00:54 4,9 °C 4,9 °C 92 % 1025,4 hPa 0,0 mm 5,5 km/h (1 Bft) SW 214 ° 0 min 0,000 mm 0,0 UV-I 0 W/m² 3,7 °C 3,8 °C 8,0 km/h (2 Bft)
24.10.2017 00:55 4,9 °C 4,9 °C 92 % 1025,5 hPa 0,0 mm 7,4 km/h (2 Bft) S 182 ° 0 min 0,000 mm 0,0 UV-I 0 W/m² 3,7 °C 3,2 °C 14,5 km/h (3 Bft)
24.10.2017 00:56 4,9 °C 4,9 °C 92 % 1025,5 hPa 0,0 mm 10,7 km/h (2 Bft) W 265 ° 0 min 0,000 mm 0,0 UV-I 0 W/m² 3,7 °C 2,4 °C 19,3 km/h (3 Bft)
24.10.2017 00:57 4,9 °C 4,9 °C 91 % 1025,5 hPa 0,0 mm 7,6 km/h (2 Bft) S-SW 209 ° 0 min 0,000 mm 0,0 UV-I 0 W/m² 3,6 °C 3,1 °C 16,1 km/h (3 Bft)
24.10.2017 00:58 4,9 °C 4,9 °C 91 % 1025,5 hPa 0,0 mm 7,8 km/h (2 Bft) W-SW 257 ° 0 min 0,000 mm 0,0 UV-I 0 W/m² 3,6 °C 3,1 °C 17,7 km/h (3 Bft)
24.10.2017 00:59 4,9 °C 4,9 °C 91 % 1025,5 hPa 0,0 mm 4,8 km/h (1 Bft) SW 236 ° 0 min 0,000 mm 0,0 UV-I 0 W/m² 3,6 °C 4,0 °C 11,3 km/h (2 Bft)
24.10.2017 01:00 4,9 °C 4,9 °C 91 % 1025,5 hPa 0,0 mm 5,2 km/h (1 Bft) W-SW 238 ° 0 min 0,000 mm 0,0 UV-I 0 W/m² 3,6 °C 3,9 °C 8,0 km/h (2 Bft)
24.10.2017 01:01 4,9 °C 4,9 °C 91 % 1025,6 hPa 0,0 mm 8,0 km/h (2 Bft) S-SW 213 ° 0 min 0,000 mm 0,0 UV-I 0 W/m² 3,6 °C 3,0 °C 12,9 km/h (3 Bft)
24.10.2017 01:02 4,9 °C 4,9 °C 91 % 1025,6 hPa 0,0 mm 3,4 km/h (1 Bft) S 187 ° 0 min 0,000 mm 0,0 UV-I 0 W/m² 3,6 °C 4,9 °C 6,4 km/h (2 Bft)
24.10.2017 01:03 4,9 °C 4,9 °C 91 % 1025,5 hPa 0,0 mm 4,9 km/h (1 Bft) W-SW 248 ° 0 min 0,000 mm 0,0 UV-I 0 W/m² 3,6 °C 4,0 °C 6,4 km/h (2 Bft)
24.10.2017 01:04 4,9 °C 4,9 °C 91 % 1025,5 hPa 0,0 mm 4,9 km/h (1 Bft) S-SW 207 ° 0 min 0,000 mm 0,0 UV-I 0 W/m² 3,6 °C 4,0 °C 9,7 km/h (2 Bft)
24.10.2017 01:05 4,9 °C 4,9 °C 91 % 1025,5 hPa 0,0 mm 4,0 km/h (1 Bft) W-SW 242 ° 0 min 0,000 mm 0,0 UV-I 0 W/m² 3,6 °C 4,9 °C 8,0 km/h (2 Bft)
24.10.2017 01:06 4,9 °C 4,9 °C 91 % 1025,5 hPa 0,0 mm 4,0 km/h (1 Bft) W-SW 245 ° 0 min 0,000 mm 0,0 UV-I 0 W/m² 3,6 °C 4,9 °C 6,4 km/h (2 Bft)
24.10.2017 01:07 4,9 °C 4,9 °C 91 % 1025,5 hPa 0,0 mm 2,0 km/h (1 Bft) SW 232 ° 0 min 0,000 mm 0,0 UV-I 0 W/m² 3,6 °C 4,9 °C 4,8 km/h (1 Bft)
24.10.2017 01:08 4,9 °C 4,9 °C 91 % 1025,5 hPa 0,0 mm 3,8 km/h (1 Bft) W-SW 258 ° 0 min 0,000 mm 0,0 UV-I 0 W/m² 3,6 °C 4,9 °C 9,7 km/h (2 Bft)
24.10.2017 01:09 4,9 °C 4,9 °C 91 % 1025,6 hPa 0,0 mm 8,4 km/h (2 Bft) W-SW 250 ° 0 min 0,000 mm 0,0 UV-I 0 W/m² 3,6 °C 2,9 °C 14,5 km/h (3 Bft)
24.10.2017 01:10 4,9 °C 4,9 °C 91 % 1025,5 hPa 0,0 mm 7,0 km/h (2 Bft) S 182 ° 0 min 0,000 mm 0,0 UV-I 0 W/m² 3,6 °C 3,3 °C 11,3 km/h (2 Bft)
24.10.2017 01:11 4,9 °C 4,9 °C 91 % 1025,6 hPa 0,0 mm 6,8 km/h (2 Bft) W-SW 255 ° 0 min 0,000 mm 0,0 UV-I 0 W/m² 3,6 °C 3,4 °C 11,3 km/h (2 Bft)
24.10.2017 01:12 4,9 °C 4,9 °C 91 % 1025,6 hPa 0,0 mm 7,2 km/h (2 Bft) W-SW 238 ° 0 min 0,000 mm 0,0 UV-I 0 W/m² 3,6 °C 3,2 °C 12,9 km/h (3 Bft)
24.10.2017 01:13 4,9 °C 4,9 °C 91 % 1025,6 hPa 0,0 mm 8,9 km/h (2 Bft) S-SW 207 ° 0 min 0,000 mm 0,0 UV-I 0 W/m² 3,6 °C 2,8 °C 12,9 km/h (3 Bft)
24.10.2017 01:14 4,9 °C 5,0 °C 91 % 1025,6 hPa 0,0 mm 6,2 km/h (2 Bft) W-SW 252 ° 0 min 0,000 mm 0,0 UV-I 0 W/m² 3,6 °C 3,5 °C 12,9 km/h (3 Bft)
24.10.2017 01:15 5,0 °C 5,0 °C 90 % 1025,6 hPa 0,0 mm 5,4 km/h (1 Bft) S-SW 213 ° 0 min 0,000 mm 0,0 UV-I 0 W/m² 3,5 °C 3,9 °C 11,3 km/h (2 Bft)
24.10.2017 01:16 5,0 °C 5,0 °C 90 % 1025,6 hPa 0,0 mm 6,1 km/h (2 Bft) W-SW 248 ° 0 min 0,000 mm 0,0 UV-I 0 W/m² 3,5 °C 3,7 °C 11,3 km/h (2 Bft)
24.10.2017 01:17 5,0 °C 5,0 °C 90 % 1025,6 hPa 0,0 mm 5,5 km/h (1 Bft) S 175 ° 0 min 0,000 mm 0,0 UV-I 0 W/m² 3,5 °C 3,9 °C 9,7 km/h (2 Bft)
24.10.2017 01:18 5,0 °C 5,1 °C 90 % 1025,6 hPa 0,0 mm 6,4 km/h (2 Bft) SW 235 ° 0 min 0,000 mm 0,0 UV-I 0 W/m² 3,5 °C 3,6 °C 12,9 km/h (3 Bft)
24.10.2017 01:19 5,0 °C 5,1 °C 90 % 1025,6 hPa 0,0 mm 7,6 km/h (2 Bft) W-SW 248 ° 0 min 0,000 mm 0,0 UV-I 0 W/m² 3,5 °C 3,2 °C 14,5 km/h (3 Bft)
24.10.2017 01:20 5,0 °C 5,1 °C 90 % 1025,5 hPa 0,0 mm 5,4 km/h (1 Bft) S 181 ° 0 min 0,000 mm 0,0 UV-I 0 W/m² 3,5 °C 3,9 °C 11,3 km/h (2 Bft)
24.10.2017 01:21 5,1 °C 5,1 °C 90 % 1025,5 hPa 0,0 mm 6,8 km/h (2 Bft) S-SW 209 ° 0 min 0,000 mm 0,0 UV-I 0 W/m² 3,6 °C 3,6 °C 14,5 km/h (3 Bft)
24.10.2017 01:22 5,0 °C 5,1 °C 90 % 1025,5 hPa 0,0 mm 8,6 km/h (2 Bft) S-SW 207 ° 0 min 0,000 mm 0,0 UV-I 0 W/m² 3,5 °C 3,0 °C 12,9 km/h (3 Bft)
24.10.2017 01:23 5,0 °C 5,1 °C 90 % 1025,6 hPa 0,0 mm 6,8 km/h (2 Bft) S-SW 205 ° 0 min 0,000 mm 0,0 UV-I 0 W/m² 3,5 °C 3,5 °C 11,3 km/h (2 Bft)
24.10.2017 01:24 5,1 °C 5,1 °C 89 % 1025,6 hPa 0,0 mm 6,6 km/h (2 Bft) SW 220 ° 0 min 0,000 mm 0,0 UV-I 0 W/m² 3,4 °C 3,6 °C 11,3 km/h (2 Bft)
24.10.2017 01:25 5,0 °C 5,1 °C 89 % 1025,6 hPa 0,0 mm 6,1 km/h (2 Bft) S 178 ° 0 min 0,000 mm 0,0 UV-I 0 W/m² 3,3 °C 3,7 °C 8,0 km/h (2 Bft)
24.10.2017 01:26 5,1 °C 5,1 °C 89 % 1025,6 hPa 0,0 mm 6,6 km/h (2 Bft) S-SW 202 ° 0 min 0,000 mm 0,0 UV-I 0 W/m² 3,4 °C 3,6 °C 9,7 km/h (2 Bft)
24.10.2017 01:27 5,1 °C 5,1 °C 89 % 1025,6 hPa 0,0 mm 6,2 km/h (2 Bft) S 186 ° 0 min 0,000 mm 0,0 UV-I 0 W/m² 3,4 °C 3,8 °C 9,7 km/h (2 Bft)
24.10.2017 01:28 5,1 °C 5,1 °C 89 % 1025,6 hPa 0,0 mm 7,4 km/h (2 Bft) S-SW 203 ° 0 min 0,000 mm 0,0 UV-I 0 W/m² 3,4 °C 3,4 °C 9,7 km/h (2 Bft)
24.10.2017 01:29 5,1 °C 5,1 °C 89 % 1025,6 hPa 0,0 mm 6,8 km/h (2 Bft) S-SW 206 ° 0 min 0,000 mm 0,0 UV-I 0 W/m² 3,4 °C 3,6 °C 12,9 km/h (3 Bft)
24.10.2017 01:30 5,1 °C 5,1 °C 88 % 1025,6 hPa 0,0 mm 5,8 km/h (2 Bft) S-SW 207 ° 0 min 0,000 mm 0,0 UV-I 0 W/m² 3,3 °C 3,9 °C 9,7 km/h (2 Bft)
24.10.2017 01:31 5,1 °C 5,1 °C 88 % 1025,7 hPa 0,0 mm 3,9 km/h (1 Bft) SW 226 ° 0 min 0,000 mm 0,0 UV-I 0 W/m² 3,3 °C 5,1 °C 6,4 km/h (2 Bft)
24.10.2017 01:32 5,1 °C 5,1 °C 88 % 1025,6 hPa 0,0 mm 3,8 km/h (1 Bft) S-SW 197 ° 0 min 0,000 mm 0,0 UV-I 0 W/m² 3,3 °C 5,1 °C 9,7 km/h (2 Bft)
24.10.2017 01:33 5,1 °C 5,1 °C 88 % 1025,6 hPa 0,0 mm 6,6 km/h (2 Bft) W-SW 258 ° 0 min 0,000 mm 0,0 UV-I 0 W/m² 3,3 °C 3,6 °C 9,7 km/h (2 Bft)
24.10.2017 01:34 5,1 °C 5,1 °C 88 % 1025,6 hPa 0,0 mm 3,4 km/h (1 Bft) SW 215 ° 0 min 0,000 mm 0,0 UV-I 0 W/m² 3,3 °C 5,1 °C 4,8 km/h (1 Bft)
24.10.2017 01:35 5,0 °C 5,1 °C 89 % 1025,6 hPa 0,0 mm 4,3 km/h (1 Bft) SW 219 ° 0 min 0,000 mm 0,0 UV-I 0 W/m² 3,3 °C 5,0 °C 6,4 km/h (2 Bft)
24.10.2017 01:36 5,0 °C 5,0 °C 88 % 1025,7 hPa 0,0 mm 2,7 km/h (1 Bft) S-SW 201 ° 0 min 0,000 mm 0,0 UV-I 0 W/m² 3,2 °C 5,0 °C 6,4 km/h (2 Bft)
24.10.2017 01:37 5,0 °C 5,0 °C 88 % 1025,6 hPa 0,0 mm 5,1 km/h (1 Bft) S-SW 200 ° 0 min 0,000 mm 0,0 UV-I 0 W/m² 3,2 °C 4,0 °C 9,7 km/h (2 Bft)
24.10.2017 01:38 5,0 °C 5,0 °C 88 % 1025,7 hPa 0,0 mm 5,3 km/h (1 Bft) S-SW 204 ° 0 min 0,000 mm 0,0 UV-I 0 W/m² 3,2 °C 4,0 °C 9,7 km/h (2 Bft)
24.10.2017 01:39 4,9 °C 5,0 °C 88 % 1025,7 hPa 0,0 mm 5,0 km/h (1 Bft) W-SW 237 ° 0 min 0,000 mm 0,0 UV-I 0 W/m² 3,1 °C 4,0 °C 8,0 km/h (2 Bft)
24.10.2017 01:40 4,9 °C 5,0 °C 89 % 1025,7 hPa 0,0 mm 1,6 km/h (1 Bft) S-SW 203 ° 0 min 0,000 mm 0,0 UV-I 0 W/m² 3,2 °C 4,9 °C 4,8 km/h (1 Bft)
24.10.2017 01:41 4,9 °C 5,0 °C 89 % 1025,7 hPa 0,0 mm 6,8 km/h (2 Bft) SW 221 ° 0 min 0,000 mm 0,0 UV-I 0 W/m² 3,2 °C 3,4 °C 11,3 km/h (2 Bft)
24.10.2017 01:42 4,9 °C 4,9 °C 88 % 1025,7 hPa 0,0 mm 5,2 km/h (1 Bft) W 268 ° 0 min 0,000 mm 0,0 UV-I 0 W/m² 3,1 °C 3,9 °C 9,7 km/h (2 Bft)
24.10.2017 01:43 4,9 °C 4,9 °C 89 % 1025,7 hPa 0,0 mm 4,2 km/h (1 Bft) W-SW 250 ° 0 min 0,000 mm 0,0 UV-I 0 W/m² 3,2 °C 4,9 °C 8,0 km/h (2 Bft)
24.10.2017 01:44 4,9 °C 4,9 °C 89 % 1025,8 hPa 0,0 mm 3,3 km/h (1 Bft) W-SW 258 ° 0 min 0,000 mm 0,0 UV-I 0 W/m² 3,2 °C 4,9 °C 4,8 km/h (1 Bft)
24.10.2017 01:45 4,9 °C 5,0 °C 88 % 1025,8 hPa 0,0 mm 4,3 km/h (1 Bft) W-SW 254 ° 0 min 0,000 mm 0,0 UV-I 0 W/m² 3,1 °C 4,9 °C 11,3 km/h (2 Bft)
24.10.2017 01:46 4,9 °C 4,9 °C 89 % 1025,7 hPa 0,0 mm 3,2 km/h (1 Bft) SW 232 ° 0 min 0,000 mm 0,0 UV-I 0 W/m² 3,2 °C 4,9 °C 4,8 km/h (1 Bft)
24.10.2017 01:47 4,9 °C 4,9 °C 89 % 1025,8 hPa 0,0 mm 3,9 km/h (1 Bft) SW 224 ° 0 min 0,000 mm 0,0 UV-I 0 W/m² 3,2 °C 4,9 °C 9,7 km/h (2 Bft)
24.10.2017 01:48 4,9 °C 5,0 °C 89 % 1025,8 hPa 0,0 mm 4,9 km/h (1 Bft) W 263 ° 0 min 0,000 mm 0,0 UV-I 0 W/m² 3,2 °C 4,0 °C 11,3 km/h (2 Bft)
24.10.2017 01:49 4,9 °C 5,0 °C 89 % 1025,8 hPa 0,0 mm 3,5 km/h (1 Bft) SW 230 ° 0 min 0,000 mm 0,0 UV-I 0 W/m² 3,2 °C 4,9 °C 6,4 km/h (2 Bft)
24.10.2017 01:50 4,9 °C 5,0 °C 89 % 1025,8 hPa 0,0 mm 2,6 km/h (1 Bft) SW 217 ° 0 min 0,000 mm 0,0 UV-I 0 W/m² 3,2 °C 4,9 °C 6,4 km/h (2 Bft)
24.10.2017 01:51 4,9 °C 5,0 °C 89 % 1025,8 hPa 0,0 mm 5,2 km/h (1 Bft) W-SW 248 ° 0 min 0,000 mm 0,0 UV-I 0 W/m² 3,2 °C 3,9 °C 9,7 km/h (2 Bft)
24.10.2017 01:52 4,9 °C 5,0 °C 89 % 1025,8 hPa 0,0 mm 1,9 km/h (1 Bft) W-SW 248 ° 0 min 0,000 mm 0,0 UV-I 0 W/m² 3,2 °C 4,9 °C 3,2 km/h (1 Bft)
24.10.2017 01:53 5,0 °C 5,0 °C 89 % 1025,8 hPa 0,0 mm 2,4 km/h (1 Bft) W-SW 248 ° 0 min 0,000 mm 0,0 UV-I 0 W/m² 3,3 °C 5,0 °C 6,4 km/h (2 Bft)
24.10.2017 01:54 5,0 °C 5,0 °C 89 % 1025,8 hPa 0,0 mm 3,6 km/h (1 Bft) S-SW 212 ° 0 min 0,000 mm 0,0 UV-I 0 W/m² 3,3 °C 5,0 °C 4,8 km/h (1 Bft)
24.10.2017 01:55 5,0 °C 5,0 °C 89 % 1025,8 hPa 0,0 mm 5,4 km/h (1 Bft) SW 220 ° 0 min 0,000 mm 0,0 UV-I 0 W/m² 3,3 °C 3,9 °C 11,3 km/h (2 Bft)
24.10.2017 01:56 5,1 °C 5,1 °C 89 % 1025,8 hPa 0,0 mm 4,7 km/h (1 Bft) SW 222 ° 0 min 0,000 mm 0,0 UV-I 0 W/m² 3,4 °C 4,3 °C 6,4 km/h (2 Bft)
24.10.2017 01:57 5,1 °C 5,1 °C 89 % 1025,9 hPa 0,0 mm 3,8 km/h (1 Bft) S-SW 192 ° 0 min 0,000 mm 0,0 UV-I 0 W/m² 3,4 °C 5,1 °C 4,8 km/h (1 Bft)
24.10.2017 01:58 5,1 °C 5,1 °C 88 % 1025,9 hPa 0,0 mm 5,2 km/h (1 Bft) S-SW 196 ° 0 min 0,000 mm 0,0 UV-I 0 W/m² 3,3 °C 4,1 °C 11,3 km/h (2 Bft)
24.10.2017 01:59 5,1 °C 5,1 °C 88 % 1025,9 hPa 0,0 mm 5,2 km/h (1 Bft) S-SW 207 ° 0 min 0,000 mm 0,0 UV-I 0 W/m² 3,3 °C 4,1 °C 6,4 km/h (2 Bft)
24.10.2017 02:00 5,1 °C 5,1 °C 88 % 1025,8 hPa 0,0 mm 4,9 km/h (1 Bft) SW 220 ° 0 min 0,000 mm 0,0 UV-I 0 W/m² 3,3 °C 4,2 °C 9,7 km/h (2 Bft)
24.10.2017 02:01 5,1 °C 5,1 °C 88 % 1025,8 hPa 0,0 mm 7,4 km/h (2 Bft) SW 223 ° 0 min 0,000 mm 0,0 UV-I 0 W/m² 3,3 °C 3,4 °C 11,3 km/h (2 Bft)
24.10.2017 02:02 5,1 °C 5,1 °C 88 % 1025,9 hPa 0,0 mm 5,1 km/h (1 Bft) SW 225 ° 0 min 0,000 mm 0,0 UV-I 0 W/m² 3,3 °C 4,2 °C 6,4 km/h (2 Bft)
24.10.2017 02:03 5,1 °C 5,1 °C 88 % 1025,9 hPa 0,0 mm 4,2 km/h (1 Bft) S-SW 210 ° 0 min 0,000 mm 0,0 UV-I 0 W/m² 3,3 °C 5,1 °C 6,4 km/h (2 Bft)
24.10.2017 02:04 5,1 °C 5,1 °C 88 % 1026,0 hPa 0,0 mm 3,1 km/h (1 Bft) S-SW 210 ° 0 min 0,000 mm 0,0 UV-I 0 W/m² 3,3 °C 5,1 °C 6,4 km/h (2 Bft)
24.10.2017 02:05 5,1 °C 5,1 °C 88 % 1025,9 hPa 0,0 mm 6,2 km/h (2 Bft) SW 214 ° 0 min 0,000 mm 0,0 UV-I 0 W/m² 3,3 °C 3,8 °C 8,0 km/h (2 Bft)
24.10.2017 02:06 5,1 °C 5,1 °C 88 % 1025,9 hPa 0,0 mm 8,0 km/h (2 Bft) S-SW 198 ° 0 min 0,000 mm 0,0 UV-I 0 W/m² 3,3 °C 3,3 °C 12,9 km/h (3 Bft)
24.10.2017 02:07 5,0 °C 5,1 °C 88 % 1025,9 hPa 0,0 mm 6,3 km/h (2 Bft) S-SW 197 ° 0 min 0,000 mm 0,0 UV-I 0 W/m² 3,2 °C 3,6 °C 9,7 km/h (2 Bft)
24.10.2017 02:08 5,1 °C 5,1 °C 88 % 1026,0 hPa 0,0 mm 5,2 km/h (1 Bft) W-SW 239 ° 0 min 0,000 mm 0,0 UV-I 0 W/m² 3,3 °C 4,1 °C 9,7 km/h (2 Bft)
24.10.2017 02:09 5,0 °C 5,1 °C 88 % 1026,0 hPa 0,0 mm 3,5 km/h (1 Bft) SW 215 ° 0 min 0,000 mm 0,0 UV-I 0 W/m² 3,2 °C 5,0 °C 4,8 km/h (1 Bft)
24.10.2017 02:10 5,0 °C 5,0 °C 89 % 1026,0 hPa 0,0 mm 4,6 km/h (1 Bft) SW 220 ° 0 min 0,000 mm 0,0 UV-I 0 W/m² 3,3 °C 4,2 °C 6,4 km/h (2 Bft)
24.10.2017 02:11 5,0 °C 5,0 °C 89 % 1026,0 hPa 0,0 mm 4,4 km/h (1 Bft) S-SW 207 ° 0 min 0,000 mm 0,0 UV-I 0 W/m² 3,3 °C 5,0 °C 8,0 km/h (2 Bft)
24.10.2017 02:12 5,0 °C 5,0 °C 89 % 1026,0 hPa 0,0 mm 7,4 km/h (2 Bft) S-SW 196 ° 0 min 0,000 mm 0,0 UV-I 0 W/m² 3,3 °C 3,3 °C 9,7 km/h (2 Bft)
24.10.2017 02:13 5,0 °C 5,0 °C 89 % 1026,0 hPa 0,0 mm 3,2 km/h (1 Bft) W-SW 238 ° 0 min 0,000 mm 0,0 UV-I 0 W/m² 3,3 °C 5,0 °C 4,8 km/h (1 Bft)
24.10.2017 02:14 5,0 °C 5,1 °C 89 % 1026,0 hPa 0,0 mm 2,4 km/h (1 Bft) S-SW 199 ° 0 min 0,000 mm 0,0 UV-I 0 W/m² 3,3 °C 5,0 °C 8,0 km/h (2 Bft)
24.10.2017 02:15 5,1 °C 5,1 °C 89 % 1026,0 hPa 0,0 mm 7,0 km/h (2 Bft) S-SW 200 ° 0 min 0,000 mm 0,0 UV-I 0 W/m² 3,4 °C 3,5 °C 9,7 km/h (2 Bft)
24.10.2017 02:16 5,1 °C 5,1 °C 88 % 1026,0 hPa 0,0 mm 6,6 km/h (2 Bft) S-SW 202 ° 0 min 0,000 mm 0,0 UV-I 0 W/m² 3,3 °C 3,6 °C 9,7 km/h (2 Bft)
24.10.2017 02:17 5,1 °C 5,1 °C 89 % 1026,0 hPa 0,0 mm 5,8 km/h (2 Bft) S-SW 207 ° 0 min 0,000 mm 0,0 UV-I 0 W/m² 3,4 °C 3,9 °C 8,0 km/h (2 Bft)
24.10.2017 02:18 5,1 °C 5,1 °C 89 % 1026,0 hPa 0,0 mm 6,5 km/h (2 Bft) W-SW 240 ° 0 min 0,000 mm 0,0 UV-I 0 W/m² 3,4 °C 3,7 °C 11,3 km/h (2 Bft)
24.10.2017 02:19 5,1 °C 5,1 °C 89 % 1026,0 hPa 0,0 mm 6,5 km/h (2 Bft) SW 233 ° 0 min 0,000 mm 0,0 UV-I 0 W/m² 3,4 °C 3,7 °C 9,7 km/h (2 Bft)
24.10.2017 02:20 5,1 °C 5,1 °C 89 % 1026,0 hPa 0,0 mm 4,9 km/h (1 Bft) SW 228 ° 0 min 0,000 mm 0,0 UV-I 0 W/m² 3,4 °C 4,2 °C 6,4 km/h (2 Bft)
24.10.2017 02:21 5,1 °C 5,1 °C 89 % 1026,0 hPa 0,0 mm 3,7 km/h (1 Bft) W-SW 255 ° 0 min 0,000 mm 0,0 UV-I 0 W/m² 3,4 °C 5,1 °C 4,8 km/h (1 Bft)
24.10.2017 02:22 5,1 °C 5,1 °C 89 % 1026,0 hPa 0,0 mm 3,4 km/h (1 Bft) W-SW 257 ° 0 min 0,000 mm 0,0 UV-I 0 W/m² 3,4 °C 5,1 °C 6,4 km/h (2 Bft)
24.10.2017 02:23 5,1 °C 5,1 °C 89 % 1026,0 hPa 0,0 mm 3,0 km/h (1 Bft) W 274 ° 0 min 0,000 mm 0,0 UV-I 0 W/m² 3,4 °C 5,1 °C 4,8 km/h (1 Bft)
24.10.2017 02:24 5,1 °C 5,2 °C 89 % 1026,0 hPa 0,0 mm 6,0 km/h (2 Bft) SW 227 ° 0 min 0,000 mm 0,0 UV-I 0 W/m² 3,4 °C 3,8 °C 12,9 km/h (3 Bft)
24.10.2017 02:25 5,2 °C 5,2 °C 89 % 1026,0 hPa 0,0 mm 3,2 km/h (1 Bft) SW 221 ° 0 min 0,000 mm 0,0 UV-I 0 W/m² 3,5 °C 5,2 °C 4,8 km/h (1 Bft)
24.10.2017 02:26 5,2 °C 5,2 °C 89 % 1026,0 hPa 0,0 mm 4,9 km/h (1 Bft) SW 216 ° 0 min 0,000 mm 0,0 UV-I 0 W/m² 3,5 °C 4,3 °C 11,3 km/h (2 Bft)
24.10.2017 02:27 5,2 °C 5,2 °C 89 % 1026,0 hPa 0,0 mm 2,9 km/h (1 Bft) SW 232 ° 0 min 0,000 mm 0,0 UV-I 0 W/m² 3,5 °C 5,2 °C 4,8 km/h (1 Bft)
24.10.2017 02:28 5,2 °C 5,2 °C 89 % 1026,0 hPa 0,0 mm 2,5 km/h (1 Bft) W-SW 257 ° 0 min 0,000 mm 0,0 UV-I 0 W/m² 3,5 °C 5,2 °C 4,8 km/h (1 Bft)
24.10.2017 02:29 5,2 °C 5,2 °C 89 % 1026,0 hPa 0,0 mm 3,4 km/h (1 Bft) SW 234 ° 0 min 0,000 mm 0,0 UV-I 0 W/m² 3,5 °C 5,2 °C 8,0 km/h (2 Bft)
24.10.2017 02:30 5,2 °C 5,2 °C 89 % 1026,0 hPa 0,0 mm 3,4 km/h (1 Bft) W 265 ° 0 min 0,000 mm 0,0 UV-I 0 W/m² 3,5 °C 5,2 °C 6,4 km/h (2 Bft)
24.10.2017 02:31 5,2 °C 5,2 °C 89 % 1026,0 hPa 0,0 mm 2,5 km/h (1 Bft) W 265 ° 0 min 0,000 mm 0,0 UV-I 0 W/m² 3,5 °C 5,2 °C 4,8 km/h (1 Bft)
24.10.2017 02:32 5,2 °C 5,2 °C 89 % 1026,0 hPa 0,0 mm 4,3 km/h (1 Bft) W-SW 242 ° 0 min 0,000 mm 0,0 UV-I 0 W/m² 3,5 °C 5,2 °C 6,4 km/h (2 Bft)
24.10.2017 02:33 5,2 °C 5,2 °C 89 % 1026,0 hPa 0,0 mm 6,8 km/h (2 Bft) SW 217 ° 0 min 0,000 mm 0,0 UV-I 0 W/m² 3,5 °C 3,7 °C 12,9 km/h (3 Bft)
24.10.2017 02:34 5,2 °C 5,2 °C 89 % 1026,0 hPa 0,0 mm 6,0 km/h (2 Bft) S-SW 198 ° 0 min 0,000 mm 0,0 UV-I 0 W/m² 3,5 °C 4,0 °C 11,3 km/h (2 Bft)
24.10.2017 02:35 5,2 °C 5,3 °C 89 % 1026,0 hPa 0,0 mm 7,7 km/h (2 Bft) S 181 ° 0 min 0,000 mm 0,0 UV-I 0 W/m² 3,5 °C 3,4 °C 12,9 km/h (3 Bft)
24.10.2017 02:36 5,3 °C 5,3 °C 89 % 1026,0 hPa 0,0 mm 7,0 km/h (2 Bft) W 263 ° 0 min 0,000 mm 0,0 UV-I 0 W/m² 3,6 °C 3,8 °C 9,7 km/h (2 Bft)
24.10.2017 02:37 5,3 °C 5,3 °C 89 % 1025,9 hPa 0,0 mm 9,1 km/h (2 Bft) W-SW 246 ° 0 min 0,000 mm 0,0 UV-I 0 W/m² 3,6 °C 3,2 °C 16,1 km/h (3 Bft)
24.10.2017 02:38 5,3 °C 5,3 °C 89 % 1025,9 hPa 0,0 mm 8,7 km/h (2 Bft) SW 228 ° 0 min 0,000 mm 0,0 UV-I 0 W/m² 3,6 °C 3,3 °C 14,5 km/h (3 Bft)
24.10.2017 02:39 5,3 °C 5,4 °C 89 % 1025,9 hPa 0,0 mm 6,8 km/h (2 Bft) W-SW 250 ° 0 min 0,000 mm 0,0 UV-I 0 W/m² 3,6 °C 3,8 °C 11,3 km/h (2 Bft)
24.10.2017 02:40 5,4 °C 5,4 °C 88 % 1025,9 hPa 0,0 mm 5,6 km/h (1 Bft) SW 234 ° 0 min 0,000 mm 0,0 UV-I 0 W/m² 3,6 °C 4,3 °C 12,9 km/h (3 Bft)
24.10.2017 02:41 5,4 °C 5,4 °C 88 % 1025,9 hPa 0,0 mm 3,2 km/h (1 Bft) S 171 ° 0 min 0,000 mm 0,0 UV-I 0 W/m² 3,6 °C 5,4 °C 8,0 km/h (2 Bft)
24.10.2017 02:42 5,4 °C 5,5 °C 88 % 1025,9 hPa 0,0 mm 3,1 km/h (1 Bft) SW 219 ° 0 min 0,000 mm 0,0 UV-I 0 W/m² 3,6 °C 5,4 °C 6,4 km/h (2 Bft)
24.10.2017 02:43 5,4 °C 5,5 °C 88 % 1026,0 hPa 0,0 mm 8,0 km/h (2 Bft) W-SW 257 ° 0 min 0,000 mm 0,0 UV-I 0 W/m² 3,6 °C 3,6 °C 11,3 km/h (2 Bft)
24.10.2017 02:44 5,5 °C 5,5 °C 88 % 1026,1 hPa 0,0 mm 7,4 km/h (2 Bft) W-SW 252 ° 0 min 0,000 mm 0,0 UV-I 0 W/m² 3,7 °C 3,9 °C 12,9 km/h (3 Bft)
24.10.2017 02:45 5,4 °C 5,5 °C 88 % 1026,1 hPa 0,0 mm 3,2 km/h (1 Bft) W-SW 249 ° 0 min 0,000 mm 0,0 UV-I 0 W/m² 3,6 °C 5,4 °C 4,8 km/h (1 Bft)
24.10.2017 02:46 5,4 °C 5,4 °C 88 % 1026,0 hPa 0,0 mm 4,0 km/h (1 Bft) W-SW 242 ° 0 min 0,000 mm 0,0 UV-I 0 W/m² 3,6 °C 5,4 °C 6,4 km/h (2 Bft)
24.10.2017 02:47 5,4 °C 5,4 °C 88 % 1026,0 hPa 0,0 mm 1,9 km/h (1 Bft) W-SW 242 ° 0 min 0,000 mm 0,0 UV-I 0 W/m² 3,6 °C 5,4 °C 3,2 km/h (1 Bft)
24.10.2017 02:48 5,4 °C 5,4 °C 88 % 1026,0 hPa 0,0 mm 3,8 km/h (1 Bft) W-SW 242 ° 0 min 0,000 mm 0,0 UV-I 0 W/m² 3,6 °C 5,4 °C 6,4 km/h (2 Bft)
24.10.2017 02:49 5,4 °C 5,4 °C 88 % 1026,0 hPa 0,0 mm 4,1 km/h (1 Bft) SW 215 ° 0 min 0,000 mm 0,0 UV-I 0 W/m² 3,6 °C 5,4 °C 4,8 km/h (1 Bft)
24.10.2017 02:50 5,4 °C 5,4 °C 88 % 1026,0 hPa 0,0 mm 2,5 km/h (1 Bft) SW 231 ° 0 min 0,000 mm 0,0 UV-I 0 W/m² 3,6 °C 5,4 °C 4,8 km/h (1 Bft)
24.10.2017 02:51 5,4 °C 5,4 °C 88 % 1026,0 hPa 0,0 mm 0,7 km/h (0 Bft) SW 231 ° 0 min 0,000 mm 0,0 UV-I 0 W/m² 3,6 °C 5,4 °C 1,6 km/h (1 Bft)
24.10.2017 02:52 5,4 °C 5,5 °C 88 % 1026,0 hPa 0,0 mm 2,3 km/h (1 Bft) SW 233 ° 0 min 0,000 mm 0,0 UV-I 0 W/m² 3,6 °C 5,4 °C 3,2 km/h (1 Bft)
24.10.2017 02:53 5,4 °C 5,4 °C 88 % 1026,0 hPa 0,0 mm 3,9 km/h (1 Bft) W-SW 257 ° 0 min 0,000 mm 0,0 UV-I 0 W/m² 3,6 °C 5,4 °C 12,9 km/h (3 Bft)
24.10.2017 02:54 5,4 °C 5,5 °C 88 % 1026,0 hPa 0,0 mm 6,8 km/h (2 Bft) W 261 ° 0 min 0,000 mm 0,0 UV-I 0 W/m² 3,6 °C 3,9 °C 11,3 km/h (2 Bft)
24.10.2017 02:55 5,5 °C 5,5 °C 88 % 1026,0 hPa 0,0 mm 6,1 km/h (2 Bft) SW 220 ° 0 min 0,000 mm 0,0 UV-I 0 W/m² 3,7 °C 4,3 °C 11,3 km/h (2 Bft)
24.10.2017 02:56 5,6 °C 5,6 °C 88 % 1026,0 hPa 0,0 mm 5,3 km/h (1 Bft) SW 221 ° 0 min 0,000 mm 0,0 UV-I 0 W/m² 3,8 °C 4,7 °C 9,7 km/h (2 Bft)
24.10.2017 02:57 5,5 °C 5,6 °C 88 % 1026,0 hPa 0,0 mm 3,2 km/h (1 Bft) W-SW 251 ° 0 min 0,000 mm 0,0 UV-I 0 W/m² 3,7 °C 5,5 °C 6,4 km/h (2 Bft)
24.10.2017 02:58 5,5 °C 5,5 °C 88 % 1026,1 hPa 0,0 mm 3,5 km/h (1 Bft) S-SW 209 ° 0 min 0,000 mm 0,0 UV-I 0 W/m² 3,7 °C 5,5 °C 6,4 km/h (2 Bft)
24.10.2017 02:59 5,6 °C 5,6 °C 88 % 1026,1 hPa 0,0 mm 3,4 km/h (1 Bft) S-SW 205 ° 0 min 0,000 mm 0,0 UV-I 0 W/m² 3,8 °C 5,6 °C 9,7 km/h (2 Bft)
24.10.2017 03:00 5,6 °C 5,6 °C 88 % 1026,1 hPa 0,0 mm 5,2 km/h (1 Bft) W-SW 244 ° 0 min 0,000 mm 0,0 UV-I 0 W/m² 3,8 °C 4,7 °C 9,7 km/h (2 Bft)
24.10.2017 03:01 5,6 °C 5,6 °C 88 % 1026,1 hPa 0,0 mm 4,0 km/h (1 Bft) W 275 ° 0 min 0,000 mm 0,0 UV-I 0 W/m² 3,8 °C 5,6 °C 6,4 km/h (2 Bft)
24.10.2017 03:02 5,6 °C 5,6 °C 88 % 1026,1 hPa 0,0 mm 6,4 km/h (2 Bft) W 259 ° 0 min 0,000 mm 0,0 UV-I 0 W/m² 3,8 °C 4,3 °C 8,0 km/h (2 Bft)
24.10.2017 03:03 5,6 °C 5,6 °C 88 % 1026,1 hPa 0,0 mm 4,0 km/h (1 Bft) W 273 ° 0 min 0,000 mm 0,0 UV-I 0 W/m² 3,8 °C 5,6 °C 6,4 km/h (2 Bft)
24.10.2017 03:04 5,6 °C 5,6 °C 88 % 1026,1 hPa 0,0 mm 3,8 km/h (1 Bft) SW 227 ° 0 min 0,000 mm 0,0 UV-I 0 W/m² 3,8 °C 5,6 °C 6,4 km/h (2 Bft)
24.10.2017 03:05 5,6 °C 5,6 °C 87 % 1026,1 hPa 0,0 mm 3,9 km/h (1 Bft) SW 225 ° 0 min 0,000 mm 0,0 UV-I 0 W/m² 3,6 °C 5,6 °C 6,4 km/h (2 Bft)
24.10.2017 03:06 5,6 °C 5,7 °C 88 % 1026,1 hPa 0,0 mm 2,5 km/h (1 Bft) S-SW 211 ° 0 min 0,000 mm 0,0 UV-I 0 W/m² 3,8 °C 5,6 °C 4,8 km/h (1 Bft)
24.10.2017 03:07 5,7 °C 5,7 °C 87 % 1026,1 hPa 0,0 mm 4,5 km/h (1 Bft) W-SW 252 ° 0 min 0,000 mm 0,0 UV-I 0 W/m² 3,7 °C 5,7 °C 6,4 km/h (2 Bft)
24.10.2017 03:08 5,7 °C 5,7 °C 87 % 1026,1 hPa 0,0 mm 5,0 km/h (1 Bft) SW 214 ° 0 min 0,000 mm 0,0 UV-I 0 W/m² 3,7 °C 4,9 °C 6,4 km/h (2 Bft)
24.10.2017 03:09 5,7 °C 5,7 °C 87 % 1026,2 hPa 0,0 mm 3,0 km/h (1 Bft) SW 220 ° 0 min 0,000 mm 0,0 UV-I 0 W/m² 3,7 °C 5,7 °C 8,0 km/h (2 Bft)
24.10.2017 03:10 5,7 °C 5,7 °C 87 % 1026,2 hPa 0,0 mm 3,4 km/h (1 Bft) S 183 ° 0 min 0,000 mm 0,0 UV-I 0 W/m² 3,7 °C 5,7 °C 4,8 km/h (1 Bft)
24.10.2017 03:11 5,7 °C 5,7 °C 87 % 1026,2 hPa 0,0 mm 4,3 km/h (1 Bft) S-SW 199 ° 0 min 0,000 mm 0,0 UV-I 0 W/m² 3,7 °C 5,7 °C 8,0 km/h (2 Bft)
24.10.2017 03:12 5,7 °C 5,8 °C 87 % 1026,2 hPa 0,0 mm 4,8 km/h (1 Bft) S-SW 205 ° 0 min 0,000 mm 0,0 UV-I 0 W/m² 3,7 °C 5,0 °C 8,0 km/h (2 Bft)
24.10.2017 03:13 5,8 °C 5,8 °C 87 % 1026,1 hPa 0,0 mm 3,1 km/h (1 Bft) SW 221 ° 0 min 0,000 mm 0,0 UV-I 0 W/m² 3,8 °C 5,8 °C 4,8 km/h (1 Bft)
24.10.2017 03:14 5,7 °C 5,8 °C 87 % 1026,1 hPa 0,0 mm 3,6 km/h (1 Bft) W-SW 250 ° 0 min 0,000 mm 0,0 UV-I 0 W/m² 3,7 °C 5,7 °C 8,0 km/h (2 Bft)
24.10.2017 03:15 5,7 °C 5,8 °C 87 % 1026,1 hPa 0,0 mm 5,0 km/h (1 Bft) S-SW 211 ° 0 min 0,000 mm 0,0 UV-I 0 W/m² 3,7 °C 4,9 °C 8,0 km/h (2 Bft)
24.10.2017 03:16 5,7 °C 5,7 °C 87 % 1026,1 hPa 0,0 mm 2,3 km/h (1 Bft) W-SW 246 ° 0 min 0,000 mm 0,0 UV-I 0 W/m² 3,7 °C 5,7 °C 4,8 km/h (1 Bft)
24.10.2017 03:17 5,7 °C 5,7 °C 87 % 1026,1 hPa 0,0 mm 3,3 km/h (1 Bft) SW 234 ° 0 min 0,000 mm 0,0 UV-I 0 W/m² 3,7 °C 5,7 °C 4,8 km/h (1 Bft)
24.10.2017 03:18 5,8 °C 5,8 °C 87 % 1026,1 hPa 0,0 mm 3,9 km/h (1 Bft) SW 223 ° 0 min 0,000 mm 0,0 UV-I 0 W/m² 3,8 °C 5,8 °C 8,0 km/h (2 Bft)
24.10.2017 03:19 5,8 °C 5,8 °C 87 % 1026,1 hPa 0,0 mm 4,4 km/h (1 Bft) SW 222 ° 0 min 0,000 mm 0,0 UV-I 0 W/m² 3,8 °C 5,8 °C 6,4 km/h (2 Bft)
24.10.2017 03:20 5,8 °C 5,8 °C 87 % 1026,1 hPa 0,0 mm 5,5 km/h (1 Bft) S 178 ° 0 min 0,000 mm 0,0 UV-I 0 W/m² 3,8 °C 4,8 °C 9,7 km/h (2 Bft)
24.10.2017 03:21 5,7 °C 5,8 °C 87 % 1026,1 hPa 0,0 mm 6,0 km/h (2 Bft) S-SW 199 ° 0 min 0,000 mm 0,0 UV-I 0 W/m² 3,7 °C 4,5 °C 9,7 km/h (2 Bft)
24.10.2017 03:22 5,8 °C 5,8 °C 87 % 1026,1 hPa 0,0 mm 3,4 km/h (1 Bft) S-SW 202 ° 0 min 0,000 mm 0,0 UV-I 0 W/m² 3,8 °C 5,8 °C 4,8 km/h (1 Bft)
24.10.2017 03:23 5,7 °C 5,8 °C 87 % 1026,1 hPa 0,0 mm 1,9 km/h (1 Bft) SW 214 ° 0 min 0,000 mm 0,0 UV-I 0 W/m² 3,7 °C 5,7 °C 3,2 km/h (1 Bft)
24.10.2017 03:24 5,8 °C 5,8 °C 87 % 1026,2 hPa 0,0 mm 3,8 km/h (1 Bft) S-SW 200 ° 0 min 0,000 mm 0,0 UV-I 0 W/m² 3,8 °C 5,8 °C 6,4 km/h (2 Bft)
24.10.2017 03:25 5,7 °C 5,8 °C 87 % 1026,2 hPa 0,0 mm 1,9 km/h (1 Bft) S-SW 200 ° 0 min 0,000 mm 0,0 UV-I 0 W/m² 3,7 °C 5,7 °C 3,2 km/h (1 Bft)
24.10.2017 03:26 5,7 °C 5,8 °C 87 % 1026,2 hPa 0,0 mm 5,0 km/h (1 Bft) S 190 ° 0 min 0,000 mm 0,0 UV-I 0 W/m² 3,7 °C 4,9 °C 8,0 km/h (2 Bft)
24.10.2017 03:27 5,7 °C 5,7 °C 87 % 1026,2 hPa 0,0 mm 4,7 km/h (1 Bft) S-SW 192 ° 0 min 0,000 mm 0,0 UV-I 0 W/m² 3,7 °C 5,0 °C 8,0 km/h (2 Bft)
24.10.2017 03:28 5,7 °C 5,7 °C 87 % 1026,2 hPa 0,0 mm 1,5 km/h (1 Bft) S-SW 192 ° 0 min 0,000 mm 0,0 UV-I 0 W/m² 3,7 °C 5,7 °C 3,2 km/h (1 Bft)
24.10.2017 03:29 5,7 °C 5,7 °C 88 % 1026,2 hPa 0,0 mm 2,9 km/h (1 Bft) S 190 ° 0 min 0,000 mm 0,0 UV-I 0 W/m² 3,9 °C 5,7 °C 4,8 km/h (1 Bft)
24.10.2017 03:30 5,6 °C 5,7 °C 88 % 1026,1 hPa 0,0 mm 2,9 km/h (1 Bft) S 190 ° 0 min 0,000 mm 0,0 UV-I 0 W/m² 3,8 °C 5,6 °C 4,8 km/h (1 Bft)
24.10.2017 03:31 5,6 °C 5,6 °C 89 % 1026,1 hPa 0,0 mm 1,0 km/h (0 Bft) S 190 ° 0 min 0,000 mm 0,0 UV-I 0 W/m² 3,9 °C 5,6 °C 3,2 km/h (1 Bft)
24.10.2017 03:32 5,5 °C 5,6 °C 89 % 1026,1 hPa 0,0 mm 1,8 km/h (1 Bft) S 190 ° 0 min 0,000 mm 0,0 UV-I 0 W/m² 3,8 °C 5,5 °C 3,2 km/h (1 Bft)
24.10.2017 03:33 5,3 °C 5,5 °C 89 % 1026,1 hPa 0,0 mm 1,7 km/h (1 Bft) S 190 ° 0 min 0,000 mm 0,0 UV-I 0 W/m² 3,6 °C 5,3 °C 3,2 km/h (1 Bft)
24.10.2017 03:34 5,3 °C 5,3 °C 90 % 1026,1 hPa 0,0 mm 1,7 km/h (1 Bft) S 190 ° 0 min 0,000 mm 0,0 UV-I 0 W/m² 3,8 °C 5,3 °C 3,2 km/h (1 Bft)
24.10.2017 03:35 5,2 °C 5,3 °C 90 % 1026,1 hPa 0,0 mm 1,3 km/h (1 Bft) S 190 ° 0 min 0,000 mm 0,0 UV-I 0 W/m² 3,7 °C 5,2 °C 3,2 km/h (1 Bft)
24.10.2017 03:36 5,2 °C 5,2 °C 91 % 1026,1 hPa 0,0 mm 0,1 km/h (0 Bft) S 190 ° 0 min 0,000 mm 0,0 UV-I 0 W/m² 3,9 °C 5,2 °C 1,6 km/h (1 Bft)
24.10.2017 03:37 5,1 °C 5,2 °C 91 % 1026,2 hPa 0,0 mm 0,2 km/h (0 Bft) S 190 ° 0 min 0,000 mm 0,0 UV-I 0 W/m² 3,8 °C 5,1 °C 1,6 km/h (1 Bft)
24.10.2017 03:38 5,1 °C 5,1 °C 91 % 1026,2 hPa 0,0 mm 0,0 km/h (0 Bft) S 190 ° 0 min 0,000 mm 0,0 UV-I 0 W/m² 3,8 °C 5,1 °C 0,0 km/h (0 Bft)
24.10.2017 03:39 5,0 °C 5,1 °C 91 % 1026,1 hPa 0,0 mm 0,0 km/h (0 Bft) S 190 ° 0 min 0,000 mm 0,0 UV-I 0 W/m² 3,7 °C 5,0 °C 0,0 km/h (0 Bft)
24.10.2017 03:40 4,9 °C 5,0 °C 91 % 1026,1 hPa 0,0 mm 0,0 km/h (0 Bft) S 190 ° 0 min 0,000 mm 0,0 UV-I 0 W/m² 3,6 °C 4,9 °C 0,0 km/h (0 Bft)
24.10.2017 03:41 4,9 °C 4,9 °C 91 % 1026,1 hPa 0,0 mm 0,0 km/h (0 Bft) S 190 ° 0 min 0,000 mm 0,0 UV-I 0 W/m² 3,6 °C 4,9 °C 0,0 km/h (0 Bft)
24.10.2017 03:42 4,9 °C 4,9 °C 91 % 1026,1 hPa 0,0 mm 0,0 km/h (0 Bft) S 190 ° 0 min 0,000 mm 0,0 UV-I 0 W/m² 3,6 °C 4,9 °C 0,0 km/h (0 Bft)
24.10.2017 03:43 4,8 °C 4,9 °C 91 % 1026,1 hPa 0,0 mm 0,3 km/h (0 Bft) S 190 ° 0 min 0,000 mm 0,0 UV-I 0 W/m² 3,5 °C 4,8 °C 3,2 km/h (1 Bft)
24.10.2017 03:44 4,8 °C 4,8 °C 91 % 1026,1 hPa 0,0 mm 1,7 km/h (1 Bft) S 190 ° 0 min 0,000 mm 0,0 UV-I 0 W/m² 3,5 °C 4,8 °C 3,2 km/h (1 Bft)
24.10.2017 03:45 4,8 °C 4,8 °C 91 % 1026,2 hPa 0,0 mm 0,3 km/h (0 Bft) S 190 ° 0 min 0,000 mm 0,0 UV-I 0 W/m² 3,5 °C 4,8 °C 1,6 km/h (1 Bft)
24.10.2017 03:46 4,8 °C 4,8 °C 92 % 1026,1 hPa 0,0 mm 0,0 km/h (0 Bft) S 190 ° 0 min 0,000 mm 0,0 UV-I 0 W/m² 3,6 °C 4,8 °C 0,0 km/h (0 Bft)
24.10.2017 03:47 4,8 °C 4,8 °C 92 % 1026,2 hPa 0,0 mm 0,0 km/h (0 Bft) S 190 ° 0 min 0,000 mm 0,0 UV-I 0 W/m² 3,6 °C 4,8 °C 0,0 km/h (0 Bft)
24.10.2017 03:48 4,8 °C 4,8 °C 92 % 1026,2 hPa 0,0 mm 0,0 km/h (0 Bft) S 190 ° 0 min 0,000 mm 0,0 UV-I 0 W/m² 3,6 °C 4,8 °C 0,0 km/h (0 Bft)
24.10.2017 03:49 4,7 °C 4,8 °C 92 % 1026,1 hPa 0,0 mm 0,4 km/h (0 Bft) S 190 ° 0 min 0,000 mm 0,0 UV-I 0 W/m² 3,5 °C 4,7 °C 3,2 km/h (1 Bft)
24.10.2017 03:50 4,7 °C 4,7 °C 92 % 1026,1 hPa 0,0 mm 0,7 km/h (0 Bft) S 190 ° 0 min 0,000 mm 0,0 UV-I 0 W/m² 3,5 °C 4,7 °C 3,2 km/h (1 Bft)
24.10.2017 03:51 4,7 °C 4,7 °C 92 % 1026,1 hPa 0,0 mm 0,0 km/h (0 Bft) S 190 ° 0 min 0,000 mm 0,0 UV-I 0 W/m² 3,5 °C 4,7 °C 0,0 km/h (0 Bft)
24.10.2017 03:52 4,7 °C 4,7 °C 92 % 1026,1 hPa 0,0 mm 0,0 km/h (0 Bft) S 190 ° 0 min 0,000 mm 0,0 UV-I 0 W/m² 3,5 °C 4,7 °C 0,0 km/h (0 Bft)
24.10.2017 03:53 4,6 °C 4,7 °C 92 % 1026,1 hPa 0,0 mm 0,0 km/h (0 Bft) S 190 ° 0 min 0,000 mm 0,0 UV-I 0 W/m² 3,4 °C 4,6 °C 0,0 km/h (0 Bft)
24.10.2017 03:54 4,6 °C 4,6 °C 92 % 1026,1 hPa 0,0 mm 0,0 km/h (0 Bft) S 190 ° 0 min 0,000 mm 0,0 UV-I 0 W/m² 3,4 °C 4,6 °C 0,0 km/h (0 Bft)
24.10.2017 03:55 4,6 °C 4,7 °C 92 % 1026,0 hPa 0,0 mm 0,0 km/h (0 Bft) S 190 ° 0 min 0,000 mm 0,0 UV-I 0 W/m² 3,4 °C 4,6 °C 0,0 km/h (0 Bft)
24.10.2017 03:56 4,6 °C 4,6 °C 92 % 1026,2 hPa 0,0 mm 0,0 km/h (0 Bft) S 190 ° 0 min 0,000 mm 0,0 UV-I 0 W/m² 3,4 °C 4,6 °C 0,0 km/h (0 Bft)
24.10.2017 03:57 4,6 °C 4,6 °C 92 % 1026,1 hPa 0,0 mm 0,0 km/h (0 Bft) S 190 ° 0 min 0,000 mm 0,0 UV-I 0 W/m² 3,4 °C 4,6 °C 0,0 km/h (0 Bft)
24.10.2017 03:58 4,6 °C 4,6 °C 92 % 1026,1 hPa 0,0 mm 0,0 km/h (0 Bft) S 190 ° 0 min 0,000 mm 0,0 UV-I 0 W/m² 3,4 °C 4,6 °C 0,0 km/h (0 Bft)
24.10.2017 03:59 4,6 °C 4,6 °C 92 % 1026,1 hPa 0,0 mm 1,2 km/h (1 Bft) S 190 ° 0 min 0,000 mm 0,0 UV-I 0 W/m² 3,4 °C 4,6 °C 3,2 km/h (1 Bft)
24.10.2017 04:00 4,6 °C 4,6 °C 92 % 1026,1 hPa 0,0 mm 0,0 km/h (0 Bft) S 190 ° 0 min 0,000 mm 0,0 UV-I 0 W/m² 3,4 °C 4,6 °C 0,0 km/h (0 Bft)
24.10.2017 04:01 4,6 °C 4,6 °C 92 % 1026,2 hPa 0,0 mm 0,0 km/h (0 Bft) S 190 ° 0 min 0,000 mm 0,0 UV-I 0 W/m² 3,4 °C 4,6 °C 0,0 km/h (0 Bft)
24.10.2017 04:02 4,6 °C 4,6 °C 92 % 1026,2 hPa 0,0 mm 0,0 km/h (0 Bft) S 190 ° 0 min 0,000 mm 0,0 UV-I 0 W/m² 3,4 °C 4,6 °C 0,0 km/h (0 Bft)
24.10.2017 04:03 4,6 °C 4,6 °C 92 % 1026,2 hPa 0,0 mm 0,1 km/h (0 Bft) S 190 ° 0 min 0,000 mm 0,0 UV-I 0 W/m² 3,4 °C 4,6 °C 1,6 km/h (1 Bft)
24.10.2017 04:04 4,6 °C 4,6 °C 92 % 1026,1 hPa 0,0 mm 3,6 km/h (1 Bft) S 190 ° 0 min 0,000 mm 0,0 UV-I 0 W/m² 3,4 °C 4,6 °C 4,8 km/h (1 Bft)
24.10.2017 04:05 4,6 °C 4,6 °C 92 % 1026,2 hPa 0,0 mm 2,6 km/h (1 Bft) S 190 ° 0 min 0,000 mm 0,0 UV-I 0 W/m² 3,4 °C 4,6 °C 3,2 km/h (1 Bft)
24.10.2017 04:06 4,6 °C 4,6 °C 92 % 1026,2 hPa 0,0 mm 1,3 km/h (1 Bft) S 190 ° 0 min 0,000 mm 0,0 UV-I 0 W/m² 3,4 °C 4,6 °C 1,6 km/h (1 Bft)
24.10.2017 04:07 4,6 °C 4,6 °C 92 % 1026,1 hPa 0,0 mm 1,2 km/h (1 Bft) S 190 ° 0 min 0,000 mm 0,0 UV-I 0 W/m² 3,4 °C 4,6 °C 1,6 km/h (1 Bft)
24.10.2017 04:08 4,6 °C 4,6 °C 92 % 1026,2 hPa 0,0 mm 0,1 km/h (0 Bft) S 190 ° 0 min 0,000 mm 0,0 UV-I 0 W/m² 3,4 °C 4,6 °C 1,6 km/h (1 Bft)
24.10.2017 04:09 4,6 °C 4,6 °C 92 % 1026,2 hPa 0,0 mm 0,0 km/h (0 Bft) S 190 ° 0 min 0,000 mm 0,0 UV-I 0 W/m² 3,4 °C 4,6 °C 0,0 km/h (0 Bft)
24.10.2017 04:10 4,6 °C 4,6 °C 92 % 1026,2 hPa 0,0 mm 0,0 km/h (0 Bft) S 190 ° 0 min 0,000 mm 0,0 UV-I 0 W/m² 3,4 °C 4,6 °C 0,0 km/h (0 Bft)
24.10.2017 04:11 4,6 °C 4,6 °C 92 % 1026,2 hPa 0,0 mm 0,0 km/h (0 Bft) S 190 ° 0 min 0,000 mm 0,0 UV-I 0 W/m² 3,4 °C 4,6 °C 0,0 km/h (0 Bft)
24.10.2017 04:12 4,6 °C 4,6 °C 92 % 1026,2 hPa 0,0 mm 0,0 km/h (0 Bft) S 190 ° 0 min 0,000 mm 0,0 UV-I 0 W/m² 3,4 °C 4,6 °C 0,0 km/h (0 Bft)
24.10.2017 04:13 4,6 °C 4,6 °C 92 % 1026,2 hPa 0,0 mm 0,0 km/h (0 Bft) S 190 ° 0 min 0,000 mm 0,0 UV-I 0 W/m² 3,4 °C 4,6 °C 0,0 km/h (0 Bft)
24.10.2017 04:14 4,5 °C 4,6 °C 92 % 1026,2 hPa 0,0 mm 0,0 km/h (0 Bft) S 190 ° 0 min 0,000 mm 0,0 UV-I 0 W/m² 3,3 °C 4,5 °C 0,0 km/h (0 Bft)
24.10.2017 04:15 4,5 °C 4,6 °C 92 % 1026,2 hPa 0,0 mm 0,0 km/h (0 Bft) S 190 ° 0 min 0,000 mm 0,0 UV-I 0 W/m² 3,3 °C 4,5 °C 0,0 km/h (0 Bft)
24.10.2017 04:16 4,5 °C 4,5 °C 92 % 1026,2 hPa 0,0 mm 0,0 km/h (0 Bft) S 190 ° 0 min 0,000 mm 0,0 UV-I 0 W/m² 3,3 °C 4,5 °C 0,0 km/h (0 Bft)
24.10.2017 04:17 4,5 °C 4,5 °C 92 % 1026,2 hPa 0,0 mm 0,0 km/h (0 Bft) S 190 ° 0 min 0,000 mm 0,0 UV-I 0 W/m² 3,3 °C 4,5 °C 0,0 km/h (0 Bft)
24.10.2017 04:18 4,5 °C 4,5 °C 93 % 1026,2 hPa 0,0 mm 0,0 km/h (0 Bft) S 190 ° 0 min 0,000 mm 0,0 UV-I 0 W/m² 3,5 °C 4,5 °C 0,0 km/h (0 Bft)
24.10.2017 04:19 4,5 °C 4,5 °C 93 % 1026,2 hPa 0,0 mm 0,0 km/h (0 Bft) S 190 ° 0 min 0,000 mm 0,0 UV-I 0 W/m² 3,5 °C 4,5 °C 0,0 km/h (0 Bft)
24.10.2017 04:20 4,5 °C 4,6 °C 93 % 1026,3 hPa 0,0 mm 0,4 km/h (0 Bft) S 190 ° 0 min 0,000 mm 0,0 UV-I 0 W/m² 3,5 °C 4,5 °C 1,6 km/h (1 Bft)
24.10.2017 04:21 4,5 °C 4,6 °C 93 % 1026,2 hPa 0,0 mm 1,4 km/h (1 Bft) S 190 ° 0 min 0,000 mm 0,0 UV-I 0 W/m² 3,5 °C 4,5 °C 1,6 km/h (1 Bft)
24.10.2017 04:22 4,6 °C 4,6 °C 93 % 1026,2 hPa 0,0 mm 0,6 km/h (0 Bft) S 190 ° 0 min 0,000 mm 0,0 UV-I 0 W/m² 3,6 °C 4,6 °C 1,6 km/h (1 Bft)
24.10.2017 04:23 4,6 °C 4,6 °C 93 % 1026,3 hPa 0,0 mm 0,0 km/h (0 Bft) S 190 ° 0 min 0,000 mm 0,0 UV-I 0 W/m² 3,6 °C 4,6 °C 0,0 km/h (0 Bft)
24.10.2017 04:24 4,6 °C 4,6 °C 93 % 1026,3 hPa 0,0 mm 0,0 km/h (0 Bft) S 190 ° 0 min 0,000 mm 0,0 UV-I 0 W/m² 3,6 °C 4,6 °C 0,0 km/h (0 Bft)
24.10.2017 04:25 4,5 °C 4,6 °C 93 % 1026,3 hPa 0,0 mm 0,0 km/h (0 Bft) S 190 ° 0 min 0,000 mm 0,0 UV-I 0 W/m² 3,5 °C 4,5 °C 0,0 km/h (0 Bft)
24.10.2017 04:26 4,5 °C 4,5 °C 93 % 1026,3 hPa 0,0 mm 0,0 km/h (0 Bft) S 190 ° 0 min 0,000 mm 0,0 UV-I 0 W/m² 3,5 °C 4,5 °C 0,0 km/h (0 Bft)
24.10.2017 04:27 4,5 °C 4,5 °C 93 % 1026,2 hPa 0,0 mm 0,0 km/h (0 Bft) S 190 ° 0 min 0,000 mm 0,0 UV-I 0 W/m² 3,5 °C 4,5 °C 0,0 km/h (0 Bft)
24.10.2017 04:28 4,5 °C 4,5 °C 93 % 1026,2 hPa 0,0 mm 0,0 km/h (0 Bft) S 190 ° 0 min 0,000 mm 0,0 UV-I 0 W/m² 3,5 °C 4,5 °C 0,0 km/h (0 Bft)
24.10.2017 04:29 4,5 °C 4,5 °C 93 % 1026,2 hPa 0,0 mm 0,3 km/h (0 Bft) S 190 ° 0 min 0,000 mm 0,0 UV-I 0 W/m² 3,5 °C 4,5 °C 1,6 km/h (1 Bft)
24.10.2017 04:30 4,5 °C 4,5 °C 93 % 1026,2 hPa 0,0 mm 1,0 km/h (0 Bft) S 190 ° 0 min 0,000 mm 0,0 UV-I 0 W/m² 3,5 °C 4,5 °C 1,6 km/h (1 Bft)
24.10.2017 04:31 4,5 °C 4,5 °C 93 % 1026,2 hPa 0,0 mm 0,2 km/h (0 Bft) S 190 ° 0 min 0,000 mm 0,0 UV-I 0 W/m² 3,5 °C 4,5 °C 1,6 km/h (1 Bft)
24.10.2017 04:32 4,5 °C 4,5 °C 93 % 1026,2 hPa 0,0 mm 0,0 km/h (0 Bft) S 190 ° 0 min 0,000 mm 0,0 UV-I 0 W/m² 3,5 °C 4,5 °C 0,0 km/h (0 Bft)
24.10.2017 04:33 4,5 °C 4,5 °C 93 % 1026,2 hPa 0,0 mm 0,0 km/h (0 Bft) S 190 ° 0 min 0,000 mm 0,0 UV-I 0 W/m² 3,5 °C 4,5 °C 0,0 km/h (0 Bft)
24.10.2017 04:34 4,5 °C 4,5 °C 93 % 1026,2 hPa 0,0 mm 0,0 km/h (0 Bft) S 190 ° 0 min 0,000 mm 0,0 UV-I 0 W/m² 3,5 °C 4,5 °C 0,0 km/h (0 Bft)
24.10.2017 04:35 4,5 °C 4,5 °C 93 % 1026,2 hPa 0,0 mm 0,0 km/h (0 Bft) S 190 ° 0 min 0,000 mm 0,0 UV-I 0 W/m² 3,5 °C 4,5 °C 0,0 km/h (0 Bft)
24.10.2017 04:36 4,5 °C 4,5 °C 93 % 1026,2 hPa 0,0 mm 0,0 km/h (0 Bft) S 190 ° 0 min 0,000 mm 0,0 UV-I 0 W/m² 3,5 °C 4,5 °C 0,0 km/h (0 Bft)
24.10.2017 04:37 4,5 °C 4,5 °C 93 % 1026,2 hPa 0,0 mm 0,0 km/h (0 Bft) S 190 ° 0 min 0,000 mm 0,0 UV-I 0 W/m² 3,5 °C 4,5 °C 0,0 km/h (0 Bft)
24.10.2017 04:38 4,5 °C 4,5 °C 93 % 1026,3 hPa 0,0 mm 0,0 km/h (0 Bft) S 190 ° 0 min 0,000 mm 0,0 UV-I 0 W/m² 3,5 °C 4,5 °C 0,0 km/h (0 Bft)
24.10.2017 04:39 4,5 °C 4,5 °C 93 % 1026,3 hPa 0,0 mm 0,0 km/h (0 Bft) S 190 ° 0 min 0,000 mm 0,0 UV-I 0 W/m² 3,5 °C 4,5 °C 0,0 km/h (0 Bft)
24.10.2017 04:40 4,5 °C 4,5 °C 93 % 1026,3 hPa 0,0 mm 0,0 km/h (0 Bft) S 190 ° 0 min 0,000 mm 0,0 UV-I 0 W/m² 3,5 °C 4,5 °C 0,0 km/h (0 Bft)
24.10.2017 04:41 4,5 °C 4,5 °C 93 % 1026,3 hPa 0,0 mm 0,7 km/h (0 Bft) S 190 ° 0 min 0,000 mm 0,0 UV-I 0 W/m² 3,5 °C 4,5 °C 1,6 km/h (1 Bft)
24.10.2017 04:42 4,5 °C 4,5 °C 93 % 1026,3 hPa 0,0 mm 1,3 km/h (1 Bft) S 190 ° 0 min 0,000 mm 0,0 UV-I 0 W/m² 3,5 °C 4,5 °C 3,2 km/h (1 Bft)
24.10.2017 04:43 4,5 °C 4,5 °C 93 % 1026,2 hPa 0,0 mm 0,5 km/h (0 Bft) S 190 ° 0 min 0,000 mm 0,0 UV-I 0 W/m² 3,5 °C 4,5 °C 1,6 km/h (1 Bft)
24.10.2017 04:44 4,5 °C 4,5 °C 93 % 1026,3 hPa 0,0 mm 0,0 km/h (0 Bft) S 190 ° 0 min 0,000 mm 0,0 UV-I 0 W/m² 3,5 °C 4,5 °C 0,0 km/h (0 Bft)
24.10.2017 04:45 4,5 °C 4,5 °C 93 % 1026,3 hPa 0,0 mm 0,0 km/h (0 Bft) S 190 ° 0 min 0,000 mm 0,0 UV-I 0 W/m² 3,5 °C 4,5 °C 0,0 km/h (0 Bft)
24.10.2017 04:46 4,4 °C 4,5 °C 93 % 1026,3 hPa 0,0 mm 0,0 km/h (0 Bft) S 190 ° 0 min 0,000 mm 0,0 UV-I 0 W/m² 3,4 °C 4,4 °C 0,0 km/h (0 Bft)
24.10.2017 04:47 4,5 °C 4,5 °C 93 % 1026,3 hPa 0,0 mm 0,0 km/h (0 Bft) S 190 ° 0 min 0,000 mm 0,0 UV-I 0 W/m² 3,5 °C 4,5 °C 0,0 km/h (0 Bft)
24.10.2017 04:48 4,4 °C 4,5 °C 93 % 1026,3 hPa 0,0 mm 0,0 km/h (0 Bft) S 190 ° 0 min 0,000 mm 0,0 UV-I 0 W/m² 3,4 °C 4,4 °C 0,0 km/h (0 Bft)
24.10.2017 04:49 4,4 °C 4,4 °C 93 % 1026,3 hPa 0,0 mm 0,0 km/h (0 Bft) S 190 ° 0 min 0,000 mm 0,0 UV-I 0 W/m² 3,4 °C 4,4 °C 0,0 km/h (0 Bft)
24.10.2017 04:50 4,4 °C 4,4 °C 93 % 1026,3 hPa 0,0 mm 0,0 km/h (0 Bft) S 190 ° 0 min 0,000 mm 0,0 UV-I 0 W/m² 3,4 °C 4,4 °C 0,0 km/h (0 Bft)
24.10.2017 04:51 4,4 °C 4,4 °C 93 % 1026,3 hPa 0,0 mm 0,0 km/h (0 Bft) S 190 ° 0 min 0,000 mm 0,0 UV-I 0 W/m² 3,4 °C 4,4 °C 0,0 km/h (0 Bft)
24.10.2017 04:52 4,4 °C 4,4 °C 93 % 1026,3 hPa 0,0 mm 0,0 km/h (0 Bft) S 190 ° 0 min 0,000 mm 0,0 UV-I 0 W/m² 3,4 °C 4,4 °C 0,0 km/h (0 Bft)
24.10.2017 04:53 4,4 °C 4,4 °C 93 % 1026,3 hPa 0,0 mm 0,0 km/h (0 Bft) S 190 ° 0 min 0,000 mm 0,0 UV-I 0 W/m² 3,4 °C 4,4 °C 0,0 km/h (0 Bft)
24.10.2017 04:54 4,4 °C 4,4 °C 93 % 1026,3 hPa 0,0 mm 0,0 km/h (0 Bft) S 190 ° 0 min 0,000 mm 0,0 UV-I 0 W/m² 3,4 °C 4,4 °C 0,0 km/h (0 Bft)
24.10.2017 04:55 4,4 °C 4,4 °C 93 % 1026,3 hPa 0,0 mm 0,0 km/h (0 Bft) S 190 ° 0 min 0,000 mm 0,0 UV-I 0 W/m² 3,4 °C 4,4 °C 0,0 km/h (0 Bft)
24.10.2017 04:56 4,5 °C 4,5 °C 93 % 1026,3 hPa 0,0 mm 0,0 km/h (0 Bft) S 190 ° 0 min 0,000 mm 0,0 UV-I 0 W/m² 3,5 °C 4,5 °C 0,0 km/h (0 Bft)
24.10.2017 04:57 4,5 °C 4,5 °C 93 % 1026,3 hPa 0,0 mm 0,0 km/h (0 Bft) S 190 ° 0 min 0,000 mm 0,0 UV-I 0 W/m² 3,5 °C 4,5 °C 0,0 km/h (0 Bft)
24.10.2017 04:58 4,5 °C 4,6 °C 93 % 1026,3 hPa 0,0 mm 0,0 km/h (0 Bft) S 190 ° 0 min 0,000 mm 0,0 UV-I 0 W/m² 3,5 °C 4,5 °C 0,0 km/h (0 Bft)
24.10.2017 04:59 4,5 °C 4,5 °C 93 % 1026,3 hPa 0,0 mm 0,0 km/h (0 Bft) S 190 ° 0 min 0,000 mm 0,0 UV-I 0 W/m² 3,5 °C 4,5 °C 0,0 km/h (0 Bft)
24.10.2017 05:00 4,6 °C 4,6 °C 93 % 1026,3 hPa 0,0 mm 0,0 km/h (0 Bft) S 190 ° 0 min 0,000 mm 0,0 UV-I 0 W/m² 3,6 °C 4,6 °C 0,0 km/h (0 Bft)
24.10.2017 05:01 4,6 °C 4,6 °C 93 % 1026,3 hPa 0,0 mm 0,0 km/h (0 Bft) S 190 ° 0 min 0,000 mm 0,0 UV-I 0 W/m² 3,6 °C 4,6 °C 0,0 km/h (0 Bft)
24.10.2017 05:02 4,6 °C 4,6 °C 93 % 1026,3 hPa 0,0 mm 0,0 km/h (0 Bft) S 190 ° 0 min 0,000 mm 0,0 UV-I 0 W/m² 3,6 °C 4,6 °C 0,0 km/h (0 Bft)
24.10.2017 05:03 4,6 °C 4,6 °C 93 % 1026,4 hPa 0,0 mm 0,0 km/h (0 Bft) S 190 ° 0 min 0,000 mm 0,0 UV-I 0 W/m² 3,6 °C 4,6 °C 0,0 km/h (0 Bft)
24.10.2017 05:04 4,5 °C 4,6 °C 93 % 1026,4 hPa 0,0 mm 0,0 km/h (0 Bft) S 190 ° 0 min 0,000 mm 0,0 UV-I 0 W/m² 3,5 °C 4,5 °C 0,0 km/h (0 Bft)
24.10.2017 05:05 4,6 °C 4,6 °C 93 % 1026,3 hPa 0,0 mm 0,0 km/h (0 Bft) S 190 ° 0 min 0,000 mm 0,0 UV-I 0 W/m² 3,6 °C 4,6 °C 0,0 km/h (0 Bft)
24.10.2017 05:06 4,5 °C 4,6 °C 93 % 1026,4 hPa 0,0 mm 0,0 km/h (0 Bft) S 190 ° 0 min 0,000 mm 0,0 UV-I 0 W/m² 3,5 °C 4,5 °C 0,0 km/h (0 Bft)
24.10.2017 05:07 4,5 °C 4,5 °C 93 % 1026,4 hPa 0,0 mm 0,0 km/h (0 Bft) S 190 ° 0 min 0,000 mm 0,0 UV-I 0 W/m² 3,5 °C 4,5 °C 0,0 km/h (0 Bft)
24.10.2017 05:08 4,4 °C 4,5 °C 93 % 1026,4 hPa 0,0 mm 0,0 km/h (0 Bft) S 190 ° 0 min 0,000 mm 0,0 UV-I 0 W/m² 3,4 °C 4,4 °C 0,0 km/h (0 Bft)
24.10.2017 05:09 4,4 °C 4,4 °C 93 % 1026,3 hPa 0,0 mm 0,0 km/h (0 Bft) S 190 ° 0 min 0,000 mm 0,0 UV-I 0 W/m² 3,4 °C 4,4 °C 0,0 km/h (0 Bft)
24.10.2017 05:10 4,4 °C 4,4 °C 93 % 1026,3 hPa 0,0 mm 0,0 km/h (0 Bft) S 190 ° 0 min 0,000 mm 0,0 UV-I 0 W/m² 3,4 °C 4,4 °C 0,0 km/h (0 Bft)
24.10.2017 05:11 4,4 °C 4,4 °C 93 % 1026,4 hPa 0,0 mm 0,0 km/h (0 Bft) S 190 ° 0 min 0,000 mm 0,0 UV-I 0 W/m² 3,4 °C 4,4 °C 0,0 km/h (0 Bft)
24.10.2017 05:12 4,3 °C 4,4 °C 93 % 1026,4 hPa 0,0 mm 0,0 km/h (0 Bft) S 190 ° 0 min 0,000 mm 0,0 UV-I 0 W/m² 3,3 °C 4,3 °C 0,0 km/h (0 Bft)
24.10.2017 05:13 4,3 °C 4,4 °C 93 % 1026,4 hPa 0,0 mm 0,0 km/h (0 Bft) S 190 ° 0 min 0,000 mm 0,0 UV-I 0 W/m² 3,3 °C 4,3 °C 0,0 km/h (0 Bft)
24.10.2017 05:14 4,3 °C 4,3 °C 93 % 1026,4 hPa 0,0 mm 0,0 km/h (0 Bft) S 190 ° 0 min 0,000 mm 0,0 UV-I 0 W/m² 3,3 °C 4,3 °C 0,0 km/h (0 Bft)
24.10.2017 05:15 4,3 °C 4,3 °C 93 % 1026,4 hPa 0,0 mm 0,0 km/h (0 Bft) S 190 ° 0 min 0,000 mm 0,0 UV-I 0 W/m² 3,3 °C 4,3 °C 0,0 km/h (0 Bft)
24.10.2017 05:16 4,3 °C 4,3 °C 93 % 1026,4 hPa 0,0 mm 0,0 km/h (0 Bft) S 190 ° 0 min 0,000 mm 0,0 UV-I 0 W/m² 3,3 °C 4,3 °C 0,0 km/h (0 Bft)
24.10.2017 05:17 4,3 °C 4,3 °C 93 % 1026,4 hPa 0,0 mm 0,0 km/h (0 Bft) S 190 ° 0 min 0,000 mm 0,0 UV-I 0 W/m² 3,3 °C 4,3 °C 0,0 km/h (0 Bft)
24.10.2017 05:18 4,3 °C 4,3 °C 93 % 1026,5 hPa 0,0 mm 0,0 km/h (0 Bft) S 190 ° 0 min 0,000 mm 0,0 UV-I 0 W/m² 3,3 °C 4,3 °C 0,0 km/h (0 Bft)
24.10.2017 05:19 4,3 °C 4,3 °C 93 % 1026,4 hPa 0,0 mm 0,0 km/h (0 Bft) S 190 ° 0 min 0,000 mm 0,0 UV-I 0 W/m² 3,3 °C 4,3 °C 0,0 km/h (0 Bft)
24.10.2017 05:20 4,3 °C 4,3 °C 93 % 1026,5 hPa 0,0 mm 0,0 km/h (0 Bft) S 190 ° 0 min 0,000 mm 0,0 UV-I 0 W/m² 3,3 °C 4,3 °C 0,0 km/h (0 Bft)
24.10.2017 05:21 4,3 °C 4,3 °C 93 % 1026,5 hPa 0,0 mm 0,0 km/h (0 Bft) S 190 ° 0 min 0,000 mm 0,0 UV-I 0 W/m² 3,3 °C 4,3 °C 0,0 km/h (0 Bft)
24.10.2017 05:22 4,3 °C 4,3 °C 93 % 1026,5 hPa 0,0 mm 0,0 km/h (0 Bft) S 190 ° 0 min 0,000 mm 0,0 UV-I 0 W/m² 3,3 °C 4,3 °C 0,0 km/h (0 Bft)
24.10.2017 05:23 4,3 °C 4,3 °C 93 % 1026,5 hPa 0,0 mm 0,0 km/h (0 Bft) S 190 ° 0 min 0,000 mm 0,0 UV-I 0 W/m² 3,3 °C 4,3 °C 0,0 km/h (0 Bft)
24.10.2017 05:24 4,3 °C 4,3 °C 94 % 1026,5 hPa 0,0 mm 0,0 km/h (0 Bft) S 190 ° 0 min 0,000 mm 0,0 UV-I 0 W/m² 3,4 °C 4,3 °C 0,0 km/h (0 Bft)
24.10.2017 05:25 4,3 °C 4,3 °C 94 % 1026,6 hPa 0,0 mm 0,0 km/h (0 Bft) S 190 ° 0 min 0,000 mm 0,0 UV-I 0 W/m² 3,4 °C 4,3 °C 0,0 km/h (0 Bft)
24.10.2017 05:26 4,4 °C 4,4 °C 94 % 1026,5 hPa 0,0 mm 0,0 km/h (0 Bft) S 190 ° 0 min 0,000 mm 0,0 UV-I 0 W/m² 3,5 °C 4,4 °C 0,0 km/h (0 Bft)
24.10.2017 05:27 4,4 °C 4,4 °C 94 % 1026,6 hPa 0,0 mm 0,0 km/h (0 Bft) S 190 ° 0 min 0,000 mm 0,0 UV-I 0 W/m² 3,5 °C 4,4 °C 0,0 km/h (0 Bft)
24.10.2017 05:28 4,4 °C 4,4 °C 93 % 1026,6 hPa 0,0 mm 0,0 km/h (0 Bft) S 190 ° 0 min 0,000 mm 0,0 UV-I 0 W/m² 3,4 °C 4,4 °C 0,0 km/h (0 Bft)
24.10.2017 05:29 4,4 °C 4,4 °C 93 % 1026,6 hPa 0,0 mm 0,0 km/h (0 Bft) S 190 ° 0 min 0,000 mm 0,0 UV-I 0 W/m² 3,4 °C 4,4 °C 0,0 km/h (0 Bft)
24.10.2017 05:30 4,4 °C 4,4 °C 93 % 1026,7 hPa 0,0 mm 0,0 km/h (0 Bft) S 190 ° 0 min 0,000 mm 0,0 UV-I 0 W/m² 3,4 °C 4,4 °C 0,0 km/h (0 Bft)
24.10.2017 05:31 4,4 °C 4,4 °C 94 % 1026,6 hPa 0,0 mm 0,0 km/h (0 Bft) S 190 ° 0 min 0,000 mm 0,0 UV-I 0 W/m² 3,5 °C 4,4 °C 0,0 km/h (0 Bft)
24.10.2017 05:32 4,4 °C 4,4 °C 94 % 1026,6 hPa 0,0 mm 0,0 km/h (0 Bft) S 190 ° 0 min 0,000 mm 0,0 UV-I 0 W/m² 3,5 °C 4,4 °C 0,0 km/h (0 Bft)
24.10.2017 05:33 4,5 °C 4,5 °C 94 % 1026,7 hPa 0,0 mm 0,0 km/h (0 Bft) S 190 ° 0 min 0,000 mm 0,0 UV-I 0 W/m² 3,6 °C 4,5 °C 0,0 km/h (0 Bft)
24.10.2017 05:34 4,5 °C 4,5 °C 94 % 1026,7 hPa 0,0 mm 0,0 km/h (0 Bft) S 190 ° 0 min 0,000 mm 0,0 UV-I 0 W/m² 3,6 °C 4,5 °C 0,0 km/h (0 Bft)
24.10.2017 05:35 4,5 °C 4,5 °C 94 % 1026,7 hPa 0,0 mm 0,0 km/h (0 Bft) S 190 ° 0 min 0,000 mm 0,0 UV-I 0 W/m² 3,6 °C 4,5 °C 0,0 km/h (0 Bft)
24.10.2017 05:36 4,4 °C 4,5 °C 94 % 1026,7 hPa 0,0 mm 0,0 km/h (0 Bft) S 190 ° 0 min 0,000 mm 0,0 UV-I 0 W/m² 3,5 °C 4,4 °C 0,0 km/h (0 Bft)
24.10.2017 05:37 4,5 °C 4,5 °C 94 % 1026,7 hPa 0,0 mm 0,0 km/h (0 Bft) S 190 ° 0 min 0,000 mm 0,0 UV-I 0 W/m² 3,6 °C 4,5 °C 0,0 km/h (0 Bft)
24.10.2017 05:38 4,5 °C 4,5 °C 94 % 1026,7 hPa 0,0 mm 0,0 km/h (0 Bft) S 190 ° 0 min 0,000 mm 0,0 UV-I 0 W/m² 3,6 °C 4,5 °C 0,0 km/h (0 Bft)
24.10.2017 05:39 4,5 °C 4,5 °C 94 % 1026,7 hPa 0,0 mm 0,0 km/h (0 Bft) S 190 ° 0 min 0,000 mm 0,0 UV-I 0 W/m² 3,6 °C 4,5 °C 0,0 km/h (0 Bft)
24.10.2017 05:40 4,5 °C 4,5 °C 94 % 1026,7 hPa 0,0 mm 0,0 km/h (0 Bft) S 190 ° 0 min 0,000 mm 0,0 UV-I 0 W/m² 3,6 °C 4,5 °C 0,0 km/h (0 Bft)
24.10.2017 05:41 4,6 °C 4,6 °C 94 % 1026,7 hPa 0,0 mm 0,0 km/h (0 Bft) S 190 ° 0 min 0,000 mm 0,0 UV-I 0 W/m² 3,7 °C 4,6 °C 0,0 km/h (0 Bft)
24.10.2017 05:42 4,6 °C 4,6 °C 94 % 1026,8 hPa 0,0 mm 0,0 km/h (0 Bft) S 190 ° 0 min 0,000 mm 0,0 UV-I 0 W/m² 3,7 °C 4,6 °C 0,0 km/h (0 Bft)
24.10.2017 05:43 4,6 °C 4,6 °C 94 % 1026,7 hPa 0,0 mm 1,4 km/h (1 Bft) S 190 ° 0 min 0,000 mm 0,0 UV-I 0 W/m² 3,7 °C 4,6 °C 3,2 km/h (1 Bft)
24.10.2017 05:44 4,6 °C 4,6 °C 94 % 1026,7 hPa 0,0 mm 0,1 km/h (0 Bft) S 190 ° 0 min 0,000 mm 0,0 UV-I 0 W/m² 3,7 °C 4,6 °C 1,6 km/h (1 Bft)
24.10.2017 05:45 4,6 °C 4,6 °C 94 % 1026,7 hPa 0,0 mm 0,0 km/h (0 Bft) S 190 ° 0 min 0,000 mm 0,0 UV-I 0 W/m² 3,7 °C 4,6 °C 0,0 km/h (0 Bft)
24.10.2017 05:46 4,6 °C 4,6 °C 94 % 1026,7 hPa 0,0 mm 0,8 km/h (0 Bft) S 190 ° 0 min 0,000 mm 0,0 UV-I 0 W/m² 3,7 °C 4,6 °C 3,2 km/h (1 Bft)
24.10.2017 05:47 4,7 °C 4,7 °C 93 % 1026,7 hPa 0,0 mm 2,6 km/h (1 Bft) S 190 ° 0 min 0,000 mm 0,0 UV-I 0 W/m² 3,7 °C 4,7 °C 4,8 km/h (1 Bft)
24.10.2017 05:48 4,7 °C 4,7 °C 93 % 1026,7 hPa 0,0 mm 2,0 km/h (1 Bft) SW 219 ° 0 min 0,000 mm 0,0 UV-I 0 W/m² 3,7 °C 4,7 °C 4,8 km/h (1 Bft)
24.10.2017 05:49 4,7 °C 4,7 °C 93 % 1026,8 hPa 0,0 mm 2,7 km/h (1 Bft) S-SW 198 ° 0 min 0,000 mm 0,0 UV-I 0 W/m² 3,7 °C 4,7 °C 6,4 km/h (2 Bft)
24.10.2017 05:50 4,7 °C 4,7 °C 93 % 1026,8 hPa 0,0 mm 0,5 km/h (0 Bft) S-SW 198 ° 0 min 0,000 mm 0,0 UV-I 0 W/m² 3,7 °C 4,7 °C 1,6 km/h (1 Bft)
24.10.2017 05:51 4,8 °C 4,8 °C 93 % 1026,8 hPa 0,0 mm 1,8 km/h (1 Bft) S-SW 198 ° 0 min 0,000 mm 0,0 UV-I 0 W/m² 3,8 °C 4,8 °C 3,2 km/h (1 Bft)
24.10.2017 05:52 4,8 °C 4,8 °C 93 % 1026,8 hPa 0,0 mm 0,7 km/h (0 Bft) S-SW 198 ° 0 min 0,000 mm 0,0 UV-I 0 W/m² 3,8 °C 4,8 °C 1,6 km/h (1 Bft)
24.10.2017 05:53 4,8 °C 4,8 °C 93 % 1026,8 hPa 0,0 mm 0,0 km/h (0 Bft) S-SW 198 ° 0 min 0,000 mm 0,0 UV-I 0 W/m² 3,8 °C 4,8 °C 0,0 km/h (0 Bft)
24.10.2017 05:54 4,8 °C 4,8 °C 93 % 1026,8 hPa 0,0 mm 1,7 km/h (1 Bft) S-SW 198 ° 0 min 0,000 mm 0,0 UV-I 0 W/m² 3,8 °C 4,8 °C 4,8 km/h (1 Bft)
24.10.2017 05:55 4,8 °C 4,8 °C 93 % 1026,8 hPa 0,0 mm 3,2 km/h (1 Bft) S-SW 198 ° 0 min 0,000 mm 0,0 UV-I 0 W/m² 3,8 °C 4,8 °C 4,8 km/h (1 Bft)
24.10.2017 05:56 4,8 °C 4,8 °C 93 % 1026,8 hPa 0,0 mm 1,8 km/h (1 Bft) S-SW 198 ° 0 min 0,000 mm 0,0 UV-I 0 W/m² 3,8 °C 4,8 °C 3,2 km/h (1 Bft)
24.10.2017 05:57 4,8 °C 4,8 °C 92 % 1026,9 hPa 0,0 mm 2,4 km/h (1 Bft) SW 223 ° 0 min 0,000 mm 0,0 UV-I 0 W/m² 3,6 °C 4,8 °C 4,8 km/h (1 Bft)
24.10.2017 05:58 4,8 °C 4,8 °C 92 % 1026,8 hPa 0,0 mm 1,0 km/h (0 Bft) SW 223 ° 0 min 0,000 mm 0,0 UV-I 0 W/m² 3,6 °C 4,8 °C 3,2 km/h (1 Bft)
24.10.2017 05:59 4,8 °C 4,9 °C 92 % 1026,9 hPa 0,0 mm 2,8 km/h (1 Bft) SW 221 ° 0 min 0,000 mm 0,0 UV-I 0 W/m² 3,6 °C 4,8 °C 4,8 km/h (1 Bft)
24.10.2017 06:00 4,9 °C 4,9 °C 92 % 1026,9 hPa 0,0 mm 2,5 km/h (1 Bft) SW 221 ° 0 min 0,000 mm 0,0 UV-I 0 W/m² 3,7 °C 4,9 °C 3,2 km/h (1 Bft)
24.10.2017 06:01 4,9 °C 4,9 °C 92 % 1026,9 hPa 0,0 mm 0,6 km/h (0 Bft) SW 222 ° 0 min 0,000 mm 0,0 UV-I 0 W/m² 3,7 °C 4,9 °C 1,6 km/h (1 Bft)
24.10.2017 06:02 4,9 °C 4,9 °C 92 % 1026,9 hPa 0,0 mm 1,2 km/h (1 Bft) SW 222 ° 0 min 0,000 mm 0,0 UV-I 0 W/m² 3,7 °C 4,9 °C 3,2 km/h (1 Bft)
24.10.2017 06:03 4,9 °C 4,9 °C 92 % 1026,9 hPa 0,0 mm 2,0 km/h (1 Bft) SW 227 ° 0 min 0,000 mm 0,0 UV-I 0 W/m² 3,7 °C 4,9 °C 3,2 km/h (1 Bft)
24.10.2017 06:04 4,9 °C 4,9 °C 92 % 1026,9 hPa 0,0 mm 0,3 km/h (0 Bft) W-SW 241 ° 0 min 0,000 mm 0,0 UV-I 0 W/m² 3,7 °C 4,9 °C 1,6 km/h (1 Bft)
24.10.2017 06:05 4,9 °C 4,9 °C 92 % 1026,9 hPa 0,0 mm 2,3 km/h (1 Bft) W-SW 241 ° 0 min 0,000 mm 0,0 UV-I 0 W/m² 3,7 °C 4,9 °C 4,8 km/h (1 Bft)
24.10.2017 06:06 4,9 °C 4,9 °C 92 % 1026,9 hPa 0,0 mm 3,8 km/h (1 Bft) W-SW 246 ° 0 min 0,000 mm 0,0 UV-I 0 W/m² 3,7 °C 4,9 °C 4,8 km/h (1 Bft)
24.10.2017 06:07 4,9 °C 4,9 °C 92 % 1026,9 hPa 0,0 mm 1,9 km/h (1 Bft) W-SW 246 ° 0 min 0,000 mm 0,0 UV-I 0 W/m² 3,7 °C 4,9 °C 3,2 km/h (1 Bft)
24.10.2017 06:08 4,9 °C 4,9 °C 92 % 1026,9 hPa 0,0 mm 0,0 km/h (0 Bft) W-SW 246 ° 0 min 0,000 mm 0,0 UV-I 0 W/m² 3,7 °C 4,9 °C 0,0 km/h (0 Bft)
24.10.2017 06:09 4,9 °C 4,9 °C 92 % 1026,9 hPa 0,0 mm 0,0 km/h (0 Bft) W-SW 246 ° 0 min 0,000 mm 0,0 UV-I 0 W/m² 3,7 °C 4,9 °C 0,0 km/h (0 Bft)
24.10.2017 06:10 4,9 °C 4,9 °C 92 % 1026,9 hPa 0,0 mm 0,2 km/h (0 Bft) W-SW 246 ° 0 min 0,000 mm 0,0 UV-I 0 W/m² 3,7 °C 4,9 °C 1,6 km/h (1 Bft)
24.10.2017 06:11 4,9 °C 4,9 °C 92 % 1026,9 hPa 0,0 mm 0,5 km/h (0 Bft) W-SW 246 ° 0 min 0,000 mm 0,0 UV-I 0 W/m² 3,7 °C 4,9 °C 3,2 km/h (1 Bft)
24.10.2017 06:12 4,9 °C 4,9 °C 92 % 1026,9 hPa 0,0 mm 1,7 km/h (1 Bft) W-SW 237 ° 0 min 0,000 mm 0,0 UV-I 0 W/m² 3,7 °C 4,9 °C 3,2 km/h (1 Bft)
24.10.2017 06:13 4,9 °C 4,9 °C 92 % 1026,9 hPa 0,0 mm 2,1 km/h (1 Bft) SW 215 ° 0 min 0,000 mm 0,0 UV-I 0 W/m² 3,7 °C 4,9 °C 4,8 km/h (1 Bft)
24.10.2017 06:14 4,9 °C 4,9 °C 92 % 1026,8 hPa 0,0 mm 1,0 km/h (0 Bft) SW 215 ° 0 min 0,000 mm 0,0 UV-I 0 W/m² 3,7 °C 4,9 °C 3,2 km/h (1 Bft)
24.10.2017 06:15 4,9 °C 4,9 °C 92 % 1026,9 hPa 0,0 mm 0,5 km/h (0 Bft) SW 215 ° 0 min 0,000 mm 0,0 UV-I 0 W/m² 3,7 °C 4,9 °C 1,6 km/h (1 Bft)
24.10.2017 06:16 4,9 °C 4,9 °C 92 % 1026,9 hPa 0,0 mm 0,1 km/h (0 Bft) SW 215 ° 0 min 0,000 mm 0,0 UV-I 0 W/m² 3,7 °C 4,9 °C 1,6 km/h (1 Bft)
24.10.2017 06:17 4,9 °C 4,9 °C 92 % 1026,9 hPa 0,0 mm 0,1 km/h (0 Bft) SW 215 ° 0 min 0,000 mm 0,0 UV-I 0 W/m² 3,7 °C 4,9 °C 1,6 km/h (1 Bft)
24.10.2017 06:18 4,8 °C 4,9 °C 92 % 1026,8 hPa 0,0 mm 0,9 km/h (0 Bft) SW 215 ° 0 min 0,000 mm 0,0 UV-I 0 W/m² 3,6 °C 4,8 °C 1,6 km/h (1 Bft)
24.10.2017 06:19 4,8 °C 4,8 °C 92 % 1026,8 hPa 0,0 mm 0,0 km/h (0 Bft) SW 215 ° 0 min 0,000 mm 0,0 UV-I 0 W/m² 3,6 °C 4,8 °C 0,0 km/h (0 Bft)
24.10.2017 06:20 4,8 °C 4,9 °C 92 % 1026,9 hPa 0,0 mm 0,0 km/h (0 Bft) SW 215 ° 0 min 0,000 mm 0,0 UV-I 0 W/m² 3,6 °C 4,8 °C 0,0 km/h (0 Bft)
24.10.2017 06:21 4,9 °C 4,9 °C 92 % 1026,8 hPa 0,0 mm 0,0 km/h (0 Bft) SW 215 ° 0 min 0,000 mm 0,0 UV-I 0 W/m² 3,7 °C 4,9 °C 0,0 km/h (0 Bft)
24.10.2017 06:22 4,9 °C 4,9 °C 92 % 1026,8 hPa 0,0 mm 0,0 km/h (0 Bft) SW 215 ° 0 min 0,000 mm 0,0 UV-I 0 W/m² 3,7 °C 4,9 °C 0,0 km/h (0 Bft)
24.10.2017 06:23 4,9 °C 4,9 °C 92 % 1026,9 hPa 0,0 mm 0,0 km/h (0 Bft) SW 215 ° 0 min 0,000 mm 0,0 UV-I 0 W/m² 3,7 °C 4,9 °C 0,0 km/h (0 Bft)
24.10.2017 06:24 4,9 °C 4,9 °C 92 % 1026,9 hPa 0,0 mm 1,2 km/h (1 Bft) SW 215 ° 0 min 0,000 mm 0,0 UV-I 0 W/m² 3,7 °C 4,9 °C 3,2 km/h (1 Bft)
24.10.2017 06:25 4,9 °C 4,9 °C 92 % 1026,9 hPa 0,0 mm 0,1 km/h (0 Bft) SW 215 ° 0 min 0,000 mm 0,0 UV-I 0 W/m² 3,7 °C 4,9 °C 1,6 km/h (1 Bft)
24.10.2017 06:26 4,9 °C 4,9 °C 92 % 1026,8 hPa 0,0 mm 3,6 km/h (1 Bft) S-SW 198 ° 0 min 0,000 mm 0,0 UV-I 0 W/m² 3,7 °C 4,9 °C 6,4 km/h (2 Bft)
24.10.2017 06:27 4,9 °C 4,9 °C 92 % 1026,9 hPa 0,0 mm 4,4 km/h (1 Bft) S 188 ° 0 min 0,000 mm 0,0 UV-I 0 W/m² 3,7 °C 4,9 °C 8,0 km/h (2 Bft)
24.10.2017 06:28 4,9 °C 4,9 °C 92 % 1026,9 hPa 0,0 mm 3,8 km/h (1 Bft) S-SW 200 ° 0 min 0,000 mm 0,0 UV-I 0 W/m² 3,7 °C 4,9 °C 6,4 km/h (2 Bft)
24.10.2017 06:29 4,9 °C 4,9 °C 92 % 1026,8 hPa 0,0 mm 2,0 km/h (1 Bft) S-SW 200 ° 0 min 0,000 mm 0,0 UV-I 0 W/m² 3,7 °C 4,9 °C 3,2 km/h (1 Bft)
24.10.2017 06:30 4,9 °C 4,9 °C 92 % 1026,8 hPa 0,0 mm 0,7 km/h (0 Bft) S-SW 200 ° 0 min 0,000 mm 0,0 UV-I 0 W/m² 3,7 °C 4,9 °C 3,2 km/h (1 Bft)
24.10.2017 06:31 4,9 °C 4,9 °C 92 % 1026,8 hPa 0,0 mm 0,6 km/h (0 Bft) S-SW 200 ° 0 min 0,000 mm 0,0 UV-I 0 W/m² 3,7 °C 4,9 °C 1,6 km/h (1 Bft)
24.10.2017 06:32 4,9 °C 4,9 °C 92 % 1026,8 hPa 0,0 mm 3,0 km/h (1 Bft) S-SW 200 ° 0 min 0,000 mm 0,0 UV-I 0 W/m² 3,7 °C 4,9 °C 4,8 km/h (1 Bft)
24.10.2017 06:33 4,9 °C 4,9 °C 92 % 1026,8 hPa 0,0 mm 3,7 km/h (1 Bft) S 190 ° 0 min 0,000 mm 0,0 UV-I 0 W/m² 3,7 °C 4,9 °C 6,4 km/h (2 Bft)
24.10.2017 06:34 4,9 °C 4,9 °C 92 % 1026,8 hPa 0,0 mm 3,2 km/h (1 Bft) S 190 ° 0 min 0,000 mm 0,0 UV-I 0 W/m² 3,7 °C 4,9 °C 4,8 km/h (1 Bft)
24.10.2017 06:35 4,9 °C 4,9 °C 92 % 1026,8 hPa 0,0 mm 0,5 km/h (0 Bft) S 190 ° 0 min 0,000 mm 0,0 UV-I 0 W/m² 3,7 °C 4,9 °C 3,2 km/h (1 Bft)
24.10.2017 06:36 4,9 °C 4,9 °C 92 % 1026,8 hPa 0,0 mm 0,0 km/h (0 Bft) S 190 ° 0 min 0,000 mm 0,0 UV-I 0 W/m² 3,7 °C 4,9 °C 0,0 km/h (0 Bft)
24.10.2017 06:37 4,9 °C 4,9 °C 92 % 1026,8 hPa 0,0 mm 0,0 km/h (0 Bft) S 190 ° 0 min 0,000 mm 0,0 UV-I 0 W/m² 3,7 °C 4,9 °C 0,0 km/h (0 Bft)
24.10.2017 06:38 4,9 °C 4,9 °C 92 % 1026,8 hPa 0,0 mm 0,0 km/h (0 Bft) S 190 ° 0 min 0,000 mm 0,0 UV-I 0 W/m² 3,7 °C 4,9 °C 0,0 km/h (0 Bft)
24.10.2017 06:39 4,9 °C 4,9 °C 92 % 1026,8 hPa 0,2 mm 0,0 km/h (0 Bft) S 190 ° 0 min 0,000 mm 0,0 UV-I 0 W/m² 3,7 °C 4,9 °C 0,0 km/h (0 Bft)
24.10.2017 06:40 4,9 °C 4,9 °C 92 % 1026,8 hPa 0,0 mm 0,0 km/h (0 Bft) S 190 ° 0 min 0,000 mm 0,0 UV-I 0 W/m² 3,7 °C 4,9 °C 0,0 km/h (0 Bft)
24.10.2017 06:41 4,9 °C 4,9 °C 92 % 1026,8 hPa 0,0 mm 0,0 km/h (0 Bft) S 190 ° 0 min 0,000 mm 0,0 UV-I 0 W/m² 3,7 °C 4,9 °C 0,0 km/h (0 Bft)
24.10.2017 06:42 4,9 °C 4,9 °C 92 % 1026,8 hPa 0,0 mm 0,5 km/h (0 Bft) S 190 ° 0 min 0,000 mm 0,0 UV-I 0 W/m² 3,7 °C 4,9 °C 1,6 km/h (1 Bft)
24.10.2017 06:43 4,8 °C 4,9 °C 92 % 1026,8 hPa 0,0 mm 0,0 km/h (0 Bft) S 190 ° 0 min 0,000 mm 0,0 UV-I 0 W/m² 3,6 °C 4,8 °C 0,0 km/h (0 Bft)
24.10.2017 06:44 4,8 °C 4,9 °C 93 % 1026,8 hPa 0,0 mm 0,0 km/h (0 Bft) S 190 ° 0 min 0,000 mm 0,0 UV-I 0 W/m² 3,8 °C 4,8 °C 0,0 km/h (0 Bft)
24.10.2017 06:45 4,8 °C 4,9 °C 93 % 1026,8 hPa 0,0 mm 0,0 km/h (0 Bft) S 190 ° 0 min 0,000 mm 0,0 UV-I 0 W/m² 3,8 °C 4,8 °C 0,0 km/h (0 Bft)
24.10.2017 06:46 4,8 °C 4,8 °C 93 % 1026,7 hPa 0,0 mm 0,0 km/h (0 Bft) S 190 ° 0 min 0,000 mm 0,0 UV-I 0 W/m² 3,8 °C 4,8 °C 0,0 km/h (0 Bft)
24.10.2017 06:47 4,8 °C 4,8 °C 93 % 1026,8 hPa 0,0 mm 0,0 km/h (0 Bft) S 190 ° 0 min 0,000 mm 0,0 UV-I 0 W/m² 3,8 °C 4,8 °C 0,0 km/h (0 Bft)
24.10.2017 06:48 4,8 °C 4,8 °C 93 % 1026,8 hPa 0,0 mm 0,0 km/h (0 Bft) S 190 ° 0 min 0,000 mm 0,0 UV-I 0 W/m² 3,8 °C 4,8 °C 0,0 km/h (0 Bft)
24.10.2017 06:49 4,8 °C 4,8 °C 93 % 1026,7 hPa 0,0 mm 0,0 km/h (0 Bft) S 190 ° 0 min 0,000 mm 0,0 UV-I 0 W/m² 3,8 °C 4,8 °C 0,0 km/h (0 Bft)
24.10.2017 06:50 4,8 °C 4,8 °C 93 % 1026,7 hPa 0,0 mm 0,0 km/h (0 Bft) S 190 ° 0 min 0,000 mm 0,0 UV-I 0 W/m² 3,8 °C 4,8 °C 0,0 km/h (0 Bft)
24.10.2017 06:51 4,8 °C 4,8 °C 93 % 1026,9 hPa 0,0 mm 0,0 km/h (0 Bft) S 190 ° 0 min 0,000 mm 0,0 UV-I 0 W/m² 3,8 °C 4,8 °C 0,0 km/h (0 Bft)
24.10.2017 06:52 4,8 °C 4,8 °C 93 % 1026,7 hPa 0,0 mm 0,0 km/h (0 Bft) S 190 ° 0 min 0,000 mm 0,0 UV-I 0 W/m² 3,8 °C 4,8 °C 0,0 km/h (0 Bft)
24.10.2017 06:53 4,8 °C 4,8 °C 93 % 1026,8 hPa 0,0 mm 0,0 km/h (0 Bft) S 190 ° 0 min 0,000 mm 0,0 UV-I 0 W/m² 3,8 °C 4,8 °C 0,0 km/h (0 Bft)
24.10.2017 06:54 4,8 °C 4,8 °C 93 % 1026,8 hPa 0,0 mm 0,0 km/h (0 Bft) S 190 ° 0 min 0,000 mm 0,0 UV-I 0 W/m² 3,8 °C 4,8 °C 0,0 km/h (0 Bft)
24.10.2017 06:55 4,8 °C 4,8 °C 93 % 1026,9 hPa 0,0 mm 0,0 km/h (0 Bft) S 190 ° 0 min 0,000 mm 0,0 UV-I 0 W/m² 3,8 °C 4,8 °C 0,0 km/h (0 Bft)
24.10.2017 06:56 4,8 °C 4,8 °C 93 % 1026,8 hPa 0,0 mm 0,0 km/h (0 Bft) S 190 ° 0 min 0,000 mm 0,0 UV-I 0 W/m² 3,8 °C 4,8 °C 0,0 km/h (0 Bft)
24.10.2017 06:57 4,8 °C 4,8 °C 93 % 1026,8 hPa 0,0 mm 0,0 km/h (0 Bft) S 190 ° 0 min 0,000 mm 0,0 UV-I 0 W/m² 3,8 °C 4,8 °C 0,0 km/h (0 Bft)
24.10.2017 06:58 4,8 °C 4,8 °C 93 % 1026,8 hPa 0,0 mm 2,2 km/h (1 Bft) S 190 ° 0 min 0,000 mm 0,0 UV-I 0 W/m² 3,8 °C 4,8 °C 3,2 km/h (1 Bft)
24.10.2017 06:59 4,8 °C 4,8 °C 93 % 1026,8 hPa 0,0 mm 2,5 km/h (1 Bft) S 190 ° 0 min 0,000 mm 0,0 UV-I 0 W/m² 3,8 °C 4,8 °C 3,2 km/h (1 Bft)
24.10.2017 07:00 4,8 °C 4,9 °C 93 % 1026,8 hPa 0,0 mm 1,3 km/h (1 Bft) S 190 ° 0 min 0,000 mm 0,0 UV-I 0 W/m² 3,8 °C 4,8 °C 3,2 km/h (1 Bft)
24.10.2017 07:01 4,8 °C 4,9 °C 93 % 1026,8 hPa 0,0 mm 1,6 km/h (1 Bft) S 190 ° 0 min 0,000 mm 0,0 UV-I 0 W/m² 3,8 °C 4,8 °C 3,2 km/h (1 Bft)
24.10.2017 07:02 4,9 °C 4,9 °C 93 % 1026,8 hPa 0,0 mm 2,1 km/h (1 Bft) S 190 ° 0 min 0,000 mm 0,0 UV-I 0 W/m² 3,9 °C 4,9 °C 3,2 km/h (1 Bft)
24.10.2017 07:03 4,8 °C 4,9 °C 93 % 1026,8 hPa 0,0 mm 3,0 km/h (1 Bft) SW 233 ° 0 min 0,000 mm 0,0 UV-I 0 W/m² 3,8 °C 4,8 °C 4,8 km/h (1 Bft)
24.10.2017 07:04 4,8 °C 4,9 °C 93 % 1026,8 hPa 0,0 mm 0,9 km/h (0 Bft) SW 233 ° 0 min 0,000 mm 0,0 UV-I 0 W/m² 3,8 °C 4,8 °C 3,2 km/h (1 Bft)
24.10.2017 07:05 4,8 °C 4,8 °C 93 % 1026,8 hPa 0,0 mm 0,0 km/h (0 Bft) SW 233 ° 0 min 0,000 mm 0,0 UV-I 0 W/m² 3,8 °C 4,8 °C 0,0 km/h (0 Bft)
24.10.2017 07:06 4,8 °C 4,8 °C 93 % 1026,8 hPa 0,0 mm 0,0 km/h (0 Bft) SW 233 ° 0 min 0,000 mm 0,0 UV-I 0 W/m² 3,8 °C 4,8 °C 0,0 km/h (0 Bft)
24.10.2017 07:07 4,8 °C 4,8 °C 93 % 1026,8 hPa 0,0 mm 0,0 km/h (0 Bft) SW 233 ° 0 min 0,000 mm 0,0 UV-I 0 W/m² 3,8 °C 4,8 °C 0,0 km/h (0 Bft)
24.10.2017 07:08 4,8 °C 4,8 °C 93 % 1026,8 hPa 0,0 mm 0,0 km/h (0 Bft) SW 233 ° 0 min 0,000 mm 0,0 UV-I 0 W/m² 3,8 °C 4,8 °C 0,0 km/h (0 Bft)
24.10.2017 07:09 4,8 °C 4,8 °C 93 % 1026,8 hPa 0,0 mm 0,0 km/h (0 Bft) SW 233 ° 0 min 0,000 mm 0,0 UV-I 0 W/m² 3,8 °C 4,8 °C 0,0 km/h (0 Bft)
24.10.2017 07:10 4,7 °C 4,8 °C 93 % 1026,8 hPa 0,0 mm 0,0 km/h (0 Bft) SW 233 ° 0 min 0,000 mm 0,0 UV-I 0 W/m² 3,7 °C 4,7 °C 0,0 km/h (0 Bft)
24.10.2017 07:11 4,7 °C 4,7 °C 93 % 1026,9 hPa 0,0 mm 0,0 km/h (0 Bft) SW 233 ° 0 min 0,000 mm 0,0 UV-I 0 W/m² 3,7 °C 4,7 °C 0,0 km/h (0 Bft)
24.10.2017 07:12 4,7 °C 4,7 °C 93 % 1026,8 hPa 0,0 mm 0,0 km/h (0 Bft) SW 233 ° 0 min 0,000 mm 0,0 UV-I 0 W/m² 3,7 °C 4,7 °C 0,0 km/h (0 Bft)
24.10.2017 07:13 4,7 °C 4,7 °C 93 % 1026,8 hPa 0,0 mm 0,0 km/h (0 Bft) SW 233 ° 0 min 0,000 mm 0,0 UV-I 0 W/m² 3,7 °C 4,7 °C 0,0 km/h (0 Bft)
24.10.2017 07:14 4,6 °C 4,7 °C 93 % 1026,8 hPa 0,0 mm 0,1 km/h (0 Bft) SW 233 ° 0 min 0,000 mm 0,0 UV-I 0 W/m² 3,6 °C 4,6 °C 1,6 km/h (1 Bft)
24.10.2017 07:15 4,6 °C 4,7 °C 93 % 1026,8 hPa 0,0 mm 0,0 km/h (0 Bft) SW 233 ° 0 min 0,000 mm 0,0 UV-I 0 W/m² 3,6 °C 4,6 °C 0,0 km/h (0 Bft)
24.10.2017 07:16 4,6 °C 4,6 °C 93 % 1026,9 hPa 0,0 mm 0,8 km/h (0 Bft) SW 233 ° 0 min 0,000 mm 0,0 UV-I 0 W/m² 3,6 °C 4,6 °C 3,2 km/h (1 Bft)
24.10.2017 07:17 4,6 °C 4,7 °C 93 % 1026,9 hPa 0,0 mm 1,0 km/h (0 Bft) SW 233 ° 0 min 0,000 mm 0,0 UV-I 0 W/m² 3,6 °C 4,6 °C 3,2 km/h (1 Bft)
24.10.2017 07:18 4,6 °C 4,6 °C 93 % 1026,9 hPa 0,0 mm 0,0 km/h (0 Bft) SW 233 ° 0 min 0,000 mm 0,0 UV-I 0 W/m² 3,6 °C 4,6 °C 0,0 km/h (0 Bft)
24.10.2017 07:19 4,6 °C 4,6 °C 93 % 1026,9 hPa 0,0 mm 0,0 km/h (0 Bft) SW 233 ° 0 min 0,000 mm 0,0 UV-I 0 W/m² 3,6 °C 4,6 °C 0,0 km/h (0 Bft)
24.10.2017 07:20 4,6 °C 4,6 °C 93 % 1026,9 hPa 0,0 mm 0,0 km/h (0 Bft) SW 233 ° 0 min 0,000 mm 0,0 UV-I 0 W/m² 3,6 °C 4,6 °C 0,0 km/h (0 Bft)
24.10.2017 07:21 4,5 °C 4,6 °C 93 % 1026,9 hPa 0,0 mm 0,0 km/h (0 Bft) SW 233 ° 0 min 0,000 mm 0,0 UV-I 0 W/m² 3,5 °C 4,5 °C 0,0 km/h (0 Bft)
24.10.2017 07:22 4,5 °C 4,6 °C 93 % 1027,0 hPa 0,0 mm 0,0 km/h (0 Bft) SW 233 ° 0 min 0,000 mm 0,0 UV-I 0 W/m² 3,5 °C 4,5 °C 0,0 km/h (0 Bft)
24.10.2017 07:23 4,5 °C 4,5 °C 93 % 1027,0 hPa 0,0 mm 0,0 km/h (0 Bft) SW 233 ° 0 min 0,000 mm 0,0 UV-I 0 W/m² 3,5 °C 4,5 °C 0,0 km/h (0 Bft)
24.10.2017 07:24 4,4 °C 4,5 °C 93 % 1027,0 hPa 0,0 mm 0,0 km/h (0 Bft) SW 233 ° 0 min 0,000 mm 0,0 UV-I 0 W/m² 3,4 °C 4,4 °C 0,0 km/h (0 Bft)
24.10.2017 07:25 4,4 °C 4,5 °C 93 % 1027,0 hPa 0,0 mm 0,0 km/h (0 Bft) SW 233 ° 0 min 0,000 mm 0,0 UV-I 0 W/m² 3,4 °C 4,4 °C 0,0 km/h (0 Bft)
24.10.2017 07:26 4,4 °C 4,4 °C 93 % 1027,0 hPa 0,0 mm 0,0 km/h (0 Bft) SW 233 ° 0 min 0,000 mm 0,0 UV-I 0 W/m² 3,4 °C 4,4 °C 0,0 km/h (0 Bft)
24.10.2017 07:27 4,4 °C 4,4 °C 94 % 1027,0 hPa 0,0 mm 0,0 km/h (0 Bft) SW 233 ° 0 min 0,000 mm 0,0 UV-I 0 W/m² 3,5 °C 4,4 °C 0,0 km/h (0 Bft)
24.10.2017 07:28 4,4 °C 4,4 °C 94 % 1027,0 hPa 0,0 mm 0,0 km/h (0 Bft) SW 233 ° 0 min 0,000 mm 0,0 UV-I 0 W/m² 3,5 °C 4,4 °C 0,0 km/h (0 Bft)
24.10.2017 07:29 4,4 °C 4,4 °C 94 % 1027,0 hPa 0,0 mm 0,0 km/h (0 Bft) SW 233 ° 0 min 0,000 mm 0,0 UV-I 0 W/m² 3,5 °C 4,4 °C 0,0 km/h (0 Bft)
24.10.2017 07:30 4,3 °C 4,4 °C 94 % 1027,0 hPa 0,2 mm 0,0 km/h (0 Bft) SW 233 ° 0 min 0,000 mm 0,0 UV-I 0 W/m² 3,4 °C 4,3 °C 0,0 km/h (0 Bft)
24.10.2017 07:31 4,3 °C 4,3 °C 94 % 1027,0 hPa 0,0 mm 0,0 km/h (0 Bft) SW 233 ° 0 min 0,000 mm 0,0 UV-I 0 W/m² 3,4 °C 4,3 °C 0,0 km/h (0 Bft)
24.10.2017 07:32 4,2 °C 4,3 °C 93 % 1027,0 hPa 0,0 mm 0,0 km/h (0 Bft) SW 233 ° 0 min 0,000 mm 0,0 UV-I 0 W/m² 3,2 °C 4,2 °C 0,0 km/h (0 Bft)
24.10.2017 07:33 4,1 °C 4,2 °C 93 % 1027,0 hPa 0,0 mm 0,0 km/h (0 Bft) SW 233 ° 0 min 0,000 mm 0,0 UV-I 0 W/m² 3,1 °C 4,1 °C 0,0 km/h (0 Bft)
24.10.2017 07:34 4,1 °C 4,1 °C 93 % 1027,0 hPa 0,0 mm 0,0 km/h (0 Bft) SW 233 ° 0 min 0,000 mm 0,0 UV-I 0 W/m² 3,1 °C 4,1 °C 0,0 km/h (0 Bft)
24.10.2017 07:35 4,1 °C 4,1 °C 93 % 1027,0 hPa 0,0 mm 0,0 km/h (0 Bft) SW 233 ° 0 min 0,000 mm 0,0 UV-I 0 W/m² 3,1 °C 4,1 °C 0,0 km/h (0 Bft)
24.10.2017 07:36 4,0 °C 4,1 °C 93 % 1027,0 hPa 0,0 mm 0,0 km/h (0 Bft) SW 233 ° 0 min 0,000 mm 0,0 UV-I 0 W/m² 3,0 °C 4,0 °C 0,0 km/h (0 Bft)
24.10.2017 07:37 3,9 °C 4,0 °C 93 % 1027,0 hPa 0,0 mm 0,0 km/h (0 Bft) SW 233 ° 0 min 0,000 mm 0,0 UV-I 0 W/m² 2,9 °C 3,9 °C 0,0 km/h (0 Bft)
24.10.2017 07:38 3,9 °C 3,9 °C 94 % 1027,0 hPa 0,0 mm 0,0 km/h (0 Bft) SW 233 ° 0 min 0,000 mm 0,0 UV-I 0 W/m² 3,0 °C 3,9 °C 0,0 km/h (0 Bft)
24.10.2017 07:39 4,0 °C 4,0 °C 94 % 1027,0 hPa 0,0 mm 0,0 km/h (0 Bft) SW 233 ° 0 min 0,000 mm 0,0 UV-I 0 W/m² 3,1 °C 4,0 °C 0,0 km/h (0 Bft)
24.10.2017 07:40 4,0 °C 4,0 °C 94 % 1027,0 hPa 0,0 mm 0,0 km/h (0 Bft) SW 233 ° 0 min 0,000 mm 0,0 UV-I 0 W/m² 3,1 °C 4,0 °C 0,0 km/h (0 Bft)
24.10.2017 07:41 4,0 °C 4,0 °C 94 % 1027,0 hPa 0,0 mm 0,0 km/h (0 Bft) SW 233 ° 0 min 0,000 mm 0,0 UV-I 0 W/m² 3,1 °C 4,0 °C 0,0 km/h (0 Bft)
24.10.2017 07:42 4,0 °C 4,0 °C 94 % 1027,0 hPa 0,0 mm 0,0 km/h (0 Bft) SW 233 ° 0 min 0,000 mm 0,0 UV-I 0 W/m² 3,1 °C 4,0 °C 0,0 km/h (0 Bft)
24.10.2017 07:43 4,0 °C 4,0 °C 94 % 1027,1 hPa 0,0 mm 0,0 km/h (0 Bft) SW 233 ° 0 min 0,000 mm 0,0 UV-I 0 W/m² 3,1 °C 4,0 °C 0,0 km/h (0 Bft)
24.10.2017 07:44 4,0 °C 4,0 °C 94 % 1027,0 hPa 0,0 mm 0,0 km/h (0 Bft) SW 233 ° 0 min 0,000 mm 0,0 UV-I 0 W/m² 3,1 °C 4,0 °C 0,0 km/h (0 Bft)
24.10.2017 07:45 4,0 °C 4,0 °C 94 % 1027,0 hPa 0,0 mm 0,0 km/h (0 Bft) SW 233 ° 0 min 0,000 mm 0,0 UV-I 0 W/m² 3,1 °C 4,0 °C 0,0 km/h (0 Bft)
24.10.2017 07:46 4,0 °C 4,1 °C 94 % 1027,0 hPa 0,0 mm 0,0 km/h (0 Bft) SW 233 ° 0 min 0,000 mm 0,0 UV-I 0 W/m² 3,1 °C 4,0 °C 0,0 km/h (0 Bft)
24.10.2017 07:47 4,1 °C 4,1 °C 94 % 1027,0 hPa 0,0 mm 0,0 km/h (0 Bft) SW 233 ° 0 min 0,000 mm 0,0 UV-I 0 W/m² 3,2 °C 4,1 °C 0,0 km/h (0 Bft)
24.10.2017 07:48 4,1 °C 4,1 °C 94 % 1027,0 hPa 0,0 mm 0,0 km/h (0 Bft) SW 233 ° 0 min 0,000 mm 0,0 UV-I 0 W/m² 3,2 °C 4,1 °C 0,0 km/h (0 Bft)
24.10.2017 07:49 4,1 °C 4,1 °C 94 % 1027,0 hPa 0,0 mm 0,0 km/h (0 Bft) SW 233 ° 0 min 0,000 mm 0,0 UV-I 0 W/m² 3,2 °C 4,1 °C 0,0 km/h (0 Bft)
24.10.2017 07:50 4,1 °C 4,1 °C 94 % 1027,0 hPa 0,0 mm 0,0 km/h (0 Bft) SW 233 ° 0 min 0,000 mm 0,0 UV-I 0 W/m² 3,2 °C 4,1 °C 0,0 km/h (0 Bft)
24.10.2017 07:51 4,0 °C 4,1 °C 94 % 1027,0 hPa 0,0 mm 0,0 km/h (0 Bft) SW 233 ° 0 min 0,000 mm 0,0 UV-I 0 W/m² 3,1 °C 4,0 °C 0,0 km/h (0 Bft)
24.10.2017 07:52 4,0 °C 4,0 °C 94 % 1027,1 hPa 0,0 mm 0,0 km/h (0 Bft) SW 233 ° 0 min 0,000 mm 0,0 UV-I 0 W/m² 3,1 °C 4,0 °C 0,0 km/h (0 Bft)
24.10.2017 07:53 4,0 °C 4,0 °C 94 % 1027,1 hPa 0,0 mm 0,0 km/h (0 Bft) SW 233 ° 0 min 0,000 mm 0,0 UV-I 0 W/m² 3,1 °C 4,0 °C 0,0 km/h (0 Bft)
24.10.2017 07:54 4,0 °C 4,0 °C 94 % 1027,1 hPa 0,0 mm 0,0 km/h (0 Bft) SW 233 ° 0 min 0,000 mm 0,0 UV-I 0 W/m² 3,1 °C 4,0 °C 0,0 km/h (0 Bft)
24.10.2017 07:55 4,0 °C 4,0 °C 94 % 1027,1 hPa 0,0 mm 0,0 km/h (0 Bft) SW 233 ° 0 min 0,000 mm 0,0 UV-I 0 W/m² 3,1 °C 4,0 °C 0,0 km/h (0 Bft)
24.10.2017 07:56 4,0 °C 4,0 °C 94 % 1027,0 hPa 0,0 mm 0,0 km/h (0 Bft) SW 233 ° 0 min 0,000 mm 0,0 UV-I 0 W/m² 3,1 °C 4,0 °C 0,0 km/h (0 Bft)
24.10.2017 07:57 4,0 °C 4,0 °C 94 % 1027,0 hPa 0,0 mm 0,0 km/h (0 Bft) SW 233 ° 0 min 0,000 mm 0,0 UV-I 0 W/m² 3,1 °C 4,0 °C 0,0 km/h (0 Bft)
24.10.2017 07:58 4,0 °C 4,1 °C 94 % 1027,1 hPa 0,0 mm 0,0 km/h (0 Bft) SW 233 ° 0 min 0,000 mm 0,0 UV-I 5 W/m² 3,1 °C 4,0 °C 0,0 km/h (0 Bft)
24.10.2017 07:59 4,0 °C 4,0 °C 94 % 1027,1 hPa 0,0 mm 0,0 km/h (0 Bft) SW 233 ° 0 min 0,000 mm 0,0 UV-I 5 W/m² 3,1 °C 4,0 °C 0,0 km/h (0 Bft)
24.10.2017 08:00 4,0 °C 4,0 °C 94 % 1027,1 hPa 0,0 mm 0,0 km/h (0 Bft) SW 233 ° 0 min 0,000 mm 0,0 UV-I 5 W/m² 3,1 °C 4,0 °C 0,0 km/h (0 Bft)
24.10.2017 08:01 4,0 °C 4,0 °C 94 % 1027,0 hPa 0,0 mm 0,0 km/h (0 Bft) SW 233 ° 0 min 0,000 mm 0,0 UV-I 7 W/m² 3,1 °C 4,0 °C 0,0 km/h (0 Bft)
24.10.2017 08:02 4,0 °C 4,0 °C 94 % 1027,0 hPa 0,0 mm 0,0 km/h (0 Bft) SW 233 ° 0 min 0,000 mm 0,0 UV-I 7 W/m² 3,1 °C 4,0 °C 0,0 km/h (0 Bft)
24.10.2017 08:03 4,0 °C 4,1 °C 94 % 1027,1 hPa 0,0 mm 0,0 km/h (0 Bft) SW 233 ° 0 min 0,000 mm 0,0 UV-I 7 W/m² 3,1 °C 4,0 °C 0,0 km/h (0 Bft)
24.10.2017 08:04 4,1 °C 4,1 °C 94 % 1027,1 hPa 0,0 mm 0,0 km/h (0 Bft) SW 233 ° 0 min 0,000 mm 0,0 UV-I 7 W/m² 3,2 °C 4,1 °C 0,0 km/h (0 Bft)
24.10.2017 08:05 4,1 °C 4,1 °C 94 % 1027,1 hPa 0,0 mm 0,0 km/h (0 Bft) SW 233 ° 0 min 0,000 mm 0,0 UV-I 9 W/m² 3,2 °C 4,1 °C 0,0 km/h (0 Bft)
24.10.2017 08:06 4,1 °C 4,1 °C 94 % 1027,1 hPa 0,0 mm 0,0 km/h (0 Bft) SW 233 ° 0 min 0,000 mm 0,0 UV-I 9 W/m² 3,2 °C 4,1 °C 0,0 km/h (0 Bft)
24.10.2017 08:07 4,1 °C 4,1 °C 94 % 1027,1 hPa 0,0 mm 0,0 km/h (0 Bft) SW 233 ° 0 min 0,000 mm 0,0 UV-I 11 W/m² 3,2 °C 4,1 °C 0,0 km/h (0 Bft)
24.10.2017 08:08 4,1 °C 4,1 °C 94 % 1027,1 hPa 0,0 mm 0,0 km/h (0 Bft) SW 233 ° 0 min 0,000 mm 0,0 UV-I 11 W/m² 3,2 °C 4,1 °C 0,0 km/h (0 Bft)
24.10.2017 08:09 4,1 °C 4,1 °C 94 % 1027,1 hPa 0,0 mm 0,0 km/h (0 Bft) SW 233 ° 0 min 0,000 mm 0,0 UV-I 11 W/m² 3,2 °C 4,1 °C 0,0 km/h (0 Bft)
24.10.2017 08:10 4,1 °C 4,1 °C 94 % 1027,1 hPa 0,0 mm 0,0 km/h (0 Bft) SW 233 ° 0 min 0,000 mm 0,0 UV-I 11 W/m² 3,2 °C 4,1 °C 0,0 km/h (0 Bft)
24.10.2017 08:11 4,1 °C 4,1 °C 95 % 1027,1 hPa 0,0 mm 0,0 km/h (0 Bft) SW 233 ° 0 min 0,000 mm 0,0 UV-I 11 W/m² 3,4 °C 4,1 °C 0,0 km/h (0 Bft)
24.10.2017 08:12 4,2 °C 4,2 °C 94 % 1027,0 hPa 0,0 mm 0,0 km/h (0 Bft) SW 233 ° 0 min 0,000 mm 0,0 UV-I 11 W/m² 3,3 °C 4,2 °C 0,0 km/h (0 Bft)
24.10.2017 08:13 4,2 °C 4,2 °C 95 % 1027,0 hPa 0,0 mm 0,0 km/h (0 Bft) SW 233 ° 0 min 0,000 mm 0,0 UV-I 11 W/m² 3,5 °C 4,2 °C 0,0 km/h (0 Bft)
24.10.2017 08:14 4,2 °C 4,2 °C 95 % 1027,0 hPa 0,0 mm 0,0 km/h (0 Bft) SW 233 ° 0 min 0,000 mm 0,0 UV-I 12 W/m² 3,5 °C 4,2 °C 0,0 km/h (0 Bft)
24.10.2017 08:15 4,2 °C 4,2 °C 95 % 1027,1 hPa 0,0 mm 0,0 km/h (0 Bft) SW 233 ° 0 min 0,000 mm 0,0 UV-I 14 W/m² 3,5 °C 4,2 °C 0,0 km/h (0 Bft)
24.10.2017 08:16 4,2 °C 4,2 °C 95 % 1027,1 hPa 0,0 mm 0,0 km/h (0 Bft) SW 233 ° 0 min 0,000 mm 0,0 UV-I 14 W/m² 3,5 °C 4,2 °C 0,0 km/h (0 Bft)
24.10.2017 08:17 4,2 °C 4,2 °C 95 % 1027,1 hPa 0,0 mm 0,0 km/h (0 Bft) SW 233 ° 0 min 0,000 mm 0,0 UV-I 14 W/m² 3,5 °C 4,2 °C 0,0 km/h (0 Bft)
24.10.2017 08:18 4,2 °C 4,2 °C 95 % 1027,1 hPa 0,0 mm 0,0 km/h (0 Bft) SW 233 ° 0 min 0,000 mm 0,0 UV-I 16 W/m² 3,5 °C 4,2 °C 0,0 km/h (0 Bft)
24.10.2017 08:19 4,2 °C 4,2 °C 95 % 1027,1 hPa 0,0 mm 0,0 km/h (0 Bft) SW 233 ° 0 min 0,000 mm 0,0 UV-I 16 W/m² 3,5 °C 4,2 °C 0,0 km/h (0 Bft)
24.10.2017 08:20 4,2 °C 4,3 °C 95 % 1027,2 hPa 0,0 mm 0,0 km/h (0 Bft) SW 233 ° 0 min 0,000 mm 0,0 UV-I 18 W/m² 3,5 °C 4,2 °C 0,0 km/h (0 Bft)
24.10.2017 08:21 4,2 °C 4,2 °C 94 % 1027,2 hPa 0,0 mm 0,0 km/h (0 Bft) SW 233 ° 0 min 0,000 mm 0,0 UV-I 18 W/m² 3,3 °C 4,2 °C 0,0 km/h (0 Bft)
24.10.2017 08:22 4,2 °C 4,2 °C 95 % 1027,1 hPa 0,0 mm 0,0 km/h (0 Bft) SW 233 ° 0 min 0,000 mm 0,0 UV-I 18 W/m² 3,5 °C 4,2 °C 0,0 km/h (0 Bft)
24.10.2017 08:23 4,3 °C 4,3 °C 95 % 1027,1 hPa 0,0 mm 0,0 km/h (0 Bft) SW 233 ° 0 min 0,000 mm 0,0 UV-I 18 W/m² 3,6 °C 4,3 °C 0,0 km/h (0 Bft)
24.10.2017 08:24 4,2 °C 4,3 °C 95 % 1027,1 hPa 0,0 mm 0,0 km/h (0 Bft) SW 233 ° 0 min 0,000 mm 0,0 UV-I 19 W/m² 3,5 °C 4,2 °C 0,0 km/h (0 Bft)
24.10.2017 08:25 4,3 °C 4,3 °C 95 % 1027,1 hPa 0,0 mm 0,0 km/h (0 Bft) SW 233 ° 0 min 0,000 mm 0,0 UV-I 19 W/m² 3,6 °C 4,3 °C 0,0 km/h (0 Bft)
24.10.2017 08:26 4,3 °C 4,3 °C 95 % 1027,2 hPa 0,0 mm 0,0 km/h (0 Bft) SW 233 ° 0 min 0,000 mm 0,0 UV-I 21 W/m² 3,6 °C 4,3 °C 0,0 km/h (0 Bft)
24.10.2017 08:27 4,3 °C 4,3 °C 94 % 1027,2 hPa 0,0 mm 0,0 km/h (0 Bft) SW 233 ° 0 min 0,000 mm 0,0 UV-I 21 W/m² 3,4 °C 4,3 °C 0,0 km/h (0 Bft)
24.10.2017 08:28 4,3 °C 4,3 °C 94 % 1027,2 hPa 0,0 mm 0,0 km/h (0 Bft) SW 233 ° 0 min 0,000 mm 0,0 UV-I 21 W/m² 3,4 °C 4,3 °C 0,0 km/h (0 Bft)
24.10.2017 08:29 4,3 °C 4,3 °C 94 % 1027,2 hPa 0,0 mm 0,0 km/h (0 Bft) SW 233 ° 0 min 0,000 mm 0,0 UV-I 23 W/m² 3,4 °C 4,3 °C 0,0 km/h (0 Bft)
24.10.2017 08:30 4,3 °C 4,3 °C 94 % 1027,1 hPa 0,0 mm 0,0 km/h (0 Bft) SW 233 ° 0 min 0,000 mm 0,0 UV-I 25 W/m² 3,4 °C 4,3 °C 0,0 km/h (0 Bft)
24.10.2017 08:31 4,3 °C 4,3 °C 94 % 1027,1 hPa 0,0 mm 0,0 km/h (0 Bft) SW 233 ° 0 min 0,000 mm 0,0 UV-I 25 W/m² 3,4 °C 4,3 °C 0,0 km/h (0 Bft)
24.10.2017 08:32 4,3 °C 4,3 °C 94 % 1027,2 hPa 0,0 mm 0,0 km/h (0 Bft) SW 233 ° 0 min 0,000 mm 0,0 UV-I 26 W/m² 3,4 °C 4,3 °C 0,0 km/h (0 Bft)
24.10.2017 08:33 4,3 °C 4,4 °C 94 % 1027,2 hPa 0,0 mm 0,0 km/h (0 Bft) SW 233 ° 0 min 0,000 mm 0,0 UV-I 26 W/m² 3,4 °C 4,3 °C 0,0 km/h (0 Bft)
24.10.2017 08:34 4,4 °C 4,4 °C 94 % 1027,2 hPa 0,0 mm 0,9 km/h (0 Bft) SW 233 ° 0 min 0,000 mm 0,0 UV-I 28 W/m² 3,5 °C 4,4 °C 1,6 km/h (1 Bft)
24.10.2017 08:35 4,4 °C 4,4 °C 95 % 1027,2 hPa 0,0 mm 0,6 km/h (0 Bft) SW 233 ° 0 min 0,000 mm 0,0 UV-I 28 W/m² 3,7 °C 4,4 °C 3,2 km/h (1 Bft)
24.10.2017 08:36 4,4 °C 4,4 °C 94 % 1027,3 hPa 0,0 mm 0,2 km/h (0 Bft) SW 233 ° 0 min 0,000 mm 0,0 UV-I 28 W/m² 3,5 °C 4,4 °C 1,6 km/h (1 Bft)
24.10.2017 08:37 4,4 °C 4,4 °C 94 % 1027,2 hPa 0,0 mm 0,8 km/h (0 Bft) SW 234 ° 0 min 0,000 mm 0,0 UV-I 28 W/m² 3,5 °C 4,4 °C 1,6 km/h (1 Bft)
24.10.2017 08:38 4,3 °C 4,4 °C 94 % 1027,3 hPa 0,0 mm 0,0 km/h (0 Bft) SW 234 ° 0 min 0,000 mm 0,0 UV-I 30 W/m² 3,4 °C 4,3 °C 0,0 km/h (0 Bft)
24.10.2017 08:39 4,4 °C 4,4 °C 94 % 1027,3 hPa 0,0 mm 0,0 km/h (0 Bft) SW 234 ° 0 min 0,000 mm 0,0 UV-I 32 W/m² 3,5 °C 4,4 °C 0,0 km/h (0 Bft)
24.10.2017 08:40 4,4 °C 4,4 °C 94 % 1027,3 hPa 0,0 mm 0,0 km/h (0 Bft) SW 234 ° 0 min 0,000 mm 0,0 UV-I 32 W/m² 3,5 °C 4,4 °C 0,0 km/h (0 Bft)
24.10.2017 08:41 4,4 °C 4,4 °C 94 % 1027,2 hPa 0,0 mm 0,0 km/h (0 Bft) SW 234 ° 0 min 0,000 mm 0,0 UV-I 37 W/m² 3,5 °C 4,4 °C 0,0 km/h (0 Bft)
24.10.2017 08:42 4,4 °C 4,4 °C 94 % 1027,3 hPa 0,0 mm 0,0 km/h (0 Bft) SW 234 ° 0 min 0,000 mm 0,0 UV-I 39 W/m² 3,5 °C 4,4 °C 0,0 km/h (0 Bft)
24.10.2017 08:43 4,4 °C 4,4 °C 94 % 1027,2 hPa 0,0 mm 0,0 km/h (0 Bft) SW 234 ° 0 min 0,000 mm 0,0 UV-I 40 W/m² 3,5 °C 4,4 °C 0,0 km/h (0 Bft)
24.10.2017 08:44 4,4 °C 4,4 °C 95 % 1027,3 hPa 0,0 mm 0,0 km/h (0 Bft) SW 234 ° 0 min 0,000 mm 0,0 UV-I 42 W/m² 3,7 °C 4,4 °C 0,0 km/h (0 Bft)
24.10.2017 08:45 4,5 °C 4,5 °C 95 % 1027,3 hPa 0,0 mm 0,0 km/h (0 Bft) SW 234 ° 0 min 0,000 mm 0,0 UV-I 42 W/m² 3,8 °C 4,5 °C 0,0 km/h (0 Bft)
24.10.2017 08:46 4,5 °C 4,5 °C 95 % 1027,3 hPa 0,0 mm 0,0 km/h (0 Bft) SW 234 ° 0 min 0,000 mm 0,0 UV-I 42 W/m² 3,8 °C 4,5 °C 0,0 km/h (0 Bft)
24.10.2017 08:47 4,5 °C 4,5 °C 95 % 1027,3 hPa 0,0 mm 0,0 km/h (0 Bft) SW 234 ° 0 min 0,000 mm 0,0 UV-I 42 W/m² 3,8 °C 4,5 °C 0,0 km/h (0 Bft)
24.10.2017 08:48 4,6 °C 4,6 °C 95 % 1027,3 hPa 0,0 mm 0,0 km/h (0 Bft) SW 234 ° 0 min 0,000 mm 0,0 UV-I 42 W/m² 3,9 °C 4,6 °C 0,0 km/h (0 Bft)
24.10.2017 08:49 4,6 °C 4,6 °C 95 % 1027,3 hPa 0,0 mm 0,0 km/h (0 Bft) SW 234 ° 0 min 0,000 mm 0,0 UV-I 44 W/m² 3,9 °C 4,6 °C 0,0 km/h (0 Bft)
24.10.2017 08:50 4,6 °C 4,6 °C 95 % 1027,3 hPa 0,0 mm 0,0 km/h (0 Bft) SW 234 ° 0 min 0,000 mm 0,0 UV-I 44 W/m² 3,9 °C 4,6 °C 0,0 km/h (0 Bft)
24.10.2017 08:51 4,6 °C 4,6 °C 95 % 1027,3 hPa 0,0 mm 0,0 km/h (0 Bft) SW 234 ° 0 min 0,000 mm 0,0 UV-I 44 W/m² 3,9 °C 4,6 °C 0,0 km/h (0 Bft)
24.10.2017 08:52 4,6 °C 4,6 °C 95 % 1027,3 hPa 0,0 mm 0,0 km/h (0 Bft) SW 234 ° 0 min 0,000 mm 0,0 UV-I 44 W/m² 3,9 °C 4,6 °C 0,0 km/h (0 Bft)
24.10.2017 08:53 4,7 °C 4,7 °C 95 % 1027,3 hPa 0,0 mm 0,0 km/h (0 Bft) SW 234 ° 0 min 0,000 mm 0,0 UV-I 46 W/m² 4,0 °C 4,7 °C 0,0 km/h (0 Bft)
24.10.2017 08:54 4,6 °C 4,7 °C 95 % 1027,2 hPa 0,0 mm 0,0 km/h (0 Bft) SW 234 ° 0 min 0,000 mm 0,0 UV-I 47 W/m² 3,9 °C 4,6 °C 0,0 km/h (0 Bft)
24.10.2017 08:55 4,7 °C 4,7 °C 95 % 1027,3 hPa 0,0 mm 0,0 km/h (0 Bft) SW 234 ° 0 min 0,000 mm 0,0 UV-I 49 W/m² 4,0 °C 4,7 °C 0,0 km/h (0 Bft)
24.10.2017 08:56 4,7 °C 4,7 °C 95 % 1027,3 hPa 0,0 mm 0,0 km/h (0 Bft) SW 234 ° 0 min 0,000 mm 0,0 UV-I 49 W/m² 4,0 °C 4,7 °C 0,0 km/h (0 Bft)
24.10.2017 08:57 4,7 °C 4,7 °C 95 % 1027,3 hPa 0,0 mm 0,0 km/h (0 Bft) SW 234 ° 0 min 0,000 mm 0,0 UV-I 51 W/m² 4,0 °C 4,7 °C 0,0 km/h (0 Bft)
24.10.2017 08:58 4,7 °C 4,7 °C 95 % 1027,3 hPa 0,0 mm 0,0 km/h (0 Bft) SW 234 ° 0 min 0,000 mm 0,0 UV-I 51 W/m² 4,0 °C 4,7 °C 0,0 km/h (0 Bft)
24.10.2017 08:59 4,7 °C 4,7 °C 95 % 1027,3 hPa 0,0 mm 0,0 km/h (0 Bft) SW 234 ° 0 min 0,000 mm 0,0 UV-I 51 W/m² 4,0 °C 4,7 °C 0,0 km/h (0 Bft)
24.10.2017 09:00 4,7 °C 4,7 °C 95 % 1027,3 hPa 0,0 mm 0,0 km/h (0 Bft) SW 234 ° 0 min 0,000 mm 0,0 UV-I 51 W/m² 4,0 °C 4,7 °C 0,0 km/h (0 Bft)
24.10.2017 09:01 4,7 °C 4,7 °C 95 % 1027,2 hPa 0,0 mm 0,0 km/h (0 Bft) SW 234 ° 0 min 0,000 mm 0,0 UV-I 49 W/m² 4,0 °C 4,7 °C 0,0 km/h (0 Bft)
24.10.2017 09:02 4,7 °C 4,8 °C 95 % 1027,2 hPa 0,0 mm 0,0 km/h (0 Bft) SW 234 ° 0 min 0,000 mm 0,0 UV-I 47 W/m² 4,0 °C 4,7 °C 0,0 km/h (0 Bft)
24.10.2017 09:03 4,8 °C 4,8 °C 95 % 1027,2 hPa 0,0 mm 2,1 km/h (1 Bft) S-SW 208 ° 0 min 0,000 mm 0,0 UV-I 46 W/m² 4,1 °C 4,8 °C 6,4 km/h (2 Bft)
24.10.2017 09:04 4,8 °C 4,8 °C 95 % 1027,2 hPa 0,0 mm 0,0 km/h (0 Bft) S-SW 208 ° 0 min 0,000 mm 0,0 UV-I 47 W/m² 4,1 °C 4,8 °C 0,0 km/h (0 Bft)
24.10.2017 09:05 4,8 °C 4,8 °C 95 % 1027,1 hPa 0,0 mm 0,0 km/h (0 Bft) S-SW 208 ° 0 min 0,000 mm 0,0 UV-I 47 W/m² 4,1 °C 4,8 °C 0,0 km/h (0 Bft)
24.10.2017 09:06 4,8 °C 4,8 °C 95 % 1027,1 hPa 0,0 mm 0,0 km/h (0 Bft) S-SW 208 ° 0 min 0,000 mm 0,0 UV-I 49 W/m² 4,1 °C 4,8 °C 0,0 km/h (0 Bft)
24.10.2017 09:07 4,9 °C 4,9 °C 95 % 1027,1 hPa 0,0 mm 0,0 km/h (0 Bft) S-SW 208 ° 0 min 0,000 mm 0,0 UV-I 51 W/m² 4,2 °C 4,9 °C 0,0 km/h (0 Bft)
24.10.2017 09:08 4,8 °C 4,9 °C 95 % 1027,2 hPa 0,0 mm 1,1 km/h (1 Bft) W-SW 252 ° 0 min 0,000 mm 0,0 UV-I 53 W/m² 4,1 °C 4,8 °C 3,2 km/h (1 Bft)
24.10.2017 09:09 4,9 °C 4,9 °C 95 % 1027,1 hPa 0,0 mm 0,1 km/h (0 Bft) W-SW 252 ° 0 min 0,000 mm 0,0 UV-I 54 W/m² 4,2 °C 4,9 °C 1,6 km/h (1 Bft)
24.10.2017 09:10 4,9 °C 4,9 °C 95 % 1027,1 hPa 0,0 mm 0,1 km/h (0 Bft) W-SW 252 ° 0 min 0,000 mm 0,0 UV-I 54 W/m² 4,2 °C 4,9 °C 1,6 km/h (1 Bft)
24.10.2017 09:11 5,0 °C 5,0 °C 95 % 1027,2 hPa 0,0 mm 0,0 km/h (0 Bft) W-SW 252 ° 0 min 0,000 mm 0,0 UV-I 54 W/m² 4,3 °C 5,0 °C 0,0 km/h (0 Bft)
24.10.2017 09:12 5,0 °C 5,0 °C 95 % 1027,2 hPa 0,0 mm 0,0 km/h (0 Bft) W-SW 252 ° 0 min 0,000 mm 0,5 UV-I 62 W/m² 4,3 °C 5,0 °C 0,0 km/h (0 Bft)
24.10.2017 09:13 5,1 °C 5,1 °C 95 % 1027,2 hPa 0,0 mm 0,0 km/h (0 Bft) W-SW 252 ° 0 min 0,000 mm 0,5 UV-I 67 W/m² 4,4 °C 5,1 °C 0,0 km/h (0 Bft)
24.10.2017 09:14 5,1 °C 5,1 °C 95 % 1027,2 hPa 0,0 mm 0,0 km/h (0 Bft) W-SW 252 ° 0 min 0,000 mm 0,5 UV-I 70 W/m² 4,4 °C 5,1 °C 0,0 km/h (0 Bft)
24.10.2017 09:15 5,1 °C 5,1 °C 95 % 1027,3 hPa 0,0 mm 0,1 km/h (0 Bft) W-SW 252 ° 0 min 0,000 mm 0,5 UV-I 74 W/m² 4,4 °C 5,1 °C 1,6 km/h (1 Bft)
24.10.2017 09:16 5,2 °C 5,2 °C 95 % 1027,3 hPa 0,0 mm 0,2 km/h (0 Bft) W-SW 252 ° 0 min 0,000 mm 0,5 UV-I 74 W/m² 4,5 °C 5,2 °C 1,6 km/h (1 Bft)
24.10.2017 09:17 5,2 °C 5,2 °C 95 % 1027,3 hPa 0,0 mm 0,0 km/h (0 Bft) W-SW 252 ° 0 min 0,000 mm 0,5 UV-I 77 W/m² 4,5 °C 5,2 °C 0,0 km/h (0 Bft)
24.10.2017 09:18 5,3 °C 5,3 °C 95 % 1027,3 hPa 0,0 mm 0,0 km/h (0 Bft) W-SW 252 ° 0 min 0,000 mm 0,5 UV-I 74 W/m² 4,6 °C 5,3 °C 0,0 km/h (0 Bft)
24.10.2017 09:19 5,3 °C 5,3 °C 95 % 1027,3 hPa 0,0 mm 1,3 km/h (1 Bft) N 5 ° 0 min 0,000 mm 0,5 UV-I 72 W/m² 4,6 °C 5,3 °C 3,2 km/h (1 Bft)
24.10.2017 09:20 5,4 °C 5,4 °C 95 % 1027,3 hPa 0,0 mm 0,0 km/h (0 Bft) N 5 ° 0 min 0,000 mm 0,5 UV-I 70 W/m² 4,7 °C 5,4 °C 0,0 km/h (0 Bft)
24.10.2017 09:21 5,4 °C 5,4 °C 95 % 1027,3 hPa 0,0 mm 0,9 km/h (0 Bft) N 360 ° 0 min 0,000 mm 0,5 UV-I 69 W/m² 4,7 °C 5,4 °C 3,2 km/h (1 Bft)
24.10.2017 09:22 5,4 °C 5,5 °C 95 % 1027,3 hPa 0,0 mm 0,9 km/h (0 Bft) N 360 ° 0 min 0,000 mm 0,5 UV-I 69 W/m² 4,7 °C 5,4 °C 3,2 km/h (1 Bft)
24.10.2017 09:23 5,5 °C 5,5 °C 95 % 1027,4 hPa 0,0 mm 0,0 km/h (0 Bft) N 360 ° 0 min 0,000 mm 0,6 UV-I 69 W/m² 4,8 °C 5,5 °C 0,0 km/h (0 Bft)
24.10.2017 09:24 5,6 °C 5,6 °C 95 % 1027,4 hPa 0,0 mm 0,8 km/h (0 Bft) N 360 ° 0 min 0,000 mm 0,6 UV-I 70 W/m² 4,9 °C 5,6 °C 1,6 km/h (1 Bft)
24.10.2017 09:25 5,6 °C 5,6 °C 95 % 1027,4 hPa 0,0 mm 0,0 km/h (0 Bft) N 360 ° 0 min 0,000 mm 0,6 UV-I 69 W/m² 4,9 °C 5,6 °C 0,0 km/h (0 Bft)
24.10.2017 09:26 5,6 °C 5,6 °C 95 % 1027,4 hPa 0,0 mm 0,0 km/h (0 Bft) N 360 ° 0 min 0,000 mm 0,6 UV-I 69 W/m² 4,9 °C 5,6 °C 0,0 km/h (0 Bft)
24.10.2017 09:27 5,7 °C 5,7 °C 94 % 1027,4 hPa 0,0 mm 0,0 km/h (0 Bft) N 360 ° 0 min 0,000 mm 0,6 UV-I 67 W/m² 4,8 °C 5,7 °C 0,0 km/h (0 Bft)
24.10.2017 09:28 5,7 °C 5,7 °C 94 % 1027,4 hPa 0,0 mm 0,0 km/h (0 Bft) N 360 ° 0 min 0,000 mm 0,6 UV-I 63 W/m² 4,8 °C 5,7 °C 0,0 km/h (0 Bft)
24.10.2017 09:29 5,8 °C 5,8 °C 94 % 1027,4 hPa 0,0 mm 0,1 km/h (0 Bft) N 360 ° 0 min 0,000 mm 0,6 UV-I 62 W/m² 4,9 °C 5,8 °C 1,6 km/h (1 Bft)
24.10.2017 09:30 5,8 °C 5,8 °C 94 % 1027,4 hPa 0,0 mm 0,0 km/h (0 Bft) N 360 ° 0 min 0,000 mm 0,6 UV-I 62 W/m² 4,9 °C 5,8 °C 0,0 km/h (0 Bft)
24.10.2017 09:31 5,8 °C 5,8 °C 94 % 1027,4 hPa 0,0 mm 0,0 km/h (0 Bft) N 360 ° 0 min 0,000 mm 0,6 UV-I 62 W/m² 4,9 °C 5,8 °C 0,0 km/h (0 Bft)
24.10.2017 09:32 5,8 °C 5,8 °C 94 % 1027,4 hPa 0,0 mm 0,0 km/h (0 Bft) N 360 ° 0 min 0,000 mm 0,6 UV-I 63 W/m² 4,9 °C 5,8 °C 0,0 km/h (0 Bft)
24.10.2017 09:33 5,8 °C 5,8 °C 94 % 1027,4 hPa 0,0 mm 0,9 km/h (0 Bft) N 360 ° 0 min 0,000 mm 0,6 UV-I 63 W/m² 4,9 °C 5,8 °C 3,2 km/h (1 Bft)
24.10.2017 09:34 5,8 °C 5,8 °C 93 % 1027,3 hPa 0,0 mm 0,0 km/h (0 Bft) N 360 ° 0 min 0,000 mm 0,7 UV-I 70 W/m² 4,8 °C 5,8 °C 0,0 km/h (0 Bft)
24.10.2017 09:35 5,7 °C 5,8 °C 93 % 1027,3 hPa 0,0 mm 0,0 km/h (0 Bft) N 360 ° 0 min 0,000 mm 0,7 UV-I 77 W/m² 4,7 °C 5,7 °C 0,0 km/h (0 Bft)
24.10.2017 09:36 5,8 °C 5,8 °C 93 % 1027,3 hPa 0,0 mm 0,0 km/h (0 Bft) N 360 ° 0 min 0,000 mm 0,7 UV-I 86 W/m² 4,8 °C 5,8 °C 0,0 km/h (0 Bft)
24.10.2017 09:37 5,8 °C 5,8 °C 93 % 1027,2 hPa 0,0 mm 0,0 km/h (0 Bft) N 360 ° 0 min 0,000 mm 0,7 UV-I 91 W/m² 4,8 °C 5,8 °C 0,0 km/h (0 Bft)
24.10.2017 09:38 5,7 °C 5,8 °C 93 % 1027,2 hPa 0,0 mm 0,0 km/h (0 Bft) N 360 ° 0 min 0,000 mm 0,7 UV-I 98 W/m² 4,7 °C 5,7 °C 0,0 km/h (0 Bft)
24.10.2017 09:39 5,8 °C 5,8 °C 94 % 1027,3 hPa 0,0 mm 0,0 km/h (0 Bft) N 360 ° 0 min 0,000 mm 0,7 UV-I 105 W/m² 4,9 °C 5,8 °C 0,0 km/h (0 Bft)
24.10.2017 09:40 5,8 °C 5,8 °C 94 % 1027,3 hPa 0,0 mm 0,0 km/h (0 Bft) N 360 ° 0 min 0,000 mm 0,7 UV-I 105 W/m² 4,9 °C 5,8 °C 0,0 km/h (0 Bft)
24.10.2017 09:41 5,9 °C 5,9 °C 94 % 1027,2 hPa 0,0 mm 2,0 km/h (1 Bft) W 262 ° 0 min 0,000 mm 0,7 UV-I 107 W/m² 5,0 °C 5,9 °C 4,8 km/h (1 Bft)
24.10.2017 09:42 5,9 °C 5,9 °C 94 % 1027,2 hPa 0,0 mm 1,5 km/h (1 Bft) W 262 ° 0 min 0,000 mm 0,7 UV-I 111 W/m² 5,0 °C 5,9 °C 3,2 km/h (1 Bft)
24.10.2017 09:43 6,0 °C 6,0 °C 94 % 1027,2 hPa 0,0 mm 0,0 km/h (0 Bft) W 262 ° 0 min 0,000 mm 0,7 UV-I 111 W/m² 5,1 °C 6,0 °C 0,0 km/h (0 Bft)
24.10.2017 09:44 6,1 °C 6,1 °C 94 % 1027,2 hPa 0,0 mm 0,5 km/h (0 Bft) W 262 ° 0 min 0,000 mm 0,7 UV-I 109 W/m² 5,2 °C 6,1 °C 1,6 km/h (1 Bft)
24.10.2017 09:45 6,1 °C 6,1 °C 94 % 1027,2 hPa 0,0 mm 0,1 km/h (0 Bft) W 262 ° 0 min 0,000 mm 0,7 UV-I 97 W/m² 5,2 °C 6,1 °C 1,6 km/h (1 Bft)
24.10.2017 09:46 6,2 °C 6,2 °C 94 % 1027,1 hPa 0,0 mm 0,0 km/h (0 Bft) W 262 ° 0 min 0,000 mm 0,7 UV-I 91 W/m² 5,3 °C 6,2 °C 0,0 km/h (0 Bft)
24.10.2017 09:47 6,2 °C 6,2 °C 93 % 1027,2 hPa 0,0 mm 0,0 km/h (0 Bft) W 262 ° 0 min 0,000 mm 0,7 UV-I 90 W/m² 5,2 °C 6,2 °C 0,0 km/h (0 Bft)
24.10.2017 09:48 6,3 °C 6,3 °C 93 % 1027,2 hPa 0,0 mm 0,0 km/h (0 Bft) W 262 ° 0 min 0,000 mm 0,7 UV-I 90 W/m² 5,3 °C 6,3 °C 0,0 km/h (0 Bft)
24.10.2017 09:49 6,3 °C 6,3 °C 94 % 1027,2 hPa 0,0 mm 0,2 km/h (0 Bft) W-NW 291 ° 0 min 0,000 mm 0,8 UV-I 90 W/m² 5,4 °C 6,3 °C 3,2 km/h (1 Bft)
24.10.2017 09:50 6,4 °C 6,4 °C 93 % 1027,2 hPa 0,0 mm 1,8 km/h (1 Bft) W-NW 294 ° 0 min 0,000 mm 0,8 UV-I 102 W/m² 5,4 °C 6,4 °C 4,8 km/h (1 Bft)
24.10.2017 09:51 6,4 °C 6,4 °C 93 % 1027,2 hPa 0,0 mm 0,0 km/h (0 Bft) W-NW 294 ° 0 min 0,000 mm 0,8 UV-I 107 W/m² 5,4 °C 6,4 °C 0,0 km/h (0 Bft)
24.10.2017 09:52 6,4 °C 6,5 °C 93 % 1027,2 hPa 0,0 mm 0,0 km/h (0 Bft) W-NW 294 ° 0 min 0,000 mm 0,8 UV-I 114 W/m² 5,4 °C 6,4 °C 0,0 km/h (0 Bft)
24.10.2017 09:53 6,5 °C 6,5 °C 93 % 1027,2 hPa 0,0 mm 0,0 km/h (0 Bft) W-NW 294 ° 0 min 0,000 mm 0,8 UV-I 114 W/m² 5,5 °C 6,5 °C 0,0 km/h (0 Bft)
24.10.2017 09:54 6,6 °C 6,6 °C 93 % 1027,2 hPa 0,0 mm 0,0 km/h (0 Bft) W-NW 294 ° 0 min 0,000 mm 0,8 UV-I 114 W/m² 5,6 °C 6,6 °C 0,0 km/h (0 Bft)
24.10.2017 09:55 6,6 °C 6,6 °C 92 % 1027,2 hPa 0,0 mm 0,0 km/h (0 Bft) W-NW 294 ° 0 min 0,000 mm 0,8 UV-I 113 W/m² 5,4 °C 6,6 °C 0,0 km/h (0 Bft)
24.10.2017 09:56 6,7 °C 6,7 °C 92 % 1027,2 hPa 0,0 mm 0,0 km/h (0 Bft) W-NW 294 ° 0 min 0,000 mm 0,8 UV-I 113 W/m² 5,5 °C 6,7 °C 0,0 km/h (0 Bft)
24.10.2017 09:57 6,7 °C 6,7 °C 92 % 1027,2 hPa 0,0 mm 0,0 km/h (0 Bft) W-NW 294 ° 0 min 0,000 mm 0,8 UV-I 114 W/m² 5,5 °C 6,7 °C 0,0 km/h (0 Bft)
24.10.2017 09:58 6,8 °C 6,8 °C 92 % 1027,2 hPa 0,0 mm 0,0 km/h (0 Bft) W-NW 294 ° 0 min 0,000 mm 0,8 UV-I 114 W/m² 5,6 °C 6,8 °C 0,0 km/h (0 Bft)
24.10.2017 09:59 6,8 °C 6,8 °C 92 % 1027,2 hPa 0,0 mm 0,3 km/h (0 Bft) W-NW 294 ° 0 min 0,000 mm 0,8 UV-I 114 W/m² 5,6 °C 6,8 °C 1,6 km/h (1 Bft)
24.10.2017 10:00 6,8 °C 6,9 °C 91 % 1027,2 hPa 0,0 mm 0,5 km/h (0 Bft) W-NW 294 ° 0 min 0,025 mm 0,8 UV-I 114 W/m² 5,4 °C 6,8 °C 1,6 km/h (1 Bft)
24.10.2017 10:01 6,9 °C 6,9 °C 91 % 1027,2 hPa 0,0 mm 0,0 km/h (0 Bft) W-NW 294 ° 0 min 0,000 mm 0,9 UV-I 114 W/m² 5,5 °C 6,9 °C 0,0 km/h (0 Bft)
24.10.2017 10:02 6,9 °C 6,9 °C 91 % 1027,2 hPa 0,0 mm 0,0 km/h (0 Bft) W-NW 294 ° 0 min 0,000 mm 0,9 UV-I 116 W/m² 5,5 °C 6,9 °C 0,0 km/h (0 Bft)
24.10.2017 10:03 6,9 °C 6,9 °C 91 % 1027,2 hPa 0,0 mm 0,2 km/h (0 Bft) W-NW 294 ° 0 min 0,000 mm 0,9 UV-I 121 W/m² 5,5 °C 6,9 °C 1,6 km/h (1 Bft)
24.10.2017 10:04 6,9 °C 6,9 °C 91 % 1027,2 hPa 0,0 mm 0,5 km/h (0 Bft) W-NW 294 ° 0 min 0,000 mm 0,9 UV-I 123 W/m² 5,5 °C 6,9 °C 1,6 km/h (1 Bft)
24.10.2017 10:05 7,1 °C 7,1 °C 91 % 1027,2 hPa 0,0 mm 2,2 km/h (1 Bft) W 275 ° 0 min 0,000 mm 0,9 UV-I 123 W/m² 5,7 °C 7,1 °C 6,4 km/h (2 Bft)
24.10.2017 10:06 7,1 °C 7,1 °C 91 % 1027,2 hPa 0,0 mm 0,7 km/h (0 Bft) W 275 ° 0 min 0,000 mm 0,9 UV-I 121 W/m² 5,7 °C 7,1 °C 3,2 km/h (1 Bft)
24.10.2017 10:07 7,2 °C 7,2 °C 91 % 1027,2 hPa 0,0 mm 0,2 km/h (0 Bft) W 276 ° 0 min 0,000 mm 0,9 UV-I 121 W/m² 5,8 °C 7,2 °C 1,6 km/h (1 Bft)
24.10.2017 10:08 7,2 °C 7,2 °C 90 % 1027,2 hPa 0,0 mm 0,4 km/h (0 Bft) W 275 ° 0 min 0,000 mm 0,9 UV-I 123 W/m² 5,7 °C 7,2 °C 1,6 km/h (1 Bft)
24.10.2017 10:09 7,2 °C 7,2 °C 90 % 1027,2 hPa 0,0 mm 0,3 km/h (0 Bft) W 276 ° 0 min 0,000 mm 0,9 UV-I 123 W/m² 5,7 °C 7,2 °C 1,6 km/h (1 Bft)
24.10.2017 10:10 7,2 °C 7,2 °C 91 % 1027,2 hPa 0,0 mm 0,0 km/h (0 Bft) W 276 ° 0 min 0,000 mm 0,9 UV-I 120 W/m² 5,8 °C 7,2 °C 0,0 km/h (0 Bft)
24.10.2017 10:11 7,2 °C 7,2 °C 90 % 1027,2 hPa 0,0 mm 1,1 km/h (1 Bft) W-SW 240 ° 0 min 0,000 mm 0,9 UV-I 120 W/m² 5,7 °C 7,2 °C 3,2 km/h (1 Bft)
24.10.2017 10:12 7,2 °C 7,2 °C 90 % 1027,2 hPa 0,0 mm 0,2 km/h (0 Bft) N-NW 335 ° 0 min 0,000 mm 0,9 UV-I 114 W/m² 5,7 °C 7,2 °C 1,6 km/h (1 Bft)
24.10.2017 10:13 7,2 °C 7,2 °C 90 % 1027,1 hPa 0,0 mm 0,8 km/h (0 Bft) N-NW 335 ° 0 min 0,000 mm 0,9 UV-I 114 W/m² 5,7 °C 7,2 °C 3,2 km/h (1 Bft)
24.10.2017 10:14 7,2 °C 7,2 °C 90 % 1027,1 hPa 0,0 mm 0,1 km/h (0 Bft) N-NW 335 ° 0 min 0,000 mm 1,0 UV-I 113 W/m² 5,7 °C 7,2 °C 1,6 km/h (1 Bft)
24.10.2017 10:15 7,2 °C 7,2 °C 90 % 1027,1 hPa 0,0 mm 0,0 km/h (0 Bft) N-NW 335 ° 0 min 0,000 mm 1,0 UV-I 109 W/m² 5,7 °C 7,2 °C 0,0 km/h (0 Bft)
24.10.2017 10:16 7,2 °C 7,3 °C 90 % 1027,1 hPa 0,0 mm 0,0 km/h (0 Bft) N-NW 335 ° 0 min 0,000 mm 1,0 UV-I 107 W/m² 5,7 °C 7,2 °C 0,0 km/h (0 Bft)
24.10.2017 10:17 7,3 °C 7,3 °C 89 % 1027,1 hPa 0,0 mm 0,0 km/h (0 Bft) N-NW 335 ° 0 min 0,000 mm 1,0 UV-I 111 W/m² 5,6 °C 7,3 °C 0,0 km/h (0 Bft)
24.10.2017 10:18 7,2 °C 7,3 °C 90 % 1027,2 hPa 0,0 mm 0,0 km/h (0 Bft) N-NW 335 ° 0 min 0,000 mm 1,0 UV-I 114 W/m² 5,7 °C 7,2 °C 0,0 km/h (0 Bft)
24.10.2017 10:19 7,2 °C 7,3 °C 90 % 1027,2 hPa 0,0 mm 0,0 km/h (0 Bft) N-NW 335 ° 0 min 0,000 mm 1,0 UV-I 120 W/m² 5,7 °C 7,2 °C 0,0 km/h (0 Bft)
24.10.2017 10:20 7,3 °C 7,3 °C 90 % 1027,2 hPa 0,0 mm 0,0 km/h (0 Bft) N-NW 335 ° 0 min 0,000 mm 1,0 UV-I 127 W/m² 5,8 °C 7,3 °C 0,0 km/h (0 Bft)
24.10.2017 10:21 7,3 °C 7,3 °C 90 % 1027,1 hPa 0,0 mm 0,0 km/h (0 Bft) N-NW 335 ° 0 min 0,000 mm 1,1 UV-I 128 W/m² 5,8 °C 7,3 °C 0,0 km/h (0 Bft)
24.10.2017 10:22 7,3 °C 7,3 °C 90 % 1027,1 hPa 0,0 mm 0,0 km/h (0 Bft) N-NW 335 ° 0 min 0,000 mm 1,1 UV-I 130 W/m² 5,8 °C 7,3 °C 0,0 km/h (0 Bft)
24.10.2017 10:23 7,3 °C 7,3 °C 90 % 1027,1 hPa 0,0 mm 0,0 km/h (0 Bft) NW 304 ° 0 min 0,000 mm 1,1 UV-I 128 W/m² 5,8 °C 7,3 °C 0,0 km/h (0 Bft)
24.10.2017 10:24 7,3 °C 7,4 °C 90 % 1027,1 hPa 0,0 mm 0,0 km/h (0 Bft) NW 326 ° 0 min 0,000 mm 1,1 UV-I 123 W/m² 5,8 °C 7,3 °C 0,0 km/h (0 Bft)
24.10.2017 10:25 7,3 °C 7,3 °C 90 % 1027,1 hPa 0,0 mm 0,0 km/h (0 Bft) N-NW 335 ° 0 min 0,000 mm 1,1 UV-I 118 W/m² 5,8 °C 7,3 °C 0,0 km/h (0 Bft)
24.10.2017 10:26 7,4 °C 7,4 °C 90 % 1027,1 hPa 0,0 mm 0,0 km/h (0 Bft) N-NW 335 ° 0 min 0,000 mm 1,1 UV-I 102 W/m² 5,9 °C 7,4 °C 0,0 km/h (0 Bft)
24.10.2017 10:27 7,4 °C 7,4 °C 90 % 1027,1 hPa 0,0 mm 0,0 km/h (0 Bft) N-NW 335 ° 0 min 0,000 mm 1,1 UV-I 102 W/m² 5,9 °C 7,4 °C 0,0 km/h (0 Bft)
24.10.2017 10:28 7,5 °C 7,5 °C 89 % 1027,2 hPa 0,0 mm 0,0 km/h (0 Bft) N-NW 335 ° 0 min 0,000 mm 1,1 UV-I 93 W/m² 5,8 °C 7,5 °C 0,0 km/h (0 Bft)
24.10.2017 10:29 7,5 °C 7,5 °C 89 % 1027,2 hPa 0,0 mm 0,0 km/h (0 Bft) N-NW 335 ° 0 min 0,000 mm 1,1 UV-I 90 W/m² 5,8 °C 7,5 °C 0,0 km/h (0 Bft)
24.10.2017 10:30 7,4 °C 7,5 °C 89 % 1027,2 hPa 0,0 mm 0,8 km/h (0 Bft) W 278 ° 0 min 0,000 mm 1,1 UV-I 86 W/m² 5,7 °C 7,4 °C 4,8 km/h (1 Bft)
24.10.2017 10:31 7,4 °C 7,4 °C 89 % 1027,2 hPa 0,0 mm 4,2 km/h (1 Bft) W-SW 249 ° 0 min 0,000 mm 1,1 UV-I 79 W/m² 5,7 °C 7,4 °C 6,4 km/h (2 Bft)
24.10.2017 10:32 7,4 °C 7,4 °C 88 % 1027,2 hPa 0,0 mm 3,3 km/h (1 Bft) W-SW 254 ° 0 min 0,000 mm 1,1 UV-I 67 W/m² 5,5 °C 7,4 °C 4,8 km/h (1 Bft)
24.10.2017 10:33 7,4 °C 7,5 °C 87 % 1027,2 hPa 0,0 mm 3,2 km/h (1 Bft) S-SW 208 ° 0 min 0,000 mm 1,1 UV-I 62 W/m² 5,4 °C 7,4 °C 6,4 km/h (2 Bft)
24.10.2017 10:34 7,5 °C 7,5 °C 87 % 1027,2 hPa 0,0 mm 3,7 km/h (1 Bft) W 267 ° 0 min 0,000 mm 1,1 UV-I 62 W/m² 5,5 °C 7,5 °C 9,7 km/h (2 Bft)
24.10.2017 10:35 7,5 °C 7,5 °C 86 % 1027,2 hPa 0,0 mm 7,1 km/h (2 Bft) W 273 ° 0 min 0,000 mm 1,1 UV-I 60 W/m² 5,3 °C 6,3 °C 11,3 km/h (2 Bft)
24.10.2017 10:36 7,6 °C 7,6 °C 86 % 1027,2 hPa 0,0 mm 3,2 km/h (1 Bft) W 273 ° 0 min 0,000 mm 1,1 UV-I 67 W/m² 5,4 °C 7,6 °C 4,8 km/h (1 Bft)
24.10.2017 10:37 7,6 °C 7,6 °C 85 % 1027,2 hPa 0,0 mm 1,3 km/h (1 Bft) W 273 ° 0 min 0,000 mm 1,1 UV-I 77 W/m² 5,2 °C 7,6 °C 3,2 km/h (1 Bft)
24.10.2017 10:38 7,6 °C 7,6 °C 86 % 1027,2 hPa 0,0 mm 3,0 km/h (1 Bft) W 273 ° 0 min 0,000 mm 1,1 UV-I 95 W/m² 5,4 °C 7,6 °C 4,8 km/h (1 Bft)
24.10.2017 10:39 7,6 °C 7,6 °C 86 % 1027,3 hPa 0,0 mm 0,6 km/h (0 Bft) W 273 ° 0 min 0,000 mm 1,2 UV-I 98 W/m² 5,4 °C 7,6 °C 3,2 km/h (1 Bft)
24.10.2017 10:40 7,6 °C 7,6 °C 86 % 1027,2 hPa 0,0 mm 0,2 km/h (0 Bft) W 273 ° 0 min 0,000 mm 1,2 UV-I 98 W/m² 5,4 °C 7,6 °C 1,6 km/h (1 Bft)
24.10.2017 10:41 7,6 °C 7,6 °C 87 % 1027,3 hPa 0,0 mm 0,0 km/h (0 Bft) W 273 ° 0 min 0,000 mm 1,2 UV-I 93 W/m² 5,6 °C 7,6 °C 0,0 km/h (0 Bft)
24.10.2017 10:42 7,4 °C 7,6 °C 88 % 1027,3 hPa 0,0 mm 1,7 km/h (1 Bft) W 273 ° 0 min 0,000 mm 1,2 UV-I 90 W/m² 5,5 °C 7,4 °C 3,2 km/h (1 Bft)
24.10.2017 10:43 7,4 °C 7,4 °C 88 % 1027,3 hPa 0,0 mm 1,1 km/h (1 Bft) W 273 ° 0 min 0,000 mm 1,2 UV-I 88 W/m² 5,5 °C 7,4 °C 4,8 km/h (1 Bft)
24.10.2017 10:44 7,4 °C 7,4 °C 88 % 1027,3 hPa 0,0 mm 2,7 km/h (1 Bft) W 273 ° 0 min 0,000 mm 1,2 UV-I 91 W/m² 5,5 °C 7,4 °C 4,8 km/h (1 Bft)
24.10.2017 10:45 7,5 °C 7,5 °C 88 % 1027,3 hPa 0,0 mm 0,1 km/h (0 Bft) W 273 ° 0 min 0,000 mm 1,2 UV-I 91 W/m² 5,6 °C 7,5 °C 1,6 km/h (1 Bft)
24.10.2017 10:46 7,5 °C 7,5 °C 87 % 1027,4 hPa 0,0 mm 0,0 km/h (0 Bft) W 273 ° 0 min 0,000 mm 1,2 UV-I 98 W/m² 5,5 °C 7,5 °C 0,0 km/h (0 Bft)
24.10.2017 10:47 7,5 °C 7,5 °C 88 % 1027,3 hPa 0,0 mm 0,1 km/h (0 Bft) W 273 ° 0 min 0,000 mm 1,2 UV-I 98 W/m² 5,6 °C 7,5 °C 1,6 km/h (1 Bft)
24.10.2017 10:49 7,6 °C 7,6 °C 87 % 1027,2 hPa 0,0 mm 0,2 km/h (0 Bft) W 273 ° 0 min 0,000 mm 1,2 UV-I 81 W/m² 5,6 °C 7,6 °C 1,6 km/h (1 Bft)
24.10.2017 10:50 7,6 °C 7,6 °C 87 % 1027,2 hPa 0,0 mm 0,1 km/h (0 Bft) W 273 ° 0 min 0,000 mm 1,2 UV-I 69 W/m² 5,6 °C 7,6 °C 1,6 km/h (1 Bft)
24.10.2017 10:51 7,6 °C 7,6 °C 87 % 1027,2 hPa 0,0 mm 0,0 km/h (0 Bft) W 273 ° 0 min 0,000 mm 0,0 UV-I 51 W/m² 5,6 °C 7,6 °C 0,0 km/h (0 Bft)
24.10.2017 10:52 7,6 °C 7,6 °C 87 % 1027,2 hPa 0,0 mm 0,0 km/h (0 Bft) W 273 ° 0 min 0,000 mm 0,0 UV-I 46 W/m² 5,6 °C 7,6 °C 0,0 km/h (0 Bft)
24.10.2017 10:53 7,6 °C 7,6 °C 86 % 1027,2 hPa 0,0 mm 0,0 km/h (0 Bft) W 273 ° 0 min 0,000 mm 0,0 UV-I 42 W/m² 5,4 °C 7,6 °C 0,0 km/h (0 Bft)
24.10.2017 10:54 7,6 °C 7,7 °C 86 % 1027,2 hPa 0,0 mm 0,0 km/h (0 Bft) W 273 ° 0 min 0,000 mm 0,0 UV-I 40 W/m² 5,4 °C 7,6 °C 0,0 km/h (0 Bft)
24.10.2017 10:55 7,6 °C 7,6 °C 86 % 1027,2 hPa 0,0 mm 1,3 km/h (1 Bft) W 273 ° 0 min 0,000 mm 0,0 UV-I 51 W/m² 5,4 °C 7,6 °C 1,6 km/h (1 Bft)
24.10.2017 10:56 7,6 °C 7,6 °C 87 % 1027,3 hPa 0,0 mm 0,7 km/h (0 Bft) W 273 ° 0 min 0,000 mm 1,2 UV-I 79 W/m² 5,6 °C 7,6 °C 1,6 km/h (1 Bft)
24.10.2017 10:57 7,6 °C 7,6 °C 87 % 1027,2 hPa 0,0 mm 0,5 km/h (0 Bft) W 274 ° 0 min 0,000 mm 1,3 UV-I 83 W/m² 5,6 °C 7,6 °C 1,6 km/h (1 Bft)
24.10.2017 10:59 7,6 °C 7,6 °C 85 % 1027,3 hPa 0,0 mm 1,2 km/h (1 Bft) W-SW 256 ° 0 min 0,000 mm 1,3 UV-I 79 W/m² 5,2 °C 7,6 °C 4,8 km/h (1 Bft)
24.10.2017 11:00 7,8 °C 7,8 °C 85 % 1027,3 hPa 0,0 mm 2,0 km/h (1 Bft) W-SW 256 ° 0 min 0,000 mm 1,3 UV-I 88 W/m² 5,4 °C 7,8 °C 4,8 km/h (1 Bft)
24.10.2017 11:01 7,8 °C 7,8 °C 85 % 1027,4 hPa 0,0 mm 1,7 km/h (1 Bft) W-SW 257 ° 0 min 0,051 mm 1,3 UV-I 65 W/m² 5,4 °C 7,8 °C 3,2 km/h (1 Bft)
24.10.2017 11:02 8,0 °C 8,0 °C 85 % 1027,3 hPa 0,0 mm 3,2 km/h (1 Bft) W-SW 257 ° 0 min 0,000 mm 1,2 UV-I 60 W/m² 5,6 °C 8,0 °C 4,8 km/h (1 Bft)
24.10.2017 11:04 8,1 °C 8,1 °C 84 % 1027,4 hPa 0,0 mm 2,1 km/h (1 Bft) W-SW 257 ° 0 min 0,000 mm 0,0 UV-I 54 W/m² 5,6 °C 8,1 °C 4,8 km/h (1 Bft)
24.10.2017 11:05 8,3 °C 8,3 °C 83 % 1027,4 hPa 0,0 mm 1,8 km/h (1 Bft) W-SW 257 ° 0 min 0,000 mm 0,0 UV-I 54 W/m² 5,6 °C 8,3 °C 3,2 km/h (1 Bft)
24.10.2017 11:06 8,3 °C 8,3 °C 82 % 1027,4 hPa 0,0 mm 1,2 km/h (1 Bft) W-SW 257 ° 0 min 0,000 mm 0,0 UV-I 54 W/m² 5,4 °C 8,3 °C 3,2 km/h (1 Bft)
24.10.2017 11:07 8,4 °C 8,4 °C 82 % 1027,3 hPa 0,0 mm 0,4 km/h (0 Bft) W-SW 256 ° 0 min 0,000 mm 0,0 UV-I 56 W/m² 5,5 °C 8,4 °C 3,2 km/h (1 Bft)
24.10.2017 11:08 8,4 °C 8,4 °C 82 % 1027,3 hPa 0,0 mm 3,8 km/h (1 Bft) W 265 ° 0 min 0,000 mm 1,3 UV-I 56 W/m² 5,5 °C 8,4 °C 9,7 km/h (2 Bft)
24.10.2017 11:09 8,5 °C 8,5 °C 81 % 1027,4 hPa 0,0 mm 3,9 km/h (1 Bft) W 261 ° 0 min 0,000 mm 0,0 UV-I 54 W/m² 5,4 °C 8,5 °C 6,4 km/h (2 Bft)
24.10.2017 11:10 8,6 °C 8,6 °C 79 % 1027,4 hPa 0,0 mm 1,8 km/h (1 Bft) W 261 ° 0 min 0,000 mm 1,3 UV-I 56 W/m² 5,2 °C 8,6 °C 3,2 km/h (1 Bft)
24.10.2017 11:11 8,7 °C 8,7 °C 81 % 1027,4 hPa 0,0 mm 3,8 km/h (1 Bft) W-SW 256 ° 0 min 0,000 mm 1,3 UV-I 56 W/m² 5,6 °C 8,7 °C 6,4 km/h (2 Bft)
24.10.2017 11:12 8,8 °C 8,8 °C 79 % 1027,4 hPa 0,0 mm 2,9 km/h (1 Bft) W-SW 255 ° 0 min 0,000 mm 1,3 UV-I 60 W/m² 5,4 °C 8,8 °C 4,8 km/h (1 Bft)
24.10.2017 11:13 8,9 °C 8,9 °C 79 % 1027,4 hPa 0,0 mm 1,7 km/h (1 Bft) W-SW 248 ° 0 min 0,000 mm 1,3 UV-I 77 W/m² 5,5 °C 8,9 °C 3,2 km/h (1 Bft)
24.10.2017 11:14 9,0 °C 9,0 °C 79 % 1027,4 hPa 0,0 mm 5,0 km/h (1 Bft) W-SW 243 ° 0 min 0,000 mm 1,3 UV-I 90 W/m² 5,6 °C 8,6 °C 8,0 km/h (2 Bft)
24.10.2017 11:15 9,1 °C 9,1 °C 78 % 1027,4 hPa 0,0 mm 2,5 km/h (1 Bft) W-SW 243 ° 0 min 0,000 mm 1,4 UV-I 105 W/m² 5,5 °C 9,1 °C 3,2 km/h (1 Bft)
24.10.2017 11:16 9,1 °C 9,1 °C 79 % 1027,4 hPa 0,0 mm 1,3 km/h (1 Bft) W-SW 243 ° 0 min 0,000 mm 1,4 UV-I 111 W/m² 5,7 °C 9,1 °C 4,8 km/h (1 Bft)
24.10.2017 11:17 9,2 °C 9,2 °C 79 % 1027,4 hPa 0,0 mm 4,1 km/h (1 Bft) W-SW 252 ° 0 min 0,000 mm 1,3 UV-I 107 W/m² 5,8 °C 9,2 °C 6,4 km/h (2 Bft)
24.10.2017 11:18 9,3 °C 9,3 °C 78 % 1027,5 hPa 0,0 mm 3,8 km/h (1 Bft) W-SW 252 ° 0 min 0,000 mm 1,3 UV-I 98 W/m² 5,7 °C 9,3 °C 4,8 km/h (1 Bft)
24.10.2017 11:19 9,3 °C 9,4 °C 77 % 1027,5 hPa 0,0 mm 2,6 km/h (1 Bft) W-SW 250 ° 0 min 0,000 mm 1,3 UV-I 88 W/m² 5,5 °C 9,3 °C 4,8 km/h (1 Bft)
24.10.2017 11:20 9,4 °C 9,4 °C 76 % 1027,4 hPa 0,0 mm 0,5 km/h (0 Bft) W-SW 250 ° 0 min 0,000 mm 1,3 UV-I 90 W/m² 5,4 °C 9,4 °C 1,6 km/h (1 Bft)
24.10.2017 11:21 9,4 °C 9,4 °C 77 % 1027,4 hPa 0,0 mm 0,3 km/h (0 Bft) W-SW 250 ° 0 min 0,000 mm 1,4 UV-I 90 W/m² 5,6 °C 9,4 °C 1,6 km/h (1 Bft)
24.10.2017 11:22 9,4 °C 9,4 °C 77 % 1027,5 hPa 0,0 mm 0,3 km/h (0 Bft) W-SW 250 ° 0 min 0,000 mm 1,4 UV-I 114 W/m² 5,6 °C 9,4 °C 1,6 km/h (1 Bft)
24.10.2017 11:23 9,5 °C 9,5 °C 76 % 1027,5 hPa 0,0 mm 0,7 km/h (0 Bft) W-SW 251 ° 0 min 0,000 mm 1,5 UV-I 134 W/m² 5,5 °C 9,5 °C 3,2 km/h (1 Bft)
24.10.2017 11:24 9,6 °C 9,6 °C 78 % 1027,4 hPa 0,0 mm 1,4 km/h (1 Bft) W-SW 251 ° 0 min 0,000 mm 1,5 UV-I 155 W/m² 6,0 °C 9,6 °C 3,2 km/h (1 Bft)
24.10.2017 11:25 9,7 °C 9,7 °C 77 % 1027,5 hPa 0,0 mm 1,2 km/h (1 Bft) W-SW 251 ° 0 min 0,000 mm 1,5 UV-I 183 W/m² 5,9 °C 9,7 °C 3,2 km/h (1 Bft)
24.10.2017 11:26 9,7 °C 9,7 °C 77 % 1027,5 hPa 0,0 mm 1,9 km/h (1 Bft) W-SW 255 ° 0 min 0,000 mm 1,5 UV-I 188 W/m² 5,9 °C 9,7 °C 4,8 km/h (1 Bft)
24.10.2017 11:27 9,8 °C 9,8 °C 76 % 1027,5 hPa 0,0 mm 3,1 km/h (1 Bft) W 266 ° 0 min 0,000 mm 1,6 UV-I 192 W/m² 5,8 °C 9,8 °C 6,4 km/h (2 Bft)
24.10.2017 11:29 9,8 °C 9,8 °C 72 % 1027,6 hPa 0,0 mm 3,7 km/h (1 Bft) W-NW 284 ° 0 min 0,000 mm 1,6 UV-I 192 W/m² 5,0 °C 9,8 °C 6,4 km/h (2 Bft)
24.10.2017 11:30 9,9 °C 9,9 °C 75 % 1027,6 hPa 0,0 mm 1,8 km/h (1 Bft) W-NW 286 ° 0 min 0,000 mm 1,6 UV-I 192 W/m² 5,7 °C 9,9 °C 3,2 km/h (1 Bft)
24.10.2017 11:31 9,9 °C 9,9 °C 76 % 1027,5 hPa 0,0 mm 2,8 km/h (1 Bft) W-NW 286 ° 0 min 0,000 mm 1,6 UV-I 202 W/m² 5,9 °C 9,9 °C 3,2 km/h (1 Bft)
24.10.2017 11:32 9,9 °C 9,9 °C 74 % 1027,5 hPa 0,0 mm 2,1 km/h (1 Bft) W-NW 286 ° 0 min 0,000 mm 1,6 UV-I 202 W/m² 5,5 °C 9,9 °C 3,2 km/h (1 Bft)
24.10.2017 11:33 9,9 °C 9,9 °C 75 % 1027,5 hPa 0,0 mm 3,7 km/h (1 Bft) W 271 ° 0 min 0,000 mm 1,6 UV-I 192 W/m² 5,7 °C 9,9 °C 6,4 km/h (2 Bft)
24.10.2017 11:34 9,9 °C 10,0 °C 76 % 1027,5 hPa 0,0 mm 2,4 km/h (1 Bft) W 270 ° 0 min 0,000 mm 1,6 UV-I 192 W/m² 5,9 °C 9,9 °C 4,8 km/h (1 Bft)
24.10.2017 11:35 9,9 °C 9,9 °C 73 % 1027,4 hPa 0,0 mm 3,3 km/h (1 Bft) SW 236 ° 0 min 0,000 mm 1,6 UV-I 171 W/m² 5,3 °C 9,9 °C 4,8 km/h (1 Bft)
24.10.2017 11:36 9,9 °C 9,9 °C 73 % 1027,4 hPa 0,0 mm 3,2 km/h (1 Bft) SW 220 ° 0 min 0,000 mm 1,6 UV-I 165 W/m² 5,3 °C 9,9 °C 4,8 km/h (1 Bft)
24.10.2017 11:37 9,9 °C 9,9 °C 73 % 1027,4 hPa 0,0 mm 2,1 km/h (1 Bft) SW 220 ° 0 min 0,000 mm 1,6 UV-I 155 W/m² 5,3 °C 9,9 °C 3,2 km/h (1 Bft)
24.10.2017 11:38 9,8 °C 9,9 °C 74 % 1027,4 hPa 0,0 mm 1,5 km/h (1 Bft) SW 235 ° 0 min 0,000 mm 1,6 UV-I 155 W/m² 5,4 °C 9,8 °C 3,2 km/h (1 Bft)
24.10.2017 11:39 9,8 °C 9,8 °C 76 % 1027,4 hPa 0,0 mm 2,3 km/h (1 Bft) SW 235 ° 0 min 0,000 mm 1,5 UV-I 158 W/m² 5,8 °C 9,8 °C 3,2 km/h (1 Bft)
24.10.2017 11:40 9,8 °C 9,8 °C 74 % 1027,5 hPa 0,0 mm 2,0 km/h (1 Bft) SW 235 ° 0 min 0,000 mm 1,6 UV-I 167 W/m² 5,4 °C 9,8 °C 3,2 km/h (1 Bft)
24.10.2017 11:41 9,8 °C 9,8 °C 75 % 1027,4 hPa 0,0 mm 1,7 km/h (1 Bft) SW 235 ° 0 min 0,000 mm 1,6 UV-I 167 W/m² 5,6 °C 9,8 °C 3,2 km/h (1 Bft)
24.10.2017 11:42 9,8 °C 9,8 °C 73 % 1027,4 hPa 0,0 mm 0,0 km/h (0 Bft) SW 235 ° 0 min 0,000 mm 1,6 UV-I 134 W/m² 5,2 °C 9,8 °C 0,0 km/h (0 Bft)
24.10.2017 11:44 9,8 °C 9,9 °C 75 % 1027,4 hPa 0,0 mm 1,0 km/h (0 Bft) SW 235 ° 0 min 0,000 mm 1,6 UV-I 186 W/m² 5,6 °C 9,8 °C 3,2 km/h (1 Bft)
24.10.2017 11:45 9,9 °C 9,9 °C 73 % 1027,4 hPa 0,0 mm 0,0 km/h (0 Bft) SW 235 ° 0 min 0,000 mm 1,8 UV-I 258 W/m² 5,3 °C 9,9 °C 0,0 km/h (0 Bft)
24.10.2017 11:46 9,9 °C 9,9 °C 74 % 1027,4 hPa 0,0 mm 0,0 km/h (0 Bft) SW 235 ° 0 min 0,000 mm 1,9 UV-I 265 W/m² 5,5 °C 9,9 °C 0,0 km/h (0 Bft)
24.10.2017 11:47 9,9 °C 9,9 °C 73 % 1027,4 hPa 0,0 mm 0,0 km/h (0 Bft) SW 235 ° 0 min 0,000 mm 1,7 UV-I 199 W/m² 5,3 °C 9,9 °C 0,0 km/h (0 Bft)
24.10.2017 11:49 9,8 °C 9,9 °C 73 % 1027,4 hPa 0,0 mm 1,0 km/h (0 Bft) SW 234 ° 0 min 0,000 mm 1,6 UV-I 167 W/m² 5,2 °C 9,8 °C 3,2 km/h (1 Bft)
24.10.2017 11:50 9,9 °C 9,9 °C 73 % 1027,4 hPa 0,0 mm 0,3 km/h (0 Bft) SW 234 ° 0 min 0,000 mm 1,6 UV-I 167 W/m² 5,3 °C 9,9 °C 1,6 km/h (1 Bft)
24.10.2017 11:51 9,9 °C 9,9 °C 73 % 1027,5 hPa 0,0 mm 0,0 km/h (0 Bft) SW 234 ° 0 min 0,000 mm 1,6 UV-I 153 W/m² 5,3 °C 9,9 °C 0,0 km/h (0 Bft)
24.10.2017 11:52 9,9 °C 9,9 °C 73 % 1027,5 hPa 0,0 mm 0,0 km/h (0 Bft) SW 234 ° 0 min 0,000 mm 1,5 UV-I 134 W/m² 5,3 °C 9,9 °C 0,0 km/h (0 Bft)
24.10.2017 11:53 9,9 °C 9,9 °C 73 % 1027,5 hPa 0,0 mm 0,0 km/h (0 Bft) SW 234 ° 0 min 0,000 mm 1,6 UV-I 169 W/m² 5,3 °C 9,9 °C 0,0 km/h (0 Bft)
24.10.2017 11:54 9,9 °C 10,0 °C 73 % 1027,5 hPa 0,0 mm 0,0 km/h (0 Bft) SW 234 ° 0 min 0,000 mm 1,7 UV-I 267 W/m² 5,3 °C 9,9 °C 0,0 km/h (0 Bft)
24.10.2017 11:55 9,9 °C 9,9 °C 75 % 1027,5 hPa 0,0 mm 0,0 km/h (0 Bft) SW 234 ° 0 min 0,000 mm 2,5 UV-I 267 W/m² 5,7 °C 9,9 °C 0,0 km/h (0 Bft)
24.10.2017 11:56 9,9 °C 9,9 °C 74 % 1027,5 hPa 0,0 mm 0,0 km/h (0 Bft) SW 234 ° 1 min 0,000 mm 2,4 UV-I 503 W/m² 5,5 °C 9,9 °C 0,0 km/h (0 Bft)
24.10.2017 11:57 9,9 °C 9,9 °C 73 % 1027,5 hPa 0,0 mm 0,0 km/h (0 Bft) SW 234 ° 1 min 0,000 mm 2,1 UV-I 406 W/m² 5,3 °C 9,9 °C 0,0 km/h (0 Bft)
24.10.2017 11:59 9,9 °C 9,9 °C 75 % 1027,6 hPa 0,0 mm 0,0 km/h (0 Bft) SW 234 ° 2 min 0,000 mm 2,2 UV-I 406 W/m² 5,7 °C 9,9 °C 0,0 km/h (0 Bft)
24.10.2017 12:00 10,0 °C 10,0 °C 75 % 1027,6 hPa 0,0 mm 0,7 km/h (0 Bft) SW 234 ° 1 min 0,000 mm 2,1 UV-I 406 W/m² 5,8 °C 10,0 °C 3,2 km/h (1 Bft)
24.10.2017 12:01 10,1 °C 10,1 °C 77 % 1027,6 hPa 0,0 mm 2,3 km/h (1 Bft) SW 236 ° 1 min 0,076 mm 2,7 UV-I 406 W/m² 6,3 °C 10,1 °C 3,2 km/h (1 Bft)
24.10.2017 12:02 10,2 °C 10,2 °C 75 % 1027,5 hPa 0,0 mm 0,6 km/h (0 Bft) SW 236 ° 1 min 0,000 mm 2,4 UV-I 554 W/m² 6,0 °C 10,2 °C 3,2 km/h (1 Bft)
24.10.2017 12:03 10,3 °C 10,3 °C 74 % 1027,6 hPa 0,0 mm 0,0 km/h (0 Bft) SW 236 ° 1 min 0,000 mm 2,0 UV-I 554 W/m² 5,9 °C 10,3 °C 0,0 km/h (0 Bft)
24.10.2017 12:04 10,3 °C 10,3 °C 74 % 1027,6 hPa 0,0 mm 0,1 km/h (0 Bft) SW 236 ° 1 min 0,000 mm 2,3 UV-I 301 W/m² 5,9 °C 10,3 °C 1,6 km/h (1 Bft)
24.10.2017 12:05 10,3 °C 10,3 °C 75 % 1027,6 hPa 0,0 mm 2,2 km/h (1 Bft) S-SW 212 ° 0 min 0,000 mm 1,9 UV-I 243 W/m² 6,1 °C 10,3 °C 4,8 km/h (1 Bft)
24.10.2017 12:06 10,3 °C 10,3 °C 74 % 1027,6 hPa 0,0 mm 2,1 km/h (1 Bft) S-SW 212 ° 0 min 0,000 mm 1,9 UV-I 271 W/m² 5,9 °C 10,3 °C 3,2 km/h (1 Bft)
24.10.2017 12:07 10,3 °C 10,3 °C 73 % 1027,6 hPa 0,0 mm 0,3 km/h (0 Bft) S-SW 212 ° 0 min 0,000 mm 1,9 UV-I 260 W/m² 5,7 °C 10,3 °C 1,6 km/h (1 Bft)
24.10.2017 12:08 10,2 °C 10,3 °C 72 % 1027,6 hPa 0,0 mm 0,0 km/h (0 Bft) S-SW 212 ° 0 min 0,000 mm 1,9 UV-I 269 W/m² 5,4 °C 10,2 °C 0,0 km/h (0 Bft)
24.10.2017 12:09 10,2 °C 10,3 °C 73 % 1027,6 hPa 0,0 mm 0,7 km/h (0 Bft) S-SW 212 ° 0 min 0,000 mm 1,8 UV-I 207 W/m² 5,6 °C 10,2 °C 1,6 km/h (1 Bft)
24.10.2017 12:10 10,3 °C 10,3 °C 75 % 1027,5 hPa 0,0 mm 0,0 km/h (0 Bft) S-SW 212 ° 0 min 0,000 mm 1,9 UV-I 221 W/m² 6,1 °C 10,3 °C 0,0 km/h (0 Bft)
24.10.2017 12:11 10,3 °C 10,3 °C 74 % 1027,6 hPa 0,0 mm 0,4 km/h (0 Bft) S-SW 212 ° 0 min 0,000 mm 2,3 UV-I 221 W/m² 5,9 °C 10,3 °C 1,6 km/h (1 Bft)
24.10.2017 12:12 10,3 °C 10,3 °C 74 % 1027,5 hPa 0,0 mm 0,5 km/h (0 Bft) S-SW 212 ° 0 min 0,000 mm 2,2 UV-I 287 W/m² 5,9 °C 10,3 °C 1,6 km/h (1 Bft)
24.10.2017 12:13 10,4 °C 10,4 °C 75 % 1027,6 hPa 0,0 mm 0,0 km/h (0 Bft) S-SW 212 ° 1 min 0,000 mm 2,4 UV-I 434 W/m² 6,2 °C 10,4 °C 0,0 km/h (0 Bft)
24.10.2017 12:14 10,5 °C 10,6 °C 74 % 1027,5 hPa 0,0 mm 0,4 km/h (0 Bft) S-SW 212 ° 1 min 0,000 mm 2,2 UV-I 401 W/m² 6,1 °C 10,5 °C 1,6 km/h (1 Bft)
24.10.2017 12:15 10,6 °C 10,6 °C 75 % 1027,5 hPa 0,0 mm 2,8 km/h (1 Bft) SW 231 ° 1 min 0,000 mm 2,0 UV-I 401 W/m² 6,4 °C 10,6 °C 4,8 km/h (1 Bft)
24.10.2017 12:16 10,6 °C 10,6 °C 74 % 1027,5 hPa 0,0 mm 1,5 km/h (1 Bft) SW 231 ° 0 min 0,000 mm 1,9 UV-I 248 W/m² 6,2 °C 10,6 °C 3,2 km/h (1 Bft)
24.10.2017 12:17 10,7 °C 10,7 °C 76 % 1027,5 hPa 0,0 mm 0,6 km/h (0 Bft) SW 231 ° 0 min 0,000 mm 2,1 UV-I 248 W/m² 6,6 °C 10,7 °C 1,6 km/h (1 Bft)
24.10.2017 12:18 10,7 °C 10,7 °C 74 % 1027,5 hPa 0,0 mm 0,5 km/h (0 Bft) SW 231 ° 0 min 0,000 mm 2,0 UV-I 221 W/m² 6,3 °C 10,7 °C 1,6 km/h (1 Bft)
24.10.2017 12:19 10,7 °C 10,7 °C 73 % 1027,5 hPa 0,0 mm 0,0 km/h (0 Bft) SW 231 ° 0 min 0,000 mm 1,8 UV-I 200 W/m² 6,1 °C 10,7 °C 0,0 km/h (0 Bft)
24.10.2017 12:20 10,7 °C 10,7 °C 72 % 1027,4 hPa 0,0 mm 0,0 km/h (0 Bft) SW 231 ° 0 min 0,000 mm 1,8 UV-I 195 W/m² 5,9 °C 10,7 °C 0,0 km/h (0 Bft)
24.10.2017 12:21 10,7 °C 10,7 °C 73 % 1027,4 hPa 0,0 mm 0,4 km/h (0 Bft) SW 231 ° 0 min 0,000 mm 1,7 UV-I 167 W/m² 6,1 °C 10,7 °C 1,6 km/h (1 Bft)
24.10.2017 12:22 10,7 °C 10,7 °C 73 % 1027,3 hPa 0,0 mm 3,1 km/h (1 Bft) SW 234 ° 0 min 0,000 mm 1,7 UV-I 165 W/m² 6,1 °C 10,7 °C 4,8 km/h (1 Bft)
24.10.2017 12:23 10,7 °C 10,7 °C 74 % 1027,3 hPa 0,0 mm 2,4 km/h (1 Bft) SW 234 ° 0 min 0,000 mm 1,7 UV-I 146 W/m² 6,3 °C 10,7 °C 3,2 km/h (1 Bft)
24.10.2017 12:24 10,7 °C 10,7 °C 73 % 1027,2 hPa 0,0 mm 0,2 km/h (0 Bft) SW 234 ° 0 min 0,000 mm 1,7 UV-I 213 W/m² 6,1 °C 10,7 °C 1,6 km/h (1 Bft)
24.10.2017 12:25 10,7 °C 10,7 °C 75 % 1027,2 hPa 0,0 mm 1,8 km/h (1 Bft) SW 234 ° 0 min 0,000 mm 1,8 UV-I 202 W/m² 6,5 °C 10,7 °C 3,2 km/h (1 Bft)
24.10.2017 12:26 10,7 °C 10,7 °C 73 % 1027,2 hPa 0,0 mm 0,9 km/h (0 Bft) SW 234 ° 0 min 0,000 mm 1,8 UV-I 130 W/m² 6,1 °C 10,7 °C 1,6 km/h (1 Bft)
24.10.2017 12:27 10,7 °C 10,7 °C 76 % 1027,2 hPa 0,0 mm 0,1 km/h (0 Bft) SW 234 ° 0 min 0,000 mm 2,3 UV-I 197 W/m² 6,6 °C 10,7 °C 1,6 km/h (1 Bft)
24.10.2017 12:28 10,6 °C 10,7 °C 76 % 1027,2 hPa 0,0 mm 0,0 km/h (0 Bft) SW 234 ° 0 min 0,000 mm 2,1 UV-I 158 W/m² 6,5 °C 10,6 °C 0,0 km/h (0 Bft)
24.10.2017 12:29 10,4 °C 10,6 °C 76 % 1027,2 hPa 0,0 mm 0,8 km/h (0 Bft) SW 234 ° 0 min 0,000 mm 1,9 UV-I 144 W/m² 6,4 °C 10,4 °C 1,6 km/h (1 Bft)
24.10.2017 12:30 10,4 °C 10,4 °C 76 % 1027,1 hPa 0,0 mm 0,8 km/h (0 Bft) SW 234 ° 0 min 0,000 mm 1,7 UV-I 123 W/m² 6,4 °C 10,4 °C 1,6 km/h (1 Bft)
24.10.2017 12:31 10,3 °C 10,4 °C 75 % 1027,1 hPa 0,0 mm 2,0 km/h (1 Bft) SW 234 ° 0 min 0,000 mm 1,7 UV-I 127 W/m² 6,1 °C 10,3 °C 3,2 km/h (1 Bft)
24.10.2017 12:32 10,3 °C 10,3 °C 75 % 1027,1 hPa 0,0 mm 1,6 km/h (1 Bft) SW 234 ° 0 min 0,000 mm 1,7 UV-I 127 W/m² 6,1 °C 10,3 °C 1,6 km/h (1 Bft)
24.10.2017 12:33 10,4 °C 10,4 °C 74 % 1027,2 hPa 0,0 mm 1,6 km/h (1 Bft) SW 225 ° 0 min 0,000 mm 1,9 UV-I 211 W/m² 6,0 °C 10,4 °C 3,2 km/h (1 Bft)
24.10.2017 12:34 10,3 °C 10,4 °C 74 % 1027,1 hPa 0,0 mm 3,2 km/h (1 Bft) SW 225 ° 0 min 0,000 mm 2,1 UV-I 211 W/m² 5,9 °C 10,3 °C 4,8 km/h (1 Bft)
24.10.2017 12:35 10,3 °C 10,4 °C 75 % 1027,1 hPa 0,0 mm 0,0 km/h (0 Bft) SO 135 ° 1 min 0,000 mm 2,4 UV-I 396 W/m² 6,1 °C 10,3 °C 3,2 km/h (1 Bft)
24.10.2017 12:36 10,3 °C 10,3 °C 75 % 1027,1 hPa 0,0 mm 3,2 km/h (1 Bft) O-SO 112 ° 1 min 0,000 mm 2,3 UV-I 308 W/m² 6,1 °C 10,3 °C 6,4 km/h (2 Bft)
24.10.2017 12:37 10,3 °C 10,3 °C 75 % 1027,1 hPa 0,0 mm 8,0 km/h (2 Bft) O 90 ° 0 min 0,000 mm 1,6 UV-I 83 W/m² 6,1 °C 10,3 °C 11,3 km/h (2 Bft)
24.10.2017 12:38 10,3 °C 10,3 °C 75 % 1027,0 hPa 0,0 mm 4,8 km/h (1 Bft) O 90 ° 0 min 0,000 mm 1,6 UV-I 105 W/m² 6,1 °C 10,3 °C 6,4 km/h (2 Bft)
24.10.2017 12:39 10,3 °C 10,3 °C 75 % 1027,0 hPa 0,0 mm 3,2 km/h (1 Bft) SO 135 ° 0 min 0,000 mm 1,8 UV-I 160 W/m² 6,1 °C 10,3 °C 3,2 km/h (1 Bft)
24.10.2017 12:40 10,3 °C 10,3 °C 74 % 1026,9 hPa 0,0 mm 1,6 km/h (1 Bft) SO 135 ° 0 min 0,000 mm 2,0 UV-I 236 W/m² 5,9 °C 10,3 °C 1,6 km/h (1 Bft)
24.10.2017 12:41 10,4 °C 10,4 °C 73 % 1026,9 hPa 0,0 mm 0,0 km/h (0 Bft) N 0 ° 1 min 0,000 mm 2,2 UV-I 309 W/m² 5,8 °C 10,4 °C 0,0 km/h (0 Bft)
24.10.2017 12:44 10,4 °C 10,4 °C 74 % 1026,9 hPa 0,0 mm 1,0 km/h (0 Bft) SO 138 ° 0 min 0,000 mm 2,0 UV-I 144 W/m² 6,0 °C 10,4 °C 3,2 km/h (1 Bft)
24.10.2017 12:45 10,4 °C 10,4 °C 73 % 1026,9 hPa 0,0 mm 3,8 km/h (1 Bft) S-SO 161 ° 0 min 0,000 mm 2,5 UV-I 144 W/m² 5,8 °C 10,4 °C 6,4 km/h (2 Bft)
24.10.2017 12:46 10,5 °C 10,5 °C 73 % 1026,9 hPa 0,0 mm 0,9 km/h (0 Bft) S-SO 161 ° 1 min 0,000 mm 2,6 UV-I 469 W/m² 5,9 °C 10,5 °C 1,6 km/h (1 Bft)
24.10.2017 12:47 10,5 °C 10,6 °C 73 % 1026,9 hPa 0,0 mm 0,8 km/h (0 Bft) S-SO 161 ° 1 min 0,000 mm 2,6 UV-I 429 W/m² 5,9 °C 10,5 °C 3,2 km/h (1 Bft)
24.10.2017 12:48 10,6 °C 10,6 °C 73 % 1026,9 hPa 0,0 mm 2,9 km/h (1 Bft) S-SO 161 ° 1 min 0,000 mm 1,8 UV-I 429 W/m² 6,0 °C 10,6 °C 6,4 km/h (2 Bft)
24.10.2017 12:49 10,6 °C 10,6 °C 73 % 1026,8 hPa 0,0 mm 3,8 km/h (1 Bft) S 173 ° 0 min 0,000 mm 1,8 UV-I 162 W/m² 6,0 °C 10,6 °C 6,4 km/h (2 Bft)
24.10.2017 12:50 10,6 °C 10,6 °C 73 % 1026,8 hPa 0,0 mm 4,3 km/h (1 Bft) S-SW 196 ° 0 min 0,000 mm 2,0 UV-I 221 W/m² 6,0 °C 10,6 °C 4,8 km/h (1 Bft)
24.10.2017 12:51 10,6 °C 10,6 °C 72 % 1026,8 hPa 0,0 mm 3,0 km/h (1 Bft) S-SW 196 ° 0 min 0,000 mm 1,9 UV-I 125 W/m² 5,8 °C 10,6 °C 4,8 km/h (1 Bft)
24.10.2017 12:52 10,7 °C 10,7 °C 72 % 1026,8 hPa 0,0 mm 3,4 km/h (1 Bft) S-SW 194 ° 0 min 0,000 mm 1,6 UV-I 56 W/m² 5,9 °C 10,7 °C 4,8 km/h (1 Bft)
24.10.2017 12:53 10,7 °C 10,7 °C 72 % 1026,8 hPa 0,0 mm 1,0 km/h (0 Bft) S-SW 194 ° 0 min 0,000 mm 0,0 UV-I 49 W/m² 5,9 °C 10,7 °C 3,2 km/h (1 Bft)
24.10.2017 12:54 10,7 °C 10,7 °C 72 % 1026,8 hPa 0,0 mm 0,1 km/h (0 Bft) S-SW 194 ° 0 min 0,000 mm 0,0 UV-I 54 W/m² 5,9 °C 10,7 °C 1,6 km/h (1 Bft)
24.10.2017 12:55 10,6 °C 10,7 °C 73 % 1026,8 hPa 0,0 mm 1,7 km/h (1 Bft) S 173 ° 0 min 0,000 mm 1,6 UV-I 67 W/m² 6,0 °C 10,6 °C 3,2 km/h (1 Bft)
24.10.2017 12:56 10,5 °C 10,6 °C 75 % 1026,8 hPa 0,0 mm 2,2 km/h (1 Bft) SO 134 ° 0 min 0,000 mm 1,6 UV-I 76 W/m² 6,3 °C 10,5 °C 3,2 km/h (1 Bft)
24.10.2017 12:57 10,4 °C 10,5 °C 75 % 1026,7 hPa 0,0 mm 0,5 km/h (0 Bft) SO 134 ° 0 min 0,000 mm 1,6 UV-I 74 W/m² 6,2 °C 10,4 °C 1,6 km/h (1 Bft)
24.10.2017 12:58 10,3 °C 10,4 °C 73 % 1026,7 hPa 0,0 mm 0,0 km/h (0 Bft) SO 134 ° 0 min 0,000 mm 1,6 UV-I 97 W/m² 5,7 °C 10,3 °C 0,0 km/h (0 Bft)
24.10.2017 12:59 10,4 °C 10,4 °C 73 % 1026,8 hPa 0,0 mm 0,3 km/h (0 Bft) SO 134 ° 0 min 0,000 mm 1,7 UV-I 97 W/m² 5,8 °C 10,4 °C 1,6 km/h (1 Bft)
24.10.2017 13:00 10,7 °C 10,7 °C 73 % 1026,8 hPa 0,0 mm 0,3 km/h (0 Bft) SO 136 ° 0 min 0,000 mm 2,2 UV-I 288 W/m² 6,1 °C 10,7 °C 1,6 km/h (1 Bft)
24.10.2017 13:01 10,9 °C 10,9 °C 74 % 1026,8 hPa 0,0 mm 0,5 km/h (0 Bft) SO 136 ° 0 min 0,102 mm 2,0 UV-I 288 W/m² 6,5 °C 10,9 °C 1,6 km/h (1 Bft)
24.10.2017 13:02 11,1 °C 11,1 °C 71 % 1026,7 hPa 0,0 mm 0,5 km/h (0 Bft) SO 136 ° 0 min 0,000 mm 1,7 UV-I 123 W/m² 6,0 °C 11,1 °C 1,6 km/h (1 Bft)
24.10.2017 13:03 11,2 °C 11,2 °C 71 % 1026,8 hPa 0,0 mm 0,6 km/h (0 Bft) SO 136 ° 0 min 0,000 mm 1,7 UV-I 109 W/m² 6,1 °C 11,2 °C 1,6 km/h (1 Bft)
24.10.2017 13:04 11,2 °C 11,2 °C 71 % 1026,8 hPa 0,0 mm 3,6 km/h (1 Bft) NW 326 ° 0 min 0,000 mm 1,6 UV-I 84 W/m² 6,1 °C 11,2 °C 6,4 km/h (2 Bft)
24.10.2017 13:05 11,3 °C 11,3 °C 70 % 1026,8 hPa 0,0 mm 2,9 km/h (1 Bft) N-NW 333 ° 0 min 0,000 mm 1,6 UV-I 84 W/m² 6,0 °C 11,3 °C 4,8 km/h (1 Bft)
24.10.2017 13:06 11,2 °C 11,3 °C 71 % 1026,8 hPa 0,0 mm 3,9 km/h (1 Bft) NW 306 ° 0 min 0,000 mm 1,6 UV-I 97 W/m² 6,1 °C 11,2 °C 6,4 km/h (2 Bft)
24.10.2017 13:07 11,2 °C 11,2 °C 72 % 1026,8 hPa 0,0 mm 4,2 km/h (1 Bft) W-SW 257 ° 0 min 0,000 mm 1,7 UV-I 100 W/m² 6,3 °C 11,2 °C 6,4 km/h (2 Bft)
24.10.2017 13:08 11,2 °C 11,2 °C 69 % 1026,9 hPa 0,0 mm 5,8 km/h (2 Bft) W-SW 257 ° 0 min 0,000 mm 1,7 UV-I 120 W/m² 5,7 °C 11,2 °C 8,0 km/h (2 Bft)
24.10.2017 13:09 11,2 °C 11,2 °C 67 % 1026,9 hPa 0,0 mm 4,2 km/h (1 Bft) NW 310 ° 0 min 0,000 mm 1,7 UV-I 128 W/m² 5,3 °C 11,2 °C 6,4 km/h (2 Bft)
24.10.2017 13:10 11,3 °C 11,3 °C 70 % 1026,8 hPa 0,0 mm 4,3 km/h (1 Bft) W-NW 300 ° 0 min 0,000 mm 1,8 UV-I 165 W/m² 6,0 °C 11,3 °C 6,4 km/h (2 Bft)
24.10.2017 13:11 11,4 °C 11,4 °C 70 % 1026,8 hPa 0,0 mm 3,4 km/h (1 Bft) NW 310 ° 0 min 0,000 mm 1,9 UV-I 174 W/m² 6,1 °C 11,4 °C 6,4 km/h (2 Bft)
24.10.2017 13:12 11,6 °C 11,6 °C 69 % 1026,8 hPa 0,0 mm 3,1 km/h (1 Bft) W 276 ° 0 min 0,000 mm 1,9 UV-I 181 W/m² 6,1 °C 11,6 °C 6,4 km/h (2 Bft)
24.10.2017 13:13 11,7 °C 11,7 °C 66 % 1026,8 hPa 0,0 mm 2,8 km/h (1 Bft) W-NW 284 ° 0 min 0,000 mm 1,9 UV-I 176 W/m² 5,6 °C 11,7 °C 6,4 km/h (2 Bft)
24.10.2017 13:14 11,7 °C 11,7 °C 66 % 1026,8 hPa 0,0 mm 5,3 km/h (1 Bft) W-NW 283 ° 0 min 0,000 mm 1,9 UV-I 174 W/m² 5,6 °C 11,7 °C 9,7 km/h (2 Bft)
24.10.2017 13:15 11,8 °C 11,8 °C 64 % 1026,8 hPa 0,0 mm 5,9 km/h (2 Bft) NW 307 ° 0 min 0,000 mm 1,9 UV-I 199 W/m² 5,2 °C 11,8 °C 11,3 km/h (2 Bft)
24.10.2017 13:16 11,9 °C 11,9 °C 66 % 1026,8 hPa 0,0 mm 5,6 km/h (1 Bft) NW 317 ° 0 min 0,000 mm 1,9 UV-I 195 W/m² 5,8 °C 11,9 °C 9,7 km/h (2 Bft)
24.10.2017 13:17 12,0 °C 12,0 °C 65 % 1026,7 hPa 0,0 mm 4,8 km/h (1 Bft) NW 320 ° 0 min 0,000 mm 1,9 UV-I 199 W/m² 5,6 °C 12,0 °C 8,0 km/h (2 Bft)
24.10.2017 13:18 12,1 °C 12,1 °C 64 % 1026,8 hPa 0,0 mm 5,8 km/h (2 Bft) W-NW 286 ° 0 min 0,000 mm 1,8 UV-I 183 W/m² 5,5 °C 12,1 °C 11,3 km/h (2 Bft)
24.10.2017 13:19 12,1 °C 12,1 °C 64 % 1026,8 hPa 0,0 mm 5,9 km/h (2 Bft) W-SW 244 ° 0 min 0,000 mm 1,8 UV-I 181 W/m² 5,5 °C 12,1 °C 9,7 km/h (2 Bft)
24.10.2017 13:20 12,1 °C 12,2 °C 64 % 1026,8 hPa 0,0 mm 3,1 km/h (1 Bft) W-SW 254 ° 0 min 0,000 mm 1,9 UV-I 183 W/m² 5,5 °C 12,1 °C 6,4 km/h (2 Bft)
24.10.2017 13:21 12,1 °C 12,1 °C 66 % 1026,8 hPa 0,0 mm 7,0 km/h (2 Bft) W-SW 254 ° 0 min 0,000 mm 1,9 UV-I 185 W/m² 5,9 °C 12,1 °C 11,3 km/h (2 Bft)
24.10.2017 13:22 12,1 °C 12,1 °C 65 % 1026,8 hPa 0,0 mm 7,6 km/h (2 Bft) SW 217 ° 0 min 0,000 mm 1,9 UV-I 211 W/m² 5,7 °C 12,1 °C 14,5 km/h (3 Bft)
24.10.2017 13:23 12,1 °C 12,1 °C 63 % 1026,7 hPa 0,0 mm 2,5 km/h (1 Bft) SW 218 ° 0 min 0,000 mm 1,9 UV-I 220 W/m² 5,3 °C 12,1 °C 4,8 km/h (1 Bft)
24.10.2017 13:24 12,1 °C 12,1 °C 65 % 1026,8 hPa 0,0 mm 6,2 km/h (2 Bft) W-SW 240 ° 0 min 0,000 mm 1,9 UV-I 227 W/m² 5,7 °C 12,1 °C 11,3 km/h (2 Bft)
24.10.2017 13:25 12,0 °C 12,1 °C 65 % 1026,8 hPa 0,0 mm 5,0 km/h (1 Bft) W-SW 243 ° 0 min 0,000 mm 1,9 UV-I 241 W/m² 5,6 °C 12,0 °C 8,0 km/h (2 Bft)
24.10.2017 13:26 12,1 °C 12,1 °C 65 % 1026,8 hPa 0,0 mm 4,7 km/h (1 Bft) W-NW 301 ° 0 min 0,000 mm 2,0 UV-I 248 W/m² 5,7 °C 12,1 °C 6,4 km/h (2 Bft)
24.10.2017 13:27 12,1 °C 12,1 °C 65 % 1026,8 hPa 0,0 mm 2,9 km/h (1 Bft) W 279 ° 0 min 0,000 mm 1,9 UV-I 234 W/m² 5,7 °C 12,1 °C 4,8 km/h (1 Bft)
24.10.2017 13:28 12,0 °C 12,1 °C 65 % 1026,8 hPa 0,0 mm 5,8 km/h (2 Bft) W 275 ° 0 min 0,000 mm 2,0 UV-I 253 W/m² 5,6 °C 12,0 °C 11,3 km/h (2 Bft)
24.10.2017 13:29 12,0 °C 12,0 °C 64 % 1026,8 hPa 0,0 mm 5,1 km/h (1 Bft) W-NW 302 ° 0 min 0,000 mm 2,0 UV-I 248 W/m² 5,4 °C 12,0 °C 6,4 km/h (2 Bft)
24.10.2017 13:30 12,0 °C 12,0 °C 64 % 1026,8 hPa 0,0 mm 3,8 km/h (1 Bft) NW 315 ° 0 min 0,000 mm 2,0 UV-I 255 W/m² 5,4 °C 12,0 °C 4,8 km/h (1 Bft)
24.10.2017 13:31 12,1 °C 12,1 °C 64 % 1026,9 hPa 0,0 mm 3,8 km/h (1 Bft) NW 316 ° 0 min 0,000 mm 2,0 UV-I 274 W/m² 5,5 °C 12,1 °C 4,8 km/h (1 Bft)
24.10.2017 13:32 12,1 °C 12,1 °C 67 % 1026,9 hPa 0,0 mm 3,8 km/h (1 Bft) W-NW 292 ° 0 min 0,000 mm 1,9 UV-I 251 W/m² 6,2 °C 12,1 °C 6,4 km/h (2 Bft)
24.10.2017 13:33 12,1 °C 12,1 °C 67 % 1026,9 hPa 0,0 mm 5,9 km/h (2 Bft) NW 310 ° 0 min 0,000 mm 1,9 UV-I 248 W/m² 6,2 °C 12,1 °C 8,0 km/h (2 Bft)
24.10.2017 13:34 12,2 °C 12,2 °C 69 % 1026,8 hPa 0,0 mm 7,6 km/h (2 Bft) NW 306 ° 0 min 0,000 mm 1,9 UV-I 237 W/m² 6,7 °C 12,2 °C 12,9 km/h (3 Bft)
24.10.2017 13:35 12,2 °C 12,2 °C 66 % 1026,8 hPa 0,0 mm 3,7 km/h (1 Bft) NW 321 ° 0 min 0,000 mm 1,9 UV-I 227 W/m² 6,0 °C 12,2 °C 6,4 km/h (2 Bft)
24.10.2017 13:36 12,2 °C 12,2 °C 67 % 1026,8 hPa 0,0 mm 2,8 km/h (1 Bft) NW 321 ° 0 min 0,000 mm 1,9 UV-I 251 W/m² 6,3 °C 12,2 °C 4,8 km/h (1 Bft)
24.10.2017 13:37 12,2 °C 12,3 °C 66 % 1026,8 hPa 0,0 mm 5,2 km/h (1 Bft) NW 305 ° 0 min 0,000 mm 1,9 UV-I 225 W/m² 6,0 °C 12,2 °C 11,3 km/h (2 Bft)
24.10.2017 13:38 12,3 °C 12,3 °C 65 % 1026,8 hPa 0,0 mm 6,2 km/h (2 Bft) W-NW 282 ° 0 min 0,000 mm 1,9 UV-I 225 W/m² 5,9 °C 12,3 °C 11,3 km/h (2 Bft)
24.10.2017 13:39 12,2 °C 12,3 °C 63 % 1026,8 hPa 0,0 mm 7,3 km/h (2 Bft) W-NW 283 ° 0 min 0,000 mm 1,9 UV-I 216 W/m² 5,4 °C 12,2 °C 12,9 km/h (3 Bft)
24.10.2017 13:40 12,2 °C 12,2 °C 63 % 1026,8 hPa 0,0 mm 4,1 km/h (1 Bft) W-NW 289 ° 0 min 0,000 mm 1,8 UV-I 213 W/m² 5,4 °C 12,2 °C 6,4 km/h (2 Bft)
24.10.2017 13:41 12,1 °C 12,2 °C 63 % 1026,8 hPa 0,0 mm 7,4 km/h (2 Bft) W 272 ° 0 min 0,000 mm 1,9 UV-I 213 W/m² 5,3 °C 12,1 °C 11,3 km/h (2 Bft)
24.10.2017 13:42 12,1 °C 12,1 °C 64 % 1026,7 hPa 0,0 mm 5,0 km/h (1 Bft) NW 305 ° 0 min 0,000 mm 1,8 UV-I 211 W/m² 5,5 °C 12,1 °C 9,7 km/h (2 Bft)
24.10.2017 13:43 12,1 °C 12,1 °C 65 % 1026,8 hPa 0,0 mm 6,6 km/h (2 Bft) NW 318 ° 0 min 0,000 mm 1,9 UV-I 220 W/m² 5,7 °C 12,1 °C 9,7 km/h (2 Bft)
24.10.2017 13:44 12,1 °C 12,1 °C 64 % 1026,7 hPa 0,0 mm 4,0 km/h (1 Bft) NW 309 ° 0 min 0,000 mm 1,8 UV-I 209 W/m² 5,5 °C 12,1 °C 4,8 km/h (1 Bft)
24.10.2017 13:45 12,0 °C 12,1 °C 64 % 1026,8 hPa 0,0 mm 4,0 km/h (1 Bft) N-NW 331 ° 0 min 0,000 mm 1,8 UV-I 206 W/m² 5,4 °C 12,0 °C 8,0 km/h (2 Bft)
24.10.2017 13:46 12,0 °C 12,1 °C 64 % 1026,8 hPa 0,0 mm 2,3 km/h (1 Bft) NW 324 ° 0 min 0,000 mm 1,8 UV-I 202 W/m² 5,4 °C 12,0 °C 4,8 km/h (1 Bft)
24.10.2017 13:47 12,0 °C 12,0 °C 65 % 1026,8 hPa 0,0 mm 3,2 km/h (1 Bft) NW 323 ° 0 min 0,000 mm 1,8 UV-I 200 W/m² 5,6 °C 12,0 °C 4,8 km/h (1 Bft)
24.10.2017 13:48 11,9 °C 12,0 °C 64 % 1026,8 hPa 0,0 mm 2,9 km/h (1 Bft) W-NW 292 ° 0 min 0,000 mm 1,8 UV-I 204 W/m² 5,3 °C 11,9 °C 6,4 km/h (2 Bft)
24.10.2017 13:49 12,0 °C 12,0 °C 65 % 1026,8 hPa 0,0 mm 3,8 km/h (1 Bft) NW 314 ° 0 min 0,000 mm 1,8 UV-I 202 W/m² 5,6 °C 12,0 °C 9,7 km/h (2 Bft)
24.10.2017 13:50 12,0 °C 12,0 °C 64 % 1026,8 hPa 0,0 mm 7,9 km/h (2 Bft) NW 315 ° 0 min 0,000 mm 1,8 UV-I 204 W/m² 5,4 °C 12,0 °C 14,5 km/h (3 Bft)
24.10.2017 13:51 12,0 °C 12,0 °C 64 % 1026,8 hPa 0,0 mm 4,7 km/h (1 Bft) NW 317 ° 0 min 0,000 mm 1,8 UV-I 206 W/m² 5,4 °C 12,0 °C 8,0 km/h (2 Bft)
24.10.2017 13:52 12,0 °C 12,0 °C 65 % 1026,7 hPa 0,0 mm 6,0 km/h (2 Bft) NW 321 ° 0 min 0,000 mm 1,8 UV-I 209 W/m² 5,6 °C 12,0 °C 6,4 km/h (2 Bft)
24.10.2017 13:53 12,1 °C 12,1 °C 64 % 1026,7 hPa 0,0 mm 4,9 km/h (1 Bft) NW 325 ° 0 min 0,000 mm 1,8 UV-I 204 W/m² 5,5 °C 12,1 °C 8,0 km/h (2 Bft)
24.10.2017 13:54 12,1 °C 12,1 °C 63 % 1026,7 hPa 0,0 mm 3,5 km/h (1 Bft) N-NW 342 ° 0 min 0,000 mm 1,8 UV-I 200 W/m² 5,3 °C 12,1 °C 6,4 km/h (2 Bft)
24.10.2017 13:55 12,1 °C 12,1 °C 63 % 1026,7 hPa 0,0 mm 5,2 km/h (1 Bft) W-SW 258 ° 0 min 0,000 mm 2,0 UV-I 253 W/m² 5,3 °C 12,1 °C 9,7 km/h (2 Bft)
24.10.2017 13:56 12,1 °C 12,1 °C 63 % 1026,7 hPa 0,0 mm 6,0 km/h (2 Bft) W-NW 288 ° 0 min 0,000 mm 2,0 UV-I 221 W/m² 5,3 °C 12,1 °C 9,7 km/h (2 Bft)
24.10.2017 13:57 12,1 °C 12,1 °C 63 % 1026,7 hPa 0,0 mm 3,9 km/h (1 Bft) W-NW 286 ° 0 min 0,000 mm 1,9 UV-I 216 W/m² 5,3 °C 12,1 °C 6,4 km/h (2 Bft)
24.10.2017 13:58 12,1 °C 12,1 °C 64 % 1026,7 hPa 0,0 mm 3,4 km/h (1 Bft) W-NW 300 ° 0 min 0,000 mm 1,8 UV-I 204 W/m² 5,5 °C 12,1 °C 4,8 km/h (1 Bft)
24.10.2017 13:59 12,1 °C 12,1 °C 64 % 1026,7 hPa 0,0 mm 1,9 km/h (1 Bft) W 264 ° 0 min 0,000 mm 1,8 UV-I 218 W/m² 5,5 °C 12,1 °C 4,8 km/h (1 Bft)
24.10.2017 14:00 12,1 °C 12,1 °C 65 % 1026,7 hPa 0,0 mm 3,9 km/h (1 Bft) NW 314 ° 0 min 0,127 mm 1,8 UV-I 221 W/m² 5,7 °C 12,1 °C 6,4 km/h (2 Bft)
24.10.2017 14:01 12,1 °C 12,1 °C 63 % 1026,6 hPa 0,0 mm 3,5 km/h (1 Bft) NW 311 ° 0 min 0,000 mm 1,8 UV-I 227 W/m² 5,3 °C 12,1 °C 4,8 km/h (1 Bft)
24.10.2017 14:02 12,1 °C 12,1 °C 63 % 1026,6 hPa 0,0 mm 1,7 km/h (1 Bft) NW 311 ° 0 min 0,000 mm 1,9 UV-I 260 W/m² 5,3 °C 12,1 °C 3,2 km/h (1 Bft)
24.10.2017 14:03 12,1 °C 12,1 °C 66 % 1026,6 hPa 0,0 mm 2,9 km/h (1 Bft) NW 312 ° 0 min 0,000 mm 2,1 UV-I 225 W/m² 5,9 °C 12,1 °C 4,8 km/h (1 Bft)
24.10.2017 14:04 12,1 °C 12,1 °C 65 % 1026,5 hPa 0,0 mm 3,6 km/h (1 Bft) NW 320 ° 0 min 0,000 mm 1,8 UV-I 206 W/m² 5,7 °C 12,1 °C 6,4 km/h (2 Bft)
24.10.2017 14:05 12,1 °C 12,1 °C 65 % 1026,5 hPa 0,0 mm 4,4 km/h (1 Bft) W-NW 303 ° 0 min 0,000 mm 1,7 UV-I 192 W/m² 5,7 °C 12,1 °C 6,4 km/h (2 Bft)
24.10.2017 14:06 12,1 °C 12,1 °C 65 % 1026,5 hPa 0,0 mm 2,7 km/h (1 Bft) W-NW 282 ° 0 min 0,000 mm 1,8 UV-I 197 W/m² 5,7 °C 12,1 °C 4,8 km/h (1 Bft)
24.10.2017 14:07 12,1 °C 12,1 °C 63 % 1026,5 hPa 0,0 mm 1,6 km/h (1 Bft) NW 304 ° 0 min 0,000 mm 1,8 UV-I 206 W/m² 5,3 °C 12,1 °C 4,8 km/h (1 Bft)
24.10.2017 14:08 12,1 °C 12,1 °C 63 % 1026,5 hPa 0,0 mm 4,7 km/h (1 Bft) W 269 ° 0 min 0,000 mm 1,8 UV-I 214 W/m² 5,3 °C 12,1 °C 6,4 km/h (2 Bft)
24.10.2017 14:09 12,1 °C 12,1 °C 64 % 1026,4 hPa 0,0 mm 4,2 km/h (1 Bft) NW 305 ° 0 min 0,000 mm 1,8 UV-I 206 W/m² 5,5 °C 12,1 °C 6,4 km/h (2 Bft)
24.10.2017 14:10 12,0 °C 12,1 °C 63 % 1026,4 hPa 0,0 mm 2,4 km/h (1 Bft) NW 305 ° 0 min 0,000 mm 1,8 UV-I 232 W/m² 5,2 °C 12,0 °C 4,8 km/h (1 Bft)
24.10.2017 14:11 12,1 °C 12,1 °C 64 % 1026,4 hPa 0,0 mm 3,7 km/h (1 Bft) W-NW 286 ° 0 min 0,000 mm 1,7 UV-I 193 W/m² 5,5 °C 12,1 °C 4,8 km/h (1 Bft)
24.10.2017 14:12 12,1 °C 12,1 °C 63 % 1026,4 hPa 0,0 mm 3,4 km/h (1 Bft) W-NW 298 ° 0 min 0,000 mm 1,7 UV-I 188 W/m² 5,3 °C 12,1 °C 4,8 km/h (1 Bft)
24.10.2017 14:13 12,0 °C 12,1 °C 63 % 1026,4 hPa 0,0 mm 1,9 km/h (1 Bft) W-NW 286 ° 0 min 0,000 mm 1,7 UV-I 183 W/m² 5,2 °C 12,0 °C 3,2 km/h (1 Bft)
24.10.2017 14:14 12,1 °C 12,1 °C 62 % 1026,3 hPa 0,0 mm 4,1 km/h (1 Bft) NW 317 ° 0 min 0,000 mm 1,7 UV-I 178 W/m² 5,0 °C 12,1 °C 8,0 km/h (2 Bft)
24.10.2017 14:15 12,1 °C 12,1 °C 63 % 1026,4 hPa 0,0 mm 2,3 km/h (1 Bft) NW 317 ° 0 min 0,000 mm 1,7 UV-I 171 W/m² 5,3 °C 12,1 °C 4,8 km/h (1 Bft)
24.10.2017 14:16 12,0 °C 12,1 °C 65 % 1026,4 hPa 0,0 mm 3,0 km/h (1 Bft) W 280 ° 0 min 0,000 mm 1,7 UV-I 179 W/m² 5,6 °C 12,0 °C 4,8 km/h (1 Bft)
24.10.2017 14:17 12,0 °C 12,0 °C 65 % 1026,3 hPa 0,0 mm 0,9 km/h (0 Bft) W 280 ° 0 min 0,000 mm 1,7 UV-I 179 W/m² 5,6 °C 12,0 °C 3,2 km/h (1 Bft)
24.10.2017 14:18 11,9 °C 12,0 °C 65 % 1026,3 hPa 0,0 mm 0,0 km/h (0 Bft) W 280 ° 0 min 0,000 mm 1,7 UV-I 176 W/m² 5,5 °C 11,9 °C 0,0 km/h (0 Bft)
24.10.2017 14:19 11,9 °C 11,9 °C 68 % 1026,3 hPa 0,0 mm 2,4 km/h (1 Bft) W 280 ° 0 min 0,000 mm 1,6 UV-I 172 W/m² 6,2 °C 11,9 °C 3,2 km/h (1 Bft)
24.10.2017 14:20 11,8 °C 11,9 °C 65 % 1026,3 hPa 0,0 mm 0,4 km/h (0 Bft) W 280 ° 0 min 0,000 mm 1,6 UV-I 165 W/m² 5,4 °C 11,8 °C 3,2 km/h (1 Bft)
24.10.2017 14:21 11,9 °C 11,9 °C 64 % 1026,2 hPa 0,0 mm 0,0 km/h (0 Bft) W 280 ° 0 min 0,000 mm 1,6 UV-I 167 W/m² 5,3 °C 11,9 °C 0,0 km/h (0 Bft)
24.10.2017 14:22 11,9 °C 11,9 °C 68 % 1026,3 hPa 0,0 mm 0,4 km/h (0 Bft) W 280 ° 0 min 0,000 mm 1,6 UV-I 167 W/m² 6,2 °C 11,9 °C 1,6 km/h (1 Bft)
24.10.2017 14:23 11,8 °C 11,9 °C 67 % 1026,3 hPa 0,0 mm 0,1 km/h (0 Bft) W 280 ° 0 min 0,000 mm 1,6 UV-I 167 W/m² 5,9 °C 11,8 °C 1,6 km/h (1 Bft)
24.10.2017 14:24 11,9 °C 11,9 °C 62 % 1026,2 hPa 0,0 mm 0,5 km/h (0 Bft) W 280 ° 0 min 0,000 mm 1,6 UV-I 158 W/m² 4,9 °C 11,9 °C 1,6 km/h (1 Bft)
24.10.2017 14:25 11,8 °C 11,9 °C 65 % 1026,2 hPa 0,0 mm 0,0 km/h (0 Bft) W 280 ° 0 min 0,000 mm 1,6 UV-I 162 W/m² 5,4 °C 11,8 °C 0,0 km/h (0 Bft)
24.10.2017 14:26 11,8 °C 11,9 °C 66 % 1026,2 hPa 0,0 mm 0,6 km/h (0 Bft) W 279 ° 0 min 0,000 mm 1,7 UV-I 169 W/m² 5,7 °C 11,8 °C 3,2 km/h (1 Bft)
24.10.2017 14:27 11,8 °C 11,8 °C 62 % 1026,2 hPa 0,0 mm 0,0 km/h (0 Bft) W 279 ° 0 min 0,000 mm 1,7 UV-I 241 W/m² 4,8 °C 11,8 °C 0,0 km/h (0 Bft)
24.10.2017 14:28 11,8 °C 11,8 °C 63 % 1026,2 hPa 0,0 mm 0,8 km/h (0 Bft) W 279 ° 0 min 0,000 mm 1,9 UV-I 257 W/m² 5,0 °C 11,8 °C 3,2 km/h (1 Bft)
24.10.2017 14:29 11,9 °C 11,9 °C 63 % 1026,2 hPa 0,0 mm 3,1 km/h (1 Bft) W 279 ° 1 min 0,000 mm 2,1 UV-I 346 W/m² 5,1 °C 11,9 °C 4,8 km/h (1 Bft)
24.10.2017 14:30 11,8 °C 11,9 °C 65 % 1026,1 hPa 0,0 mm 0,2 km/h (0 Bft) W 279 ° 1 min 0,000 mm 2,3 UV-I 346 W/m² 5,4 °C 11,8 °C 1,6 km/h (1 Bft)
24.10.2017 14:31 11,9 °C 11,9 °C 69 % 1026,1 hPa 0,0 mm 0,4 km/h (0 Bft) W 279 ° 1 min 0,000 mm 1,8 UV-I 346 W/m² 6,4 °C 11,9 °C 1,6 km/h (1 Bft)
24.10.2017 14:32 11,9 °C 11,9 °C 65 % 1026,1 hPa 0,0 mm 0,1 km/h (0 Bft) W 279 ° 1 min 0,000 mm 2,0 UV-I 346 W/m² 5,5 °C 11,9 °C 1,6 km/h (1 Bft)
24.10.2017 14:33 11,9 °C 11,9 °C 62 % 1026,1 hPa 0,0 mm 0,6 km/h (0 Bft) W 279 ° 1 min 0,000 mm 1,7 UV-I 346 W/m² 4,9 °C 11,9 °C 1,6 km/h (1 Bft)
24.10.2017 14:34 11,8 °C 11,9 °C 64 % 1026,0 hPa 0,0 mm 2,4 km/h (1 Bft) SW 232 ° 1 min 0,000 mm 2,3 UV-I 480 W/m² 5,2 °C 11,8 °C 4,8 km/h (1 Bft)
24.10.2017 14:35 11,8 °C 11,8 °C 64 % 1026,1 hPa 0,0 mm 3,4 km/h (1 Bft) S 172 ° 1 min 0,000 mm 2,2 UV-I 489 W/m² 5,2 °C 11,8 °C 4,8 km/h (1 Bft)
24.10.2017 14:36 11,9 °C 11,9 °C 60 % 1026,1 hPa 0,0 mm 6,8 km/h (2 Bft) SO 138 ° 1 min 0,000 mm 2,2 UV-I 429 W/m² 4,4 °C 11,9 °C 8,0 km/h (2 Bft)
24.10.2017 14:37 12,0 °C 12,0 °C 62 % 1026,0 hPa 0,0 mm 3,2 km/h (1 Bft) SO 141 ° 1 min 0,000 mm 2,3 UV-I 478 W/m² 4,9 °C 12,0 °C 6,4 km/h (2 Bft)
24.10.2017 14:38 12,1 °C 12,1 °C 63 % 1026,0 hPa 0,0 mm 3,0 km/h (1 Bft) SW 233 ° 1 min 0,000 mm 2,2 UV-I 445 W/m² 5,3 °C 12,1 °C 4,8 km/h (1 Bft)
24.10.2017 14:39 12,1 °C 12,2 °C 66 % 1026,0 hPa 0,0 mm 2,5 km/h (1 Bft) SW 223 ° 1 min 0,000 mm 2,2 UV-I 424 W/m² 5,9 °C 12,1 °C 4,8 km/h (1 Bft)
24.10.2017 14:40 12,3 °C 12,3 °C 63 % 1026,0 hPa 0,0 mm 4,4 km/h (1 Bft) S-SW 198 ° 1 min 0,000 mm 2,2 UV-I 418 W/m² 5,5 °C 12,3 °C 8,0 km/h (2 Bft)
24.10.2017 14:41 12,4 °C 12,4 °C 61 % 1026,0 hPa 0,0 mm 3,2 km/h (1 Bft) SW 227 ° 1 min 0,000 mm 2,1 UV-I 418 W/m² 5,1 °C 12,4 °C 8,0 km/h (2 Bft)
24.10.2017 14:42 12,5 °C 12,5 °C 60 % 1026,0 hPa 0,0 mm 2,1 km/h (1 Bft) SW 216 ° 1 min 0,000 mm 2,2 UV-I 411 W/m² 5,0 °C 12,5 °C 4,8 km/h (1 Bft)
24.10.2017 14:43 12,5 °C 12,6 °C 62 % 1026,0 hPa 0,0 mm 2,1 km/h (1 Bft) S-SW 212 ° 1 min 0,000 mm 2,2 UV-I 441 W/m² 5,4 °C 12,5 °C 4,8 km/h (1 Bft)
24.10.2017 14:44 12,4 °C 12,5 °C 64 % 1026,0 hPa 0,0 mm 5,4 km/h (1 Bft) S 179 ° 1 min 0,000 mm 2,2 UV-I 452 W/m² 5,8 °C 12,4 °C 8,0 km/h (2 Bft)
24.10.2017 14:45 12,4 °C 12,4 °C 61 % 1026,0 hPa 0,0 mm 1,6 km/h (1 Bft) S 179 ° 1 min 0,000 mm 2,2 UV-I 446 W/m² 5,1 °C 12,4 °C 4,8 km/h (1 Bft)
24.10.2017 14:46 12,6 °C 12,6 °C 63 % 1026,0 hPa 0,0 mm 0,2 km/h (0 Bft) S 179 ° 1 min 0,000 mm 2,2 UV-I 446 W/m² 5,7 °C 12,6 °C 1,6 km/h (1 Bft)
24.10.2017 14:47 12,5 °C 12,6 °C 62 % 1026,0 hPa 0,0 mm 0,5 km/h (0 Bft) S 179 ° 1 min 0,000 mm 2,2 UV-I 452 W/m² 5,4 °C 12,5 °C 1,6 km/h (1 Bft)
24.10.2017 14:48 12,5 °C 12,6 °C 62 % 1026,0 hPa 0,0 mm 0,8 km/h (0 Bft) SW 228 ° 1 min 0,000 mm 2,2 UV-I 441 W/m² 5,4 °C 12,5 °C 1,6 km/h (1 Bft)
24.10.2017 14:49 12,3 °C 12,5 °C 64 % 1026,0 hPa 0,0 mm 0,0 km/h (0 Bft) SW 228 ° 1 min 0,000 mm 2,2 UV-I 438 W/m² 5,7 °C 12,3 °C 0,0 km/h (0 Bft)
24.10.2017 14:50 12,3 °C 12,3 °C 67 % 1026,0 hPa 0,0 mm 0,0 km/h (0 Bft) SW 228 ° 1 min 0,000 mm 2,2 UV-I 454 W/m² 6,4 °C 12,3 °C 0,0 km/h (0 Bft)
24.10.2017 14:51 12,3 °C 12,3 °C 62 % 1026,0 hPa 0,0 mm 0,2 km/h (0 Bft) SW 234 ° 1 min 0,000 mm 2,2 UV-I 469 W/m² 5,2 °C 12,3 °C 3,2 km/h (1 Bft)
24.10.2017 14:52 12,5 °C 12,5 °C 66 % 1026,0 hPa 0,0 mm 4,5 km/h (1 Bft) W 276 ° 1 min 0,000 mm 1,9 UV-I 469 W/m² 6,3 °C 12,5 °C 6,4 km/h (2 Bft)
24.10.2017 14:53 12,7 °C 12,7 °C 62 % 1025,9 hPa 0,0 mm 3,0 km/h (1 Bft) W 276 ° 1 min 0,000 mm 1,9 UV-I 299 W/m² 5,6 °C 12,7 °C 4,8 km/h (1 Bft)
24.10.2017 14:54 12,8 °C 12,8 °C 63 % 1025,9 hPa 0,0 mm 2,3 km/h (1 Bft) W 269 ° 0 min 0,000 mm 1,8 UV-I 244 W/m² 5,9 °C 12,8 °C 3,2 km/h (1 Bft)
24.10.2017 14:55 12,8 °C 12,8 °C 61 % 1025,9 hPa 0,0 mm 1,5 km/h (1 Bft) W 275 ° 0 min 0,000 mm 1,7 UV-I 237 W/m² 5,5 °C 12,8 °C 4,8 km/h (1 Bft)
24.10.2017 14:56 12,9 °C 12,9 °C 61 % 1025,9 hPa 0,0 mm 7,2 km/h (2 Bft) W-NW 303 ° 0 min 0,000 mm 1,7 UV-I 257 W/m² 5,6 °C 12,9 °C 11,3 km/h (2 Bft)
24.10.2017 14:57 12,9 °C 12,9 °C 60 % 1025,9 hPa 0,0 mm 4,5 km/h (1 Bft) W 265 ° 0 min 0,000 mm 1,7 UV-I 274 W/m² 5,3 °C 12,9 °C 6,4 km/h (2 Bft)
24.10.2017 14:58 13,0 °C 13,0 °C 61 % 1025,9 hPa 0,0 mm 7,3 km/h (2 Bft) W-NW 283 ° 0 min 0,000 mm 1,7 UV-I 267 W/m² 5,7 °C 13,0 °C 9,7 km/h (2 Bft)
24.10.2017 14:59 12,9 °C 13,0 °C 60 % 1025,9 hPa 0,0 mm 4,2 km/h (1 Bft) W-NW 286 ° 1 min 0,000 mm 1,9 UV-I 329 W/m² 5,3 °C 12,9 °C 6,4 km/h (2 Bft)
24.10.2017 15:00 13,0 °C 13,0 °C 60 % 1025,9 hPa 0,0 mm 3,5 km/h (1 Bft) W-NW 294 ° 1 min 0,000 mm 2,0 UV-I 378 W/m² 5,4 °C 13,0 °C 6,4 km/h (2 Bft)
24.10.2017 15:01 13,1 °C 13,1 °C 61 % 1026,0 hPa 0,0 mm 10,0 km/h (2 Bft) W 267 ° 1 min 0,152 mm 1,9 UV-I 359 W/m² 5,8 °C 13,1 °C 12,9 km/h (3 Bft)
24.10.2017 15:02 13,1 °C 13,1 °C 60 % 1025,9 hPa 0,0 mm 4,5 km/h (1 Bft) W-NW 284 ° 1 min 0,000 mm 2,0 UV-I 348 W/m² 5,5 °C 13,1 °C 11,3 km/h (2 Bft)
24.10.2017 15:03 13,1 °C 13,1 °C 60 % 1025,9 hPa 0,0 mm 4,4 km/h (1 Bft) W-SW 250 ° 1 min 0,000 mm 1,8 UV-I 336 W/m² 5,5 °C 13,1 °C 6,4 km/h (2 Bft)
24.10.2017 15:04 13,1 °C 13,1 °C 58 % 1025,9 hPa 0,0 mm 5,3 km/h (1 Bft) W-NW 292 ° 1 min 0,000 mm 1,7 UV-I 295 W/m² 5,0 °C 13,1 °C 9,7 km/h (2 Bft)
24.10.2017 15:05 13,1 °C 13,1 °C 61 % 1025,9 hPa 0,0 mm 5,8 km/h (2 Bft) N-NW 331 ° 0 min 0,000 mm 1,6 UV-I 267 W/m² 5,8 °C 13,1 °C 9,7 km/h (2 Bft)
24.10.2017 15:06 13,1 °C 13,2 °C 61 % 1025,9 hPa 0,0 mm 8,8 km/h (2 Bft) W-NW 288 ° 0 min 0,000 mm 1,6 UV-I 288 W/m² 5,8 °C 13,1 °C 12,9 km/h (3 Bft)
24.10.2017 15:07 13,1 °C 13,2 °C 60 % 1025,9 hPa 0,0 mm 5,1 km/h (1 Bft) W-NW 299 ° 0 min 0,000 mm 1,6 UV-I 251 W/m² 5,5 °C 13,1 °C 8,0 km/h (2 Bft)
24.10.2017 15:08 13,1 °C 13,1 °C 60 % 1025,9 hPa 0,0 mm 4,3 km/h (1 Bft) W-NW 286 ° 0 min 0,000 mm 1,5 UV-I 262 W/m² 5,5 °C 13,1 °C 6,4 km/h (2 Bft)
24.10.2017 15:09 13,1 °C 13,1 °C 59 % 1025,8 hPa 0,0 mm 8,0 km/h (2 Bft) W-SW 250 ° 0 min 0,000 mm 1,6 UV-I 274 W/m² 5,3 °C 13,1 °C 14,5 km/h (3 Bft)
24.10.2017 15:10 13,1 °C 13,1 °C 62 % 1025,9 hPa 0,0 mm 10,3 km/h (2 Bft) W 260 ° 1 min 0,000 mm 1,7 UV-I 302 W/m² 6,0 °C 13,1 °C 12,9 km/h (3 Bft)
24.10.2017 15:11 13,1 °C 13,1 °C 63 % 1025,9 hPa 0,0 mm 7,9 km/h (2 Bft) W-NW 284 ° 1 min 0,000 mm 1,6 UV-I 329 W/m² 6,2 °C 13,1 °C 11,3 km/h (2 Bft)
24.10.2017 15:12 13,1 °C 13,1 °C 60 % 1025,9 hPa 0,0 mm 4,8 km/h (1 Bft) W-NW 284 ° 1 min 0,000 mm 1,6 UV-I 309 W/m² 5,5 °C 13,1 °C 6,4 km/h (2 Bft)
24.10.2017 15:14 13,1 °C 13,1 °C 59 % 1025,8 hPa 0,0 mm 7,3 km/h (2 Bft) W-NW 284 ° 2 min 0,000 mm 1,6 UV-I 292 W/m² 5,3 °C 13,1 °C 12,9 km/h (3 Bft)
24.10.2017 15:15 13,1 °C 13,1 °C 59 % 1025,8 hPa 0,0 mm 4,6 km/h (1 Bft) W 259 ° 1 min 0,000 mm 1,6 UV-I 343 W/m² 5,3 °C 13,1 °C 8,0 km/h (2 Bft)
24.10.2017 15:16 13,1 °C 13,1 °C 59 % 1025,8 hPa 0,0 mm 4,0 km/h (1 Bft) W-NW 287 ° 0 min 0,000 mm 1,5 UV-I 272 W/m² 5,3 °C 13,1 °C 8,0 km/h (2 Bft)
24.10.2017 15:17 13,1 °C 13,1 °C 58 % 1025,8 hPa 0,0 mm 9,3 km/h (2 Bft) W-NW 285 ° 0 min 0,000 mm 1,5 UV-I 272 W/m² 5,0 °C 13,1 °C 12,9 km/h (3 Bft)
24.10.2017 15:18 13,1 °C 13,1 °C 59 % 1025,7 hPa 0,0 mm 7,9 km/h (2 Bft) W 268 ° 0 min 0,000 mm 1,5 UV-I 258 W/m² 5,3 °C 13,1 °C 12,9 km/h (3 Bft)
24.10.2017 15:19 13,1 °C 13,1 °C 59 % 1025,7 hPa 0,0 mm 7,4 km/h (2 Bft) W 259 ° 0 min 0,000 mm 1,4 UV-I 246 W/m² 5,3 °C 13,1 °C 11,3 km/h (2 Bft)
24.10.2017 15:20 13,1 °C 13,1 °C 59 % 1025,7 hPa 0,0 mm 6,9 km/h (2 Bft) W 263 ° 0 min 0,000 mm 1,4 UV-I 237 W/m² 5,3 °C 13,1 °C 11,3 km/h (2 Bft)
24.10.2017 15:21 13,0 °C 13,1 °C 61 % 1025,7 hPa 0,0 mm 3,2 km/h (1 Bft) W-NW 297 ° 0 min 0,000 mm 1,4 UV-I 244 W/m² 5,7 °C 13,0 °C 4,8 km/h (1 Bft)
24.10.2017 15:22 13,0 °C 13,0 °C 61 % 1025,7 hPa 0,0 mm 3,8 km/h (1 Bft) NW 307 ° 0 min 0,000 mm 1,5 UV-I 265 W/m² 5,7 °C 13,0 °C 6,4 km/h (2 Bft)
24.10.2017 15:23 13,1 °C 13,1 °C 62 % 1025,7 hPa 0,0 mm 4,8 km/h (1 Bft) N-NW 327 ° 0 min 0,000 mm 1,5 UV-I 272 W/m² 6,0 °C 13,1 °C 6,4 km/h (2 Bft)
24.10.2017 15:24 13,2 °C 13,2 °C 61 % 1025,7 hPa 0,0 mm 6,6 km/h (2 Bft) W 259 ° 0 min 0,000 mm 1,4 UV-I 257 W/m² 5,8 °C 13,2 °C 11,3 km/h (2 Bft)
24.10.2017 15:25 13,2 °C 13,2 °C 62 % 1025,7 hPa 0,0 mm 7,9 km/h (2 Bft) W 263 ° 0 min 0,000 mm 1,4 UV-I 253 W/m² 6,1 °C 13,2 °C 11,3 km/h (2 Bft)
24.10.2017 15:26 13,2 °C 13,2 °C 62 % 1025,7 hPa 0,0 mm 6,0 km/h (2 Bft) W 261 ° 1 min 0,000 mm 1,6 UV-I 320 W/m² 6,1 °C 13,2 °C 9,7 km/h (2 Bft)
24.10.2017 15:27 13,1 °C 13,2 °C 58 % 1025,7 hPa 0,0 mm 5,0 km/h (1 Bft) W 263 ° 1 min 0,000 mm 1,5 UV-I 301 W/m² 5,0 °C 13,1 °C 9,7 km/h (2 Bft)
24.10.2017 15:28 13,2 °C 13,2 °C 61 % 1025,7 hPa 0,0 mm 8,4 km/h (2 Bft) W-NW 284 ° 1 min 0,000 mm 1,5 UV-I 327 W/m² 5,8 °C 13,2 °C 11,3 km/h (2 Bft)
24.10.2017 15:29 13,2 °C 13,2 °C 60 % 1025,7 hPa 0,0 mm 3,2 km/h (1 Bft) W 281 ° 0 min 0,000 mm 1,4 UV-I 278 W/m² 5,6 °C 13,2 °C 4,8 km/h (1 Bft)
24.10.2017 15:30 13,2 °C 13,2 °C 62 % 1025,7 hPa 0,0 mm 7,5 km/h (2 Bft) W 265 ° 0 min 0,000 mm 1,5 UV-I 271 W/m² 6,1 °C 13,2 °C 12,9 km/h (3 Bft)
24.10.2017 15:31 13,2 °C 13,2 °C 61 % 1025,7 hPa 0,0 mm 7,5 km/h (2 Bft) W 272 ° 0 min 0,000 mm 1,5 UV-I 271 W/m² 5,8 °C 13,2 °C 11,3 km/h (2 Bft)
24.10.2017 15:32 13,2 °C 13,2 °C 60 % 1025,7 hPa 0,0 mm 4,0 km/h (1 Bft) W-SW 256 ° 0 min 0,000 mm 1,3 UV-I 223 W/m² 5,6 °C 13,2 °C 6,4 km/h (2 Bft)
24.10.2017 15:33 13,2 °C 13,2 °C 58 % 1025,8 hPa 0,0 mm 6,7 km/h (2 Bft) W-SW 253 ° 0 min 0,000 mm 1,3 UV-I 213 W/m² 5,1 °C 13,2 °C 11,3 km/h (2 Bft)
24.10.2017 15:34 13,2 °C 13,2 °C 59 % 1025,7 hPa 0,0 mm 5,7 km/h (1 Bft) W 265 ° 0 min 0,000 mm 1,3 UV-I 218 W/m² 5,4 °C 13,2 °C 9,7 km/h (2 Bft)
24.10.2017 15:35 13,2 °C 13,2 °C 59 % 1025,8 hPa 0,0 mm 6,2 km/h (2 Bft) W 267 ° 0 min 0,000 mm 1,3 UV-I 213 W/m² 5,4 °C 13,2 °C 9,7 km/h (2 Bft)
24.10.2017 15:36 13,2 °C 13,2 °C 59 % 1025,7 hPa 0,0 mm 5,1 km/h (1 Bft) W-SW 254 ° 0 min 0,000 mm 1,2 UV-I 206 W/m² 5,4 °C 13,2 °C 6,4 km/h (2 Bft)
24.10.2017 15:37 13,1 °C 13,2 °C 60 % 1025,7 hPa 0,0 mm 2,8 km/h (1 Bft) W-SW 246 ° 0 min 0,000 mm 1,2 UV-I 216 W/m² 5,5 °C 13,1 °C 4,8 km/h (1 Bft)
24.10.2017 15:38 13,1 °C 13,1 °C 58 % 1025,8 hPa 0,0 mm 2,1 km/h (1 Bft) W-SW 247 ° 0 min 0,000 mm 1,3 UV-I 234 W/m² 5,0 °C 13,1 °C 4,8 km/h (1 Bft)
24.10.2017 15:39 13,1 °C 13,1 °C 63 % 1025,7 hPa 0,0 mm 4,7 km/h (1 Bft) W-NW 291 ° 0 min 0,000 mm 1,3 UV-I 207 W/m² 6,2 °C 13,1 °C 6,4 km/h (2 Bft)
24.10.2017 15:40 13,1 °C 13,1 °C 59 % 1025,7 hPa 0,0 mm 4,9 km/h (1 Bft) W-SW 257 ° 0 min 0,000 mm 1,2 UV-I 195 W/m² 5,3 °C 13,1 °C 8,0 km/h (2 Bft)
24.10.2017 15:41 13,1 °C 13,1 °C 61 % 1025,8 hPa 0,0 mm 3,8 km/h (1 Bft) W-SW 251 ° 0 min 0,000 mm 1,2 UV-I 199 W/m² 5,8 °C 13,1 °C 6,4 km/h (2 Bft)
24.10.2017 15:42 13,1 °C 13,1 °C 60 % 1025,7 hPa 0,0 mm 4,8 km/h (1 Bft) W-NW 297 ° 0 min 0,000 mm 1,2 UV-I 204 W/m² 5,5 °C 13,1 °C 6,4 km/h (2 Bft)
24.10.2017 15:43 13,1 °C 13,1 °C 61 % 1025,8 hPa 0,0 mm 7,8 km/h (2 Bft) W-NW 282 ° 1 min 0,000 mm 1,4 UV-I 304 W/m² 5,8 °C 13,1 °C 11,3 km/h (2 Bft)
24.10.2017 15:44 13,1 °C 13,1 °C 59 % 1025,7 hPa 0,0 mm 4,7 km/h (1 Bft) W-NW 288 ° 1 min 0,000 mm 1,4 UV-I 332 W/m² 5,3 °C 13,1 °C 9,7 km/h (2 Bft)
24.10.2017 15:45 13,1 °C 13,1 °C 60 % 1025,8 hPa 0,0 mm 6,3 km/h (2 Bft) W-NW 293 ° 1 min 0,000 mm 1,5 UV-I 332 W/m² 5,5 °C 13,1 °C 9,7 km/h (2 Bft)
24.10.2017 15:46 13,1 °C 13,1 °C 61 % 1025,8 hPa 0,0 mm 6,4 km/h (2 Bft) W 268 ° 1 min 0,000 mm 1,5 UV-I 420 W/m² 5,8 °C 13,1 °C 12,9 km/h (3 Bft)
24.10.2017 15:47 13,1 °C 13,1 °C 59 % 1025,8 hPa 0,0 mm 7,0 km/h (2 Bft) W-NW 283 ° 1 min 0,000 mm 1,5 UV-I 415 W/m² 5,3 °C 13,1 °C 9,7 km/h (2 Bft)
24.10.2017 15:48 13,2 °C 13,2 °C 60 % 1025,7 hPa 0,0 mm 7,0 km/h (2 Bft) W-NW 293 ° 1 min 0,000 mm 1,4 UV-I 343 W/m² 5,6 °C 13,2 °C 12,9 km/h (3 Bft)
24.10.2017 15:49 13,2 °C 13,2 °C 59 % 1025,8 hPa 0,0 mm 6,4 km/h (2 Bft) W-NW 288 ° 1 min 0,000 mm 1,4 UV-I 313 W/m² 5,4 °C 13,2 °C 9,7 km/h (2 Bft)
24.10.2017 15:50 13,2 °C 13,2 °C 59 % 1025,8 hPa 0,0 mm 3,8 km/h (1 Bft) NW 319 ° 1 min 0,000 mm 1,3 UV-I 315 W/m² 5,4 °C 13,2 °C 6,4 km/h (2 Bft)
24.10.2017 15:51 13,2 °C 13,2 °C 59 % 1025,8 hPa 0,0 mm 5,7 km/h (1 Bft) W-NW 300 ° 1 min 0,000 mm 1,3 UV-I 306 W/m² 5,4 °C 13,2 °C 9,7 km/h (2 Bft)
24.10.2017 15:52 13,1 °C 13,2 °C 59 % 1025,8 hPa 0,0 mm 6,0 km/h (2 Bft) W-NW 300 ° 1 min 0,000 mm 1,3 UV-I 315 W/m² 5,3 °C 13,1 °C 11,3 km/h (2 Bft)
24.10.2017 15:53 13,1 °C 13,1 °C 60 % 1025,8 hPa 0,0 mm 5,6 km/h (1 Bft) W-NW 297 ° 1 min 0,000 mm 1,3 UV-I 304 W/m² 5,5 °C 13,1 °C 9,7 km/h (2 Bft)
24.10.2017 15:54 13,1 °C 13,1 °C 60 % 1025,9 hPa 0,0 mm 5,4 km/h (1 Bft) W-NW 290 ° 1 min 0,000 mm 1,3 UV-I 290 W/m² 5,5 °C 13,1 °C 9,7 km/h (2 Bft)
24.10.2017 15:55 13,0 °C 13,1 °C 59 % 1025,9 hPa 0,0 mm 5,4 km/h (1 Bft) NW 307 ° 0 min 0,000 mm 1,3 UV-I 287 W/m² 5,2 °C 13,0 °C 8,0 km/h (2 Bft)
24.10.2017 15:56 12,9 °C 13,0 °C 59 % 1025,9 hPa 0,0 mm 4,0 km/h (1 Bft) W 281 ° 0 min 0,000 mm 1,2 UV-I 262 W/m² 5,1 °C 12,9 °C 6,4 km/h (2 Bft)
24.10.2017 15:57 12,9 °C 13,0 °C 60 % 1025,9 hPa 0,0 mm 3,6 km/h (1 Bft) NW 311 ° 0 min 0,000 mm 1,1 UV-I 262 W/m² 5,3 °C 12,9 °C 6,4 km/h (2 Bft)
24.10.2017 15:58 12,9 °C 13,0 °C 60 % 1025,9 hPa 0,0 mm 5,8 km/h (2 Bft) NW 320 ° 0 min 0,000 mm 1,0 UV-I 132 W/m² 5,3 °C 12,9 °C 9,7 km/h (2 Bft)
24.10.2017 15:59 12,9 °C 12,9 °C 61 % 1025,9 hPa 0,0 mm 5,8 km/h (2 Bft) NW 324 ° 0 min 0,000 mm 1,0 UV-I 127 W/m² 5,6 °C 12,9 °C 8,0 km/h (2 Bft)
24.10.2017 16:00 12,8 °C 12,9 °C 62 % 1025,8 hPa 0,0 mm 5,0 km/h (1 Bft) NW 313 ° 0 min 0,000 mm 1,0 UV-I 128 W/m² 5,7 °C 12,8 °C 8,0 km/h (2 Bft)
24.10.2017 16:01 12,8 °C 12,8 °C 62 % 1025,8 hPa 0,0 mm 3,6 km/h (1 Bft) W-NW 301 ° 0 min 0,178 mm 1,0 UV-I 134 W/m² 5,7 °C 12,8 °C 6,4 km/h (2 Bft)
24.10.2017 16:02 12,8 °C 12,8 °C 60 % 1025,8 hPa 0,0 mm 3,9 km/h (1 Bft) W-NW 292 ° 0 min 0,000 mm 1,0 UV-I 132 W/m² 5,2 °C 12,8 °C 4,8 km/h (1 Bft)
24.10.2017 16:03 12,8 °C 12,8 °C 60 % 1025,8 hPa 0,0 mm 1,9 km/h (1 Bft) W-NW 293 ° 0 min 0,000 mm 1,0 UV-I 125 W/m² 5,2 °C 12,8 °C 4,8 km/h (1 Bft)
24.10.2017 16:04 12,7 °C 12,8 °C 62 % 1025,8 hPa 0,0 mm 1,4 km/h (1 Bft) W-NW 292 ° 0 min 0,000 mm 1,0 UV-I 125 W/m² 5,6 °C 12,7 °C 1,6 km/h (1 Bft)
24.10.2017 16:05 12,7 °C 12,7 °C 62 % 1025,8 hPa 0,0 mm 2,0 km/h (1 Bft) W-NW 292 ° 0 min 0,000 mm 0,9 UV-I 123 W/m² 5,6 °C 12,7 °C 4,8 km/h (1 Bft)
24.10.2017 16:06 12,6 °C 12,7 °C 63 % 1025,8 hPa 0,0 mm 1,4 km/h (1 Bft) W-NW 296 ° 0 min 0,000 mm 1,0 UV-I 137 W/m² 5,7 °C 12,6 °C 3,2 km/h (1 Bft)
24.10.2017 16:07 12,6 °C 12,7 °C 62 % 1025,8 hPa 0,0 mm 4,8 km/h (1 Bft) W-NW 302 ° 0 min 0,000 mm 0,9 UV-I 125 W/m² 5,5 °C 12,6 °C 6,4 km/h (2 Bft)
24.10.2017 16:08 12,6 °C 12,7 °C 62 % 1025,8 hPa 0,0 mm 3,8 km/h (1 Bft) NW 314 ° 0 min 0,000 mm 0,9 UV-I 125 W/m² 5,5 °C 12,6 °C 6,4 km/h (2 Bft)
24.10.2017 16:09 12,7 °C 12,7 °C 62 % 1025,8 hPa 0,0 mm 4,2 km/h (1 Bft) W-NW 300 ° 0 min 0,000 mm 0,9 UV-I 123 W/m² 5,6 °C 12,7 °C 6,4 km/h (2 Bft)
24.10.2017 16:10 12,7 °C 12,7 °C 62 % 1025,8 hPa 0,0 mm 1,9 km/h (1 Bft) W-NW 300 ° 0 min 0,000 mm 0,9 UV-I 123 W/m² 5,6 °C 12,7 °C 4,8 km/h (1 Bft)
24.10.2017 16:11 12,7 °C 12,7 °C 62 % 1025,9 hPa 0,0 mm 2,3 km/h (1 Bft) W-NW 300 ° 0 min 0,000 mm 0,9 UV-I 118 W/m² 5,6 °C 12,7 °C 4,8 km/h (1 Bft)
24.10.2017 16:12 12,7 °C 12,7 °C 64 % 1025,8 hPa 0,0 mm 0,9 km/h (0 Bft) W-NW 300 ° 0 min 0,000 mm 0,9 UV-I 114 W/m² 6,1 °C 12,7 °C 3,2 km/h (1 Bft)
24.10.2017 16:13 12,6 °C 12,7 °C 66 % 1025,8 hPa 0,0 mm 2,3 km/h (1 Bft) W-NW 300 ° 0 min 0,000 mm 0,8 UV-I 114 W/m² 6,4 °C 12,6 °C 4,8 km/h (1 Bft)
24.10.2017 16:14 12,6 °C 12,6 °C 64 % 1025,8 hPa 0,0 mm 2,7 km/h (1 Bft) W-SW 248 ° 0 min 0,000 mm 0,9 UV-I 130 W/m² 6,0 °C 12,6 °C 4,8 km/h (1 Bft)
24.10.2017 16:15 12,6 °C 12,6 °C 66 % 1025,9 hPa 0,0 mm 3,0 km/h (1 Bft) W-NW 288 ° 0 min 0,000 mm 0,8 UV-I 120 W/m² 6,4 °C 12,6 °C 4,8 km/h (1 Bft)
24.10.2017 16:16 12,6 °C 12,6 °C 61 % 1025,8 hPa 0,0 mm 5,1 km/h (1 Bft) NW 315 ° 0 min 0,000 mm 0,8 UV-I 116 W/m² 5,3 °C 12,6 °C 6,4 km/h (2 Bft)
24.10.2017 16:17 12,7 °C 12,7 °C 60 % 1025,8 hPa 0,0 mm 3,8 km/h (1 Bft) W-NW 292 ° 0 min 0,000 mm 0,8 UV-I 111 W/m² 5,1 °C 12,7 °C 4,8 km/h (1 Bft)
24.10.2017 16:18 12,7 °C 12,7 °C 62 % 1025,8 hPa 0,0 mm 4,4 km/h (1 Bft) NW 322 ° 0 min 0,000 mm 0,8 UV-I 109 W/m² 5,6 °C 12,7 °C 6,4 km/h (2 Bft)
24.10.2017 16:20 12,6 °C 12,7 °C 63 % 1025,8 hPa 0,0 mm 3,1 km/h (1 Bft) W 265 ° 0 min 0,000 mm 0,8 UV-I 98 W/m² 5,7 °C 12,6 °C 6,4 km/h (2 Bft)
24.10.2017 16:21 12,6 °C 12,6 °C 64 % 1025,8 hPa 0,0 mm 3,3 km/h (1 Bft) W 265 ° 0 min 0,000 mm 0,8 UV-I 84 W/m² 6,0 °C 12,6 °C 4,8 km/h (1 Bft)
24.10.2017 16:22 12,6 °C 12,6 °C 65 % 1025,8 hPa 0,0 mm 1,3 km/h (1 Bft) W 265 ° 0 min 0,000 mm 0,8 UV-I 79 W/m² 6,2 °C 12,6 °C 3,2 km/h (1 Bft)
24.10.2017 16:23 12,4 °C 12,6 °C 62 % 1025,8 hPa 0,0 mm 0,0 km/h (0 Bft) W 265 ° 0 min 0,000 mm 0,7 UV-I 83 W/m² 5,3 °C 12,4 °C 0,0 km/h (0 Bft)
24.10.2017 16:24 12,4 °C 12,5 °C 64 % 1025,8 hPa 0,0 mm 0,0 km/h (0 Bft) W 265 ° 0 min 0,000 mm 0,7 UV-I 69 W/m² 5,8 °C 12,4 °C 0,0 km/h (0 Bft)
24.10.2017 16:25 12,4 °C 12,4 °C 63 % 1025,7 hPa 0,0 mm 0,0 km/h (0 Bft) W 265 ° 0 min 0,000 mm 0,7 UV-I 63 W/m² 5,6 °C 12,4 °C 0,0 km/h (0 Bft)
24.10.2017 16:26 12,4 °C 12,4 °C 62 % 1025,8 hPa 0,0 mm 1,5 km/h (1 Bft) W 265 ° 0 min 0,000 mm 0,7 UV-I 60 W/m² 5,3 °C 12,4 °C 3,2 km/h (1 Bft)
24.10.2017 16:27 12,3 °C 12,4 °C 64 % 1025,8 hPa 0,0 mm 2,1 km/h (1 Bft) W 265 ° 0 min 0,000 mm 0,7 UV-I 58 W/m² 5,7 °C 12,3 °C 3,2 km/h (1 Bft)
24.10.2017 16:28 12,3 °C 12,3 °C 61 % 1025,7 hPa 0,0 mm 0,7 km/h (0 Bft) W 265 ° 0 min 0,000 mm 0,0 UV-I 54 W/m² 5,0 °C 12,3 °C 3,2 km/h (1 Bft)
24.10.2017 16:29 12,3 °C 12,3 °C 65 % 1025,8 hPa 0,0 mm 3,1 km/h (1 Bft) W 265 ° 0 min 0,000 mm 0,0 UV-I 49 W/m² 5,9 °C 12,3 °C 4,8 km/h (1 Bft)
24.10.2017 16:30 12,2 °C 12,3 °C 62 % 1025,8 hPa 0,0 mm 1,7 km/h (1 Bft) W 265 ° 0 min 0,000 mm 0,0 UV-I 46 W/m² 5,1 °C 12,2 °C 4,8 km/h (1 Bft)
24.10.2017 16:31 12,2 °C 12,2 °C 62 % 1025,8 hPa 0,0 mm 0,1 km/h (0 Bft) W 265 ° 0 min 0,000 mm 0,0 UV-I 46 W/m² 5,1 °C 12,2 °C 1,6 km/h (1 Bft)
24.10.2017 16:32 12,2 °C 12,2 °C 63 % 1025,8 hPa 0,0 mm 0,0 km/h (0 Bft) W 265 ° 0 min 0,000 mm 0,0 UV-I 49 W/m² 5,4 °C 12,2 °C 0,0 km/h (0 Bft)
24.10.2017 16:33 12,2 °C 12,2 °C 62 % 1025,8 hPa 0,0 mm 2,3 km/h (1 Bft) W 265 ° 0 min 0,000 mm 0,0 UV-I 47 W/m² 5,1 °C 12,2 °C 3,2 km/h (1 Bft)
24.10.2017 16:34 12,2 °C 12,2 °C 60 % 1025,8 hPa 0,0 mm 0,1 km/h (0 Bft) W 265 ° 0 min 0,000 mm 0,0 UV-I 40 W/m² 4,7 °C 12,2 °C 1,6 km/h (1 Bft)
24.10.2017 16:35 12,2 °C 12,2 °C 61 % 1025,8 hPa 0,0 mm 0,0 km/h (0 Bft) W 265 ° 0 min 0,000 mm 0,0 UV-I 35 W/m² 4,9 °C 12,2 °C 0,0 km/h (0 Bft)
24.10.2017 16:36 12,1 °C 12,2 °C 64 % 1025,8 hPa 0,0 mm 0,1 km/h (0 Bft) W 265 ° 0 min 0,000 mm 0,0 UV-I 35 W/m² 5,5 °C 12,1 °C 1,6 km/h (1 Bft)
24.10.2017 16:37 12,1 °C 12,1 °C 64 % 1025,8 hPa 0,0 mm 0,1 km/h (0 Bft) W 265 ° 0 min 0,000 mm 0,0 UV-I 35 W/m² 5,5 °C 12,1 °C 1,6 km/h (1 Bft)
24.10.2017 16:38 11,9 °C 12,1 °C 65 % 1025,9 hPa 0,0 mm 0,0 km/h (0 Bft) W 265 ° 0 min 0,000 mm 0,0 UV-I 37 W/m² 5,5 °C 11,9 °C 0,0 km/h (0 Bft)
24.10.2017 16:39 11,8 °C 11,9 °C 64 % 1025,8 hPa 0,0 mm 0,0 km/h (0 Bft) W 265 ° 0 min 0,000 mm 0,0 UV-I 39 W/m² 5,2 °C 11,8 °C 0,0 km/h (0 Bft)
24.10.2017 16:40 11,8 °C 11,8 °C 63 % 1025,9 hPa 0,0 mm 0,2 km/h (0 Bft) W 265 ° 0 min 0,000 mm 0,0 UV-I 40 W/m² 5,0 °C 11,8 °C 1,6 km/h (1 Bft)
24.10.2017 16:41 11,9 °C 11,9 °C 63 % 1025,9 hPa 0,0 mm 1,4 km/h (1 Bft) W-SW 246 ° 0 min 0,000 mm 0,0 UV-I 42 W/m² 5,1 °C 11,9 °C 4,8 km/h (1 Bft)
24.10.2017 16:42 11,9 °C 11,9 °C 64 % 1025,8 hPa 0,0 mm 0,0 km/h (0 Bft) W-SW 246 ° 0 min 0,000 mm 0,0 UV-I 42 W/m² 5,3 °C 11,9 °C 0,0 km/h (0 Bft)
24.10.2017 16:43 11,8 °C 11,9 °C 65 % 1025,9 hPa 0,0 mm 0,0 km/h (0 Bft) W-SW 246 ° 0 min 0,000 mm 0,0 UV-I 42 W/m² 5,4 °C 11,8 °C 0,0 km/h (0 Bft)
24.10.2017 16:44 11,8 °C 11,8 °C 64 % 1025,9 hPa 0,0 mm 0,0 km/h (0 Bft) W-SW 246 ° 0 min 0,000 mm 0,0 UV-I 42 W/m² 5,2 °C 11,8 °C 0,0 km/h (0 Bft)
24.10.2017 16:45 11,8 °C 11,8 °C 64 % 1026,0 hPa 0,0 mm 0,0 km/h (0 Bft) W-SW 246 ° 0 min 0,000 mm 0,0 UV-I 40 W/m² 5,2 °C 11,8 °C 0,0 km/h (0 Bft)
24.10.2017 16:46 11,7 °C 11,8 °C 65 % 1025,9 hPa 0,0 mm 0,3 km/h (0 Bft) W-SW 246 ° 0 min 0,000 mm 0,0 UV-I 39 W/m² 5,3 °C 11,7 °C 1,6 km/h (1 Bft)
24.10.2017 16:47 11,7 °C 11,7 °C 64 % 1025,9 hPa 0,0 mm 0,0 km/h (0 Bft) W-SW 246 ° 0 min 0,000 mm 0,0 UV-I 40 W/m² 5,1 °C 11,7 °C 0,0 km/h (0 Bft)
24.10.2017 16:48 11,7 °C 11,7 °C 64 % 1025,9 hPa 0,0 mm 0,0 km/h (0 Bft) W-SW 246 ° 0 min 0,000 mm 0,0 UV-I 39 W/m² 5,1 °C 11,7 °C 0,0 km/h (0 Bft)
24.10.2017 16:49 11,7 °C 11,7 °C 65 % 1025,9 hPa 0,0 mm 0,0 km/h (0 Bft) W-SW 246 ° 0 min 0,000 mm 0,0 UV-I 39 W/m² 5,3 °C 11,7 °C 0,0 km/h (0 Bft)
24.10.2017 16:50 11,7 °C 11,7 °C 65 % 1025,9 hPa 0,0 mm 0,0 km/h (0 Bft) W-SW 246 ° 0 min 0,000 mm 0,0 UV-I 39 W/m² 5,3 °C 11,7 °C 0,0 km/h (0 Bft)
24.10.2017 16:51 11,7 °C 11,7 °C 65 % 1025,9 hPa 0,0 mm 0,0 km/h (0 Bft) W-SW 246 ° 0 min 0,000 mm 0,0 UV-I 37 W/m² 5,3 °C 11,7 °C 0,0 km/h (0 Bft)
24.10.2017 16:52 11,5 °C 11,7 °C 68 % 1025,9 hPa 0,0 mm 0,0 km/h (0 Bft) W-SW 246 ° 0 min 0,000 mm 0,0 UV-I 37 W/m² 5,8 °C 11,5 °C 0,0 km/h (0 Bft)
24.10.2017 16:53 11,4 °C 11,5 °C 68 % 1025,9 hPa 0,0 mm 0,0 km/h (0 Bft) W-SW 246 ° 0 min 0,000 mm 0,0 UV-I 35 W/m² 5,7 °C 11,4 °C 0,0 km/h (0 Bft)
24.10.2017 16:54 11,2 °C 11,4 °C 69 % 1025,9 hPa 0,0 mm 0,1 km/h (0 Bft) W-SW 246 ° 0 min 0,000 mm 0,0 UV-I 33 W/m² 5,7 °C 11,2 °C 1,6 km/h (1 Bft)
24.10.2017 16:55 11,2 °C 11,2 °C 68 % 1025,9 hPa 0,0 mm 0,3 km/h (0 Bft) W-SW 246 ° 0 min 0,000 mm 0,0 UV-I 33 W/m² 5,5 °C 11,2 °C 1,6 km/h (1 Bft)
24.10.2017 16:56 11,2 °C 11,2 °C 67 % 1025,9 hPa 0,0 mm 0,0 km/h (0 Bft) W-SW 246 ° 0 min 0,000 mm 0,0 UV-I 32 W/m² 5,3 °C 11,2 °C 0,0 km/h (0 Bft)
24.10.2017 16:57 11,2 °C 11,2 °C 67 % 1025,9 hPa 0,0 mm 0,0 km/h (0 Bft) W-SW 246 ° 0 min 0,000 mm 0,0 UV-I 32 W/m² 5,3 °C 11,2 °C 0,0 km/h (0 Bft)
24.10.2017 16:58 11,2 °C 11,2 °C 68 % 1025,9 hPa 0,0 mm 0,1 km/h (0 Bft) W-SW 246 ° 0 min 0,000 mm 0,0 UV-I 32 W/m² 5,5 °C 11,2 °C 1,6 km/h (1 Bft)
24.10.2017 16:59 11,2 °C 11,2 °C 68 % 1025,9 hPa 0,0 mm 0,1 km/h (0 Bft) W-SW 246 ° 0 min 0,000 mm 0,0 UV-I 32 W/m² 5,5 °C 11,2 °C 1,6 km/h (1 Bft)
24.10.2017 17:00 11,2 °C 11,2 °C 67 % 1025,9 hPa 0,0 mm 0,0 km/h (0 Bft) W-SW 246 ° 0 min 0,051 mm 0,0 UV-I 32 W/m² 5,3 °C 11,2 °C 0,0 km/h (0 Bft)
24.10.2017 17:01 11,2 °C 11,2 °C 69 % 1025,9 hPa 0,0 mm 0,0 km/h (0 Bft) W-SW 246 ° 0 min 0,000 mm 0,0 UV-I 30 W/m² 5,7 °C 11,2 °C 0,0 km/h (0 Bft)
24.10.2017 17:02 11,1 °C 11,2 °C 70 % 1025,9 hPa 0,0 mm 0,0 km/h (0 Bft) W-SW 246 ° 0 min 0,000 mm 0,0 UV-I 30 W/m² 5,8 °C 11,1 °C 0,0 km/h (0 Bft)
24.10.2017 17:03 11,1 °C 11,1 °C 71 % 1025,9 hPa 0,0 mm 0,0 km/h (0 Bft) W-SW 246 ° 0 min 0,000 mm 0,0 UV-I 30 W/m² 6,0 °C 11,1 °C 0,0 km/h (0 Bft)
24.10.2017 17:04 11,0 °C 11,1 °C 71 % 1025,9 hPa 0,0 mm 0,3 km/h (0 Bft) W-SW 246 ° 0 min 0,000 mm 0,0 UV-I 30 W/m² 5,9 °C 11,0 °C 1,6 km/h (1 Bft)
24.10.2017 17:05 10,9 °C 11,0 °C 71 % 1025,9 hPa 0,0 mm 0,8 km/h (0 Bft) W-SW 246 ° 0 min 0,000 mm 0,0 UV-I 30 W/m² 5,9 °C 10,9 °C 1,6 km/h (1 Bft)
24.10.2017 17:06 10,9 °C 11,0 °C 71 % 1025,9 hPa 0,0 mm 1,4 km/h (1 Bft) W-SW 246 ° 0 min 0,000 mm 0,0 UV-I 30 W/m² 5,9 °C 10,9 °C 3,2 km/h (1 Bft)
24.10.2017 17:07 10,9 °C 10,9 °C 71 % 1025,9 hPa 0,0 mm 1,7 km/h (1 Bft) W-SW 246 ° 0 min 0,000 mm 0,0 UV-I 30 W/m² 5,9 °C 10,9 °C 3,2 km/h (1 Bft)
24.10.2017 17:08 10,9 °C 10,9 °C 72 % 1026,0 hPa 0,0 mm 0,0 km/h (0 Bft) W-SW 246 ° 0 min 0,000 mm 0,0 UV-I 30 W/m² 6,1 °C 10,9 °C 0,0 km/h (0 Bft)
24.10.2017 17:09 10,9 °C 10,9 °C 72 % 1025,9 hPa 0,0 mm 3,1 km/h (1 Bft) W-SW 246 ° 0 min 0,000 mm 0,0 UV-I 30 W/m² 6,1 °C 10,9 °C 4,8 km/h (1 Bft)
24.10.2017 17:10 10,9 °C 10,9 °C 72 % 1025,9 hPa 0,0 mm 1,8 km/h (1 Bft) W-SW 246 ° 0 min 0,000 mm 0,0 UV-I 30 W/m² 6,1 °C 10,9 °C 3,2 km/h (1 Bft)
24.10.2017 17:11 10,9 °C 10,9 °C 72 % 1025,9 hPa 0,0 mm 1,6 km/h (1 Bft) W-SW 246 ° 0 min 0,000 mm 0,0 UV-I 30 W/m² 6,1 °C 10,9 °C 3,2 km/h (1 Bft)
24.10.2017 17:12 10,7 °C 10,9 °C 73 % 1025,9 hPa 0,0 mm 0,2 km/h (0 Bft) W-SW 246 ° 0 min 0,000 mm 0,0 UV-I 30 W/m² 6,1 °C 10,7 °C 1,6 km/h (1 Bft)
24.10.2017 17:13 10,7 °C 10,7 °C 74 % 1025,9 hPa 0,0 mm 3,1 km/h (1 Bft) W-SW 246 ° 0 min 0,000 mm 0,0 UV-I 30 W/m² 6,3 °C 10,7 °C 4,8 km/h (1 Bft)
24.10.2017 17:14 10,7 °C 10,7 °C 73 % 1025,9 hPa 0,0 mm 1,6 km/h (1 Bft) W-SW 246 ° 0 min 0,000 mm 0,0 UV-I 30 W/m² 6,1 °C 10,7 °C 3,2 km/h (1 Bft)
24.10.2017 17:15 10,7 °C 10,7 °C 74 % 1025,9 hPa 0,0 mm 0,0 km/h (0 Bft) W-SW 246 ° 0 min 0,000 mm 0,0 UV-I 30 W/m² 6,3 °C 10,7 °C 0,0 km/h (0 Bft)
24.10.2017 17:16 10,7 °C 10,7 °C 74 % 1025,9 hPa 0,0 mm 1,3 km/h (1 Bft) W-SW 246 ° 0 min 0,000 mm 0,0 UV-I 30 W/m² 6,3 °C 10,7 °C 3,2 km/h (1 Bft)
24.10.2017 17:17 10,7 °C 10,7 °C 74 % 1025,9 hPa 0,0 mm 1,5 km/h (1 Bft) W-SW 246 ° 0 min 0,000 mm 0,0 UV-I 32 W/m² 6,3 °C 10,7 °C 3,2 km/h (1 Bft)
24.10.2017 17:18 10,7 °C 10,7 °C 73 % 1025,8 hPa 0,0 mm 2,0 km/h (1 Bft) W-SW 245 ° 0 min 0,000 mm 0,0 UV-I 32 W/m² 6,1 °C 10,7 °C 3,2 km/h (1 Bft)
24.10.2017 17:19 10,7 °C 10,7 °C 74 % 1025,8 hPa 0,0 mm 1,9 km/h (1 Bft) W-SW 245 ° 0 min 0,000 mm 0,0 UV-I 32 W/m² 6,3 °C 10,7 °C 4,8 km/h (1 Bft)
24.10.2017 17:20 10,7 °C 10,7 °C 74 % 1025,8 hPa 0,0 mm 2,7 km/h (1 Bft) W-SW 245 ° 0 min 0,000 mm 0,0 UV-I 32 W/m² 6,3 °C 10,7 °C 4,8 km/h (1 Bft)
24.10.2017 17:21 10,7 °C 10,7 °C 74 % 1025,8 hPa 0,0 mm 3,2 km/h (1 Bft) W-SW 245 ° 0 min 0,000 mm 0,0 UV-I 32 W/m² 6,3 °C 10,7 °C 4,8 km/h (1 Bft)
24.10.2017 17:22 10,7 °C 10,7 °C 73 % 1025,9 hPa 0,0 mm 2,4 km/h (1 Bft) W-SW 245 ° 0 min 0,000 mm 0,0 UV-I 32 W/m² 6,1 °C 10,7 °C 4,8 km/h (1 Bft)
24.10.2017 17:23 10,6 °C 10,7 °C 74 % 1025,9 hPa 0,0 mm 1,9 km/h (1 Bft) W-SW 245 ° 0 min 0,000 mm 0,0 UV-I 30 W/m² 6,2 °C 10,6 °C 3,2 km/h (1 Bft)
24.10.2017 17:24 10,6 °C 10,6 °C 74 % 1025,9 hPa 0,0 mm 3,6 km/h (1 Bft) SW 230 ° 0 min 0,000 mm 0,0 UV-I 30 W/m² 6,2 °C 10,6 °C 4,8 km/h (1 Bft)
24.10.2017 17:25 10,6 °C 10,7 °C 73 % 1025,9 hPa 0,0 mm 2,2 km/h (1 Bft) SW 223 ° 0 min 0,000 mm 0,0 UV-I 30 W/m² 6,0 °C 10,6 °C 4,8 km/h (1 Bft)
24.10.2017 17:26 10,6 °C 10,7 °C 73 % 1025,9 hPa 0,0 mm 3,6 km/h (1 Bft) SW 223 ° 0 min 0,000 mm 0,0 UV-I 28 W/m² 6,0 °C 10,6 °C 4,8 km/h (1 Bft)
24.10.2017 17:27 10,7 °C 10,7 °C 73 % 1025,9 hPa 0,0 mm 2,5 km/h (1 Bft) SW 223 ° 0 min 0,000 mm 0,0 UV-I 28 W/m² 6,1 °C 10,7 °C 4,8 km/h (1 Bft)
24.10.2017 17:28 10,6 °C 10,7 °C 74 % 1025,9 hPa 0,0 mm 2,4 km/h (1 Bft) SW 223 ° 0 min 0,000 mm 0,0 UV-I 28 W/m² 6,2 °C 10,6 °C 3,2 km/h (1 Bft)
24.10.2017 17:29 10,6 °C 10,6 °C 74 % 1025,8 hPa 0,0 mm 2,5 km/h (1 Bft) SW 223 ° 0 min 0,000 mm 0,0 UV-I 26 W/m² 6,2 °C 10,6 °C 4,8 km/h (1 Bft)
24.10.2017 17:30 10,6 °C 10,6 °C 74 % 1025,9 hPa 0,0 mm 1,3 km/h (1 Bft) SW 223 ° 0 min 0,000 mm 0,0 UV-I 26 W/m² 6,2 °C 10,6 °C 3,2 km/h (1 Bft)
24.10.2017 17:31 10,6 °C 10,6 °C 74 % 1025,9 hPa 0,0 mm 2,4 km/h (1 Bft) SW 223 ° 0 min 0,000 mm 0,0 UV-I 26 W/m² 6,2 °C 10,6 °C 3,2 km/h (1 Bft)
24.10.2017 17:32 10,5 °C 10,6 °C 74 % 1025,9 hPa 0,0 mm 1,7 km/h (1 Bft) SW 223 ° 0 min 0,000 mm 0,0 UV-I 26 W/m² 6,1 °C 10,5 °C 3,2 km/h (1 Bft)
24.10.2017 17:33 10,5 °C 10,5 °C 74 % 1025,9 hPa 0,0 mm 1,7 km/h (1 Bft) SW 223 ° 0 min 0,000 mm 0,0 UV-I 25 W/m² 6,1 °C 10,5 °C 3,2 km/h (1 Bft)
24.10.2017 17:34 10,4 °C 10,5 °C 74 % 1025,9 hPa 0,0 mm 1,5 km/h (1 Bft) SW 223 ° 0 min 0,000 mm 0,0 UV-I 25 W/m² 6,0 °C 10,4 °C 3,2 km/h (1 Bft)
24.10.2017 17:35 10,4 °C 10,4 °C 73 % 1025,8 hPa 0,0 mm 1,7 km/h (1 Bft) SW 223 ° 0 min 0,000 mm 0,0 UV-I 25 W/m² 5,8 °C 10,4 °C 3,2 km/h (1 Bft)
24.10.2017 17:36 10,4 °C 10,4 °C 73 % 1025,8 hPa 0,0 mm 1,8 km/h (1 Bft) SW 223 ° 0 min 0,000 mm 0,0 UV-I 25 W/m² 5,8 °C 10,4 °C 4,8 km/h (1 Bft)
24.10.2017 17:37 10,4 °C 10,4 °C 74 % 1025,9 hPa 0,0 mm 2,2 km/h (1 Bft) SW 223 ° 0 min 0,000 mm 0,0 UV-I 23 W/m² 6,0 °C 10,4 °C 4,8 km/h (1 Bft)
24.10.2017 17:38 10,3 °C 10,4 °C 74 % 1025,8 hPa 0,0 mm 2,3 km/h (1 Bft) SW 223 ° 0 min 0,000 mm 0,0 UV-I 23 W/m² 5,9 °C 10,3 °C 4,8 km/h (1 Bft)
24.10.2017 17:39 10,3 °C 10,3 °C 74 % 1025,8 hPa 0,0 mm 3,0 km/h (1 Bft) SW 223 ° 0 min 0,000 mm 0,0 UV-I 23 W/m² 5,9 °C 10,3 °C 4,8 km/h (1 Bft)
24.10.2017 17:40 10,3 °C 10,3 °C 74 % 1025,8 hPa 0,0 mm 2,2 km/h (1 Bft) SW 223 ° 0 min 0,000 mm 0,0 UV-I 21 W/m² 5,9 °C 10,3 °C 4,8 km/h (1 Bft)
24.10.2017 17:41 10,3 °C 10,3 °C 75 % 1025,8 hPa 0,0 mm 1,8 km/h (1 Bft) SW 221 ° 0 min 0,000 mm 0,0 UV-I 21 W/m² 6,1 °C 10,3 °C 4,8 km/h (1 Bft)
24.10.2017 17:42 10,3 °C 10,3 °C 75 % 1025,8 hPa 0,0 mm 2,6 km/h (1 Bft) SW 221 ° 0 min 0,000 mm 0,0 UV-I 21 W/m² 6,1 °C 10,3 °C 3,2 km/h (1 Bft)
24.10.2017 17:43 10,3 °C 10,3 °C 75 % 1025,8 hPa 0,0 mm 2,6 km/h (1 Bft) SW 221 ° 0 min 0,000 mm 0,0 UV-I 19 W/m² 6,1 °C 10,3 °C 3,2 km/h (1 Bft)
24.10.2017 17:44 10,2 °C 10,3 °C 75 % 1025,8 hPa 0,0 mm 2,3 km/h (1 Bft) SW 221 ° 0 min 0,000 mm 0,0 UV-I 19 W/m² 6,0 °C 10,2 °C 3,2 km/h (1 Bft)
24.10.2017 17:45 10,2 °C 10,2 °C 75 % 1025,8 hPa 0,0 mm 2,5 km/h (1 Bft) S-SW 209 ° 0 min 0,000 mm 0,0 UV-I 19 W/m² 6,0 °C 10,2 °C 4,8 km/h (1 Bft)
24.10.2017 17:46 10,1 °C 10,2 °C 76 % 1025,7 hPa 0,0 mm 3,7 km/h (1 Bft) S-SW 209 ° 0 min 0,000 mm 0,0 UV-I 18 W/m² 6,1 °C 10,1 °C 4,8 km/h (1 Bft)
24.10.2017 17:47 10,1 °C 10,1 °C 76 % 1025,8 hPa 0,0 mm 2,8 km/h (1 Bft) S-SW 209 ° 0 min 0,000 mm 0,0 UV-I 18 W/m² 6,1 °C 10,1 °C 3,2 km/h (1 Bft)
24.10.2017 17:48 10,0 °C 10,1 °C 76 % 1025,8 hPa 0,0 mm 3,6 km/h (1 Bft) S-SW 209 ° 0 min 0,000 mm 0,0 UV-I 18 W/m² 6,0 °C 10,0 °C 4,8 km/h (1 Bft)
24.10.2017 17:49 9,9 °C 10,0 °C 77 % 1025,8 hPa 0,0 mm 4,2 km/h (1 Bft) S-SW 209 ° 0 min 0,000 mm 0,0 UV-I 18 W/m² 6,1 °C 9,9 °C 6,4 km/h (2 Bft)
24.10.2017 17:50 9,8 °C 9,9 °C 77 % 1025,8 hPa 0,0 mm 4,4 km/h (1 Bft) S-SW 209 ° 0 min 0,000 mm 0,0 UV-I 16 W/m² 6,0 °C 9,8 °C 4,8 km/h (1 Bft)
24.10.2017 17:51 9,7 °C 9,8 °C 78 % 1025,7 hPa 0,0 mm 2,0 km/h (1 Bft) S-SW 209 ° 0 min 0,000 mm 0,0 UV-I 16 W/m² 6,1 °C 9,7 °C 3,2 km/h (1 Bft)
24.10.2017 17:52 9,6 °C 9,7 °C 78 % 1025,8 hPa 0,0 mm 2,4 km/h (1 Bft) S-SW 209 ° 0 min 0,000 mm 0,0 UV-I 14 W/m² 6,0 °C 9,6 °C 4,8 km/h (1 Bft)
24.10.2017 17:53 9,5 °C 9,6 °C 78 % 1025,8 hPa 0,0 mm 1,8 km/h (1 Bft) S-SW 209 ° 0 min 0,000 mm 0,0 UV-I 14 W/m² 5,9 °C 9,5 °C 3,2 km/h (1 Bft)
24.10.2017 17:54 9,4 °C 9,5 °C 78 % 1025,8 hPa 0,0 mm 0,8 km/h (0 Bft) S-SW 209 ° 0 min 0,000 mm 0,0 UV-I 12 W/m² 5,8 °C 9,4 °C 1,6 km/h (1 Bft)
24.10.2017 17:55 9,3 °C 9,4 °C 80 % 1025,9 hPa 0,0 mm 0,7 km/h (0 Bft) S-SW 209 ° 0 min 0,000 mm 0,0 UV-I 12 W/m² 6,0 °C 9,3 °C 1,6 km/h (1 Bft)
24.10.2017 17:56 9,2 °C 9,3 °C 80 % 1025,8 hPa 0,0 mm 2,1 km/h (1 Bft) S-SW 209 ° 0 min 0,000 mm 0,0 UV-I 12 W/m² 5,9 °C 9,2 °C 4,8 km/h (1 Bft)
24.10.2017 17:57 9,2 °C 9,2 °C 80 % 1025,8 hPa 0,0 mm 1,5 km/h (1 Bft) S-SW 209 ° 0 min 0,000 mm 0,0 UV-I 11 W/m² 5,9 °C 9,2 °C 4,8 km/h (1 Bft)
24.10.2017 17:58 9,1 °C 9,2 °C 80 % 1025,9 hPa 0,0 mm 1,7 km/h (1 Bft) S-SW 208 ° 0 min 0,000 mm 0,0 UV-I 11 W/m² 5,8 °C 9,1 °C 3,2 km/h (1 Bft)
24.10.2017 17:59 9,1 °C 9,1 °C 81 % 1025,9 hPa 0,0 mm 0,5 km/h (0 Bft) S-SW 208 ° 0 min 0,000 mm 0,0 UV-I 9 W/m² 6,0 °C 9,1 °C 1,6 km/h (1 Bft)
24.10.2017 18:00 9,1 °C 9,1 °C 81 % 1025,9 hPa 0,0 mm 1,3 km/h (1 Bft) S-SW 208 ° 0 min 0,000 mm 0,0 UV-I 9 W/m² 6,0 °C 9,1 °C 1,6 km/h (1 Bft)
24.10.2017 18:01 9,1 °C 9,1 °C 81 % 1025,9 hPa 0,0 mm 1,3 km/h (1 Bft) S-SW 208 ° 0 min 0,025 mm 0,0 UV-I 7 W/m² 6,0 °C 9,1 °C 3,2 km/h (1 Bft)
24.10.2017 18:02 9,1 °C 9,2 °C 81 % 1026,0 hPa 0,0 mm 1,3 km/h (1 Bft) S-SW 208 ° 0 min 0,000 mm 0,0 UV-I 7 W/m² 6,0 °C 9,1 °C 1,6 km/h (1 Bft)
24.10.2017 18:03 9,1 °C 9,2 °C 81 % 1025,9 hPa 0,0 mm 1,8 km/h (1 Bft) S-SW 208 ° 0 min 0,000 mm 0,0 UV-I 7 W/m² 6,0 °C 9,1 °C 3,2 km/h (1 Bft)
24.10.2017 18:04 9,0 °C 9,1 °C 81 % 1025,9 hPa 0,0 mm 1,5 km/h (1 Bft) S-SW 208 ° 0 min 0,000 mm 0,0 UV-I 7 W/m² 5,9 °C 9,0 °C 3,2 km/h (1 Bft)
24.10.2017 18:05 8,9 °C 9,1 °C 81 % 1025,9 hPa 0,0 mm 2,6 km/h (1 Bft) S-SW 208 ° 0 min 0,000 mm 0,0 UV-I 5 W/m² 5,8 °C 8,9 °C 4,8 km/h (1 Bft)
24.10.2017 18:06 8,8 °C 8,9 °C 81 % 1025,9 hPa 0,0 mm 1,1 km/h (1 Bft) S-SW 208 ° 0 min 0,000 mm 0,0 UV-I 5 W/m² 5,7 °C 8,8 °C 3,2 km/h (1 Bft)
24.10.2017 18:07 8,7 °C 8,8 °C 82 % 1026,0 hPa 0,0 mm 2,1 km/h (1 Bft) S-SW 208 ° 0 min 0,000 mm 0,0 UV-I 5 W/m² 5,8 °C 8,7 °C 3,2 km/h (1 Bft)
24.10.2017 18:08 8,7 °C 8,7 °C 82 % 1025,9 hPa 0,0 mm 1,7 km/h (1 Bft) S-SW 208 ° 0 min 0,000 mm 0,0 UV-I 5 W/m² 5,8 °C 8,7 °C 3,2 km/h (1 Bft)
24.10.2017 18:09 8,7 °C 8,7 °C 82 % 1026,0 hPa 0,0 mm 1,8 km/h (1 Bft) S-SW 208 ° 0 min 0,000 mm 0,0 UV-I 0 W/m² 5,8 °C 8,7 °C 3,2 km/h (1 Bft)
24.10.2017 18:10 8,7 °C 8,7 °C 83 % 1026,0 hPa 0,0 mm 0,7 km/h (0 Bft) S-SW 208 ° 0 min 0,000 mm 0,0 UV-I 0 W/m² 6,0 °C 8,7 °C 3,2 km/h (1 Bft)
24.10.2017 18:11 8,7 °C 8,7 °C 82 % 1026,0 hPa 0,0 mm 1,0 km/h (0 Bft) S-SW 208 ° 0 min 0,000 mm 0,0 UV-I 0 W/m² 5,8 °C 8,7 °C 3,2 km/h (1 Bft)
24.10.2017 18:12 8,6 °C 8,7 °C 82 % 1026,0 hPa 0,0 mm 1,6 km/h (1 Bft) S-SW 208 ° 0 min 0,000 mm 0,0 UV-I 0 W/m² 5,7 °C 8,6 °C 4,8 km/h (1 Bft)
24.10.2017 18:13 8,6 °C 8,6 °C 83 % 1026,1 hPa 0,0 mm 0,6 km/h (0 Bft) S-SW 208 ° 0 min 0,000 mm 0,0 UV-I 0 W/m² 5,9 °C 8,6 °C 3,2 km/h (1 Bft)
24.10.2017 18:14 8,5 °C 8,6 °C 82 % 1026,0 hPa 0,0 mm 0,5 km/h (0 Bft) S-SW 208 ° 0 min 0,000 mm 0,0 UV-I 0 W/m² 5,6 °C 8,5 °C 1,6 km/h (1 Bft)
24.10.2017 18:15 8,3 °C 8,5 °C 83 % 1026,0 hPa 0,0 mm 1,0 km/h (0 Bft) S-SW 208 ° 0 min 0,000 mm 0,0 UV-I 0 W/m² 5,6 °C 8,3 °C 1,6 km/h (1 Bft)
24.10.2017 18:16 8,4 °C 8,4 °C 84 % 1026,1 hPa 0,0 mm 2,3 km/h (1 Bft) S-SW 208 ° 0 min 0,000 mm 0,0 UV-I 0 W/m² 5,9 °C 8,4 °C 3,2 km/h (1 Bft)
24.10.2017 18:17 8,3 °C 8,4 °C 84 % 1026,1 hPa 0,0 mm 1,5 km/h (1 Bft) S-SW 208 ° 0 min 0,000 mm 0,0 UV-I 0 W/m² 5,8 °C 8,3 °C 3,2 km/h (1 Bft)
24.10.2017 18:18 8,2 °C 8,3 °C 83 % 1026,0 hPa 0,0 mm 1,9 km/h (1 Bft) S-SW 208 ° 0 min 0,000 mm 0,0 UV-I 0 W/m² 5,5 °C 8,2 °C 3,2 km/h (1 Bft)
24.10.2017 18:19 8,2 °C 8,2 °C 84 % 1026,1 hPa 0,0 mm 1,9 km/h (1 Bft) S-SW 208 ° 0 min 0,000 mm 0,0 UV-I 0 W/m² 5,7 °C 8,2 °C 3,2 km/h (1 Bft)
24.10.2017 18:20 8,2 °C 8,2 °C 85 % 1026,1 hPa 0,0 mm 2,3 km/h (1 Bft) S-SW 208 ° 0 min 0,000 mm 0,0 UV-I 0 W/m² 5,8 °C 8,2 °C 3,2 km/h (1 Bft)
24.10.2017 18:21 8,3 °C 8,3 °C 85 % 1026,1 hPa 0,0 mm 3,5 km/h (1 Bft) S-SW 208 ° 0 min 0,000 mm 0,0 UV-I 0 W/m² 5,9 °C 8,3 °C 4,8 km/h (1 Bft)
24.10.2017 18:22 8,3 °C 8,3 °C 84 % 1026,1 hPa 0,0 mm 3,7 km/h (1 Bft) S-SW 208 ° 0 min 0,000 mm 0,0 UV-I 0 W/m² 5,8 °C 8,3 °C 4,8 km/h (1 Bft)
24.10.2017 18:23 8,2 °C 8,3 °C 85 % 1026,1 hPa 0,0 mm 4,0 km/h (1 Bft) S-SW 208 ° 0 min 0,000 mm 0,0 UV-I 0 W/m² 5,8 °C 8,2 °C 4,8 km/h (1 Bft)
24.10.2017 18:24 8,3 °C 8,3 °C 85 % 1026,2 hPa 0,0 mm 3,5 km/h (1 Bft) S-SW 208 ° 0 min 0,000 mm 0,0 UV-I 0 W/m² 5,9 °C 8,3 °C 4,8 km/h (1 Bft)
24.10.2017 18:25 8,3 °C 8,3 °C 85 % 1026,1 hPa 0,0 mm 2,2 km/h (1 Bft) S-SW 208 ° 0 min 0,000 mm 0,0 UV-I 0 W/m² 5,9 °C 8,3 °C 3,2 km/h (1 Bft)
24.10.2017 18:26 8,3 °C 8,3 °C 85 % 1026,2 hPa 0,0 mm 3,2 km/h (1 Bft) S-SW 208 ° 0 min 0,000 mm 0,0 UV-I 0 W/m² 5,9 °C 8,3 °C 4,8 km/h (1 Bft)
24.10.2017 18:27 8,2 °C 8,3 °C 85 % 1026,2 hPa 0,0 mm 1,7 km/h (1 Bft) S-SW 208 ° 0 min 0,000 mm 0,0 UV-I 0 W/m² 5,8 °C 8,2 °C 3,2 km/h (1 Bft)
24.10.2017 18:28 8,2 °C 8,2 °C 85 % 1026,2 hPa 0,0 mm 2,3 km/h (1 Bft) S-SW 208 ° 0 min 0,000 mm 0,0 UV-I 0 W/m² 5,8 °C 8,2 °C 3,2 km/h (1 Bft)
24.10.2017 18:29 8,2 °C 8,2 °C 85 % 1026,2 hPa 0,0 mm 2,5 km/h (1 Bft) S-SW 208 ° 0 min 0,000 mm 0,0 UV-I 0 W/m² 5,8 °C 8,2 °C 3,2 km/h (1 Bft)
24.10.2017 18:30 8,2 °C 8,2 °C 85 % 1026,3 hPa 0,0 mm 2,5 km/h (1 Bft) S-SW 208 ° 0 min 0,000 mm 0,0 UV-I 0 W/m² 5,8 °C 8,2 °C 3,2 km/h (1 Bft)
24.10.2017 18:31 8,2 °C 8,2 °C 85 % 1026,3 hPa 0,0 mm 2,3 km/h (1 Bft) S-SW 208 ° 0 min 0,000 mm 0,0 UV-I 0 W/m² 5,8 °C 8,2 °C 3,2 km/h (1 Bft)
24.10.2017 18:32 8,2 °C 8,2 °C 85 % 1026,3 hPa 0,0 mm 1,8 km/h (1 Bft) S-SW 208 ° 0 min 0,000 mm 0,0 UV-I 0 W/m² 5,8 °C 8,2 °C 3,2 km/h (1 Bft)
24.10.2017 18:33 8,2 °C 8,2 °C 85 % 1026,3 hPa 0,0 mm 2,7 km/h (1 Bft) S-SW 208 ° 0 min 0,000 mm 0,0 UV-I 0 W/m² 5,8 °C 8,2 °C 4,8 km/h (1 Bft)
24.10.2017 18:34 8,1 °C 8,2 °C 85 % 1026,3 hPa 0,0 mm 3,7 km/h (1 Bft) S-SW 208 ° 0 min 0,000 mm 0,0 UV-I 0 W/m² 5,7 °C 8,1 °C 4,8 km/h (1 Bft)
24.10.2017 18:35 8,1 °C 8,1 °C 85 % 1026,3 hPa 0,0 mm 2,7 km/h (1 Bft) S-SW 208 ° 0 min 0,000 mm 0,0 UV-I 0 W/m² 5,7 °C 8,1 °C 4,8 km/h (1 Bft)
24.10.2017 18:36 8,1 °C 8,1 °C 86 % 1026,3 hPa 0,0 mm 3,3 km/h (1 Bft) S-SW 208 ° 0 min 0,000 mm 0,0 UV-I 0 W/m² 5,9 °C 8,1 °C 4,8 km/h (1 Bft)
24.10.2017 18:37 7,9 °C 8,1 °C 85 % 1026,4 hPa 0,0 mm 3,6 km/h (1 Bft) S-SW 208 ° 0 min 0,000 mm 0,0 UV-I 0 W/m² 5,5 °C 7,9 °C 4,8 km/h (1 Bft)
24.10.2017 18:38 7,9 °C 7,9 °C 86 % 1026,4 hPa 0,0 mm 3,6 km/h (1 Bft) S-SW 208 ° 0 min 0,000 mm 0,0 UV-I 0 W/m² 5,7 °C 7,9 °C 4,8 km/h (1 Bft)
24.10.2017 18:39 7,9 °C 7,9 °C 86 % 1026,4 hPa 0,0 mm 3,1 km/h (1 Bft) S-SW 208 ° 0 min 0,000 mm 0,0 UV-I 0 W/m² 5,7 °C 7,9 °C 4,8 km/h (1 Bft)
24.10.2017 18:40 7,9 °C 7,9 °C 87 % 1026,4 hPa 0,0 mm 2,8 km/h (1 Bft) S-SW 208 ° 0 min 0,000 mm 0,0 UV-I 0 W/m² 5,9 °C 7,9 °C 4,8 km/h (1 Bft)
24.10.2017 18:41 7,9 °C 8,0 °C 86 % 1026,3 hPa 0,0 mm 3,4 km/h (1 Bft) S-SW 208 ° 0 min 0,000 mm 0,0 UV-I 0 W/m² 5,7 °C 7,9 °C 4,8 km/h (1 Bft)
24.10.2017 18:42 7,8 °C 7,9 °C 86 % 1026,4 hPa 0,0 mm 3,6 km/h (1 Bft) S-SW 208 ° 0 min 0,000 mm 0,0 UV-I 0 W/m² 5,6 °C 7,8 °C 4,8 km/h (1 Bft)
24.10.2017 18:43 7,8 °C 7,8 °C 86 % 1026,4 hPa 0,0 mm 3,6 km/h (1 Bft) S-SW 208 ° 0 min 0,000 mm 0,0 UV-I 0 W/m² 5,6 °C 7,8 °C 6,4 km/h (2 Bft)
24.10.2017 18:44 7,8 °C 7,8 °C 87 % 1026,4 hPa 0,0 mm 3,8 km/h (1 Bft) S-SW 208 ° 0 min 0,000 mm 0,0 UV-I 0 W/m² 5,8 °C 7,8 °C 4,8 km/h (1 Bft)
24.10.2017 18:46 7,8 °C 7,8 °C 87 % 1026,4 hPa 0,0 mm 2,7 km/h (1 Bft) S-SW 208 ° 0 min 0,000 mm 0,0 UV-I 0 W/m² 5,8 °C 7,8 °C 3,2 km/h (1 Bft)
24.10.2017 18:47 7,8 °C 7,8 °C 87 % 1026,4 hPa 0,0 mm 2,5 km/h (1 Bft) S-SW 208 ° 0 min 0,000 mm 0,0 UV-I 0 W/m² 5,8 °C 7,8 °C 3,2 km/h (1 Bft)
24.10.2017 18:48 7,8 °C 7,8 °C 87 % 1026,3 hPa 0,0 mm 2,8 km/h (1 Bft) S-SW 208 ° 0 min 0,000 mm 0,0 UV-I 0 W/m² 5,8 °C 7,8 °C 4,8 km/h (1 Bft)
24.10.2017 18:49 7,8 °C 7,8 °C 87 % 1026,3 hPa 0,0 mm 2,3 km/h (1 Bft) S-SW 208 ° 0 min 0,000 mm 0,0 UV-I 0 W/m² 5,8 °C 7,8 °C 3,2 km/h (1 Bft)
24.10.2017 18:51 7,8 °C 7,8 °C 87 % 1026,4 hPa 0,0 mm 2,2 km/h (1 Bft) S-SW 208 ° 0 min 0,000 mm 0,0 UV-I 0 W/m² 5,8 °C 7,8 °C 3,2 km/h (1 Bft)
24.10.2017 18:52 7,8 °C 7,8 °C 87 % 1026,4 hPa 0,0 mm 1,8 km/h (1 Bft) S-SW 208 ° 0 min 0,000 mm 0,0 UV-I 0 W/m² 5,8 °C 7,8 °C 3,2 km/h (1 Bft)
24.10.2017 18:53 7,8 °C 7,8 °C 87 % 1026,3 hPa 0,0 mm 2,5 km/h (1 Bft) S-SW 208 ° 0 min 0,000 mm 0,0 UV-I 0 W/m² 5,8 °C 7,8 °C 3,2 km/h (1 Bft)
24.10.2017 18:54 7,8 °C 7,8 °C 87 % 1026,4 hPa 0,0 mm 1,8 km/h (1 Bft) S-SW 208 ° 0 min 0,000 mm 0,0 UV-I 0 W/m² 5,8 °C 7,8 °C 3,2 km/h (1 Bft)
24.10.2017 18:55 7,8 °C 7,8 °C 87 % 1026,3 hPa 0,0 mm 1,7 km/h (1 Bft) S-SW 208 ° 0 min 0,000 mm 0,0 UV-I 0 W/m² 5,8 °C 7,8 °C 3,2 km/h (1 Bft)
24.10.2017 18:56 7,8 °C 7,9 °C 87 % 1026,3 hPa 0,0 mm 2,2 km/h (1 Bft) S-SW 208 ° 0 min 0,000 mm 0,0 UV-I 0 W/m² 5,8 °C 7,8 °C 3,2 km/h (1 Bft)
24.10.2017 18:57 7,8 °C 7,8 °C 87 % 1026,3 hPa 0,0 mm 2,5 km/h (1 Bft) S-SW 208 ° 0 min 0,000 mm 0,0 UV-I 0 W/m² 5,8 °C 7,8 °C 3,2 km/h (1 Bft)
24.10.2017 18:58 7,8 °C 7,8 °C 87 % 1026,3 hPa 0,0 mm 2,6 km/h (1 Bft) S-SW 208 ° 0 min 0,000 mm 0,0 UV-I 0 W/m² 5,8 °C 7,8 °C 3,2 km/h (1 Bft)
24.10.2017 18:59 7,8 °C 7,8 °C 87 % 1026,3 hPa 0,0 mm 2,5 km/h (1 Bft) S-SW 208 ° 0 min 0,000 mm 0,0 UV-I 0 W/m² 5,8 °C 7,8 °C 3,2 km/h (1 Bft)
24.10.2017 19:00 7,7 °C 7,8 °C 86 % 1026,4 hPa 0,0 mm 2,9 km/h (1 Bft) S-SW 208 ° 0 min 0,000 mm 0,0 UV-I 0 W/m² 5,5 °C 7,7 °C 3,2 km/h (1 Bft)
24.10.2017 19:01 7,7 °C 7,7 °C 87 % 1026,4 hPa 0,0 mm 3,0 km/h (1 Bft) S-SW 208 ° 0 min 0,000 mm 0,0 UV-I 0 W/m² 5,7 °C 7,7 °C 4,8 km/h (1 Bft)
24.10.2017 19:02 7,6 °C 7,7 °C 87 % 1026,4 hPa 0,0 mm 2,7 km/h (1 Bft) S-SW 208 ° 0 min 0,000 mm 0,0 UV-I 0 W/m² 5,6 °C 7,6 °C 4,8 km/h (1 Bft)
24.10.2017 19:03 7,6 °C 7,6 °C 87 % 1026,4 hPa 0,0 mm 2,4 km/h (1 Bft) S-SW 208 ° 0 min 0,000 mm 0,0 UV-I 0 W/m² 5,6 °C 7,6 °C 3,2 km/h (1 Bft)
24.10.2017 19:04 7,6 °C 7,6 °C 87 % 1026,4 hPa 0,0 mm 2,1 km/h (1 Bft) S-SW 208 ° 0 min 0,000 mm 0,0 UV-I 0 W/m² 5,6 °C 7,6 °C 3,2 km/h (1 Bft)
24.10.2017 19:06 7,4 °C 7,6 °C 87 % 1026,4 hPa 0,0 mm 1,2 km/h (1 Bft) S-SW 208 ° 0 min 0,000 mm 0,0 UV-I 0 W/m² 5,4 °C 7,4 °C 3,2 km/h (1 Bft)
24.10.2017 19:07 7,4 °C 7,5 °C 88 % 1026,4 hPa 0,0 mm 0,1 km/h (0 Bft) S-SW 208 ° 0 min 0,000 mm 0,0 UV-I 0 W/m² 5,5 °C 7,4 °C 1,6 km/h (1 Bft)
24.10.2017 19:08 7,4 °C 7,4 °C 87 % 1026,4 hPa 0,0 mm 0,0 km/h (0 Bft) S-SW 208 ° 0 min 0,000 mm 0,0 UV-I 0 W/m² 5,4 °C 7,4 °C 0,0 km/h (0 Bft)
24.10.2017 19:09 7,3 °C 7,4 °C 87 % 1026,3 hPa 0,0 mm 0,0 km/h (0 Bft) S-SW 208 ° 0 min 0,000 mm 0,0 UV-I 0 W/m² 5,3 °C 7,3 °C 0,0 km/h (0 Bft)
24.10.2017 19:11 7,4 °C 7,4 °C 88 % 1026,4 hPa 0,0 mm 0,0 km/h (0 Bft) S-SW 208 ° 0 min 0,000 mm 0,0 UV-I 0 W/m² 5,5 °C 7,4 °C 0,0 km/h (0 Bft)
24.10.2017 19:12 7,4 °C 7,4 °C 88 % 1026,4 hPa 0,0 mm 0,0 km/h (0 Bft) S-SW 208 ° 0 min 0,000 mm 0,0 UV-I 0 W/m² 5,5 °C 7,4 °C 0,0 km/h (0 Bft)
24.10.2017 19:13 7,3 °C 7,4 °C 88 % 1026,3 hPa 0,0 mm 0,0 km/h (0 Bft) S-SW 208 ° 0 min 0,000 mm 0,0 UV-I 0 W/m² 5,4 °C 7,3 °C 0,0 km/h (0 Bft)
24.10.2017 19:14 7,3 °C 7,3 °C 88 % 1026,3 hPa 0,0 mm 0,0 km/h (0 Bft) S-SW 208 ° 0 min 0,000 mm 0,0 UV-I 0 W/m² 5,4 °C 7,3 °C 0,0 km/h (0 Bft)
24.10.2017 19:16 7,2 °C 7,3 °C 88 % 1026,4 hPa 0,0 mm 0,0 km/h (0 Bft) S-SW 208 ° 0 min 0,000 mm 0,0 UV-I 0 W/m² 5,3 °C 7,2 °C 0,0 km/h (0 Bft)
24.10.2017 19:17 7,1 °C 7,2 °C 88 % 1026,4 hPa 0,0 mm 0,0 km/h (0 Bft) S-SW 208 ° 0 min 0,000 mm 0,0 UV-I 0 W/m² 5,2 °C 7,1 °C 0,0 km/h (0 Bft)
24.10.2017 19:19 7,1 °C 7,1 °C 88 % 1026,4 hPa 0,0 mm 0,0 km/h (0 Bft) S-SW 208 ° 0 min 0,000 mm 0,0 UV-I 0 W/m² 5,2 °C 7,1 °C 0,0 km/h (0 Bft)
24.10.2017 19:20 7,0 °C 7,1 °C 89 % 1026,4 hPa 0,0 mm 0,0 km/h (0 Bft) S-SW 208 ° 0 min 0,000 mm 0,0 UV-I 0 W/m² 5,3 °C 7,0 °C 0,0 km/h (0 Bft)
24.10.2017 19:21 6,9 °C 7,0 °C 89 % 1026,4 hPa 0,0 mm 0,0 km/h (0 Bft) S-SW 208 ° 0 min 0,000 mm 0,0 UV-I 0 W/m² 5,2 °C 6,9 °C 0,0 km/h (0 Bft)
24.10.2017 19:22 6,9 °C 6,9 °C 89 % 1026,5 hPa 0,0 mm 0,0 km/h (0 Bft) S-SW 208 ° 0 min 0,000 mm 0,0 UV-I 0 W/m² 5,2 °C 6,9 °C 0,0 km/h (0 Bft)
24.10.2017 19:23 6,8 °C 6,9 °C 88 % 1026,5 hPa 0,0 mm 0,0 km/h (0 Bft) S-SW 208 ° 0 min 0,000 mm 0,0 UV-I 0 W/m² 5,0 °C 6,8 °C 0,0 km/h (0 Bft)
24.10.2017 19:24 6,8 °C 6,9 °C 89 % 1026,5 hPa 0,0 mm 0,0 km/h (0 Bft) S-SW 208 ° 0 min 0,000 mm 0,0 UV-I 0 W/m² 5,1 °C 6,8 °C 0,0 km/h (0 Bft)
24.10.2017 19:25 6,9 °C 6,9 °C 89 % 1026,5 hPa 0,0 mm 0,0 km/h (0 Bft) S-SW 208 ° 0 min 0,000 mm 0,0 UV-I 0 W/m² 5,2 °C 6,9 °C 0,0 km/h (0 Bft)
24.10.2017 19:26 6,9 °C 6,9 °C 89 % 1026,4 hPa 0,0 mm 0,0 km/h (0 Bft) S-SW 208 ° 0 min 0,000 mm 0,0 UV-I 0 W/m² 5,2 °C 6,9 °C 0,0 km/h (0 Bft)
24.10.2017 19:27 6,9 °C 6,9 °C 89 % 1026,5 hPa 0,0 mm 0,0 km/h (0 Bft) S-SW 208 ° 0 min 0,000 mm 0,0 UV-I 0 W/m² 5,2 °C 6,9 °C 0,0 km/h (0 Bft)
24.10.2017 19:28 6,9 °C 6,9 °C 89 % 1026,4 hPa 0,0 mm 0,0 km/h (0 Bft) S-SW 208 ° 0 min 0,000 mm 0,0 UV-I 0 W/m² 5,2 °C 6,9 °C 0,0 km/h (0 Bft)
24.10.2017 19:29 6,8 °C 6,9 °C 88 % 1026,5 hPa 0,0 mm 0,0 km/h (0 Bft) S-SW 208 ° 0 min 0,000 mm 0,0 UV-I 0 W/m² 5,0 °C 6,8 °C 0,0 km/h (0 Bft)
24.10.2017 19:31 6,8 °C 6,8 °C 88 % 1026,5 hPa 0,0 mm 0,0 km/h (0 Bft) S-SW 208 ° 0 min 0,000 mm 0,0 UV-I 0 W/m² 5,0 °C 6,8 °C 0,0 km/h (0 Bft)
24.10.2017 19:32 6,8 °C 6,8 °C 88 % 1026,5 hPa 0,0 mm 0,0 km/h (0 Bft) S-SW 208 ° 0 min 0,000 mm 0,0 UV-I 0 W/m² 5,0 °C 6,8 °C 0,0 km/h (0 Bft)
24.10.2017 19:33 6,8 °C 6,8 °C 88 % 1026,5 hPa 0,0 mm 0,0 km/h (0 Bft) S-SW 208 ° 0 min 0,000 mm 0,0 UV-I 0 W/m² 5,0 °C 6,8 °C 0,0 km/h (0 Bft)
24.10.2017 19:35 6,8 °C 6,8 °C 88 % 1026,5 hPa 0,0 mm 0,0 km/h (0 Bft) S-SW 208 ° 0 min 0,000 mm 0,0 UV-I 0 W/m² 5,0 °C 6,8 °C 0,0 km/h (0 Bft)
24.10.2017 19:36 6,7 °C 6,8 °C 88 % 1026,5 hPa 0,0 mm 0,0 km/h (0 Bft) S-SW 208 ° 0 min 0,000 mm 0,0 UV-I 0 W/m² 4,9 °C 6,7 °C 0,0 km/h (0 Bft)
24.10.2017 19:37 6,8 °C 6,8 °C 88 % 1026,6 hPa 0,0 mm 0,0 km/h (0 Bft) S-SW 208 ° 0 min 0,000 mm 0,0 UV-I 0 W/m² 5,0 °C 6,8 °C 0,0 km/h (0 Bft)
24.10.2017 19:38 6,7 °C 6,8 °C 88 % 1026,5 hPa 0,0 mm 0,0 km/h (0 Bft) S-SW 208 ° 0 min 0,000 mm 0,0 UV-I 0 W/m² 4,9 °C 6,7 °C 0,0 km/h (0 Bft)
24.10.2017 19:39 6,7 °C 6,7 °C 88 % 1026,5 hPa 0,0 mm 0,0 km/h (0 Bft) S-SW 208 ° 0 min 0,000 mm 0,0 UV-I 0 W/m² 4,9 °C 6,7 °C 0,0 km/h (0 Bft)
24.10.2017 19:40 6,7 °C 6,7 °C 88 % 1026,5 hPa 0,0 mm 0,0 km/h (0 Bft) S-SW 208 ° 0 min 0,000 mm 0,0 UV-I 0 W/m² 4,9 °C 6,7 °C 0,0 km/h (0 Bft)
24.10.2017 19:41 6,7 °C 6,7 °C 88 % 1026,5 hPa 0,0 mm 0,0 km/h (0 Bft) S-SW 208 ° 0 min 0,000 mm 0,0 UV-I 0 W/m² 4,9 °C 6,7 °C 0,0 km/h (0 Bft)
24.10.2017 19:42 6,6 °C 6,7 °C 88 % 1026,5 hPa 0,0 mm 0,0 km/h (0 Bft) S-SW 208 ° 0 min 0,000 mm 0,0 UV-I 0 W/m² 4,8 °C 6,6 °C 0,0 km/h (0 Bft)
24.10.2017 19:43 6,6 °C 6,6 °C 88 % 1026,5 hPa 0,0 mm 0,0 km/h (0 Bft) S-SW 208 ° 0 min 0,000 mm 0,0 UV-I 0 W/m² 4,8 °C 6,6 °C 0,0 km/h (0 Bft)
24.10.2017 19:44 6,7 °C 6,7 °C 88 % 1026,6 hPa 0,0 mm 0,0 km/h (0 Bft) S-SW 208 ° 0 min 0,000 mm 0,0 UV-I 0 W/m² 4,9 °C 6,7 °C 0,0 km/h (0 Bft)
24.10.2017 19:45 6,6 °C 6,7 °C 88 % 1026,6 hPa 0,0 mm 0,0 km/h (0 Bft) S-SW 208 ° 0 min 0,000 mm 0,0 UV-I 0 W/m² 4,8 °C 6,6 °C 0,0 km/h (0 Bft)
24.10.2017 19:46 6,6 °C 6,7 °C 88 % 1026,7 hPa 0,0 mm 0,0 km/h (0 Bft) S-SW 208 ° 0 min 0,000 mm 0,0 UV-I 0 W/m² 4,8 °C 6,6 °C 0,0 km/h (0 Bft)
24.10.2017 19:47 6,6 °C 6,6 °C 88 % 1026,7 hPa 0,0 mm 0,0 km/h (0 Bft) S-SW 208 ° 0 min 0,000 mm 0,0 UV-I 0 W/m² 4,8 °C 6,6 °C 0,0 km/h (0 Bft)
24.10.2017 19:48 6,6 °C 6,6 °C 88 % 1026,7 hPa 0,0 mm 0,0 km/h (0 Bft) S-SW 208 ° 0 min 0,000 mm 0,0 UV-I 0 W/m² 4,8 °C 6,6 °C 0,0 km/h (0 Bft)
24.10.2017 19:49 6,6 °C 6,6 °C 88 % 1026,7 hPa 0,0 mm 0,0 km/h (0 Bft) S-SW 208 ° 0 min 0,000 mm 0,0 UV-I 0 W/m² 4,8 °C 6,6 °C 0,0 km/h (0 Bft)
24.10.2017 19:51 6,6 °C 6,6 °C 88 % 1026,6 hPa 0,0 mm 0,0 km/h (0 Bft) S-SW 208 ° 0 min 0,000 mm 0,0 UV-I 0 W/m² 4,8 °C 6,6 °C 0,0 km/h (0 Bft)
24.10.2017 19:52 6,6 °C 6,6 °C 88 % 1026,6 hPa 0,0 mm 0,0 km/h (0 Bft) S-SW 208 ° 0 min 0,000 mm 0,0 UV-I 0 W/m² 4,8 °C 6,6 °C 0,0 km/h (0 Bft)
24.10.2017 19:53 6,6 °C 6,6 °C 88 % 1026,6 hPa 0,0 mm 0,0 km/h (0 Bft) S-SW 208 ° 0 min 0,000 mm 0,0 UV-I 0 W/m² 4,8 °C 6,6 °C 0,0 km/h (0 Bft)
24.10.2017 19:54 6,6 °C 6,6 °C 88 % 1026,6 hPa 0,0 mm 0,0 km/h (0 Bft) S-SW 208 ° 0 min 0,000 mm 0,0 UV-I 0 W/m² 4,8 °C 6,6 °C 0,0 km/h (0 Bft)
24.10.2017 19:55 6,5 °C 6,6 °C 88 % 1026,6 hPa 0,0 mm 0,0 km/h (0 Bft) S-SW 208 ° 0 min 0,000 mm 0,0 UV-I 0 W/m² 4,7 °C 6,5 °C 0,0 km/h (0 Bft)
24.10.2017 19:56 6,5 °C 6,6 °C 88 % 1026,7 hPa 0,0 mm 0,0 km/h (0 Bft) S-SW 208 ° 0 min 0,000 mm 0,0 UV-I 0 W/m² 4,7 °C 6,5 °C 0,0 km/h (0 Bft)
24.10.2017 19:57 6,4 °C 6,5 °C 88 % 1026,6 hPa 0,0 mm 0,0 km/h (0 Bft) S-SW 208 ° 0 min 0,000 mm 0,0 UV-I 0 W/m² 4,6 °C 6,4 °C 0,0 km/h (0 Bft)
24.10.2017 19:58 6,4 °C 6,4 °C 88 % 1026,6 hPa 0,0 mm 0,0 km/h (0 Bft) S-SW 208 ° 0 min 0,000 mm 0,0 UV-I 0 W/m² 4,6 °C 6,4 °C 0,0 km/h (0 Bft)
24.10.2017 19:59 6,4 °C 6,4 °C 88 % 1026,5 hPa 0,0 mm 0,0 km/h (0 Bft) S-SW 208 ° 0 min 0,000 mm 0,0 UV-I 0 W/m² 4,6 °C 6,4 °C 0,0 km/h (0 Bft)
24.10.2017 20:00 6,4 °C 6,4 °C 88 % 1026,6 hPa 0,0 mm 0,0 km/h (0 Bft) S-SW 208 ° 0 min 0,000 mm 0,0 UV-I 0 W/m² 4,6 °C 6,4 °C 0,0 km/h (0 Bft)
24.10.2017 20:01 6,3 °C 6,4 °C 89 % 1026,6 hPa 0,0 mm 0,0 km/h (0 Bft) S-SW 208 ° 0 min 0,000 mm 0,0 UV-I 0 W/m² 4,6 °C 6,3 °C 0,0 km/h (0 Bft)
24.10.2017 20:02 6,3 °C 6,4 °C 89 % 1026,6 hPa 0,0 mm 0,0 km/h (0 Bft) S-SW 208 ° 0 min 0,000 mm 0,0 UV-I 0 W/m² 4,6 °C 6,3 °C 0,0 km/h (0 Bft)
24.10.2017 20:03 6,3 °C 6,4 °C 88 % 1026,5 hPa 0,0 mm 0,0 km/h (0 Bft) S-SW 208 ° 0 min 0,000 mm 0,0 UV-I 0 W/m² 4,5 °C 6,3 °C 0,0 km/h (0 Bft)
24.10.2017 20:04 6,4 °C 6,4 °C 89 % 1026,5 hPa 0,0 mm 0,0 km/h (0 Bft) S-SW 208 ° 0 min 0,000 mm 0,0 UV-I 0 W/m² 4,7 °C 6,4 °C 0,0 km/h (0 Bft)
24.10.2017 20:05 6,3 °C 6,4 °C 89 % 1026,5 hPa 0,0 mm 0,0 km/h (0 Bft) S-SW 208 ° 0 min 0,000 mm 0,0 UV-I 0 W/m² 4,6 °C 6,3 °C 0,0 km/h (0 Bft)
24.10.2017 20:06 6,3 °C 6,3 °C 89 % 1026,6 hPa 0,0 mm 0,0 km/h (0 Bft) S-SW 208 ° 0 min 0,000 mm 0,0 UV-I 0 W/m² 4,6 °C 6,3 °C 0,0 km/h (0 Bft)
24.10.2017 20:07 6,3 °C 6,3 °C 89 % 1026,5 hPa 0,0 mm 0,0 km/h (0 Bft) S-SW 208 ° 0 min 0,000 mm 0,0 UV-I 0 W/m² 4,6 °C 6,3 °C 0,0 km/h (0 Bft)
24.10.2017 20:08 6,3 °C 6,3 °C 88 % 1026,5 hPa 0,0 mm 0,0 km/h (0 Bft) S-SW 208 ° 0 min 0,000 mm 0,0 UV-I 0 W/m² 4,5 °C 6,3 °C 0,0 km/h (0 Bft)
24.10.2017 20:09 6,3 °C 6,3 °C 88 % 1026,6 hPa 0,0 mm 0,0 km/h (0 Bft) S-SW 208 ° 0 min 0,000 mm 0,0 UV-I 0 W/m² 4,5 °C 6,3 °C 0,0 km/h (0 Bft)
24.10.2017 20:10 6,3 °C 6,3 °C 89 % 1026,6 hPa 0,0 mm 0,0 km/h (0 Bft) S-SW 208 ° 0 min 0,000 mm 0,0 UV-I 0 W/m² 4,6 °C 6,3 °C 0,0 km/h (0 Bft)
24.10.2017 20:11 6,2 °C 6,3 °C 89 % 1026,5 hPa 0,0 mm 0,0 km/h (0 Bft) S-SW 208 ° 0 min 0,000 mm 0,0 UV-I 0 W/m² 4,5 °C 6,2 °C 0,0 km/h (0 Bft)
24.10.2017 20:12 6,1 °C 6,2 °C 89 % 1026,6 hPa 0,0 mm 0,0 km/h (0 Bft) S-SW 208 ° 0 min 0,000 mm 0,0 UV-I 0 W/m² 4,4 °C 6,1 °C 0,0 km/h (0 Bft)
24.10.2017 20:13 6,1 °C 6,1 °C 89 % 1026,5 hPa 0,0 mm 0,0 km/h (0 Bft) S-SW 208 ° 0 min 0,000 mm 0,0 UV-I 0 W/m² 4,4 °C 6,1 °C 0,0 km/h (0 Bft)
24.10.2017 20:14 6,1 °C 6,1 °C 89 % 1026,5 hPa 0,0 mm 0,0 km/h (0 Bft) S-SW 208 ° 0 min 0,000 mm 0,0 UV-I 0 W/m² 4,4 °C 6,1 °C 0,0 km/h (0 Bft)
24.10.2017 20:15 6,1 °C 6,1 °C 90 % 1026,5 hPa 0,0 mm 0,0 km/h (0 Bft) S-SW 208 ° 0 min 0,000 mm 0,0 UV-I 0 W/m² 4,6 °C 6,1 °C 0,0 km/h (0 Bft)
24.10.2017 20:16 6,1 °C 6,1 °C 89 % 1026,5 hPa 0,0 mm 0,0 km/h (0 Bft) S-SW 208 ° 0 min 0,000 mm 0,0 UV-I 0 W/m² 4,4 °C 6,1 °C 0,0 km/h (0 Bft)
24.10.2017 20:17 6,1 °C 6,1 °C 89 % 1026,4 hPa 0,0 mm 0,0 km/h (0 Bft) S-SW 208 ° 0 min 0,000 mm 0,0 UV-I 0 W/m² 4,4 °C 6,1 °C 0,0 km/h (0 Bft)
24.10.2017 20:18 6,1 °C 6,1 °C 90 % 1026,5 hPa 0,0 mm 0,0 km/h (0 Bft) S-SW 208 ° 0 min 0,000 mm 0,0 UV-I 0 W/m² 4,6 °C 6,1 °C 0,0 km/h (0 Bft)
24.10.2017 20:19 6,1 °C 6,1 °C 90 % 1026,5 hPa 0,0 mm 0,0 km/h (0 Bft) S-SW 208 ° 0 min 0,000 mm 0,0 UV-I 0 W/m² 4,6 °C 6,1 °C 0,0 km/h (0 Bft)
24.10.2017 20:21 6,1 °C 6,1 °C 89 % 1026,5 hPa 0,0 mm 0,0 km/h (0 Bft) S-SW 208 ° 0 min 0,000 mm 0,0 UV-I 0 W/m² 4,4 °C 6,1 °C 0,0 km/h (0 Bft)
24.10.2017 20:22 6,1 °C 6,1 °C 89 % 1026,5 hPa 0,0 mm 0,0 km/h (0 Bft) S-SW 208 ° 0 min 0,000 mm 0,0 UV-I 0 W/m² 4,4 °C 6,1 °C 0,0 km/h (0 Bft)
24.10.2017 20:23 6,1 °C 6,1 °C 90 % 1026,5 hPa 0,0 mm 0,0 km/h (0 Bft) S-SW 208 ° 0 min 0,000 mm 0,0 UV-I 0 W/m² 4,6 °C 6,1 °C 0,0 km/h (0 Bft)
24.10.2017 20:24 6,1 °C 6,1 °C 90 % 1026,5 hPa 0,0 mm 0,0 km/h (0 Bft) S-SW 208 ° 0 min 0,000 mm 0,0 UV-I 0 W/m² 4,6 °C 6,1 °C 0,0 km/h (0 Bft)
24.10.2017 20:25 6,1 °C 6,1 °C 90 % 1026,5 hPa 0,0 mm 0,0 km/h (0 Bft) S-SW 208 ° 0 min 0,000 mm 0,0 UV-I 0 W/m² 4,6 °C 6,1 °C 0,0 km/h (0 Bft)
24.10.2017 20:26 6,1 °C 6,1 °C 89 % 1026,4 hPa 0,0 mm 0,0 km/h (0 Bft) S-SW 208 ° 0 min 0,000 mm 0,0 UV-I 0 W/m² 4,4 °C 6,1 °C 0,0 km/h (0 Bft)
24.10.2017 20:27 6,1 °C 6,1 °C 89 % 1026,5 hPa 0,0 mm 0,0 km/h (0 Bft) S-SW 208 ° 0 min 0,000 mm 0,0 UV-I 0 W/m² 4,4 °C 6,1 °C 0,0 km/h (0 Bft)
24.10.2017 20:28 6,1 °C 6,1 °C 89 % 1026,5 hPa 0,0 mm 0,5 km/h (0 Bft) S-SW 208 ° 0 min 0,000 mm 0,0 UV-I 0 W/m² 4,4 °C 6,1 °C 1,6 km/h (1 Bft)
24.10.2017 20:29 6,0 °C 6,1 °C 88 % 1026,5 hPa 0,0 mm 0,0 km/h (0 Bft) S-SW 208 ° 0 min 0,000 mm 0,0 UV-I 0 W/m² 4,2 °C 6,0 °C 0,0 km/h (0 Bft)
24.10.2017 20:30 6,0 °C 6,0 °C 88 % 1026,5 hPa 0,0 mm 0,0 km/h (0 Bft) S-SW 208 ° 0 min 0,000 mm 0,0 UV-I 0 W/m² 4,2 °C 6,0 °C 0,0 km/h (0 Bft)
24.10.2017 20:31 5,9 °C 6,0 °C 88 % 1026,5 hPa 0,0 mm 0,0 km/h (0 Bft) S-SW 208 ° 0 min 0,000 mm 0,0 UV-I 0 W/m² 4,1 °C 5,9 °C 0,0 km/h (0 Bft)
24.10.2017 20:32 5,9 °C 5,9 °C 88 % 1026,5 hPa 0,0 mm 0,0 km/h (0 Bft) S-SW 208 ° 0 min 0,000 mm 0,0 UV-I 0 W/m² 4,1 °C 5,9 °C 0,0 km/h (0 Bft)
24.10.2017 20:33 5,9 °C 5,9 °C 88 % 1026,5 hPa 0,0 mm 0,0 km/h (0 Bft) S-SW 208 ° 0 min 0,000 mm 0,0 UV-I 0 W/m² 4,1 °C 5,9 °C 0,0 km/h (0 Bft)
24.10.2017 20:34 5,9 °C 5,9 °C 88 % 1026,5 hPa 0,0 mm 0,0 km/h (0 Bft) S-SW 208 ° 0 min 0,000 mm 0,0 UV-I 0 W/m² 4,1 °C 5,9 °C 0,0 km/h (0 Bft)
24.10.2017 20:35 5,9 °C 5,9 °C 88 % 1026,5 hPa 0,0 mm 0,0 km/h (0 Bft) S-SW 208 ° 0 min 0,000 mm 0,0 UV-I 0 W/m² 4,1 °C 5,9 °C 0,0 km/h (0 Bft)
24.10.2017 20:36 5,8 °C 5,9 °C 88 % 1026,5 hPa 0,0 mm 0,0 km/h (0 Bft) S-SW 208 ° 0 min 0,000 mm 0,0 UV-I 0 W/m² 4,0 °C 5,8 °C 0,0 km/h (0 Bft)
24.10.2017 20:37 5,8 °C 5,8 °C 88 % 1026,6 hPa 0,0 mm 0,0 km/h (0 Bft) S-SW 208 ° 0 min 0,000 mm 0,0 UV-I 0 W/m² 4,0 °C 5,8 °C 0,0 km/h (0 Bft)
24.10.2017 20:38 5,8 °C 5,8 °C 88 % 1026,5 hPa 0,0 mm 0,0 km/h (0 Bft) S-SW 208 ° 0 min 0,000 mm 0,0 UV-I 0 W/m² 4,0 °C 5,8 °C 0,0 km/h (0 Bft)
24.10.2017 20:39 5,8 °C 5,8 °C 88 % 1026,6 hPa 0,0 mm 0,0 km/h (0 Bft) S-SW 208 ° 0 min 0,000 mm 0,0 UV-I 0 W/m² 4,0 °C 5,8 °C 0,0 km/h (0 Bft)
24.10.2017 20:40 5,7 °C 5,8 °C 88 % 1026,5 hPa 0,0 mm 0,0 km/h (0 Bft) S-SW 208 ° 0 min 0,000 mm 0,0 UV-I 0 W/m² 3,9 °C 5,7 °C 0,0 km/h (0 Bft)
24.10.2017 20:41 5,7 °C 5,8 °C 88 % 1026,6 hPa 0,0 mm 0,0 km/h (0 Bft) S-SW 208 ° 0 min 0,000 mm 0,0 UV-I 0 W/m² 3,9 °C 5,7 °C 0,0 km/h (0 Bft)
24.10.2017 20:42 5,7 °C 5,8 °C 89 % 1026,5 hPa 0,0 mm 0,0 km/h (0 Bft) S-SW 208 ° 0 min 0,000 mm 0,0 UV-I 0 W/m² 4,0 °C 5,7 °C 0,0 km/h (0 Bft)
24.10.2017 20:43 5,7 °C 5,8 °C 88 % 1026,6 hPa 0,0 mm 0,0 km/h (0 Bft) S-SW 208 ° 0 min 0,000 mm 0,0 UV-I 0 W/m² 3,9 °C 5,7 °C 0,0 km/h (0 Bft)
24.10.2017 20:44 5,7 °C 5,7 °C 89 % 1026,5 hPa 0,0 mm 0,0 km/h (0 Bft) S-SW 208 ° 0 min 0,000 mm 0,0 UV-I 0 W/m² 4,0 °C 5,7 °C 0,0 km/h (0 Bft)
24.10.2017 20:45 5,7 °C 5,7 °C 89 % 1026,5 hPa 0,0 mm 0,0 km/h (0 Bft) S-SW 208 ° 0 min 0,000 mm 0,0 UV-I 0 W/m² 4,0 °C 5,7 °C 0,0 km/h (0 Bft)
24.10.2017 20:46 5,7 °C 5,7 °C 89 % 1026,5 hPa 0,0 mm 0,0 km/h (0 Bft) S-SW 208 ° 0 min 0,000 mm 0,0 UV-I 0 W/m² 4,0 °C 5,7 °C 0,0 km/h (0 Bft)
24.10.2017 20:47 5,7 °C 5,7 °C 89 % 1026,5 hPa 0,0 mm 0,0 km/h (0 Bft) S-SW 208 ° 0 min 0,000 mm 0,0 UV-I 0 W/m² 4,0 °C 5,7 °C 0,0 km/h (0 Bft)
24.10.2017 20:48 5,6 °C 5,7 °C 88 % 1026,5 hPa 0,0 mm 0,0 km/h (0 Bft) S-SW 208 ° 0 min 0,000 mm 0,0 UV-I 0 W/m² 3,8 °C 5,6 °C 0,0 km/h (0 Bft)
24.10.2017 20:50 5,4 °C 5,6 °C 89 % 1026,4 hPa 0,0 mm 0,0 km/h (0 Bft) S-SW 208 ° 0 min 0,000 mm 0,0 UV-I 0 W/m² 3,7 °C 5,4 °C 0,0 km/h (0 Bft)
24.10.2017 20:51 5,4 °C 5,4 °C 89 % 1026,4 hPa 0,0 mm 0,0 km/h (0 Bft) S-SW 208 ° 0 min 0,000 mm 0,0 UV-I 0 W/m² 3,7 °C 5,4 °C 0,0 km/h (0 Bft)
24.10.2017 20:52 5,4 °C 5,4 °C 90 % 1026,4 hPa 0,0 mm 0,0 km/h (0 Bft) S-SW 208 ° 0 min 0,000 mm 0,0 UV-I 0 W/m² 3,9 °C 5,4 °C 0,0 km/h (0 Bft)
24.10.2017 20:53 5,4 °C 5,4 °C 90 % 1026,4 hPa 0,0 mm 0,0 km/h (0 Bft) S-SW 208 ° 0 min 0,000 mm 0,0 UV-I 0 W/m² 3,9 °C 5,4 °C 0,0 km/h (0 Bft)
24.10.2017 20:54 5,4 °C 5,4 °C 90 % 1026,4 hPa 0,0 mm 0,0 km/h (0 Bft) S-SW 208 ° 0 min 0,000 mm 0,0 UV-I 0 W/m² 3,9 °C 5,4 °C 0,0 km/h (0 Bft)
24.10.2017 20:55 5,4 °C 5,4 °C 89 % 1026,5 hPa 0,0 mm 0,0 km/h (0 Bft) S-SW 208 ° 0 min 0,000 mm 0,0 UV-I 0 W/m² 3,7 °C 5,4 °C 0,0 km/h (0 Bft)
24.10.2017 20:56 5,4 °C 5,4 °C 89 % 1026,5 hPa 0,0 mm 0,0 km/h (0 Bft) S-SW 208 ° 0 min 0,000 mm 0,0 UV-I 0 W/m² 3,7 °C 5,4 °C 0,0 km/h (0 Bft)
24.10.2017 20:57 5,3 °C 5,4 °C 89 % 1026,5 hPa 0,0 mm 0,0 km/h (0 Bft) S-SW 208 ° 0 min 0,000 mm 0,0 UV-I 0 W/m² 3,6 °C 5,3 °C 0,0 km/h (0 Bft)
24.10.2017 20:58 5,3 °C 5,3 °C 89 % 1026,5 hPa 0,0 mm 0,0 km/h (0 Bft) S-SW 208 ° 0 min 0,000 mm 0,0 UV-I 0 W/m² 3,6 °C 5,3 °C 0,0 km/h (0 Bft)
24.10.2017 20:59 5,3 °C 5,3 °C 90 % 1026,5 hPa 0,0 mm 0,0 km/h (0 Bft) S-SW 208 ° 0 min 0,000 mm 0,0 UV-I 0 W/m² 3,8 °C 5,3 °C 0,0 km/h (0 Bft)
24.10.2017 21:00 5,3 °C 5,3 °C 90 % 1026,5 hPa 0,0 mm 0,0 km/h (0 Bft) S-SW 208 ° 0 min 0,000 mm 0,0 UV-I 0 W/m² 3,8 °C 5,3 °C 0,0 km/h (0 Bft)
24.10.2017 21:01 5,3 °C 5,3 °C 90 % 1026,5 hPa 0,0 mm 0,0 km/h (0 Bft) S-SW 208 ° 0 min 0,000 mm 0,0 UV-I 0 W/m² 3,8 °C 5,3 °C 0,0 km/h (0 Bft)
24.10.2017 21:02 5,3 °C 5,3 °C 90 % 1026,5 hPa 0,0 mm 0,0 km/h (0 Bft) S-SW 208 ° 0 min 0,000 mm 0,0 UV-I 0 W/m² 3,8 °C 5,3 °C 0,0 km/h (0 Bft)
24.10.2017 21:03 5,4 °C 5,4 °C 90 % 1026,5 hPa 0,0 mm 0,0 km/h (0 Bft) S-SW 208 ° 0 min 0,000 mm 0,0 UV-I 0 W/m² 3,9 °C 5,4 °C 0,0 km/h (0 Bft)
24.10.2017 21:04 5,4 °C 5,4 °C 90 % 1026,5 hPa 0,0 mm 0,0 km/h (0 Bft) S-SW 208 ° 0 min 0,000 mm 0,0 UV-I 0 W/m² 3,9 °C 5,4 °C 0,0 km/h (0 Bft)
24.10.2017 21:05 5,4 °C 5,4 °C 89 % 1026,5 hPa 0,0 mm 0,0 km/h (0 Bft) S-SW 208 ° 0 min 0,000 mm 0,0 UV-I 0 W/m² 3,7 °C 5,4 °C 0,0 km/h (0 Bft)
24.10.2017 21:06 5,4 °C 5,4 °C 90 % 1026,5 hPa 0,0 mm 0,0 km/h (0 Bft) S-SW 208 ° 0 min 0,000 mm 0,0 UV-I 0 W/m² 3,9 °C 5,4 °C 0,0 km/h (0 Bft)
24.10.2017 21:07 5,4 °C 5,4 °C 90 % 1026,5 hPa 0,0 mm 0,0 km/h (0 Bft) S-SW 208 ° 0 min 0,000 mm 0,0 UV-I 0 W/m² 3,9 °C 5,4 °C 0,0 km/h (0 Bft)
24.10.2017 21:08 5,4 °C 5,4 °C 90 % 1026,5 hPa 0,0 mm 0,0 km/h (0 Bft) S-SW 208 ° 0 min 0,000 mm 0,0 UV-I 0 W/m² 3,9 °C 5,4 °C 0,0 km/h (0 Bft)
24.10.2017 21:09 5,4 °C 5,4 °C 90 % 1026,5 hPa 0,0 mm 0,0 km/h (0 Bft) S-SW 208 ° 0 min 0,000 mm 0,0 UV-I 0 W/m² 3,9 °C 5,4 °C 0,0 km/h (0 Bft)
24.10.2017 21:10 5,5 °C 5,5 °C 89 % 1026,5 hPa 0,0 mm 0,0 km/h (0 Bft) S-SW 208 ° 0 min 0,000 mm 0,0 UV-I 0 W/m² 3,8 °C 5,5 °C 0,0 km/h (0 Bft)
24.10.2017 21:11 5,5 °C 5,5 °C 89 % 1026,5 hPa 0,0 mm 0,0 km/h (0 Bft) S-SW 208 ° 0 min 0,000 mm 0,0 UV-I 0 W/m² 3,8 °C 5,5 °C 0,0 km/h (0 Bft)
24.10.2017 21:12 5,5 °C 5,6 °C 89 % 1026,5 hPa 0,0 mm 0,0 km/h (0 Bft) S-SW 208 ° 0 min 0,000 mm 0,0 UV-I 0 W/m² 3,8 °C 5,5 °C 0,0 km/h (0 Bft)
24.10.2017 21:13 5,5 °C 5,6 °C 89 % 1026,5 hPa 0,0 mm 0,0 km/h (0 Bft) S-SW 208 ° 0 min 0,000 mm 0,0 UV-I 0 W/m² 3,8 °C 5,5 °C 0,0 km/h (0 Bft)
24.10.2017 21:14 5,6 °C 5,6 °C 89 % 1026,6 hPa 0,0 mm 0,0 km/h (0 Bft) S-SW 208 ° 0 min 0,000 mm 0,0 UV-I 0 W/m² 3,9 °C 5,6 °C 0,0 km/h (0 Bft)
24.10.2017 21:15 5,6 °C 5,7 °C 89 % 1026,5 hPa 0,0 mm 0,0 km/h (0 Bft) S-SW 208 ° 0 min 0,000 mm 0,0 UV-I 0 W/m² 3,9 °C 5,6 °C 0,0 km/h (0 Bft)
24.10.2017 21:16 5,6 °C 5,6 °C 89 % 1026,5 hPa 0,0 mm 0,0 km/h (0 Bft) S-SW 208 ° 0 min 0,000 mm 0,0 UV-I 0 W/m² 3,9 °C 5,6 °C 0,0 km/h (0 Bft)
24.10.2017 21:17 5,6 °C 5,6 °C 88 % 1026,5 hPa 0,0 mm 0,0 km/h (0 Bft) S-SW 208 ° 0 min 0,000 mm 0,0 UV-I 0 W/m² 3,8 °C 5,6 °C 0,0 km/h (0 Bft)
24.10.2017 21:18 5,4 °C 5,6 °C 88 % 1026,5 hPa 0,0 mm 0,0 km/h (0 Bft) S-SW 208 ° 0 min 0,000 mm 0,0 UV-I 0 W/m² 3,6 °C 5,4 °C 0,0 km/h (0 Bft)
24.10.2017 21:19 5,4 °C 5,4 °C 88 % 1026,4 hPa 0,0 mm 0,0 km/h (0 Bft) S-SW 208 ° 0 min 0,000 mm 0,0 UV-I 0 W/m² 3,6 °C 5,4 °C 0,0 km/h (0 Bft)
24.10.2017 21:20 5,3 °C 5,4 °C 89 % 1026,4 hPa 0,0 mm 0,0 km/h (0 Bft) S-SW 208 ° 0 min 0,000 mm 0,0 UV-I 0 W/m² 3,6 °C 5,3 °C 0,0 km/h (0 Bft)
24.10.2017 21:21 5,3 °C 5,3 °C 89 % 1026,4 hPa 0,0 mm 0,0 km/h (0 Bft) S-SW 208 ° 0 min 0,000 mm 0,0 UV-I 0 W/m² 3,6 °C 5,3 °C 0,0 km/h (0 Bft)
24.10.2017 21:22 5,2 °C 5,3 °C 88 % 1026,4 hPa 0,0 mm 0,0 km/h (0 Bft) S-SW 208 ° 0 min 0,000 mm 0,0 UV-I 0 W/m² 3,4 °C 5,2 °C 0,0 km/h (0 Bft)
24.10.2017 21:23 5,1 °C 5,2 °C 89 % 1026,4 hPa 0,0 mm 0,0 km/h (0 Bft) S-SW 208 ° 0 min 0,000 mm 0,0 UV-I 0 W/m² 3,4 °C 5,1 °C 0,0 km/h (0 Bft)
24.10.2017 21:24 5,1 °C 5,1 °C 89 % 1026,4 hPa 0,0 mm 0,0 km/h (0 Bft) S-SW 208 ° 0 min 0,000 mm 0,0 UV-I 0 W/m² 3,4 °C 5,1 °C 0,0 km/h (0 Bft)
24.10.2017 21:25 5,1 °C 5,1 °C 89 % 1026,3 hPa 0,0 mm 0,0 km/h (0 Bft) S-SW 208 ° 0 min 0,000 mm 0,0 UV-I 0 W/m² 3,4 °C 5,1 °C 0,0 km/h (0 Bft)
24.10.2017 21:26 5,1 °C 5,1 °C 89 % 1026,5 hPa 0,0 mm 1,3 km/h (1 Bft) S-SW 209 ° 0 min 0,000 mm 0,0 UV-I 0 W/m² 3,4 °C 5,1 °C 3,2 km/h (1 Bft)
24.10.2017 21:27 5,1 °C 5,1 °C 89 % 1026,5 hPa 0,0 mm 1,1 km/h (1 Bft) S-SW 208 ° 0 min 0,000 mm 0,0 UV-I 0 W/m² 3,4 °C 5,1 °C 3,2 km/h (1 Bft)
24.10.2017 21:28 5,1 °C 5,1 °C 89 % 1026,5 hPa 0,0 mm 0,4 km/h (0 Bft) W 271 ° 0 min 0,000 mm 0,0 UV-I 0 W/m² 3,4 °C 5,1 °C 1,6 km/h (1 Bft)
24.10.2017 21:30 5,1 °C 5,1 °C 89 % 1026,5 hPa 0,0 mm 0,0 km/h (0 Bft) W 271 ° 0 min 0,000 mm 0,0 UV-I 0 W/m² 3,4 °C 5,1 °C 0,0 km/h (0 Bft)
24.10.2017 21:31 5,1 °C 5,1 °C 89 % 1026,5 hPa 0,0 mm 0,0 km/h (0 Bft) W 271 ° 0 min 0,000 mm 0,0 UV-I 0 W/m² 3,4 °C 5,1 °C 0,0 km/h (0 Bft)
24.10.2017 21:32 5,0 °C 5,1 °C 89 % 1026,4 hPa 0,0 mm 0,0 km/h (0 Bft) W 271 ° 0 min 0,000 mm 0,0 UV-I 0 W/m² 3,3 °C 5,0 °C 0,0 km/h (0 Bft)
24.10.2017 21:33 5,0 °C 5,1 °C 89 % 1026,5 hPa 0,0 mm 0,0 km/h (0 Bft) W 271 ° 0 min 0,000 mm 0,0 UV-I 0 W/m² 3,3 °C 5,0 °C 0,0 km/h (0 Bft)
24.10.2017 21:34 5,0 °C 5,0 °C 89 % 1026,5 hPa 0,0 mm 0,0 km/h (0 Bft) W 271 ° 0 min 0,000 mm 0,0 UV-I 0 W/m² 3,3 °C 5,0 °C 0,0 km/h (0 Bft)
24.10.2017 21:35 4,9 °C 5,0 °C 89 % 1026,4 hPa 0,0 mm 0,0 km/h (0 Bft) W 271 ° 0 min 0,000 mm 0,0 UV-I 0 W/m² 3,2 °C 4,9 °C 0,0 km/h (0 Bft)
24.10.2017 21:36 4,9 °C 5,0 °C 89 % 1026,5 hPa 0,0 mm 0,0 km/h (0 Bft) W 271 ° 0 min 0,000 mm 0,0 UV-I 0 W/m² 3,2 °C 4,9 °C 0,0 km/h (0 Bft)
24.10.2017 21:37 4,9 °C 4,9 °C 89 % 1026,5 hPa 0,0 mm 0,0 km/h (0 Bft) W 271 ° 0 min 0,000 mm 0,0 UV-I 0 W/m² 3,2 °C 4,9 °C 0,0 km/h (0 Bft)
24.10.2017 21:38 4,9 °C 4,9 °C 90 % 1026,4 hPa 0,0 mm 0,0 km/h (0 Bft) W 271 ° 0 min 0,000 mm 0,0 UV-I 0 W/m² 3,4 °C 4,9 °C 0,0 km/h (0 Bft)
24.10.2017 21:39 4,9 °C 4,9 °C 90 % 1026,4 hPa 0,0 mm 0,0 km/h (0 Bft) W 271 ° 0 min 0,000 mm 0,0 UV-I 0 W/m² 3,4 °C 4,9 °C 0,0 km/h (0 Bft)
24.10.2017 21:40 4,9 °C 4,9 °C 90 % 1026,4 hPa 0,0 mm 0,0 km/h (0 Bft) W 271 ° 0 min 0,000 mm 0,0 UV-I 0 W/m² 3,4 °C 4,9 °C 0,0 km/h (0 Bft)
24.10.2017 21:41 5,0 °C 5,0 °C 90 % 1026,4 hPa 0,0 mm 0,0 km/h (0 Bft) W 271 ° 0 min 0,000 mm 0,0 UV-I 0 W/m² 3,5 °C 5,0 °C 0,0 km/h (0 Bft)
24.10.2017 21:42 5,1 °C 5,1 °C 90 % 1026,4 hPa 0,0 mm 0,0 km/h (0 Bft) W 271 ° 0 min 0,000 mm 0,0 UV-I 0 W/m² 3,6 °C 5,1 °C 0,0 km/h (0 Bft)
24.10.2017 21:43 5,1 °C 5,1 °C 90 % 1026,4 hPa 0,0 mm 0,0 km/h (0 Bft) W 271 ° 0 min 0,000 mm 0,0 UV-I 0 W/m² 3,6 °C 5,1 °C 0,0 km/h (0 Bft)
24.10.2017 21:44 5,2 °C 5,2 °C 90 % 1026,4 hPa 0,0 mm 0,0 km/h (0 Bft) W 271 ° 0 min 0,000 mm 0,0 UV-I 0 W/m² 3,7 °C 5,2 °C 0,0 km/h (0 Bft)
24.10.2017 21:46 5,3 °C 5,3 °C 90 % 1026,3 hPa 0,0 mm 0,0 km/h (0 Bft) W 271 ° 0 min 0,000 mm 0,0 UV-I 0 W/m² 3,8 °C 5,3 °C 0,0 km/h (0 Bft)
24.10.2017 21:47 5,3 °C 5,3 °C 89 % 1026,3 hPa 0,0 mm 0,0 km/h (0 Bft) W 271 ° 0 min 0,000 mm 0,0 UV-I 0 W/m² 3,6 °C 5,3 °C 0,0 km/h (0 Bft)
24.10.2017 21:48 5,3 °C 5,4 °C 89 % 1026,3 hPa 0,0 mm 0,0 km/h (0 Bft) W 271 ° 0 min 0,000 mm 0,0 UV-I 0 W/m² 3,6 °C 5,3 °C 0,0 km/h (0 Bft)
24.10.2017 21:49 5,4 °C 5,4 °C 89 % 1026,2 hPa 0,0 mm 0,0 km/h (0 Bft) W 271 ° 0 min 0,000 mm 0,0 UV-I 0 W/m² 3,7 °C 5,4 °C 0,0 km/h (0 Bft)
24.10.2017 21:50 5,4 °C 5,4 °C 89 % 1026,3 hPa 0,0 mm 0,0 km/h (0 Bft) W 271 ° 0 min 0,000 mm 0,0 UV-I 0 W/m² 3,7 °C 5,4 °C 0,0 km/h (0 Bft)
24.10.2017 21:51 5,3 °C 5,4 °C 88 % 1026,2 hPa 0,0 mm 0,0 km/h (0 Bft) W 271 ° 0 min 0,000 mm 0,0 UV-I 0 W/m² 3,5 °C 5,3 °C 0,0 km/h (0 Bft)
24.10.2017 21:52 5,3 °C 5,3 °C 88 % 1026,3 hPa 0,0 mm 0,0 km/h (0 Bft) W 271 ° 0 min 0,000 mm 0,0 UV-I 0 W/m² 3,5 °C 5,3 °C 0,0 km/h (0 Bft)
24.10.2017 21:53 5,3 °C 5,3 °C 88 % 1026,3 hPa 0,0 mm 0,0 km/h (0 Bft) W 271 ° 0 min 0,000 mm 0,0 UV-I 0 W/m² 3,5 °C 5,3 °C 0,0 km/h (0 Bft)
24.10.2017 21:54 5,2 °C 5,3 °C 88 % 1026,3 hPa 0,0 mm 0,0 km/h (0 Bft) W 271 ° 0 min 0,000 mm 0,0 UV-I 0 W/m² 3,4 °C 5,2 °C 0,0 km/h (0 Bft)
24.10.2017 21:55 5,1 °C 5,2 °C 88 % 1026,3 hPa 0,0 mm 0,0 km/h (0 Bft) W 271 ° 0 min 0,000 mm 0,0 UV-I 0 W/m² 3,3 °C 5,1 °C 0,0 km/h (0 Bft)
24.10.2017 21:56 5,0 °C 5,1 °C 88 % 1026,3 hPa 0,0 mm 0,0 km/h (0 Bft) W 271 ° 0 min 0,000 mm 0,0 UV-I 0 W/m² 3,2 °C 5,0 °C 0,0 km/h (0 Bft)
24.10.2017 21:57 4,9 °C 5,0 °C 89 % 1026,3 hPa 0,0 mm 0,1 km/h (0 Bft) W 271 ° 0 min 0,000 mm 0,0 UV-I 0 W/m² 3,2 °C 4,9 °C 1,6 km/h (1 Bft)
24.10.2017 21:58 4,9 °C 4,9 °C 89 % 1026,4 hPa 0,0 mm 0,8 km/h (0 Bft) W 271 ° 0 min 0,000 mm 0,0 UV-I 0 W/m² 3,2 °C 4,9 °C 3,2 km/h (1 Bft)
24.10.2017 21:59 4,9 °C 4,9 °C 90 % 1026,4 hPa 0,0 mm 0,0 km/h (0 Bft) W 271 ° 0 min 0,000 mm 0,0 UV-I 0 W/m² 3,4 °C 4,9 °C 0,0 km/h (0 Bft)
24.10.2017 22:00 4,9 °C 5,0 °C 89 % 1026,4 hPa 0,0 mm 1,0 km/h (0 Bft) W 271 ° 0 min 0,000 mm 0,0 UV-I 0 W/m² 3,2 °C 4,9 °C 3,2 km/h (1 Bft)
24.10.2017 22:01 4,9 °C 5,0 °C 89 % 1026,4 hPa 0,0 mm 0,0 km/h (0 Bft) W 271 ° 0 min 0,000 mm 0,0 UV-I 0 W/m² 3,2 °C 4,9 °C 0,0 km/h (0 Bft)
24.10.2017 22:02 5,0 °C 5,0 °C 89 % 1026,4 hPa 0,0 mm 0,0 km/h (0 Bft) W 271 ° 0 min 0,000 mm 0,0 UV-I 0 W/m² 3,3 °C 5,0 °C 0,0 km/h (0 Bft)
24.10.2017 22:03 5,1 °C 5,1 °C 89 % 1026,4 hPa 0,0 mm 0,0 km/h (0 Bft) W 271 ° 0 min 0,000 mm 0,0 UV-I 0 W/m² 3,4 °C 5,1 °C 0,0 km/h (0 Bft)
24.10.2017 22:04 5,2 °C 5,2 °C 90 % 1026,4 hPa 0,0 mm 0,0 km/h (0 Bft) W 271 ° 0 min 0,000 mm 0,0 UV-I 0 W/m² 3,7 °C 5,2 °C 0,0 km/h (0 Bft)
24.10.2017 22:05 5,2 °C 5,3 °C 89 % 1026,4 hPa 0,0 mm 0,0 km/h (0 Bft) W 271 ° 0 min 0,000 mm 0,0 UV-I 0 W/m² 3,5 °C 5,2 °C 0,0 km/h (0 Bft)
24.10.2017 22:06 5,2 °C 5,3 °C 88 % 1026,4 hPa 0,0 mm 0,0 km/h (0 Bft) W 271 ° 0 min 0,000 mm 0,0 UV-I 0 W/m² 3,4 °C 5,2 °C 0,0 km/h (0 Bft)
24.10.2017 22:07 5,2 °C 5,2 °C 88 % 1026,4 hPa 0,0 mm 0,0 km/h (0 Bft) W 271 ° 0 min 0,000 mm 0,0 UV-I 0 W/m² 3,4 °C 5,2 °C 0,0 km/h (0 Bft)
24.10.2017 22:08 5,1 °C 5,2 °C 88 % 1026,4 hPa 0,0 mm 0,0 km/h (0 Bft) W 271 ° 0 min 0,000 mm 0,0 UV-I 0 W/m² 3,3 °C 5,1 °C 0,0 km/h (0 Bft)
24.10.2017 22:09 5,1 °C 5,1 °C 89 % 1026,4 hPa 0,0 mm 0,0 km/h (0 Bft) W 271 ° 0 min 0,000 mm 0,0 UV-I 0 W/m² 3,4 °C 5,1 °C 0,0 km/h (0 Bft)
24.10.2017 22:10 5,1 °C 5,1 °C 89 % 1026,4 hPa 0,0 mm 0,0 km/h (0 Bft) W 271 ° 0 min 0,000 mm 0,0 UV-I 0 W/m² 3,4 °C 5,1 °C 0,0 km/h (0 Bft)
24.10.2017 22:11 5,1 °C 5,1 °C 89 % 1026,4 hPa 0,0 mm 0,0 km/h (0 Bft) W 271 ° 0 min 0,000 mm 0,0 UV-I 0 W/m² 3,4 °C 5,1 °C 0,0 km/h (0 Bft)
24.10.2017 22:12 5,1 °C 5,1 °C 89 % 1026,4 hPa 0,0 mm 0,0 km/h (0 Bft) W 271 ° 0 min 0,000 mm 0,0 UV-I 0 W/m² 3,4 °C 5,1 °C 0,0 km/h (0 Bft)
24.10.2017 22:13 5,2 °C 5,2 °C 89 % 1026,4 hPa 0,0 mm 0,0 km/h (0 Bft) W 271 ° 0 min 0,000 mm 0,0 UV-I 0 W/m² 3,5 °C 5,2 °C 0,0 km/h (0 Bft)
24.10.2017 22:14 5,2 °C 5,2 °C 89 % 1026,4 hPa 0,0 mm 0,0 km/h (0 Bft) W 271 ° 0 min 0,000 mm 0,0 UV-I 0 W/m² 3,5 °C 5,2 °C 0,0 km/h (0 Bft)
24.10.2017 22:16 5,1 °C 5,2 °C 89 % 1026,4 hPa 0,0 mm 0,0 km/h (0 Bft) W 271 ° 0 min 0,000 mm 0,0 UV-I 0 W/m² 3,4 °C 5,1 °C 0,0 km/h (0 Bft)
24.10.2017 22:17 5,1 °C 5,1 °C 89 % 1026,4 hPa 0,0 mm 0,0 km/h (0 Bft) W 271 ° 0 min 0,000 mm 0,0 UV-I 0 W/m² 3,4 °C 5,1 °C 0,0 km/h (0 Bft)
24.10.2017 22:18 5,1 °C 5,1 °C 89 % 1026,4 hPa 0,0 mm 0,0 km/h (0 Bft) W 271 ° 0 min 0,000 mm 0,0 UV-I 0 W/m² 3,4 °C 5,1 °C 0,0 km/h (0 Bft)
24.10.2017 22:19 5,1 °C 5,1 °C 89 % 1026,4 hPa 0,0 mm 0,0 km/h (0 Bft) W 271 ° 0 min 0,000 mm 0,0 UV-I 0 W/m² 3,4 °C 5,1 °C 0,0 km/h (0 Bft)
24.10.2017 22:20 5,1 °C 5,1 °C 89 % 1026,4 hPa 0,0 mm 0,0 km/h (0 Bft) W 271 ° 0 min 0,000 mm 0,0 UV-I 0 W/m² 3,4 °C 5,1 °C 0,0 km/h (0 Bft)
24.10.2017 22:21 5,1 °C 5,1 °C 89 % 1026,4 hPa 0,0 mm 0,0 km/h (0 Bft) W 270 ° 0 min 0,000 mm 0,0 UV-I 0 W/m² 3,4 °C 5,1 °C 0,0 km/h (0 Bft)
24.10.2017 22:22 5,2 °C 5,2 °C 89 % 1026,4 hPa 0,0 mm 0,0 km/h (0 Bft) W 270 ° 0 min 0,000 mm 0,0 UV-I 0 W/m² 3,5 °C 5,2 °C 0,0 km/h (0 Bft)
24.10.2017 22:23 5,2 °C 5,2 °C 89 % 1026,4 hPa 0,0 mm 0,1 km/h (0 Bft) W 270 ° 0 min 0,000 mm 0,0 UV-I 0 W/m² 3,5 °C 5,2 °C 1,6 km/h (1 Bft)
24.10.2017 22:24 5,2 °C 5,3 °C 89 % 1026,4 hPa 0,0 mm 0,0 km/h (0 Bft) W 270 ° 0 min 0,000 mm 0,0 UV-I 0 W/m² 3,5 °C 5,2 °C 0,0 km/h (0 Bft)
24.10.2017 22:25 5,2 °C 5,2 °C 89 % 1026,4 hPa 0,0 mm 0,1 km/h (0 Bft) W 270 ° 0 min 0,000 mm 0,0 UV-I 0 W/m² 3,5 °C 5,2 °C 1,6 km/h (1 Bft)
24.10.2017 22:26 5,2 °C 5,2 °C 89 % 1026,4 hPa 0,0 mm 0,0 km/h (0 Bft) W 270 ° 0 min 0,000 mm 0,0 UV-I 0 W/m² 3,5 °C 5,2 °C 0,0 km/h (0 Bft)
24.10.2017 22:27 5,2 °C 5,2 °C 89 % 1026,4 hPa 0,0 mm 0,0 km/h (0 Bft) W 270 ° 0 min 0,000 mm 0,0 UV-I 0 W/m² 3,5 °C 5,2 °C 0,0 km/h (0 Bft)
24.10.2017 22:28 5,3 °C 5,3 °C 89 % 1026,4 hPa 0,0 mm 0,0 km/h (0 Bft) W 270 ° 0 min 0,000 mm 0,0 UV-I 0 W/m² 3,6 °C 5,3 °C 0,0 km/h (0 Bft)
24.10.2017 22:29 5,3 °C 5,3 °C 89 % 1026,5 hPa 0,0 mm 0,3 km/h (0 Bft) W 270 ° 0 min 0,000 mm 0,0 UV-I 0 W/m² 3,6 °C 5,3 °C 1,6 km/h (1 Bft)
24.10.2017 22:30 5,3 °C 5,3 °C 89 % 1026,5 hPa 0,0 mm 0,0 km/h (0 Bft) W 270 ° 0 min 0,000 mm 0,0 UV-I 0 W/m² 3,6 °C 5,3 °C 0,0 km/h (0 Bft)
24.10.2017 22:31 5,4 °C 5,4 °C 89 % 1026,4 hPa 0,0 mm 0,0 km/h (0 Bft) W 270 ° 0 min 0,000 mm 0,0 UV-I 0 W/m² 3,7 °C 5,4 °C 0,0 km/h (0 Bft)
24.10.2017 22:32 5,4 °C 5,4 °C 89 % 1026,4 hPa 0,0 mm 0,0 km/h (0 Bft) W 270 ° 0 min 0,000 mm 0,0 UV-I 0 W/m² 3,7 °C 5,4 °C 0,0 km/h (0 Bft)
24.10.2017 22:33 5,5 °C 5,5 °C 88 % 1026,4 hPa 0,0 mm 0,0 km/h (0 Bft) W 270 ° 0 min 0,000 mm 0,0 UV-I 0 W/m² 3,7 °C 5,5 °C 0,0 km/h (0 Bft)
24.10.2017 22:34 5,5 °C 5,5 °C 88 % 1026,4 hPa 0,0 mm 0,0 km/h (0 Bft) W 277 ° 0 min 0,000 mm 0,0 UV-I 0 W/m² 3,7 °C 5,5 °C 0,0 km/h (0 Bft)
24.10.2017 22:35 5,4 °C 5,5 °C 88 % 1026,4 hPa 0,0 mm 0,6 km/h (0 Bft) W 278 ° 0 min 0,000 mm 0,0 UV-I 0 W/m² 3,6 °C 5,4 °C 1,6 km/h (1 Bft)
24.10.2017 22:36 5,4 °C 5,4 °C 88 % 1026,4 hPa 0,0 mm 0,1 km/h (0 Bft) W 278 ° 0 min 0,000 mm 0,0 UV-I 0 W/m² 3,6 °C 5,4 °C 1,6 km/h (1 Bft)
24.10.2017 22:37 5,4 °C 5,4 °C 88 % 1026,4 hPa 0,0 mm 0,0 km/h (0 Bft) W 278 ° 0 min 0,000 mm 0,0 UV-I 0 W/m² 3,6 °C 5,4 °C 0,0 km/h (0 Bft)
24.10.2017 22:38 5,4 °C 5,4 °C 88 % 1026,4 hPa 0,0 mm 0,0 km/h (0 Bft) W 278 ° 0 min 0,000 mm 0,0 UV-I 0 W/m² 3,6 °C 5,4 °C 0,0 km/h (0 Bft)
24.10.2017 22:39 5,4 °C 5,4 °C 88 % 1026,4 hPa 0,0 mm 0,0 km/h (0 Bft) W 278 ° 0 min 0,000 mm 0,0 UV-I 0 W/m² 3,6 °C 5,4 °C 0,0 km/h (0 Bft)
24.10.2017 22:40 5,4 °C 5,4 °C 88 % 1026,4 hPa 0,0 mm 0,0 km/h (0 Bft) W 278 ° 0 min 0,000 mm 0,0 UV-I 0 W/m² 3,6 °C 5,4 °C 0,0 km/h (0 Bft)
24.10.2017 22:41 5,4 °C 5,4 °C 88 % 1026,4 hPa 0,0 mm 0,0 km/h (0 Bft) W 278 ° 0 min 0,000 mm 0,0 UV-I 0 W/m² 3,6 °C 5,4 °C 0,0 km/h (0 Bft)
24.10.2017 22:42 5,4 °C 5,4 °C 88 % 1026,4 hPa 0,0 mm 0,5 km/h (0 Bft) W 278 ° 0 min 0,000 mm 0,0 UV-I 0 W/m² 3,6 °C 5,4 °C 1,6 km/h (1 Bft)
24.10.2017 22:43 5,3 °C 5,4 °C 87 % 1026,4 hPa 0,0 mm 0,5 km/h (0 Bft) W 278 ° 0 min 0,000 mm 0,0 UV-I 0 W/m² 3,3 °C 5,3 °C 1,6 km/h (1 Bft)
24.10.2017 22:44 5,4 °C 5,4 °C 88 % 1026,4 hPa 0,0 mm 0,0 km/h (0 Bft) W 278 ° 0 min 0,000 mm 0,0 UV-I 0 W/m² 3,6 °C 5,4 °C 0,0 km/h (0 Bft)
24.10.2017 22:45 5,4 °C 5,4 °C 88 % 1026,4 hPa 0,0 mm 0,0 km/h (0 Bft) W 278 ° 0 min 0,000 mm 0,0 UV-I 0 W/m² 3,6 °C 5,4 °C 0,0 km/h (0 Bft)
24.10.2017 22:46 5,3 °C 5,4 °C 88 % 1026,4 hPa 0,0 mm 0,0 km/h (0 Bft) W 278 ° 0 min 0,000 mm 0,0 UV-I 0 W/m² 3,5 °C 5,3 °C 0,0 km/h (0 Bft)
24.10.2017 22:47 5,4 °C 5,4 °C 88 % 1026,4 hPa 0,0 mm 0,0 km/h (0 Bft) W 278 ° 0 min 0,000 mm 0,0 UV-I 0 W/m² 3,6 °C 5,4 °C 0,0 km/h (0 Bft)
24.10.2017 22:48 5,4 °C 5,4 °C 89 % 1026,4 hPa 0,0 mm 0,0 km/h (0 Bft) W 278 ° 0 min 0,000 mm 0,0 UV-I 0 W/m² 3,7 °C 5,4 °C 0,0 km/h (0 Bft)
24.10.2017 22:49 5,6 °C 5,6 °C 88 % 1026,4 hPa 0,0 mm 0,0 km/h (0 Bft) W 278 ° 0 min 0,000 mm 0,0 UV-I 0 W/m² 3,8 °C 5,6 °C 0,0 km/h (0 Bft)
24.10.2017 22:50 5,7 °C 5,7 °C 88 % 1026,4 hPa 0,0 mm 0,0 km/h (0 Bft) W 278 ° 0 min 0,000 mm 0,0 UV-I 0 W/m² 3,9 °C 5,7 °C 0,0 km/h (0 Bft)
24.10.2017 22:51 5,7 °C 5,7 °C 87 % 1026,4 hPa 0,0 mm 0,0 km/h (0 Bft) W 278 ° 0 min 0,000 mm 0,0 UV-I 0 W/m² 3,7 °C 5,7 °C 0,0 km/h (0 Bft)
24.10.2017 22:52 5,8 °C 5,8 °C 87 % 1026,4 hPa 0,0 mm 0,0 km/h (0 Bft) W 278 ° 0 min 0,000 mm 0,0 UV-I 0 W/m² 3,8 °C 5,8 °C 0,0 km/h (0 Bft)
24.10.2017 22:53 5,8 °C 5,8 °C 87 % 1026,4 hPa 0,0 mm 0,0 km/h (0 Bft) W 278 ° 0 min 0,000 mm 0,0 UV-I 0 W/m² 3,8 °C 5,8 °C 0,0 km/h (0 Bft)
24.10.2017 22:54 5,8 °C 5,8 °C 86 % 1026,4 hPa 0,0 mm 0,0 km/h (0 Bft) W 278 ° 0 min 0,000 mm 0,0 UV-I 0 W/m² 3,6 °C 5,8 °C 0,0 km/h (0 Bft)
24.10.2017 22:55 5,7 °C 5,8 °C 87 % 1026,3 hPa 0,0 mm 0,4 km/h (0 Bft) W 278 ° 0 min 0,000 mm 0,0 UV-I 0 W/m² 3,7 °C 5,7 °C 1,6 km/h (1 Bft)
24.10.2017 22:56 5,7 °C 5,7 °C 86 % 1026,3 hPa 0,0 mm 0,0 km/h (0 Bft) W 278 ° 0 min 0,000 mm 0,0 UV-I 0 W/m² 3,5 °C 5,7 °C 0,0 km/h (0 Bft)
24.10.2017 22:57 5,7 °C 5,7 °C 87 % 1026,4 hPa 0,0 mm 0,0 km/h (0 Bft) W 278 ° 0 min 0,000 mm 0,0 UV-I 0 W/m² 3,7 °C 5,7 °C 0,0 km/h (0 Bft)
24.10.2017 22:58 5,7 °C 5,7 °C 87 % 1026,3 hPa 0,0 mm 0,0 km/h (0 Bft) W 278 ° 0 min 0,000 mm 0,0 UV-I 0 W/m² 3,7 °C 5,7 °C 0,0 km/h (0 Bft)
24.10.2017 22:59 5,7 °C 5,7 °C 88 % 1026,3 hPa 0,0 mm 0,0 km/h (0 Bft) W 278 ° 0 min 0,000 mm 0,0 UV-I 0 W/m² 3,9 °C 5,7 °C 0,0 km/h (0 Bft)
24.10.2017 23:00 5,7 °C 5,7 °C 88 % 1026,2 hPa 0,0 mm 1,0 km/h (0 Bft) W 279 ° 0 min 0,000 mm 0,0 UV-I 0 W/m² 3,9 °C 5,7 °C 3,2 km/h (1 Bft)
24.10.2017 23:01 5,7 °C 5,7 °C 88 % 1026,2 hPa 0,0 mm 0,0 km/h (0 Bft) W-NW 282 ° 0 min 0,000 mm 0,0 UV-I 0 W/m² 3,9 °C 5,7 °C 0,0 km/h (0 Bft)
24.10.2017 23:02 5,8 °C 5,8 °C 88 % 1026,3 hPa 0,0 mm 0,0 km/h (0 Bft) W-NW 282 ° 0 min 0,000 mm 0,0 UV-I 0 W/m² 4,0 °C 5,8 °C 0,0 km/h (0 Bft)
24.10.2017 23:03 5,8 °C 5,8 °C 88 % 1026,2 hPa 0,0 mm 0,0 km/h (0 Bft) W-NW 282 ° 0 min 0,000 mm 0,0 UV-I 0 W/m² 4,0 °C 5,8 °C 0,0 km/h (0 Bft)
24.10.2017 23:04 5,8 °C 5,8 °C 87 % 1026,2 hPa 0,0 mm 0,0 km/h (0 Bft) W-NW 282 ° 0 min 0,000 mm 0,0 UV-I 0 W/m² 3,8 °C 5,8 °C 0,0 km/h (0 Bft)
24.10.2017 23:05 5,8 °C 5,8 °C 87 % 1026,2 hPa 0,0 mm 0,0 km/h (0 Bft) W-NW 282 ° 0 min 0,000 mm 0,0 UV-I 0 W/m² 3,8 °C 5,8 °C 0,0 km/h (0 Bft)
24.10.2017 23:06 5,8 °C 5,8 °C 87 % 1026,2 hPa 0,0 mm 0,3 km/h (0 Bft) W-NW 282 ° 0 min 0,000 mm 0,0 UV-I 0 W/m² 3,8 °C 5,8 °C 1,6 km/h (1 Bft)
24.10.2017 23:07 5,7 °C 5,8 °C 87 % 1026,1 hPa 0,0 mm 0,6 km/h (0 Bft) W-NW 282 ° 0 min 0,000 mm 0,0 UV-I 0 W/m² 3,7 °C 5,7 °C 3,2 km/h (1 Bft)
24.10.2017 23:08 5,7 °C 5,8 °C 87 % 1026,1 hPa 0,0 mm 0,0 km/h (0 Bft) W-NW 282 ° 0 min 0,000 mm 0,0 UV-I 0 W/m² 3,7 °C 5,7 °C 0,0 km/h (0 Bft)
24.10.2017 23:09 5,8 °C 5,8 °C 87 % 1026,1 hPa 0,0 mm 0,1 km/h (0 Bft) W-NW 282 ° 0 min 0,000 mm 0,0 UV-I 0 W/m² 3,8 °C 5,8 °C 1,6 km/h (1 Bft)
24.10.2017 23:10 5,8 °C 5,8 °C 87 % 1026,2 hPa 0,0 mm 0,0 km/h (0 Bft) W-NW 282 ° 0 min 0,000 mm 0,0 UV-I 0 W/m² 3,8 °C 5,8 °C 0,0 km/h (0 Bft)
24.10.2017 23:11 5,8 °C 5,8 °C 87 % 1026,1 hPa 0,0 mm 0,0 km/h (0 Bft) W-NW 282 ° 0 min 0,000 mm 0,0 UV-I 0 W/m² 3,8 °C 5,8 °C 0,0 km/h (0 Bft)
24.10.2017 23:12 5,8 °C 5,9 °C 87 % 1026,1 hPa 0,0 mm 0,0 km/h (0 Bft) W-NW 282 ° 0 min 0,000 mm 0,0 UV-I 0 W/m² 3,8 °C 5,8 °C 0,0 km/h (0 Bft)
24.10.2017 23:13 5,9 °C 5,9 °C 87 % 1026,1 hPa 0,0 mm 0,0 km/h (0 Bft) W-NW 282 ° 0 min 0,000 mm 0,0 UV-I 0 W/m² 3,9 °C 5,9 °C 0,0 km/h (0 Bft)
24.10.2017 23:14 6,0 °C 6,0 °C 87 % 1026,1 hPa 0,0 mm 0,6 km/h (0 Bft) W-NW 282 ° 0 min 0,000 mm 0,0 UV-I 0 W/m² 4,0 °C 6,0 °C 3,2 km/h (1 Bft)
24.10.2017 23:15 6,0 °C 6,0 °C 86 % 1026,2 hPa 0,0 mm 0,0 km/h (0 Bft) W-NW 282 ° 0 min 0,000 mm 0,0 UV-I 0 W/m² 3,8 °C 6,0 °C 0,0 km/h (0 Bft)
24.10.2017 23:16 6,0 °C 6,1 °C 86 % 1026,1 hPa 0,0 mm 0,2 km/h (0 Bft) W-NW 282 ° 0 min 0,000 mm 0,0 UV-I 0 W/m² 3,8 °C 6,0 °C 1,6 km/h (1 Bft)
24.10.2017 23:17 5,9 °C 6,0 °C 86 % 1026,1 hPa 0,0 mm 0,8 km/h (0 Bft) W-NW 282 ° 0 min 0,000 mm 0,0 UV-I 0 W/m² 3,7 °C 5,9 °C 1,6 km/h (1 Bft)
24.10.2017 23:18 6,0 °C 6,0 °C 87 % 1026,1 hPa 0,0 mm 0,5 km/h (0 Bft) W-NW 282 ° 0 min 0,000 mm 0,0 UV-I 0 W/m² 4,0 °C 6,0 °C 1,6 km/h (1 Bft)
24.10.2017 23:19 6,0 °C 6,1 °C 86 % 1026,1 hPa 0,0 mm 0,0 km/h (0 Bft) W-NW 282 ° 0 min 0,000 mm 0,0 UV-I 0 W/m² 3,8 °C 6,0 °C 0,0 km/h (0 Bft)
24.10.2017 23:20 5,9 °C 6,0 °C 86 % 1026,1 hPa 0,0 mm 0,1 km/h (0 Bft) W-NW 282 ° 0 min 0,000 mm 0,0 UV-I 0 W/m² 3,7 °C 5,9 °C 1,6 km/h (1 Bft)
24.10.2017 23:21 5,9 °C 5,9 °C 86 % 1026,1 hPa 0,0 mm 0,0 km/h (0 Bft) W-NW 282 ° 0 min 0,000 mm 0,0 UV-I 0 W/m² 3,7 °C 5,9 °C 0,0 km/h (0 Bft)
24.10.2017 23:22 5,9 °C 5,9 °C 86 % 1026,0 hPa 0,0 mm 0,0 km/h (0 Bft) W-NW 282 ° 0 min 0,000 mm 0,0 UV-I 0 W/m² 3,7 °C 5,9 °C 0,0 km/h (0 Bft)
24.10.2017 23:23 5,9 °C 5,9 °C 87 % 1026,0 hPa 0,0 mm 0,3 km/h (0 Bft) W-NW 282 ° 0 min 0,000 mm 0,0 UV-I 0 W/m² 3,9 °C 5,9 °C 1,6 km/h (1 Bft)
24.10.2017 23:24 5,9 °C 5,9 °C 86 % 1026,0 hPa 0,0 mm 0,2 km/h (0 Bft) W-NW 282 ° 0 min 0,000 mm 0,0 UV-I 0 W/m² 3,7 °C 5,9 °C 1,6 km/h (1 Bft)
24.10.2017 23:25 5,9 °C 5,9 °C 87 % 1026,0 hPa 0,0 mm 0,6 km/h (0 Bft) W-NW 282 ° 0 min 0,000 mm 0,0 UV-I 0 W/m² 3,9 °C 5,9 °C 3,2 km/h (1 Bft)
24.10.2017 23:26 5,9 °C 6,0 °C 87 % 1026,0 hPa 0,0 mm 0,8 km/h (0 Bft) W-NW 292 ° 0 min 0,000 mm 0,0 UV-I 0 W/m² 3,9 °C 5,9 °C 3,2 km/h (1 Bft)
24.10.2017 23:27 6,1 °C 6,1 °C 87 % 1026,0 hPa 0,0 mm 1,4 km/h (1 Bft) W-NW 302 ° 0 min 0,000 mm 0,0 UV-I 0 W/m² 4,1 °C 6,1 °C 4,8 km/h (1 Bft)
24.10.2017 23:28 6,1 °C 6,1 °C 87 % 1026,0 hPa 0,0 mm 0,0 km/h (0 Bft) W-NW 302 ° 0 min 0,000 mm 0,0 UV-I 0 W/m² 4,1 °C 6,1 °C 0,0 km/h (0 Bft)
24.10.2017 23:29 6,1 °C 6,1 °C 87 % 1026,0 hPa 0,0 mm 1,6 km/h (1 Bft) NW 325 ° 0 min 0,000 mm 0,0 UV-I 0 W/m² 4,1 °C 6,1 °C 3,2 km/h (1 Bft)
24.10.2017 23:30 6,1 °C 6,2 °C 86 % 1025,9 hPa 0,0 mm 3,1 km/h (1 Bft) N 351 ° 0 min 0,000 mm 0,0 UV-I 0 W/m² 3,9 °C 6,1 °C 6,4 km/h (2 Bft)
24.10.2017 23:31 6,1 °C 6,1 °C 86 % 1026,0 hPa 0,0 mm 0,3 km/h (0 Bft) N 355 ° 0 min 0,000 mm 0,0 UV-I 0 W/m² 3,9 °C 6,1 °C 3,2 km/h (1 Bft)
24.10.2017 23:32 6,1 °C 6,2 °C 86 % 1026,0 hPa 0,0 mm 0,0 km/h (0 Bft) N 355 ° 0 min 0,000 mm 0,0 UV-I 0 W/m² 3,9 °C 6,1 °C 0,0 km/h (0 Bft)
24.10.2017 23:33 6,1 °C 6,2 °C 87 % 1026,0 hPa 0,0 mm 1,9 km/h (1 Bft) O-NO 78 ° 0 min 0,000 mm 0,0 UV-I 0 W/m² 4,1 °C 6,1 °C 6,4 km/h (2 Bft)
24.10.2017 23:34 6,1 °C 6,1 °C 87 % 1026,0 hPa 0,0 mm 1,9 km/h (1 Bft) O-NO 78 ° 0 min 0,000 mm 0,0 UV-I 0 W/m² 4,1 °C 6,1 °C 3,2 km/h (1 Bft)
24.10.2017 23:35 6,1 °C 6,1 °C 86 % 1026,0 hPa 0,0 mm 0,6 km/h (0 Bft) O-NO 78 ° 0 min 0,000 mm 0,0 UV-I 0 W/m² 3,9 °C 6,1 °C 1,6 km/h (1 Bft)
24.10.2017 23:36 6,2 °C 6,2 °C 86 % 1026,0 hPa 0,0 mm 0,9 km/h (0 Bft) O-NO 78 ° 0 min 0,000 mm 0,0 UV-I 0 W/m² 4,0 °C 6,2 °C 3,2 km/h (1 Bft)
24.10.2017 23:37 6,2 °C 6,2 °C 86 % 1026,0 hPa 0,0 mm 2,2 km/h (1 Bft) NW 319 ° 0 min 0,000 mm 0,0 UV-I 0 W/m² 4,0 °C 6,2 °C 3,2 km/h (1 Bft)
24.10.2017 23:38 6,1 °C 6,2 °C 86 % 1026,0 hPa 0,0 mm 1,5 km/h (1 Bft) NW 319 ° 0 min 0,000 mm 0,0 UV-I 0 W/m² 3,9 °C 6,1 °C 3,2 km/h (1 Bft)
24.10.2017 23:39 6,1 °C 6,1 °C 86 % 1026,0 hPa 0,0 mm 1,1 km/h (1 Bft) NW 319 ° 0 min 0,000 mm 0,0 UV-I 0 W/m² 3,9 °C 6,1 °C 3,2 km/h (1 Bft)
24.10.2017 23:40 5,9 °C 6,1 °C 86 % 1026,0 hPa 0,0 mm 1,5 km/h (1 Bft) NW 319 ° 0 min 0,000 mm 0,0 UV-I 0 W/m² 3,7 °C 5,9 °C 3,2 km/h (1 Bft)
24.10.2017 23:41 5,9 °C 5,9 °C 87 % 1026,0 hPa 0,0 mm 0,0 km/h (0 Bft) NW 319 ° 0 min 0,000 mm 0,0 UV-I 0 W/m² 3,9 °C 5,9 °C 0,0 km/h (0 Bft)
24.10.2017 23:42 5,9 °C 5,9 °C 87 % 1026,0 hPa 0,0 mm 0,9 km/h (0 Bft) NW 319 ° 0 min 0,000 mm 0,0 UV-I 0 W/m² 3,9 °C 5,9 °C 1,6 km/h (1 Bft)
24.10.2017 23:43 5,9 °C 5,9 °C 87 % 1026,0 hPa 0,0 mm 1,2 km/h (1 Bft) NW 319 ° 0 min 0,000 mm 0,0 UV-I 0 W/m² 3,9 °C 5,9 °C 3,2 km/h (1 Bft)
24.10.2017 23:44 5,9 °C 5,9 °C 87 % 1026,1 hPa 0,0 mm 1,2 km/h (1 Bft) NW 319 ° 0 min 0,000 mm 0,0 UV-I 0 W/m² 3,9 °C 5,9 °C 3,2 km/h (1 Bft)
24.10.2017 23:45 6,0 °C 6,0 °C 87 % 1026,0 hPa 0,0 mm 1,4 km/h (1 Bft) NW 319 ° 0 min 0,000 mm 0,0 UV-I 0 W/m² 4,0 °C 6,0 °C 3,2 km/h (1 Bft)
24.10.2017 23:46 5,9 °C 6,0 °C 86 % 1026,1 hPa 0,0 mm 0,5 km/h (0 Bft) NW 319 ° 0 min 0,000 mm 0,0 UV-I 0 W/m² 3,7 °C 5,9 °C 3,2 km/h (1 Bft)
24.10.2017 23:47 5,9 °C 5,9 °C 86 % 1026,1 hPa 0,0 mm 0,6 km/h (0 Bft) NW 319 ° 0 min 0,000 mm 0,0 UV-I 0 W/m² 3,7 °C 5,9 °C 1,6 km/h (1 Bft)
24.10.2017 23:48 5,9 °C 5,9 °C 87 % 1026,1 hPa 0,0 mm 0,0 km/h (0 Bft) NW 319 ° 0 min 0,000 mm 0,0 UV-I 0 W/m² 3,9 °C 5,9 °C 0,0 km/h (0 Bft)
24.10.2017 23:49 5,9 °C 5,9 °C 87 % 1026,0 hPa 0,0 mm 0,0 km/h (0 Bft) NW 319 ° 0 min 0,000 mm 0,0 UV-I 0 W/m² 3,9 °C 5,9 °C 0,0 km/h (0 Bft)
24.10.2017 23:50 5,9 °C 5,9 °C 87 % 1026,0 hPa 0,0 mm 0,0 km/h (0 Bft) NW 319 ° 0 min 0,000 mm 0,0 UV-I 0 W/m² 3,9 °C 5,9 °C 0,0 km/h (0 Bft)
24.10.2017 23:51 5,9 °C 5,9 °C 87 % 1026,0 hPa 0,0 mm 0,0 km/h (0 Bft) NW 319 ° 0 min 0,000 mm 0,0 UV-I 0 W/m² 3,9 °C 5,9 °C 0,0 km/h (0 Bft)
24.10.2017 23:52 5,9 °C 5,9 °C 86 % 1026,0 hPa 0,0 mm 0,0 km/h (0 Bft) NW 319 ° 0 min 0,000 mm 0,0 UV-I 0 W/m² 3,7 °C 5,9 °C 0,0 km/h (0 Bft)
24.10.2017 23:53 5,8 °C 5,9 °C 85 % 1026,0 hPa 0,0 mm 3,1 km/h (1 Bft) N-NO 19 ° 0 min 0,000 mm 0,0 UV-I 0 W/m² 3,5 °C 5,8 °C 6,4 km/h (2 Bft)
24.10.2017 23:54 5,8 °C 5,8 °C 86 % 1026,0 hPa 0,0 mm 2,1 km/h (1 Bft) N-NO 19 ° 0 min 0,000 mm 0,0 UV-I 0 W/m² 3,6 °C 5,8 °C 3,2 km/h (1 Bft)
24.10.2017 23:55 5,7 °C 5,8 °C 86 % 1026,0 hPa 0,0 mm 1,6 km/h (1 Bft) N-NO 19 ° 0 min 0,000 mm 0,0 UV-I 0 W/m² 3,5 °C 5,7 °C 3,2 km/h (1 Bft)
24.10.2017 23:56 5,7 °C 5,8 °C 86 % 1026,0 hPa 0,0 mm 2,1 km/h (1 Bft) N-NO 19 ° 0 min 0,000 mm 0,0 UV-I 0 W/m² 3,5 °C 5,7 °C 3,2 km/h (1 Bft)
24.10.2017 23:57 5,7 °C 5,7 °C 86 % 1026,0 hPa 0,0 mm 0,2 km/h (0 Bft) N-NO 19 ° 0 min 0,000 mm 0,0 UV-I 0 W/m² 3,5 °C 5,7 °C 1,6 km/h (1 Bft)
24.10.2017 23:58 5,7 °C 5,7 °C 87 % 1026,0 hPa 0,0 mm 0,6 km/h (0 Bft) N-NW 344 ° 0 min 0,000 mm 0,0 UV-I 0 W/m² 3,7 °C 5,7 °C 3,2 km/h (1 Bft)
_ Min-Zeit 07:38 07:38 15:38 00:54 - 23:52 - - - - - - 07:37 00:56 23:52
Minimum _ 3,9 °C 3,9 °C 58 % 1025,4 hPa - 0,0 km/h (0 Bft) - - - - - - 2,9 °C 2,4 °C 0,0 km/h (0 Bft)
_ Max-Zeit 15:51 15:52 09:26 12:13 07:30 00:56 - - 15:14 16:01 12:01 12:03 13:34 15:51 00:56
Maximum _ 13,2 °C 13,2 °C 95 % 1027,6 hPa 0,2 mm 10,7 km/h
W (2 Bft)
- - 2 min 0,178 mm 2,7 UV-I 554 W/m² 6,7 °C 13,2 °C 19,3 km/h
W (3 Bft)
Durchschnitt _ 7,2 °C 7,2 °C 84 % 1026,4 hPa #0,8 mm 1,7 km/h (1 Bft) S-SW - #1:10 h #0,787 mm 1,5 UV-I 61 W/m² 4,5 °C 7,1 °C 3,2 km/h (1 Bft)